<?xml version="1.0" encoding="UTF-8" standalone="no" ?>
<gpx xmlns="http://www.topografix.com/GPX/1/1" xmlns:xsi="http://www.w3.org/2001/XMLSchema-instance" xsi:schemaLocation="http://www.topografix.com/GPX/1/1 http://www.topografix.com/GPX/1/1/gpx.xsd" version="1.1" creator="VisuGPX - https://www.visugpx.com">
  <metadata>
    <name>83 - M - Vidauban </name>
    <desc><![CDATA[83 - M - Vidauban : ste Brigitte - bois Peyloubier - Aille 
2023-02-01]]></desc>
  </metadata>
  <trk>
    <name><![CDATA[Vidauban ste Brigitte bois Peyloubier Aille 2023-02-01-01]]></name>
    <trkseg>
      <trkpt lat="43.42145" lon="6.43644">
        <ele>126</ele>
        <time>2023-02-01T12:54:07Z</time>
      </trkpt>
      <trkpt lat="43.42149" lon="6.43656">
        <ele>118</ele>
        <time>2023-02-01T12:54:11Z</time>
      </trkpt>
      <trkpt lat="43.4215" lon="6.43653">
        <ele>109</ele>
        <time>2023-02-01T12:54:21Z</time>
      </trkpt>
      <trkpt lat="43.42147" lon="6.43642">
        <ele>109.4</ele>
        <time>2023-02-01T12:54:24Z</time>
      </trkpt>
      <trkpt lat="43.42145" lon="6.43636">
        <ele>109.8</ele>
        <time>2023-02-01T12:54:36Z</time>
      </trkpt>
      <trkpt lat="43.42144" lon="6.43631">
        <ele>109.4</ele>
        <time>2023-02-01T12:55:00Z</time>
      </trkpt>
      <trkpt lat="43.42145" lon="6.43625">
        <ele>110.1</ele>
        <time>2023-02-01T12:56:02Z</time>
      </trkpt>
      <trkpt lat="43.42149" lon="6.43625">
        <ele>110.3</ele>
        <time>2023-02-01T12:57:23Z</time>
      </trkpt>
      <trkpt lat="43.42152" lon="6.43624">
        <ele>110.4</ele>
        <time>2023-02-01T12:57:27Z</time>
      </trkpt>
      <trkpt lat="43.42155" lon="6.43621">
        <ele>110.4</ele>
        <time>2023-02-01T12:57:32Z</time>
      </trkpt>
      <trkpt lat="43.42156" lon="6.43616">
        <ele>111.1</ele>
        <time>2023-02-01T12:57:36Z</time>
      </trkpt>
      <trkpt lat="43.42157" lon="6.4361">
        <ele>111</ele>
        <time>2023-02-01T12:57:39Z</time>
      </trkpt>
      <trkpt lat="43.42159" lon="6.43606">
        <ele>112.9</ele>
        <time>2023-02-01T12:57:47Z</time>
      </trkpt>
      <trkpt lat="43.42162" lon="6.43602">
        <ele>113.4</ele>
        <time>2023-02-01T12:57:50Z</time>
      </trkpt>
      <trkpt lat="43.42165" lon="6.43598">
        <ele>113.3</ele>
        <time>2023-02-01T12:57:55Z</time>
      </trkpt>
      <trkpt lat="43.42167" lon="6.43595">
        <ele>113.9</ele>
        <time>2023-02-01T12:57:57Z</time>
      </trkpt>
      <trkpt lat="43.42169" lon="6.43592">
        <ele>114.4</ele>
        <time>2023-02-01T12:57:59Z</time>
      </trkpt>
      <trkpt lat="43.42173" lon="6.43589">
        <ele>114.5</ele>
        <time>2023-02-01T12:58:02Z</time>
      </trkpt>
      <trkpt lat="43.42176" lon="6.43587">
        <ele>114.3</ele>
        <time>2023-02-01T12:58:06Z</time>
      </trkpt>
      <trkpt lat="43.4218" lon="6.43584">
        <ele>114.9</ele>
        <time>2023-02-01T12:58:09Z</time>
      </trkpt>
      <trkpt lat="43.42183" lon="6.43582">
        <ele>115.1</ele>
        <time>2023-02-01T12:58:11Z</time>
      </trkpt>
      <trkpt lat="43.42186" lon="6.43581">
        <ele>115.3</ele>
        <time>2023-02-01T12:58:13Z</time>
      </trkpt>
      <trkpt lat="43.4219" lon="6.4358">
        <ele>114.6</ele>
        <time>2023-02-01T12:58:17Z</time>
      </trkpt>
      <trkpt lat="43.42192" lon="6.43578">
        <ele>114.9</ele>
        <time>2023-02-01T12:58:20Z</time>
      </trkpt>
      <trkpt lat="43.42196" lon="6.43577">
        <ele>115.1</ele>
        <time>2023-02-01T12:58:22Z</time>
      </trkpt>
      <trkpt lat="43.422" lon="6.43574">
        <ele>115.2</ele>
        <time>2023-02-01T12:58:25Z</time>
      </trkpt>
      <trkpt lat="43.42202" lon="6.43571">
        <ele>115.2</ele>
        <time>2023-02-01T12:58:27Z</time>
      </trkpt>
      <trkpt lat="43.42205" lon="6.43568">
        <ele>114.2</ele>
        <time>2023-02-01T12:58:31Z</time>
      </trkpt>
      <trkpt lat="43.42209" lon="6.43566">
        <ele>114.5</ele>
        <time>2023-02-01T12:58:35Z</time>
      </trkpt>
      <trkpt lat="43.42213" lon="6.43564">
        <ele>114.7</ele>
        <time>2023-02-01T12:58:38Z</time>
      </trkpt>
      <trkpt lat="43.42216" lon="6.43561">
        <ele>114.3</ele>
        <time>2023-02-01T12:58:40Z</time>
      </trkpt>
      <trkpt lat="43.42219" lon="6.43558">
        <ele>114.4</ele>
        <time>2023-02-01T12:58:44Z</time>
      </trkpt>
      <trkpt lat="43.42221" lon="6.43554">
        <ele>114.6</ele>
        <time>2023-02-01T12:58:47Z</time>
      </trkpt>
      <trkpt lat="43.42224" lon="6.4355">
        <ele>114</ele>
        <time>2023-02-01T12:58:51Z</time>
      </trkpt>
      <trkpt lat="43.42225" lon="6.43545">
        <ele>114.3</ele>
        <time>2023-02-01T12:58:55Z</time>
      </trkpt>
      <trkpt lat="43.42225" lon="6.43541">
        <ele>114.6</ele>
        <time>2023-02-01T12:58:57Z</time>
      </trkpt>
      <trkpt lat="43.42225" lon="6.43537">
        <ele>114.4</ele>
        <time>2023-02-01T12:58:59Z</time>
      </trkpt>
      <trkpt lat="43.42224" lon="6.43531">
        <ele>113.9</ele>
        <time>2023-02-01T12:59:03Z</time>
      </trkpt>
      <trkpt lat="43.42223" lon="6.43526">
        <ele>114.9</ele>
        <time>2023-02-01T12:59:06Z</time>
      </trkpt>
      <trkpt lat="43.42223" lon="6.43521">
        <ele>115.3</ele>
        <time>2023-02-01T12:59:08Z</time>
      </trkpt>
      <trkpt lat="43.42223" lon="6.43516">
        <ele>114.5</ele>
        <time>2023-02-01T12:59:11Z</time>
      </trkpt>
      <trkpt lat="43.42223" lon="6.43511">
        <ele>115.2</ele>
        <time>2023-02-01T12:59:14Z</time>
      </trkpt>
      <trkpt lat="43.42222" lon="6.43505">
        <ele>115.9</ele>
        <time>2023-02-01T12:59:17Z</time>
      </trkpt>
      <trkpt lat="43.42222" lon="6.43499">
        <ele>115.7</ele>
        <time>2023-02-01T12:59:21Z</time>
      </trkpt>
      <trkpt lat="43.42221" lon="6.43494">
        <ele>116.3</ele>
        <time>2023-02-01T12:59:25Z</time>
      </trkpt>
      <trkpt lat="43.42221" lon="6.4349">
        <ele>116.4</ele>
        <time>2023-02-01T12:59:27Z</time>
      </trkpt>
      <trkpt lat="43.4222" lon="6.43485">
        <ele>115.1</ele>
        <time>2023-02-01T12:59:31Z</time>
      </trkpt>
      <trkpt lat="43.4222" lon="6.43479">
        <ele>115.9</ele>
        <time>2023-02-01T12:59:35Z</time>
      </trkpt>
      <trkpt lat="43.4222" lon="6.43473">
        <ele>116.2</ele>
        <time>2023-02-01T12:59:38Z</time>
      </trkpt>
      <trkpt lat="43.42219" lon="6.43468">
        <ele>115.7</ele>
        <time>2023-02-01T12:59:42Z</time>
      </trkpt>
      <trkpt lat="43.42219" lon="6.43463">
        <ele>116</ele>
        <time>2023-02-01T12:59:45Z</time>
      </trkpt>
      <trkpt lat="43.42219" lon="6.43459">
        <ele>116.2</ele>
        <time>2023-02-01T12:59:47Z</time>
      </trkpt>
      <trkpt lat="43.42219" lon="6.43453">
        <ele>116.4</ele>
        <time>2023-02-01T12:59:49Z</time>
      </trkpt>
      <trkpt lat="43.4222" lon="6.43448">
        <ele>116.4</ele>
        <time>2023-02-01T12:59:54Z</time>
      </trkpt>
      <trkpt lat="43.4222" lon="6.43443">
        <ele>116.4</ele>
        <time>2023-02-01T12:59:56Z</time>
      </trkpt>
      <trkpt lat="43.42218" lon="6.43438">
        <ele>116</ele>
        <time>2023-02-01T13:00:01Z</time>
      </trkpt>
      <trkpt lat="43.42217" lon="6.43434">
        <ele>116.3</ele>
        <time>2023-02-01T13:00:04Z</time>
      </trkpt>
      <trkpt lat="43.42218" lon="6.43428">
        <ele>116.1</ele>
        <time>2023-02-01T13:00:07Z</time>
      </trkpt>
      <trkpt lat="43.42218" lon="6.43424">
        <ele>115.1</ele>
        <time>2023-02-01T13:00:11Z</time>
      </trkpt>
      <trkpt lat="43.42217" lon="6.43419">
        <ele>115.3</ele>
        <time>2023-02-01T13:00:14Z</time>
      </trkpt>
      <trkpt lat="43.42217" lon="6.43415">
        <ele>115.6</ele>
        <time>2023-02-01T13:00:16Z</time>
      </trkpt>
      <trkpt lat="43.42218" lon="6.4341">
        <ele>115.8</ele>
        <time>2023-02-01T13:00:18Z</time>
      </trkpt>
      <trkpt lat="43.42217" lon="6.43406">
        <ele>116</ele>
        <time>2023-02-01T13:00:20Z</time>
      </trkpt>
      <trkpt lat="43.42218" lon="6.434">
        <ele>115.9</ele>
        <time>2023-02-01T13:00:23Z</time>
      </trkpt>
      <trkpt lat="43.42218" lon="6.43395">
        <ele>115.4</ele>
        <time>2023-02-01T13:00:26Z</time>
      </trkpt>
      <trkpt lat="43.42216" lon="6.43392">
        <ele>114.8</ele>
        <time>2023-02-01T13:00:29Z</time>
      </trkpt>
      <trkpt lat="43.42213" lon="6.43387">
        <ele>115</ele>
        <time>2023-02-01T13:00:32Z</time>
      </trkpt>
      <trkpt lat="43.42212" lon="6.43383">
        <ele>115.3</ele>
        <time>2023-02-01T13:00:35Z</time>
      </trkpt>
      <trkpt lat="43.42211" lon="6.43378">
        <ele>115.4</ele>
        <time>2023-02-01T13:00:37Z</time>
      </trkpt>
      <trkpt lat="43.42209" lon="6.43374">
        <ele>115.3</ele>
        <time>2023-02-01T13:00:39Z</time>
      </trkpt>
      <trkpt lat="43.42206" lon="6.43369">
        <ele>114.5</ele>
        <time>2023-02-01T13:00:43Z</time>
      </trkpt>
      <trkpt lat="43.42204" lon="6.43365">
        <ele>114.3</ele>
        <time>2023-02-01T13:00:49Z</time>
      </trkpt>
      <trkpt lat="43.42202" lon="6.43361">
        <ele>114.4</ele>
        <time>2023-02-01T13:00:54Z</time>
      </trkpt>
      <trkpt lat="43.42201" lon="6.43356">
        <ele>114.5</ele>
        <time>2023-02-01T13:00:56Z</time>
      </trkpt>
      <trkpt lat="43.42198" lon="6.43353">
        <ele>113.6</ele>
        <time>2023-02-01T13:00:59Z</time>
      </trkpt>
      <trkpt lat="43.42196" lon="6.43348">
        <ele>114.1</ele>
        <time>2023-02-01T13:01:02Z</time>
      </trkpt>
      <trkpt lat="43.42192" lon="6.43347">
        <ele>114.4</ele>
        <time>2023-02-01T13:01:04Z</time>
      </trkpt>
      <trkpt lat="43.4219" lon="6.43342">
        <ele>114</ele>
        <time>2023-02-01T13:01:08Z</time>
      </trkpt>
      <trkpt lat="43.42187" lon="6.43338">
        <ele>114.8</ele>
        <time>2023-02-01T13:01:11Z</time>
      </trkpt>
      <trkpt lat="43.42184" lon="6.43334">
        <ele>114</ele>
        <time>2023-02-01T13:01:14Z</time>
      </trkpt>
      <trkpt lat="43.4218" lon="6.43331">
        <ele>115.2</ele>
        <time>2023-02-01T13:01:18Z</time>
      </trkpt>
      <trkpt lat="43.42177" lon="6.43329">
        <ele>115.8</ele>
        <time>2023-02-01T13:01:20Z</time>
      </trkpt>
      <trkpt lat="43.42173" lon="6.43327">
        <ele>115.6</ele>
        <time>2023-02-01T13:01:24Z</time>
      </trkpt>
      <trkpt lat="43.42171" lon="6.43323">
        <ele>115.7</ele>
        <time>2023-02-01T13:01:28Z</time>
      </trkpt>
      <trkpt lat="43.42168" lon="6.4332">
        <ele>115.7</ele>
        <time>2023-02-01T13:01:30Z</time>
      </trkpt>
      <trkpt lat="43.42165" lon="6.43319">
        <ele>115.7</ele>
        <time>2023-02-01T13:01:32Z</time>
      </trkpt>
      <trkpt lat="43.42161" lon="6.43317">
        <ele>115.8</ele>
        <time>2023-02-01T13:01:34Z</time>
      </trkpt>
      <trkpt lat="43.42158" lon="6.43315">
        <ele>115.8</ele>
        <time>2023-02-01T13:01:36Z</time>
      </trkpt>
      <trkpt lat="43.42156" lon="6.43311">
        <ele>115.5</ele>
        <time>2023-02-01T13:01:38Z</time>
      </trkpt>
      <trkpt lat="43.42151" lon="6.43311">
        <ele>113.9</ele>
        <time>2023-02-01T13:01:42Z</time>
      </trkpt>
      <trkpt lat="43.42148" lon="6.4331">
        <ele>114.5</ele>
        <time>2023-02-01T13:01:45Z</time>
      </trkpt>
      <trkpt lat="43.42146" lon="6.43306">
        <ele>114.2</ele>
        <time>2023-02-01T13:01:47Z</time>
      </trkpt>
      <trkpt lat="43.42143" lon="6.43303">
        <ele>114</ele>
        <time>2023-02-01T13:01:51Z</time>
      </trkpt>
      <trkpt lat="43.42139" lon="6.43302">
        <ele>114.9</ele>
        <time>2023-02-01T13:01:54Z</time>
      </trkpt>
      <trkpt lat="43.42136" lon="6.43301">
        <ele>115.4</ele>
        <time>2023-02-01T13:01:56Z</time>
      </trkpt>
      <trkpt lat="43.42133" lon="6.43298">
        <ele>114.4</ele>
        <time>2023-02-01T13:02:00Z</time>
      </trkpt>
      <trkpt lat="43.42129" lon="6.43295">
        <ele>115.3</ele>
        <time>2023-02-01T13:02:05Z</time>
      </trkpt>
      <trkpt lat="43.42125" lon="6.43294">
        <ele>115.9</ele>
        <time>2023-02-01T13:02:08Z</time>
      </trkpt>
      <trkpt lat="43.42121" lon="6.43294">
        <ele>115.6</ele>
        <time>2023-02-01T13:02:11Z</time>
      </trkpt>
      <trkpt lat="43.42118" lon="6.43296">
        <ele>116.1</ele>
        <time>2023-02-01T13:02:13Z</time>
      </trkpt>
      <trkpt lat="43.42115" lon="6.43295">
        <ele>116.5</ele>
        <time>2023-02-01T13:02:15Z</time>
      </trkpt>
      <trkpt lat="43.42112" lon="6.43294">
        <ele>116.6</ele>
        <time>2023-02-01T13:02:17Z</time>
      </trkpt>
      <trkpt lat="43.42108" lon="6.43292">
        <ele>116.3</ele>
        <time>2023-02-01T13:02:21Z</time>
      </trkpt>
      <trkpt lat="43.42104" lon="6.4329">
        <ele>116</ele>
        <time>2023-02-01T13:02:25Z</time>
      </trkpt>
      <trkpt lat="43.42101" lon="6.4329">
        <ele>115.9</ele>
        <time>2023-02-01T13:02:28Z</time>
      </trkpt>
      <trkpt lat="43.42097" lon="6.43289">
        <ele>115.8</ele>
        <time>2023-02-01T13:02:30Z</time>
      </trkpt>
      <trkpt lat="43.42093" lon="6.43287">
        <ele>114.6</ele>
        <time>2023-02-01T13:02:35Z</time>
      </trkpt>
      <trkpt lat="43.4209" lon="6.43285">
        <ele>113.4</ele>
        <time>2023-02-01T13:02:39Z</time>
      </trkpt>
      <trkpt lat="43.42087" lon="6.43286">
        <ele>113.1</ele>
        <time>2023-02-01T13:02:41Z</time>
      </trkpt>
      <trkpt lat="43.42084" lon="6.43286">
        <ele>113.2</ele>
        <time>2023-02-01T13:02:43Z</time>
      </trkpt>
      <trkpt lat="43.4208" lon="6.43286">
        <ele>113.3</ele>
        <time>2023-02-01T13:02:45Z</time>
      </trkpt>
      <trkpt lat="43.42077" lon="6.43287">
        <ele>113.4</ele>
        <time>2023-02-01T13:02:47Z</time>
      </trkpt>
      <trkpt lat="43.42073" lon="6.4329">
        <ele>112.5</ele>
        <time>2023-02-01T13:02:50Z</time>
      </trkpt>
      <trkpt lat="43.42069" lon="6.4329">
        <ele>111.3</ele>
        <time>2023-02-01T13:02:56Z</time>
      </trkpt>
      <trkpt lat="43.42067" lon="6.43292">
        <ele>111.6</ele>
        <time>2023-02-01T13:02:58Z</time>
      </trkpt>
      <trkpt lat="43.42064" lon="6.43295">
        <ele>111.6</ele>
        <time>2023-02-01T13:03:00Z</time>
      </trkpt>
      <trkpt lat="43.4206" lon="6.43296">
        <ele>111.5</ele>
        <time>2023-02-01T13:03:02Z</time>
      </trkpt>
      <trkpt lat="43.42056" lon="6.43297">
        <ele>111.3</ele>
        <time>2023-02-01T13:03:05Z</time>
      </trkpt>
      <trkpt lat="43.42053" lon="6.43298">
        <ele>111.1</ele>
        <time>2023-02-01T13:03:07Z</time>
      </trkpt>
      <trkpt lat="43.4205" lon="6.43299">
        <ele>110.6</ele>
        <time>2023-02-01T13:03:09Z</time>
      </trkpt>
      <trkpt lat="43.42046" lon="6.43299">
        <ele>110.1</ele>
        <time>2023-02-01T13:03:11Z</time>
      </trkpt>
      <trkpt lat="43.42042" lon="6.433">
        <ele>108.2</ele>
        <time>2023-02-01T13:03:16Z</time>
      </trkpt>
      <trkpt lat="43.42039" lon="6.43303">
        <ele>108.4</ele>
        <time>2023-02-01T13:03:20Z</time>
      </trkpt>
      <trkpt lat="43.42036" lon="6.43306">
        <ele>108.7</ele>
        <time>2023-02-01T13:03:23Z</time>
      </trkpt>
      <trkpt lat="43.42033" lon="6.43309">
        <ele>108.8</ele>
        <time>2023-02-01T13:03:25Z</time>
      </trkpt>
      <trkpt lat="43.4203" lon="6.43312">
        <ele>108.7</ele>
        <time>2023-02-01T13:03:27Z</time>
      </trkpt>
      <trkpt lat="43.42027" lon="6.43316">
        <ele>107.4</ele>
        <time>2023-02-01T13:03:32Z</time>
      </trkpt>
      <trkpt lat="43.42025" lon="6.43319">
        <ele>107.8</ele>
        <time>2023-02-01T13:03:35Z</time>
      </trkpt>
      <trkpt lat="43.42021" lon="6.43322">
        <ele>108.1</ele>
        <time>2023-02-01T13:03:38Z</time>
      </trkpt>
      <trkpt lat="43.4202" lon="6.43324">
        <ele>108.1</ele>
        <time>2023-02-01T13:03:39Z</time>
      </trkpt>
      <trkpt lat="43.42018" lon="6.43327">
        <ele>108.1</ele>
        <time>2023-02-01T13:03:40Z</time>
      </trkpt>
      <trkpt lat="43.42015" lon="6.4333">
        <ele>108</ele>
        <time>2023-02-01T13:03:42Z</time>
      </trkpt>
      <trkpt lat="43.42013" lon="6.43334">
        <ele>107.5</ele>
        <time>2023-02-01T13:03:45Z</time>
      </trkpt>
      <trkpt lat="43.4201" lon="6.43338">
        <ele>107</ele>
        <time>2023-02-01T13:03:49Z</time>
      </trkpt>
      <trkpt lat="43.42007" lon="6.43341">
        <ele>107.3</ele>
        <time>2023-02-01T13:03:52Z</time>
      </trkpt>
      <trkpt lat="43.42004" lon="6.43345">
        <ele>107.3</ele>
        <time>2023-02-01T13:03:54Z</time>
      </trkpt>
      <trkpt lat="43.42002" lon="6.4335">
        <ele>107.4</ele>
        <time>2023-02-01T13:03:56Z</time>
      </trkpt>
      <trkpt lat="43.41998" lon="6.43352">
        <ele>107.4</ele>
        <time>2023-02-01T13:03:58Z</time>
      </trkpt>
      <trkpt lat="43.41995" lon="6.43354">
        <ele>106</ele>
        <time>2023-02-01T13:04:02Z</time>
      </trkpt>
      <trkpt lat="43.41992" lon="6.43357">
        <ele>106.4</ele>
        <time>2023-02-01T13:04:05Z</time>
      </trkpt>
      <trkpt lat="43.4199" lon="6.43362">
        <ele>106.8</ele>
        <time>2023-02-01T13:04:08Z</time>
      </trkpt>
      <trkpt lat="43.41987" lon="6.43368">
        <ele>107</ele>
        <time>2023-02-01T13:04:11Z</time>
      </trkpt>
      <trkpt lat="43.41985" lon="6.43371">
        <ele>106.8</ele>
        <time>2023-02-01T13:04:13Z</time>
      </trkpt>
      <trkpt lat="43.41984" lon="6.43377">
        <ele>106.3</ele>
        <time>2023-02-01T13:04:19Z</time>
      </trkpt>
      <trkpt lat="43.41983" lon="6.43382">
        <ele>106.9</ele>
        <time>2023-02-01T13:04:22Z</time>
      </trkpt>
      <trkpt lat="43.41982" lon="6.43387">
        <ele>107</ele>
        <time>2023-02-01T13:04:24Z</time>
      </trkpt>
      <trkpt lat="43.4198" lon="6.43392">
        <ele>106.8</ele>
        <time>2023-02-01T13:04:29Z</time>
      </trkpt>
      <trkpt lat="43.41978" lon="6.43396">
        <ele>107.3</ele>
        <time>2023-02-01T13:04:32Z</time>
      </trkpt>
      <trkpt lat="43.41975" lon="6.43397">
        <ele>107.6</ele>
        <time>2023-02-01T13:04:34Z</time>
      </trkpt>
      <trkpt lat="43.41973" lon="6.43402">
        <ele>107.6</ele>
        <time>2023-02-01T13:04:37Z</time>
      </trkpt>
      <trkpt lat="43.41972" lon="6.43407">
        <ele>107</ele>
        <time>2023-02-01T13:04:41Z</time>
      </trkpt>
      <trkpt lat="43.4197" lon="6.43409">
        <ele>107.4</ele>
        <time>2023-02-01T13:04:43Z</time>
      </trkpt>
      <trkpt lat="43.41966" lon="6.43413">
        <ele>108.1</ele>
        <time>2023-02-01T13:04:46Z</time>
      </trkpt>
      <trkpt lat="43.41965" lon="6.43417">
        <ele>107.3</ele>
        <time>2023-02-01T13:04:50Z</time>
      </trkpt>
      <trkpt lat="43.41965" lon="6.43422">
        <ele>107.2</ele>
        <time>2023-02-01T13:04:54Z</time>
      </trkpt>
      <trkpt lat="43.41962" lon="6.43426">
        <ele>107.6</ele>
        <time>2023-02-01T13:04:56Z</time>
      </trkpt>
      <trkpt lat="43.41961" lon="6.43431">
        <ele>107.8</ele>
        <time>2023-02-01T13:04:59Z</time>
      </trkpt>
      <trkpt lat="43.41959" lon="6.43435">
        <ele>107</ele>
        <time>2023-02-01T13:05:02Z</time>
      </trkpt>
      <trkpt lat="43.41956" lon="6.43439">
        <ele>107.3</ele>
        <time>2023-02-01T13:05:05Z</time>
      </trkpt>
      <trkpt lat="43.41953" lon="6.43443">
        <ele>107.9</ele>
        <time>2023-02-01T13:05:08Z</time>
      </trkpt>
      <trkpt lat="43.4195" lon="6.43448">
        <ele>107.5</ele>
        <time>2023-02-01T13:05:11Z</time>
      </trkpt>
      <trkpt lat="43.41948" lon="6.43453">
        <ele>107.5</ele>
        <time>2023-02-01T13:05:15Z</time>
      </trkpt>
      <trkpt lat="43.41946" lon="6.43459">
        <ele>108.1</ele>
        <time>2023-02-01T13:05:18Z</time>
      </trkpt>
      <trkpt lat="43.41946" lon="6.43464">
        <ele>108.5</ele>
        <time>2023-02-01T13:05:21Z</time>
      </trkpt>
      <trkpt lat="43.41947" lon="6.43469">
        <ele>108.1</ele>
        <time>2023-02-01T13:05:25Z</time>
      </trkpt>
      <trkpt lat="43.41946" lon="6.43474">
        <ele>108.3</ele>
        <time>2023-02-01T13:05:27Z</time>
      </trkpt>
      <trkpt lat="43.41947" lon="6.43479">
        <ele>108.4</ele>
        <time>2023-02-01T13:05:29Z</time>
      </trkpt>
      <trkpt lat="43.41948" lon="6.43484">
        <ele>108.4</ele>
        <time>2023-02-01T13:05:31Z</time>
      </trkpt>
      <trkpt lat="43.41948" lon="6.43489">
        <ele>107.6</ele>
        <time>2023-02-01T13:05:34Z</time>
      </trkpt>
      <trkpt lat="43.41949" lon="6.43493">
        <ele>106.9</ele>
        <time>2023-02-01T13:05:37Z</time>
      </trkpt>
      <trkpt lat="43.41951" lon="6.43497">
        <ele>107.4</ele>
        <time>2023-02-01T13:05:39Z</time>
      </trkpt>
      <trkpt lat="43.41953" lon="6.43502">
        <ele>107.7</ele>
        <time>2023-02-01T13:05:41Z</time>
      </trkpt>
      <trkpt lat="43.41953" lon="6.43507">
        <ele>108.3</ele>
        <time>2023-02-01T13:05:43Z</time>
      </trkpt>
      <trkpt lat="43.41955" lon="6.43512">
        <ele>108.5</ele>
        <time>2023-02-01T13:05:47Z</time>
      </trkpt>
      <trkpt lat="43.41956" lon="6.43516">
        <ele>108.9</ele>
        <time>2023-02-01T13:05:49Z</time>
      </trkpt>
      <trkpt lat="43.41958" lon="6.4352">
        <ele>109.4</ele>
        <time>2023-02-01T13:05:51Z</time>
      </trkpt>
      <trkpt lat="43.41962" lon="6.43524">
        <ele>109.2</ele>
        <time>2023-02-01T13:05:55Z</time>
      </trkpt>
      <trkpt lat="43.41965" lon="6.43528">
        <ele>108.9</ele>
        <time>2023-02-01T13:05:58Z</time>
      </trkpt>
      <trkpt lat="43.41967" lon="6.43532">
        <ele>110.2</ele>
        <time>2023-02-01T13:06:02Z</time>
      </trkpt>
      <trkpt lat="43.4197" lon="6.43537">
        <ele>110.6</ele>
        <time>2023-02-01T13:06:05Z</time>
      </trkpt>
      <trkpt lat="43.41971" lon="6.43531">
        <ele>111.4</ele>
        <time>2023-02-01T13:06:21Z</time>
      </trkpt>
      <trkpt lat="43.41974" lon="6.43534">
        <ele>110.8</ele>
        <time>2023-02-01T13:06:41Z</time>
      </trkpt>
      <trkpt lat="43.41977" lon="6.43538">
        <ele>109.7</ele>
        <time>2023-02-01T13:06:45Z</time>
      </trkpt>
      <trkpt lat="43.41981" lon="6.43541">
        <ele>110.3</ele>
        <time>2023-02-01T13:06:49Z</time>
      </trkpt>
      <trkpt lat="43.41984" lon="6.43543">
        <ele>111</ele>
        <time>2023-02-01T13:06:52Z</time>
      </trkpt>
      <trkpt lat="43.41988" lon="6.43546">
        <ele>110.9</ele>
        <time>2023-02-01T13:06:56Z</time>
      </trkpt>
      <trkpt lat="43.41991" lon="6.43548">
        <ele>111.4</ele>
        <time>2023-02-01T13:06:59Z</time>
      </trkpt>
      <trkpt lat="43.41994" lon="6.43552">
        <ele>111.8</ele>
        <time>2023-02-01T13:07:02Z</time>
      </trkpt>
      <trkpt lat="43.41997" lon="6.43554">
        <ele>112.1</ele>
        <time>2023-02-01T13:07:05Z</time>
      </trkpt>
      <trkpt lat="43.42" lon="6.43555">
        <ele>112.5</ele>
        <time>2023-02-01T13:07:07Z</time>
      </trkpt>
      <trkpt lat="43.42003" lon="6.43557">
        <ele>113.3</ele>
        <time>2023-02-01T13:07:09Z</time>
      </trkpt>
      <trkpt lat="43.42006" lon="6.4356">
        <ele>112.9</ele>
        <time>2023-02-01T13:07:13Z</time>
      </trkpt>
      <trkpt lat="43.42009" lon="6.43564">
        <ele>114</ele>
        <time>2023-02-01T13:07:16Z</time>
      </trkpt>
      <trkpt lat="43.42013" lon="6.43566">
        <ele>114.4</ele>
        <time>2023-02-01T13:07:21Z</time>
      </trkpt>
      <trkpt lat="43.42017" lon="6.43568">
        <ele>114.2</ele>
        <time>2023-02-01T13:07:25Z</time>
      </trkpt>
      <trkpt lat="43.4202" lon="6.43569">
        <ele>114.9</ele>
        <time>2023-02-01T13:07:28Z</time>
      </trkpt>
      <trkpt lat="43.42024" lon="6.43571">
        <ele>115.8</ele>
        <time>2023-02-01T13:07:31Z</time>
      </trkpt>
      <trkpt lat="43.42027" lon="6.43571">
        <ele>117.1</ele>
        <time>2023-02-01T13:07:35Z</time>
      </trkpt>
      <trkpt lat="43.42031" lon="6.43571">
        <ele>117.7</ele>
        <time>2023-02-01T13:07:38Z</time>
      </trkpt>
      <trkpt lat="43.42036" lon="6.43571">
        <ele>119.2</ele>
        <time>2023-02-01T13:07:42Z</time>
      </trkpt>
      <trkpt lat="43.4204" lon="6.43574">
        <ele>119.4</ele>
        <time>2023-02-01T13:07:45Z</time>
      </trkpt>
      <trkpt lat="43.42044" lon="6.43576">
        <ele>120.7</ele>
        <time>2023-02-01T13:07:50Z</time>
      </trkpt>
      <trkpt lat="43.42047" lon="6.43578">
        <ele>120.2</ele>
        <time>2023-02-01T13:07:53Z</time>
      </trkpt>
      <trkpt lat="43.4205" lon="6.43579">
        <ele>120.7</ele>
        <time>2023-02-01T13:07:56Z</time>
      </trkpt>
      <trkpt lat="43.42055" lon="6.43579">
        <ele>121.3</ele>
        <time>2023-02-01T13:07:59Z</time>
      </trkpt>
      <trkpt lat="43.42059" lon="6.43578">
        <ele>123.2</ele>
        <time>2023-02-01T13:08:04Z</time>
      </trkpt>
      <trkpt lat="43.42063" lon="6.43579">
        <ele>123.9</ele>
        <time>2023-02-01T13:08:08Z</time>
      </trkpt>
      <trkpt lat="43.42067" lon="6.4358">
        <ele>124</ele>
        <time>2023-02-01T13:08:12Z</time>
      </trkpt>
      <trkpt lat="43.42071" lon="6.43582">
        <ele>125.1</ele>
        <time>2023-02-01T13:08:15Z</time>
      </trkpt>
      <trkpt lat="43.42074" lon="6.43581">
        <ele>125.4</ele>
        <time>2023-02-01T13:08:19Z</time>
      </trkpt>
      <trkpt lat="43.42078" lon="6.4358">
        <ele>125.7</ele>
        <time>2023-02-01T13:08:23Z</time>
      </trkpt>
      <trkpt lat="43.4208" lon="6.43576">
        <ele>126.7</ele>
        <time>2023-02-01T13:08:26Z</time>
      </trkpt>
      <trkpt lat="43.42082" lon="6.43572">
        <ele>127.4</ele>
        <time>2023-02-01T13:08:30Z</time>
      </trkpt>
      <trkpt lat="43.42081" lon="6.43567">
        <ele>128.6</ele>
        <time>2023-02-01T13:08:34Z</time>
      </trkpt>
      <trkpt lat="43.42078" lon="6.43563">
        <ele>129.2</ele>
        <time>2023-02-01T13:08:47Z</time>
      </trkpt>
      <trkpt lat="43.42075" lon="6.43558">
        <ele>128.8</ele>
        <time>2023-02-01T13:08:53Z</time>
      </trkpt>
      <trkpt lat="43.42073" lon="6.43553">
        <ele>129.7</ele>
        <time>2023-02-01T13:08:56Z</time>
      </trkpt>
      <trkpt lat="43.42071" lon="6.43549">
        <ele>129.3</ele>
        <time>2023-02-01T13:09:00Z</time>
      </trkpt>
      <trkpt lat="43.42066" lon="6.43547">
        <ele>130.4</ele>
        <time>2023-02-01T13:09:03Z</time>
      </trkpt>
      <trkpt lat="43.42064" lon="6.43542">
        <ele>130</ele>
        <time>2023-02-01T13:09:07Z</time>
      </trkpt>
      <trkpt lat="43.4206" lon="6.43539">
        <ele>131.4</ele>
        <time>2023-02-01T13:09:11Z</time>
      </trkpt>
      <trkpt lat="43.42057" lon="6.43534">
        <ele>130.7</ele>
        <time>2023-02-01T13:09:15Z</time>
      </trkpt>
      <trkpt lat="43.42055" lon="6.43531">
        <ele>131.9</ele>
        <time>2023-02-01T13:09:18Z</time>
      </trkpt>
      <trkpt lat="43.42052" lon="6.43526">
        <ele>132.7</ele>
        <time>2023-02-01T13:09:22Z</time>
      </trkpt>
      <trkpt lat="43.4205" lon="6.43523">
        <ele>133.8</ele>
        <time>2023-02-01T13:09:31Z</time>
      </trkpt>
      <trkpt lat="43.42047" lon="6.43519">
        <ele>134</ele>
        <time>2023-02-01T13:09:33Z</time>
      </trkpt>
      <trkpt lat="43.42045" lon="6.43514">
        <ele>132.1</ele>
        <time>2023-02-01T13:09:38Z</time>
      </trkpt>
      <trkpt lat="43.42042" lon="6.4351">
        <ele>134.1</ele>
        <time>2023-02-01T13:09:42Z</time>
      </trkpt>
      <trkpt lat="43.42039" lon="6.43505">
        <ele>134.6</ele>
        <time>2023-02-01T13:09:45Z</time>
      </trkpt>
      <trkpt lat="43.42038" lon="6.435">
        <ele>135.2</ele>
        <time>2023-02-01T13:09:50Z</time>
      </trkpt>
      <trkpt lat="43.42037" lon="6.43496">
        <ele>136.1</ele>
        <time>2023-02-01T13:09:52Z</time>
      </trkpt>
      <trkpt lat="43.42036" lon="6.4349">
        <ele>138</ele>
        <time>2023-02-01T13:10:00Z</time>
      </trkpt>
      <trkpt lat="43.42036" lon="6.43484">
        <ele>138.3</ele>
        <time>2023-02-01T13:10:05Z</time>
      </trkpt>
      <trkpt lat="43.42034" lon="6.4348">
        <ele>139</ele>
        <time>2023-02-01T13:10:07Z</time>
      </trkpt>
      <trkpt lat="43.42032" lon="6.43475">
        <ele>138.1</ele>
        <time>2023-02-01T13:10:11Z</time>
      </trkpt>
      <trkpt lat="43.4203" lon="6.4347">
        <ele>139.6</ele>
        <time>2023-02-01T13:10:15Z</time>
      </trkpt>
      <trkpt lat="43.4203" lon="6.43466">
        <ele>140.3</ele>
        <time>2023-02-01T13:10:17Z</time>
      </trkpt>
      <trkpt lat="43.4203" lon="6.43461">
        <ele>140.6</ele>
        <time>2023-02-01T13:10:21Z</time>
      </trkpt>
      <trkpt lat="43.42029" lon="6.43455">
        <ele>141.3</ele>
        <time>2023-02-01T13:10:25Z</time>
      </trkpt>
      <trkpt lat="43.4203" lon="6.4345">
        <ele>141.7</ele>
        <time>2023-02-01T13:10:35Z</time>
      </trkpt>
      <trkpt lat="43.4203" lon="6.43444">
        <ele>141.3</ele>
        <time>2023-02-01T13:10:39Z</time>
      </trkpt>
      <trkpt lat="43.4203" lon="6.43439">
        <ele>141.5</ele>
        <time>2023-02-01T13:10:43Z</time>
      </trkpt>
      <trkpt lat="43.42031" lon="6.43434">
        <ele>141.8</ele>
        <time>2023-02-01T13:10:46Z</time>
      </trkpt>
      <trkpt lat="43.42031" lon="6.4343">
        <ele>142</ele>
        <time>2023-02-01T13:10:48Z</time>
      </trkpt>
      <trkpt lat="43.42031" lon="6.43425">
        <ele>142.1</ele>
        <time>2023-02-01T13:10:50Z</time>
      </trkpt>
      <trkpt lat="43.42031" lon="6.4342">
        <ele>141.5</ele>
        <time>2023-02-01T13:10:52Z</time>
      </trkpt>
      <trkpt lat="43.42033" lon="6.43416">
        <ele>141.3</ele>
        <time>2023-02-01T13:10:57Z</time>
      </trkpt>
      <trkpt lat="43.42035" lon="6.43413">
        <ele>141.7</ele>
        <time>2023-02-01T13:10:59Z</time>
      </trkpt>
      <trkpt lat="43.42038" lon="6.43409">
        <ele>140.6</ele>
        <time>2023-02-01T13:11:03Z</time>
      </trkpt>
      <trkpt lat="43.42041" lon="6.43405">
        <ele>141.5</ele>
        <time>2023-02-01T13:11:07Z</time>
      </trkpt>
      <trkpt lat="43.42045" lon="6.43403">
        <ele>141.9</ele>
        <time>2023-02-01T13:11:09Z</time>
      </trkpt>
      <trkpt lat="43.42047" lon="6.43398">
        <ele>141.3</ele>
        <time>2023-02-01T13:11:12Z</time>
      </trkpt>
      <trkpt lat="43.4205" lon="6.43394">
        <ele>141.8</ele>
        <time>2023-02-01T13:11:17Z</time>
      </trkpt>
      <trkpt lat="43.42054" lon="6.43391">
        <ele>142.2</ele>
        <time>2023-02-01T13:11:19Z</time>
      </trkpt>
      <trkpt lat="43.42057" lon="6.43387">
        <ele>141.3</ele>
        <time>2023-02-01T13:11:27Z</time>
      </trkpt>
      <trkpt lat="43.42061" lon="6.43385">
        <ele>140.5</ele>
        <time>2023-02-01T13:11:31Z</time>
      </trkpt>
      <trkpt lat="43.42065" lon="6.43383">
        <ele>140</ele>
        <time>2023-02-01T13:11:35Z</time>
      </trkpt>
      <trkpt lat="43.42068" lon="6.43381">
        <ele>141.3</ele>
        <time>2023-02-01T13:11:39Z</time>
      </trkpt>
      <trkpt lat="43.4207" lon="6.43379">
        <ele>142.1</ele>
        <time>2023-02-01T13:11:41Z</time>
      </trkpt>
      <trkpt lat="43.42073" lon="6.43376">
        <ele>142.8</ele>
        <time>2023-02-01T13:11:43Z</time>
      </trkpt>
      <trkpt lat="43.42076" lon="6.43372">
        <ele>141.3</ele>
        <time>2023-02-01T13:11:46Z</time>
      </trkpt>
      <trkpt lat="43.4208" lon="6.43372">
        <ele>143.1</ele>
        <time>2023-02-01T13:11:51Z</time>
      </trkpt>
      <trkpt lat="43.42084" lon="6.43369">
        <ele>143.1</ele>
        <time>2023-02-01T13:11:56Z</time>
      </trkpt>
      <trkpt lat="43.42087" lon="6.43368">
        <ele>144.6</ele>
        <time>2023-02-01T13:12:00Z</time>
      </trkpt>
      <trkpt lat="43.42091" lon="6.43368">
        <ele>144.7</ele>
        <time>2023-02-01T13:12:04Z</time>
      </trkpt>
      <trkpt lat="43.42095" lon="6.43367">
        <ele>146.8</ele>
        <time>2023-02-01T13:12:09Z</time>
      </trkpt>
      <trkpt lat="43.42098" lon="6.4337">
        <ele>147.7</ele>
        <time>2023-02-01T13:12:11Z</time>
      </trkpt>
      <trkpt lat="43.42102" lon="6.43371">
        <ele>148</ele>
        <time>2023-02-01T13:12:15Z</time>
      </trkpt>
      <trkpt lat="43.42107" lon="6.43372">
        <ele>149.2</ele>
        <time>2023-02-01T13:12:22Z</time>
      </trkpt>
      <trkpt lat="43.4211" lon="6.43374">
        <ele>151.4</ele>
        <time>2023-02-01T13:12:27Z</time>
      </trkpt>
      <trkpt lat="43.42113" lon="6.43369">
        <ele>152.4</ele>
        <time>2023-02-01T13:12:39Z</time>
      </trkpt>
      <trkpt lat="43.42114" lon="6.43374">
        <ele>151.2</ele>
        <time>2023-02-01T13:13:11Z</time>
      </trkpt>
      <trkpt lat="43.42117" lon="6.43377">
        <ele>151.9</ele>
        <time>2023-02-01T13:13:14Z</time>
      </trkpt>
      <trkpt lat="43.4212" lon="6.43382">
        <ele>151.7</ele>
        <time>2023-02-01T13:13:17Z</time>
      </trkpt>
      <trkpt lat="43.42121" lon="6.43386">
        <ele>153.6</ele>
        <time>2023-02-01T13:13:21Z</time>
      </trkpt>
      <trkpt lat="43.42123" lon="6.43391">
        <ele>154.2</ele>
        <time>2023-02-01T13:13:26Z</time>
      </trkpt>
      <trkpt lat="43.42125" lon="6.43397">
        <ele>155.3</ele>
        <time>2023-02-01T13:13:30Z</time>
      </trkpt>
      <trkpt lat="43.42126" lon="6.43401">
        <ele>155.9</ele>
        <time>2023-02-01T13:13:34Z</time>
      </trkpt>
      <trkpt lat="43.42128" lon="6.43405">
        <ele>156.3</ele>
        <time>2023-02-01T13:13:39Z</time>
      </trkpt>
      <trkpt lat="43.4213" lon="6.43411">
        <ele>157.4</ele>
        <time>2023-02-01T13:13:42Z</time>
      </trkpt>
      <trkpt lat="43.4213" lon="6.43417">
        <ele>158.4</ele>
        <time>2023-02-01T13:13:47Z</time>
      </trkpt>
      <trkpt lat="43.42129" lon="6.43422">
        <ele>158.1</ele>
        <time>2023-02-01T13:13:51Z</time>
      </trkpt>
      <trkpt lat="43.42132" lon="6.43426">
        <ele>160.6</ele>
        <time>2023-02-01T13:14:11Z</time>
      </trkpt>
      <trkpt lat="43.42131" lon="6.43431">
        <ele>160.6</ele>
        <time>2023-02-01T13:15:00Z</time>
      </trkpt>
      <trkpt lat="43.42131" lon="6.43436">
        <ele>160.9</ele>
        <time>2023-02-01T13:15:02Z</time>
      </trkpt>
      <trkpt lat="43.4213" lon="6.4344">
        <ele>161.1</ele>
        <time>2023-02-01T13:15:04Z</time>
      </trkpt>
      <trkpt lat="43.4213" lon="6.43445">
        <ele>161.3</ele>
        <time>2023-02-01T13:15:08Z</time>
      </trkpt>
      <trkpt lat="43.42128" lon="6.4345">
        <ele>161.6</ele>
        <time>2023-02-01T13:15:11Z</time>
      </trkpt>
      <trkpt lat="43.42128" lon="6.43456">
        <ele>161.8</ele>
        <time>2023-02-01T13:15:13Z</time>
      </trkpt>
      <trkpt lat="43.42127" lon="6.4346">
        <ele>161.9</ele>
        <time>2023-02-01T13:15:15Z</time>
      </trkpt>
      <trkpt lat="43.42126" lon="6.43466">
        <ele>161.2</ele>
        <time>2023-02-01T13:15:19Z</time>
      </trkpt>
      <trkpt lat="43.42123" lon="6.4347">
        <ele>161.4</ele>
        <time>2023-02-01T13:15:24Z</time>
      </trkpt>
      <trkpt lat="43.4212" lon="6.43473">
        <ele>161.6</ele>
        <time>2023-02-01T13:15:28Z</time>
      </trkpt>
      <trkpt lat="43.42117" lon="6.43476">
        <ele>161.8</ele>
        <time>2023-02-01T13:15:35Z</time>
      </trkpt>
      <trkpt lat="43.42113" lon="6.43478">
        <ele>161.2</ele>
        <time>2023-02-01T13:15:49Z</time>
      </trkpt>
      <trkpt lat="43.42109" lon="6.43475">
        <ele>162.5</ele>
        <time>2023-02-01T13:15:55Z</time>
      </trkpt>
      <trkpt lat="43.42105" lon="6.43475">
        <ele>163.8</ele>
        <time>2023-02-01T13:16:02Z</time>
      </trkpt>
      <trkpt lat="43.42102" lon="6.43471">
        <ele>165.2</ele>
        <time>2023-02-01T13:16:09Z</time>
      </trkpt>
      <trkpt lat="43.421" lon="6.43468">
        <ele>166.1</ele>
        <time>2023-02-01T13:16:14Z</time>
      </trkpt>
      <trkpt lat="43.42096" lon="6.43467">
        <ele>166.9</ele>
        <time>2023-02-01T13:16:16Z</time>
      </trkpt>
      <trkpt lat="43.42093" lon="6.43466">
        <ele>167</ele>
        <time>2023-02-01T13:16:20Z</time>
      </trkpt>
      <trkpt lat="43.4209" lon="6.43462">
        <ele>169.5</ele>
        <time>2023-02-01T13:16:28Z</time>
      </trkpt>
      <trkpt lat="43.42088" lon="6.43457">
        <ele>170.7</ele>
        <time>2023-02-01T13:16:46Z</time>
      </trkpt>
      <trkpt lat="43.42091" lon="6.43461">
        <ele>173</ele>
        <time>2023-02-01T13:16:54Z</time>
      </trkpt>
      <trkpt lat="43.42095" lon="6.43462">
        <ele>172.6</ele>
        <time>2023-02-01T13:16:59Z</time>
      </trkpt>
      <trkpt lat="43.42099" lon="6.43461">
        <ele>173.1</ele>
        <time>2023-02-01T13:17:04Z</time>
      </trkpt>
      <trkpt lat="43.42103" lon="6.43461">
        <ele>174.9</ele>
        <time>2023-02-01T13:17:09Z</time>
      </trkpt>
      <trkpt lat="43.42104" lon="6.43456">
        <ele>175.8</ele>
        <time>2023-02-01T13:17:11Z</time>
      </trkpt>
      <trkpt lat="43.42105" lon="6.4345">
        <ele>177.4</ele>
        <time>2023-02-01T13:17:17Z</time>
      </trkpt>
      <trkpt lat="43.42103" lon="6.43445">
        <ele>176.6</ele>
        <time>2023-02-01T13:17:24Z</time>
      </trkpt>
      <trkpt lat="43.42102" lon="6.43439">
        <ele>177.9</ele>
        <time>2023-02-01T13:17:31Z</time>
      </trkpt>
      <trkpt lat="43.42102" lon="6.43434">
        <ele>179.7</ele>
        <time>2023-02-01T13:17:38Z</time>
      </trkpt>
      <trkpt lat="43.42101" lon="6.43429">
        <ele>180.1</ele>
        <time>2023-02-01T13:17:43Z</time>
      </trkpt>
      <trkpt lat="43.42098" lon="6.43424">
        <ele>181.3</ele>
        <time>2023-02-01T13:17:51Z</time>
      </trkpt>
      <trkpt lat="43.42095" lon="6.43429">
        <ele>179.9</ele>
        <time>2023-02-01T13:18:32Z</time>
      </trkpt>
      <trkpt lat="43.42092" lon="6.43425">
        <ele>180.6</ele>
        <time>2023-02-01T13:20:00Z</time>
      </trkpt>
      <trkpt lat="43.42096" lon="6.43426">
        <ele>180.6</ele>
        <time>2023-02-01T13:22:12Z</time>
      </trkpt>
      <trkpt lat="43.42093" lon="6.43426">
        <ele>181.2</ele>
        <time>2023-02-01T13:23:11Z</time>
      </trkpt>
      <trkpt lat="43.42089" lon="6.43425">
        <ele>181</ele>
        <time>2023-02-01T13:23:16Z</time>
      </trkpt>
      <trkpt lat="43.42085" lon="6.43426">
        <ele>181.8</ele>
        <time>2023-02-01T13:23:20Z</time>
      </trkpt>
      <trkpt lat="43.42084" lon="6.43432">
        <ele>184</ele>
        <time>2023-02-01T13:24:38Z</time>
      </trkpt>
      <trkpt lat="43.42086" lon="6.43437">
        <ele>183.8</ele>
        <time>2023-02-01T13:25:42Z</time>
      </trkpt>
      <trkpt lat="43.42089" lon="6.43442">
        <ele>184.1</ele>
        <time>2023-02-01T13:25:51Z</time>
      </trkpt>
      <trkpt lat="43.42093" lon="6.43443">
        <ele>184.3</ele>
        <time>2023-02-01T13:26:31Z</time>
      </trkpt>
      <trkpt lat="43.42096" lon="6.43439">
        <ele>184</ele>
        <time>2023-02-01T13:26:40Z</time>
      </trkpt>
      <trkpt lat="43.42098" lon="6.43444">
        <ele>182.3</ele>
        <time>2023-02-01T13:26:55Z</time>
      </trkpt>
      <trkpt lat="43.42101" lon="6.43448">
        <ele>181.5</ele>
        <time>2023-02-01T13:26:59Z</time>
      </trkpt>
      <trkpt lat="43.42101" lon="6.43454">
        <ele>181.3</ele>
        <time>2023-02-01T13:27:04Z</time>
      </trkpt>
      <trkpt lat="43.42098" lon="6.43456">
        <ele>180.1</ele>
        <time>2023-02-01T13:27:10Z</time>
      </trkpt>
      <trkpt lat="43.42094" lon="6.43454">
        <ele>178.4</ele>
        <time>2023-02-01T13:27:20Z</time>
      </trkpt>
      <trkpt lat="43.42089" lon="6.43453">
        <ele>176</ele>
        <time>2023-02-01T13:27:34Z</time>
      </trkpt>
      <trkpt lat="43.42087" lon="6.43458">
        <ele>173.9</ele>
        <time>2023-02-01T13:27:46Z</time>
      </trkpt>
      <trkpt lat="43.42088" lon="6.43463">
        <ele>173.3</ele>
        <time>2023-02-01T13:27:51Z</time>
      </trkpt>
      <trkpt lat="43.42091" lon="6.43467">
        <ele>172.5</ele>
        <time>2023-02-01T13:27:56Z</time>
      </trkpt>
      <trkpt lat="43.42094" lon="6.43471">
        <ele>171.6</ele>
        <time>2023-02-01T13:28:00Z</time>
      </trkpt>
      <trkpt lat="43.42097" lon="6.43473">
        <ele>171.2</ele>
        <time>2023-02-01T13:28:03Z</time>
      </trkpt>
      <trkpt lat="43.421" lon="6.43477">
        <ele>170.8</ele>
        <time>2023-02-01T13:28:07Z</time>
      </trkpt>
      <trkpt lat="43.42104" lon="6.4348">
        <ele>170</ele>
        <time>2023-02-01T13:28:11Z</time>
      </trkpt>
      <trkpt lat="43.42107" lon="6.43481">
        <ele>169</ele>
        <time>2023-02-01T13:28:15Z</time>
      </trkpt>
      <trkpt lat="43.42111" lon="6.43483">
        <ele>168.1</ele>
        <time>2023-02-01T13:28:20Z</time>
      </trkpt>
      <trkpt lat="43.42115" lon="6.43484">
        <ele>166.5</ele>
        <time>2023-02-01T13:28:27Z</time>
      </trkpt>
      <trkpt lat="43.42119" lon="6.43484">
        <ele>165.4</ele>
        <time>2023-02-01T13:28:32Z</time>
      </trkpt>
      <trkpt lat="43.42123" lon="6.43487">
        <ele>162.7</ele>
        <time>2023-02-01T13:28:56Z</time>
      </trkpt>
      <trkpt lat="43.42126" lon="6.43491">
        <ele>162.3</ele>
        <time>2023-02-01T13:29:04Z</time>
      </trkpt>
      <trkpt lat="43.42131" lon="6.4349">
        <ele>159.8</ele>
        <time>2023-02-01T13:29:27Z</time>
      </trkpt>
      <trkpt lat="43.42132" lon="6.43496">
        <ele>158.9</ele>
        <time>2023-02-01T13:29:38Z</time>
      </trkpt>
      <trkpt lat="43.42134" lon="6.43501">
        <ele>157.5</ele>
        <time>2023-02-01T13:29:48Z</time>
      </trkpt>
      <trkpt lat="43.42136" lon="6.43505">
        <ele>156.1</ele>
        <time>2023-02-01T13:29:54Z</time>
      </trkpt>
      <trkpt lat="43.42135" lon="6.43511">
        <ele>154.5</ele>
        <time>2023-02-01T13:30:05Z</time>
      </trkpt>
      <trkpt lat="43.42133" lon="6.43516">
        <ele>153</ele>
        <time>2023-02-01T13:30:15Z</time>
      </trkpt>
      <trkpt lat="43.4213" lon="6.43521">
        <ele>151.1</ele>
        <time>2023-02-01T13:30:26Z</time>
      </trkpt>
      <trkpt lat="43.42126" lon="6.43524">
        <ele>149.1</ele>
        <time>2023-02-01T13:30:38Z</time>
      </trkpt>
      <trkpt lat="43.42123" lon="6.43528">
        <ele>147.7</ele>
        <time>2023-02-01T13:30:45Z</time>
      </trkpt>
      <trkpt lat="43.42119" lon="6.4353">
        <ele>145.9</ele>
        <time>2023-02-01T13:30:54Z</time>
      </trkpt>
      <trkpt lat="43.42115" lon="6.43532">
        <ele>144.5</ele>
        <time>2023-02-01T13:31:02Z</time>
      </trkpt>
      <trkpt lat="43.42112" lon="6.43532">
        <ele>142.9</ele>
        <time>2023-02-01T13:31:10Z</time>
      </trkpt>
      <trkpt lat="43.42109" lon="6.43532">
        <ele>142.6</ele>
        <time>2023-02-01T13:31:12Z</time>
      </trkpt>
      <trkpt lat="43.42105" lon="6.43534">
        <ele>142.1</ele>
        <time>2023-02-01T13:31:15Z</time>
      </trkpt>
      <trkpt lat="43.42101" lon="6.43535">
        <ele>141.5</ele>
        <time>2023-02-01T13:31:19Z</time>
      </trkpt>
      <trkpt lat="43.42097" lon="6.43539">
        <ele>140.5</ele>
        <time>2023-02-01T13:31:23Z</time>
      </trkpt>
      <trkpt lat="43.42093" lon="6.43539">
        <ele>140.2</ele>
        <time>2023-02-01T13:31:27Z</time>
      </trkpt>
      <trkpt lat="43.42091" lon="6.43543">
        <ele>139.5</ele>
        <time>2023-02-01T13:31:32Z</time>
      </trkpt>
      <trkpt lat="43.42089" lon="6.43548">
        <ele>138.5</ele>
        <time>2023-02-01T13:31:38Z</time>
      </trkpt>
      <trkpt lat="43.42086" lon="6.43552">
        <ele>137.2</ele>
        <time>2023-02-01T13:31:43Z</time>
      </trkpt>
      <trkpt lat="43.42082" lon="6.43554">
        <ele>135</ele>
        <time>2023-02-01T13:31:59Z</time>
      </trkpt>
      <trkpt lat="43.42082" lon="6.43559">
        <ele>134</ele>
        <time>2023-02-01T13:32:04Z</time>
      </trkpt>
      <trkpt lat="43.42083" lon="6.43564">
        <ele>133</ele>
        <time>2023-02-01T13:32:08Z</time>
      </trkpt>
      <trkpt lat="43.4208" lon="6.43569">
        <ele>131.6</ele>
        <time>2023-02-01T13:32:17Z</time>
      </trkpt>
      <trkpt lat="43.42076" lon="6.4357">
        <ele>130.9</ele>
        <time>2023-02-01T13:32:22Z</time>
      </trkpt>
      <trkpt lat="43.42072" lon="6.4357">
        <ele>130.4</ele>
        <time>2023-02-01T13:32:26Z</time>
      </trkpt>
      <trkpt lat="43.42067" lon="6.43568">
        <ele>129.8</ele>
        <time>2023-02-01T13:32:30Z</time>
      </trkpt>
      <trkpt lat="43.42065" lon="6.43567">
        <ele>129.4</ele>
        <time>2023-02-01T13:32:32Z</time>
      </trkpt>
      <trkpt lat="43.42061" lon="6.43566">
        <ele>129.2</ele>
        <time>2023-02-01T13:32:34Z</time>
      </trkpt>
      <trkpt lat="43.42058" lon="6.43566">
        <ele>128.6</ele>
        <time>2023-02-01T13:32:38Z</time>
      </trkpt>
      <trkpt lat="43.42054" lon="6.43566">
        <ele>127.6</ele>
        <time>2023-02-01T13:32:43Z</time>
      </trkpt>
      <trkpt lat="43.4205" lon="6.43565">
        <ele>127.1</ele>
        <time>2023-02-01T13:32:46Z</time>
      </trkpt>
      <trkpt lat="43.42048" lon="6.43562">
        <ele>126.8</ele>
        <time>2023-02-01T13:32:49Z</time>
      </trkpt>
      <trkpt lat="43.42046" lon="6.43559">
        <ele>126.6</ele>
        <time>2023-02-01T13:32:51Z</time>
      </trkpt>
      <trkpt lat="43.42042" lon="6.43557">
        <ele>126</ele>
        <time>2023-02-01T13:32:54Z</time>
      </trkpt>
      <trkpt lat="43.42038" lon="6.43557">
        <ele>125.2</ele>
        <time>2023-02-01T13:32:58Z</time>
      </trkpt>
      <trkpt lat="43.42033" lon="6.43556">
        <ele>123.9</ele>
        <time>2023-02-01T13:33:05Z</time>
      </trkpt>
      <trkpt lat="43.4203" lon="6.43555">
        <ele>122.6</ele>
        <time>2023-02-01T13:33:11Z</time>
      </trkpt>
      <trkpt lat="43.42026" lon="6.43554">
        <ele>121.6</ele>
        <time>2023-02-01T13:33:15Z</time>
      </trkpt>
      <trkpt lat="43.42023" lon="6.43553">
        <ele>121.4</ele>
        <time>2023-02-01T13:33:17Z</time>
      </trkpt>
      <trkpt lat="43.4202" lon="6.43551">
        <ele>121.1</ele>
        <time>2023-02-01T13:33:20Z</time>
      </trkpt>
      <trkpt lat="43.42016" lon="6.43549">
        <ele>120.7</ele>
        <time>2023-02-01T13:33:23Z</time>
      </trkpt>
      <trkpt lat="43.42013" lon="6.43547">
        <ele>119.4</ele>
        <time>2023-02-01T13:33:27Z</time>
      </trkpt>
      <trkpt lat="43.42009" lon="6.43546">
        <ele>119.1</ele>
        <time>2023-02-01T13:33:31Z</time>
      </trkpt>
      <trkpt lat="43.42005" lon="6.43544">
        <ele>119.1</ele>
        <time>2023-02-01T13:33:35Z</time>
      </trkpt>
      <trkpt lat="43.42001" lon="6.43541">
        <ele>118.6</ele>
        <time>2023-02-01T13:33:39Z</time>
      </trkpt>
      <trkpt lat="43.41997" lon="6.43539">
        <ele>117.8</ele>
        <time>2023-02-01T13:33:43Z</time>
      </trkpt>
      <trkpt lat="43.41994" lon="6.43538">
        <ele>117.7</ele>
        <time>2023-02-01T13:33:45Z</time>
      </trkpt>
      <trkpt lat="43.41991" lon="6.43536">
        <ele>117.6</ele>
        <time>2023-02-01T13:33:47Z</time>
      </trkpt>
      <trkpt lat="43.41987" lon="6.43533">
        <ele>117</ele>
        <time>2023-02-01T13:33:51Z</time>
      </trkpt>
      <trkpt lat="43.41983" lon="6.43531">
        <ele>116.9</ele>
        <time>2023-02-01T13:33:55Z</time>
      </trkpt>
      <trkpt lat="43.41979" lon="6.43529">
        <ele>116.7</ele>
        <time>2023-02-01T13:33:59Z</time>
      </trkpt>
      <trkpt lat="43.41976" lon="6.43525">
        <ele>116.8</ele>
        <time>2023-02-01T13:34:02Z</time>
      </trkpt>
      <trkpt lat="43.41974" lon="6.43521">
        <ele>116.1</ele>
        <time>2023-02-01T13:34:07Z</time>
      </trkpt>
      <trkpt lat="43.4197" lon="6.43517">
        <ele>115.9</ele>
        <time>2023-02-01T13:34:12Z</time>
      </trkpt>
      <trkpt lat="43.41967" lon="6.43515">
        <ele>115.6</ele>
        <time>2023-02-01T13:34:16Z</time>
      </trkpt>
      <trkpt lat="43.41963" lon="6.43517">
        <ele>115.2</ele>
        <time>2023-02-01T13:34:19Z</time>
      </trkpt>
      <trkpt lat="43.41959" lon="6.4352">
        <ele>114.5</ele>
        <time>2023-02-01T13:34:23Z</time>
      </trkpt>
      <trkpt lat="43.41958" lon="6.43526">
        <ele>114.1</ele>
        <time>2023-02-01T13:34:26Z</time>
      </trkpt>
      <trkpt lat="43.41958" lon="6.43531">
        <ele>113.6</ele>
        <time>2023-02-01T13:34:29Z</time>
      </trkpt>
      <trkpt lat="43.41958" lon="6.43535">
        <ele>113.1</ele>
        <time>2023-02-01T13:34:32Z</time>
      </trkpt>
      <trkpt lat="43.41958" lon="6.43541">
        <ele>112.7</ele>
        <time>2023-02-01T13:34:36Z</time>
      </trkpt>
      <trkpt lat="43.41959" lon="6.43547">
        <ele>112</ele>
        <time>2023-02-01T13:34:42Z</time>
      </trkpt>
      <trkpt lat="43.41959" lon="6.43551">
        <ele>111.7</ele>
        <time>2023-02-01T13:34:44Z</time>
      </trkpt>
      <trkpt lat="43.4196" lon="6.43556">
        <ele>111.2</ele>
        <time>2023-02-01T13:34:47Z</time>
      </trkpt>
      <trkpt lat="43.41961" lon="6.43561">
        <ele>111</ele>
        <time>2023-02-01T13:34:50Z</time>
      </trkpt>
      <trkpt lat="43.41963" lon="6.43566">
        <ele>110.9</ele>
        <time>2023-02-01T13:34:53Z</time>
      </trkpt>
      <trkpt lat="43.41967" lon="6.4357">
        <ele>109.8</ele>
        <time>2023-02-01T13:35:11Z</time>
      </trkpt>
      <trkpt lat="43.41965" lon="6.43575">
        <ele>109.3</ele>
        <time>2023-02-01T13:35:32Z</time>
      </trkpt>
      <trkpt lat="43.41963" lon="6.4358">
        <ele>108.6</ele>
        <time>2023-02-01T13:35:37Z</time>
      </trkpt>
      <trkpt lat="43.41961" lon="6.43585">
        <ele>108.1</ele>
        <time>2023-02-01T13:35:41Z</time>
      </trkpt>
      <trkpt lat="43.41961" lon="6.4359">
        <ele>107.9</ele>
        <time>2023-02-01T13:35:44Z</time>
      </trkpt>
      <trkpt lat="43.4196" lon="6.43596">
        <ele>108</ele>
        <time>2023-02-01T13:35:47Z</time>
      </trkpt>
      <trkpt lat="43.41959" lon="6.43601">
        <ele>107.7</ele>
        <time>2023-02-01T13:35:50Z</time>
      </trkpt>
      <trkpt lat="43.41958" lon="6.43607">
        <ele>106.6</ele>
        <time>2023-02-01T13:35:54Z</time>
      </trkpt>
      <trkpt lat="43.41957" lon="6.43613">
        <ele>105.7</ele>
        <time>2023-02-01T13:35:58Z</time>
      </trkpt>
      <trkpt lat="43.41956" lon="6.43617">
        <ele>105.6</ele>
        <time>2023-02-01T13:36:00Z</time>
      </trkpt>
      <trkpt lat="43.41956" lon="6.43621">
        <ele>105.6</ele>
        <time>2023-02-01T13:36:02Z</time>
      </trkpt>
      <trkpt lat="43.41955" lon="6.43627">
        <ele>105.7</ele>
        <time>2023-02-01T13:36:04Z</time>
      </trkpt>
      <trkpt lat="43.41953" lon="6.43632">
        <ele>105.7</ele>
        <time>2023-02-01T13:36:07Z</time>
      </trkpt>
      <trkpt lat="43.41953" lon="6.43637">
        <ele>105.6</ele>
        <time>2023-02-01T13:36:09Z</time>
      </trkpt>
      <trkpt lat="43.41952" lon="6.43641">
        <ele>105.3</ele>
        <time>2023-02-01T13:36:11Z</time>
      </trkpt>
      <trkpt lat="43.41953" lon="6.43647">
        <ele>105.1</ele>
        <time>2023-02-01T13:36:13Z</time>
      </trkpt>
      <trkpt lat="43.41953" lon="6.43652">
        <ele>105</ele>
        <time>2023-02-01T13:36:15Z</time>
      </trkpt>
      <trkpt lat="43.41952" lon="6.43657">
        <ele>104.8</ele>
        <time>2023-02-01T13:36:17Z</time>
      </trkpt>
      <trkpt lat="43.41951" lon="6.43662">
        <ele>104.6</ele>
        <time>2023-02-01T13:36:19Z</time>
      </trkpt>
      <trkpt lat="43.4195" lon="6.43667">
        <ele>104.5</ele>
        <time>2023-02-01T13:36:21Z</time>
      </trkpt>
      <trkpt lat="43.41949" lon="6.43672">
        <ele>104.4</ele>
        <time>2023-02-01T13:36:23Z</time>
      </trkpt>
      <trkpt lat="43.41948" lon="6.43676">
        <ele>104.4</ele>
        <time>2023-02-01T13:36:25Z</time>
      </trkpt>
      <trkpt lat="43.41947" lon="6.43681">
        <ele>104.4</ele>
        <time>2023-02-01T13:36:27Z</time>
      </trkpt>
      <trkpt lat="43.41946" lon="6.43685">
        <ele>104.3</ele>
        <time>2023-02-01T13:36:29Z</time>
      </trkpt>
      <trkpt lat="43.41945" lon="6.4369">
        <ele>104</ele>
        <time>2023-02-01T13:36:31Z</time>
      </trkpt>
      <trkpt lat="43.41945" lon="6.43695">
        <ele>103.8</ele>
        <time>2023-02-01T13:36:33Z</time>
      </trkpt>
      <trkpt lat="43.41944" lon="6.437">
        <ele>103.6</ele>
        <time>2023-02-01T13:36:35Z</time>
      </trkpt>
      <trkpt lat="43.41945" lon="6.43705">
        <ele>103.5</ele>
        <time>2023-02-01T13:36:37Z</time>
      </trkpt>
      <trkpt lat="43.41943" lon="6.43711">
        <ele>103.3</ele>
        <time>2023-02-01T13:36:40Z</time>
      </trkpt>
      <trkpt lat="43.41942" lon="6.43717">
        <ele>102.5</ele>
        <time>2023-02-01T13:36:44Z</time>
      </trkpt>
      <trkpt lat="43.4194" lon="6.43722">
        <ele>101.9</ele>
        <time>2023-02-01T13:36:49Z</time>
      </trkpt>
      <trkpt lat="43.41939" lon="6.43728">
        <ele>100.7</ele>
        <time>2023-02-01T13:36:55Z</time>
      </trkpt>
      <trkpt lat="43.41938" lon="6.43733">
        <ele>100.1</ele>
        <time>2023-02-01T13:36:59Z</time>
      </trkpt>
      <trkpt lat="43.41937" lon="6.43738">
        <ele>100.7</ele>
        <time>2023-02-01T13:37:02Z</time>
      </trkpt>
      <trkpt lat="43.41936" lon="6.43744">
        <ele>101.1</ele>
        <time>2023-02-01T13:37:05Z</time>
      </trkpt>
      <trkpt lat="43.41935" lon="6.43748">
        <ele>101.3</ele>
        <time>2023-02-01T13:37:07Z</time>
      </trkpt>
      <trkpt lat="43.41933" lon="6.43752">
        <ele>101.3</ele>
        <time>2023-02-01T13:37:09Z</time>
      </trkpt>
      <trkpt lat="43.41931" lon="6.43755">
        <ele>101.3</ele>
        <time>2023-02-01T13:37:11Z</time>
      </trkpt>
      <trkpt lat="43.41928" lon="6.43757">
        <ele>101.3</ele>
        <time>2023-02-01T13:37:13Z</time>
      </trkpt>
      <trkpt lat="43.41924" lon="6.43755">
        <ele>101.2</ele>
        <time>2023-02-01T13:37:15Z</time>
      </trkpt>
      <trkpt lat="43.41921" lon="6.43753">
        <ele>101.2</ele>
        <time>2023-02-01T13:37:17Z</time>
      </trkpt>
      <trkpt lat="43.41918" lon="6.43752">
        <ele>101.1</ele>
        <time>2023-02-01T13:37:19Z</time>
      </trkpt>
      <trkpt lat="43.41914" lon="6.43748">
        <ele>100.8</ele>
        <time>2023-02-01T13:37:22Z</time>
      </trkpt>
      <trkpt lat="43.4191" lon="6.43746">
        <ele>100.2</ele>
        <time>2023-02-01T13:37:37Z</time>
      </trkpt>
      <trkpt lat="43.41907" lon="6.43746">
        <ele>100.4</ele>
        <time>2023-02-01T13:37:39Z</time>
      </trkpt>
      <trkpt lat="43.41904" lon="6.43746">
        <ele>100.6</ele>
        <time>2023-02-01T13:37:41Z</time>
      </trkpt>
      <trkpt lat="43.419" lon="6.43746">
        <ele>100.7</ele>
        <time>2023-02-01T13:37:43Z</time>
      </trkpt>
      <trkpt lat="43.41896" lon="6.43746">
        <ele>100.8</ele>
        <time>2023-02-01T13:37:46Z</time>
      </trkpt>
      <trkpt lat="43.41893" lon="6.43746">
        <ele>100.9</ele>
        <time>2023-02-01T13:37:49Z</time>
      </trkpt>
      <trkpt lat="43.41889" lon="6.43746">
        <ele>99.9</ele>
        <time>2023-02-01T13:37:52Z</time>
      </trkpt>
      <trkpt lat="43.41885" lon="6.43749">
        <ele>99.2</ele>
        <time>2023-02-01T13:37:56Z</time>
      </trkpt>
      <trkpt lat="43.41882" lon="6.43752">
        <ele>99.3</ele>
        <time>2023-02-01T13:37:59Z</time>
      </trkpt>
      <trkpt lat="43.41879" lon="6.43755">
        <ele>99.5</ele>
        <time>2023-02-01T13:38:01Z</time>
      </trkpt>
      <trkpt lat="43.41877" lon="6.43758">
        <ele>99.8</ele>
        <time>2023-02-01T13:38:03Z</time>
      </trkpt>
      <trkpt lat="43.41875" lon="6.43762">
        <ele>100</ele>
        <time>2023-02-01T13:38:05Z</time>
      </trkpt>
      <trkpt lat="43.41873" lon="6.43766">
        <ele>100</ele>
        <time>2023-02-01T13:38:07Z</time>
      </trkpt>
      <trkpt lat="43.41872" lon="6.43771">
        <ele>99.8</ele>
        <time>2023-02-01T13:38:09Z</time>
      </trkpt>
      <trkpt lat="43.41871" lon="6.43775">
        <ele>99.7</ele>
        <time>2023-02-01T13:38:11Z</time>
      </trkpt>
      <trkpt lat="43.4187" lon="6.4378">
        <ele>99.5</ele>
        <time>2023-02-01T13:38:13Z</time>
      </trkpt>
      <trkpt lat="43.41869" lon="6.43785">
        <ele>99.4</ele>
        <time>2023-02-01T13:38:15Z</time>
      </trkpt>
      <trkpt lat="43.41868" lon="6.4379">
        <ele>99.3</ele>
        <time>2023-02-01T13:38:17Z</time>
      </trkpt>
      <trkpt lat="43.41868" lon="6.43795">
        <ele>99.2</ele>
        <time>2023-02-01T13:38:19Z</time>
      </trkpt>
      <trkpt lat="43.41868" lon="6.43801">
        <ele>98.1</ele>
        <time>2023-02-01T13:38:24Z</time>
      </trkpt>
      <trkpt lat="43.41867" lon="6.43806">
        <ele>98.4</ele>
        <time>2023-02-01T13:38:27Z</time>
      </trkpt>
      <trkpt lat="43.41866" lon="6.43811">
        <ele>98.4</ele>
        <time>2023-02-01T13:38:29Z</time>
      </trkpt>
      <trkpt lat="43.41866" lon="6.43816">
        <ele>98.3</ele>
        <time>2023-02-01T13:38:31Z</time>
      </trkpt>
      <trkpt lat="43.41865" lon="6.43821">
        <ele>98.1</ele>
        <time>2023-02-01T13:38:33Z</time>
      </trkpt>
      <trkpt lat="43.41863" lon="6.43826">
        <ele>97.9</ele>
        <time>2023-02-01T13:38:36Z</time>
      </trkpt>
      <trkpt lat="43.41863" lon="6.43832">
        <ele>96.6</ele>
        <time>2023-02-01T13:38:41Z</time>
      </trkpt>
      <trkpt lat="43.41861" lon="6.43837">
        <ele>97.2</ele>
        <time>2023-02-01T13:38:45Z</time>
      </trkpt>
      <trkpt lat="43.41862" lon="6.43843">
        <ele>97.6</ele>
        <time>2023-02-01T13:38:48Z</time>
      </trkpt>
      <trkpt lat="43.41861" lon="6.43848">
        <ele>97.8</ele>
        <time>2023-02-01T13:38:50Z</time>
      </trkpt>
      <trkpt lat="43.41861" lon="6.43853">
        <ele>98</ele>
        <time>2023-02-01T13:38:52Z</time>
      </trkpt>
      <trkpt lat="43.4186" lon="6.43858">
        <ele>98</ele>
        <time>2023-02-01T13:38:54Z</time>
      </trkpt>
      <trkpt lat="43.41859" lon="6.43864">
        <ele>97.4</ele>
        <time>2023-02-01T13:38:58Z</time>
      </trkpt>
      <trkpt lat="43.41857" lon="6.43869">
        <ele>97.2</ele>
        <time>2023-02-01T13:39:03Z</time>
      </trkpt>
      <trkpt lat="43.41857" lon="6.43873">
        <ele>97.4</ele>
        <time>2023-02-01T13:39:05Z</time>
      </trkpt>
      <trkpt lat="43.41856" lon="6.43878">
        <ele>97.5</ele>
        <time>2023-02-01T13:39:07Z</time>
      </trkpt>
      <trkpt lat="43.41855" lon="6.43884">
        <ele>97.6</ele>
        <time>2023-02-01T13:39:10Z</time>
      </trkpt>
      <trkpt lat="43.41854" lon="6.43888">
        <ele>97.4</ele>
        <time>2023-02-01T13:39:12Z</time>
      </trkpt>
      <trkpt lat="43.41853" lon="6.43894">
        <ele>96.4</ele>
        <time>2023-02-01T13:39:16Z</time>
      </trkpt>
      <trkpt lat="43.41852" lon="6.43899">
        <ele>96.8</ele>
        <time>2023-02-01T13:39:20Z</time>
      </trkpt>
      <trkpt lat="43.41852" lon="6.43903">
        <ele>97</ele>
        <time>2023-02-01T13:39:22Z</time>
      </trkpt>
      <trkpt lat="43.41853" lon="6.43908">
        <ele>97.2</ele>
        <time>2023-02-01T13:39:24Z</time>
      </trkpt>
      <trkpt lat="43.41854" lon="6.43913">
        <ele>96.8</ele>
        <time>2023-02-01T13:39:27Z</time>
      </trkpt>
      <trkpt lat="43.41856" lon="6.43918">
        <ele>96.8</ele>
        <time>2023-02-01T13:39:32Z</time>
      </trkpt>
      <trkpt lat="43.41856" lon="6.43924">
        <ele>97.2</ele>
        <time>2023-02-01T13:39:35Z</time>
      </trkpt>
      <trkpt lat="43.41853" lon="6.43927">
        <ele>96.5</ele>
        <time>2023-02-01T13:39:39Z</time>
      </trkpt>
      <trkpt lat="43.4185" lon="6.43929">
        <ele>96.8</ele>
        <time>2023-02-01T13:39:42Z</time>
      </trkpt>
      <trkpt lat="43.41848" lon="6.43932">
        <ele>96.8</ele>
        <time>2023-02-01T13:39:44Z</time>
      </trkpt>
      <trkpt lat="43.41846" lon="6.43937">
        <ele>96.1</ele>
        <time>2023-02-01T13:39:47Z</time>
      </trkpt>
      <trkpt lat="43.41843" lon="6.4394">
        <ele>96.3</ele>
        <time>2023-02-01T13:39:51Z</time>
      </trkpt>
      <trkpt lat="43.41839" lon="6.43941">
        <ele>96</ele>
        <time>2023-02-01T13:39:55Z</time>
      </trkpt>
      <trkpt lat="43.41835" lon="6.4394">
        <ele>96</ele>
        <time>2023-02-01T13:39:58Z</time>
      </trkpt>
      <trkpt lat="43.41831" lon="6.43941">
        <ele>95.7</ele>
        <time>2023-02-01T13:40:02Z</time>
      </trkpt>
      <trkpt lat="43.41827" lon="6.43943">
        <ele>95.7</ele>
        <time>2023-02-01T13:40:06Z</time>
      </trkpt>
      <trkpt lat="43.41824" lon="6.43947">
        <ele>95.7</ele>
        <time>2023-02-01T13:40:11Z</time>
      </trkpt>
      <trkpt lat="43.41821" lon="6.43951">
        <ele>95.2</ele>
        <time>2023-02-01T13:40:15Z</time>
      </trkpt>
      <trkpt lat="43.41819" lon="6.43955">
        <ele>95.2</ele>
        <time>2023-02-01T13:40:19Z</time>
      </trkpt>
      <trkpt lat="43.41818" lon="6.43961">
        <ele>94.9</ele>
        <time>2023-02-01T13:40:23Z</time>
      </trkpt>
      <trkpt lat="43.41818" lon="6.43965">
        <ele>95.4</ele>
        <time>2023-02-01T13:40:26Z</time>
      </trkpt>
      <trkpt lat="43.41816" lon="6.4397">
        <ele>94.8</ele>
        <time>2023-02-01T13:40:30Z</time>
      </trkpt>
      <trkpt lat="43.41814" lon="6.43976">
        <ele>95</ele>
        <time>2023-02-01T13:40:35Z</time>
      </trkpt>
      <trkpt lat="43.41814" lon="6.43981">
        <ele>95.1</ele>
        <time>2023-02-01T13:40:40Z</time>
      </trkpt>
      <trkpt lat="43.41813" lon="6.43987">
        <ele>95.4</ele>
        <time>2023-02-01T13:40:45Z</time>
      </trkpt>
      <trkpt lat="43.41813" lon="6.43993">
        <ele>95</ele>
        <time>2023-02-01T13:40:49Z</time>
      </trkpt>
      <trkpt lat="43.41812" lon="6.43998">
        <ele>94.3</ele>
        <time>2023-02-01T13:40:55Z</time>
      </trkpt>
      <trkpt lat="43.41812" lon="6.44003">
        <ele>94.8</ele>
        <time>2023-02-01T13:40:58Z</time>
      </trkpt>
      <trkpt lat="43.41811" lon="6.44009">
        <ele>94.7</ele>
        <time>2023-02-01T13:41:02Z</time>
      </trkpt>
      <trkpt lat="43.41813" lon="6.44015">
        <ele>95</ele>
        <time>2023-02-01T13:41:06Z</time>
      </trkpt>
      <trkpt lat="43.41812" lon="6.4402">
        <ele>95</ele>
        <time>2023-02-01T13:41:10Z</time>
      </trkpt>
      <trkpt lat="43.41812" lon="6.44025">
        <ele>94.7</ele>
        <time>2023-02-01T13:41:14Z</time>
      </trkpt>
      <trkpt lat="43.41814" lon="6.4403">
        <ele>94.6</ele>
        <time>2023-02-01T13:41:18Z</time>
      </trkpt>
      <trkpt lat="43.41817" lon="6.44034">
        <ele>94.1</ele>
        <time>2023-02-01T13:41:21Z</time>
      </trkpt>
      <trkpt lat="43.41819" lon="6.44037">
        <ele>94.5</ele>
        <time>2023-02-01T13:41:24Z</time>
      </trkpt>
      <trkpt lat="43.41822" lon="6.44041">
        <ele>94.8</ele>
        <time>2023-02-01T13:41:27Z</time>
      </trkpt>
      <trkpt lat="43.41826" lon="6.44043">
        <ele>94.9</ele>
        <time>2023-02-01T13:41:49Z</time>
      </trkpt>
      <trkpt lat="43.4183" lon="6.44044">
        <ele>93.8</ele>
        <time>2023-02-01T13:42:08Z</time>
      </trkpt>
      <trkpt lat="43.41827" lon="6.44041">
        <ele>94.2</ele>
        <time>2023-02-01T13:42:26Z</time>
      </trkpt>
      <trkpt lat="43.41824" lon="6.44037">
        <ele>94.7</ele>
        <time>2023-02-01T13:42:30Z</time>
      </trkpt>
      <trkpt lat="43.41824" lon="6.44032">
        <ele>94.3</ele>
        <time>2023-02-01T13:42:35Z</time>
      </trkpt>
      <trkpt lat="43.4182" lon="6.44031">
        <ele>94.5</ele>
        <time>2023-02-01T13:42:58Z</time>
      </trkpt>
      <trkpt lat="43.41818" lon="6.44026">
        <ele>94.3</ele>
        <time>2023-02-01T13:43:02Z</time>
      </trkpt>
      <trkpt lat="43.41817" lon="6.44021">
        <ele>94.5</ele>
        <time>2023-02-01T13:43:04Z</time>
      </trkpt>
      <trkpt lat="43.41817" lon="6.44017">
        <ele>94.3</ele>
        <time>2023-02-01T13:43:08Z</time>
      </trkpt>
      <trkpt lat="43.41816" lon="6.44012">
        <ele>93.8</ele>
        <time>2023-02-01T13:43:11Z</time>
      </trkpt>
      <trkpt lat="43.41816" lon="6.44008">
        <ele>94.2</ele>
        <time>2023-02-01T13:43:14Z</time>
      </trkpt>
      <trkpt lat="43.41818" lon="6.44003">
        <ele>94.2</ele>
        <time>2023-02-01T13:43:17Z</time>
      </trkpt>
      <trkpt lat="43.4182" lon="6.43998">
        <ele>94.8</ele>
        <time>2023-02-01T13:43:35Z</time>
      </trkpt>
      <trkpt lat="43.4182" lon="6.43992">
        <ele>94.8</ele>
        <time>2023-02-01T13:43:46Z</time>
      </trkpt>
      <trkpt lat="43.41817" lon="6.43996">
        <ele>94.1</ele>
        <time>2023-02-01T13:44:04Z</time>
      </trkpt>
      <trkpt lat="43.41816" lon="6.44001">
        <ele>94.1</ele>
        <time>2023-02-01T13:44:07Z</time>
      </trkpt>
      <trkpt lat="43.41815" lon="6.44007">
        <ele>94.2</ele>
        <time>2023-02-01T13:44:12Z</time>
      </trkpt>
      <trkpt lat="43.41816" lon="6.44012">
        <ele>94.6</ele>
        <time>2023-02-01T13:44:15Z</time>
      </trkpt>
      <trkpt lat="43.41818" lon="6.44018">
        <ele>93.8</ele>
        <time>2023-02-01T13:44:19Z</time>
      </trkpt>
      <trkpt lat="43.41819" lon="6.44022">
        <ele>94.4</ele>
        <time>2023-02-01T13:44:22Z</time>
      </trkpt>
      <trkpt lat="43.41822" lon="6.44027">
        <ele>94.1</ele>
        <time>2023-02-01T13:44:25Z</time>
      </trkpt>
      <trkpt lat="43.41824" lon="6.44032">
        <ele>94.2</ele>
        <time>2023-02-01T13:44:29Z</time>
      </trkpt>
      <trkpt lat="43.41825" lon="6.44037">
        <ele>94.7</ele>
        <time>2023-02-01T13:44:31Z</time>
      </trkpt>
      <trkpt lat="43.41828" lon="6.44042">
        <ele>93.9</ele>
        <time>2023-02-01T13:44:34Z</time>
      </trkpt>
      <trkpt lat="43.41827" lon="6.44047">
        <ele>94.4</ele>
        <time>2023-02-01T13:44:39Z</time>
      </trkpt>
      <trkpt lat="43.41825" lon="6.44052">
        <ele>93.8</ele>
        <time>2023-02-01T13:44:49Z</time>
      </trkpt>
      <trkpt lat="43.41823" lon="6.44057">
        <ele>93.5</ele>
        <time>2023-02-01T13:45:14Z</time>
      </trkpt>
      <trkpt lat="43.41819" lon="6.44061">
        <ele>93.5</ele>
        <time>2023-02-01T13:45:21Z</time>
      </trkpt>
      <trkpt lat="43.41816" lon="6.44065">
        <ele>93.5</ele>
        <time>2023-02-01T13:45:27Z</time>
      </trkpt>
      <trkpt lat="43.41815" lon="6.4407">
        <ele>93</ele>
        <time>2023-02-01T13:45:36Z</time>
      </trkpt>
      <trkpt lat="43.41811" lon="6.44072">
        <ele>93.1</ele>
        <time>2023-02-01T13:45:49Z</time>
      </trkpt>
      <trkpt lat="43.41808" lon="6.44074">
        <ele>91.5</ele>
        <time>2023-02-01T13:45:57Z</time>
      </trkpt>
      <trkpt lat="43.41805" lon="6.44078">
        <ele>91.8</ele>
        <time>2023-02-01T13:46:00Z</time>
      </trkpt>
      <trkpt lat="43.41803" lon="6.44083">
        <ele>91.2</ele>
        <time>2023-02-01T13:46:04Z</time>
      </trkpt>
      <trkpt lat="43.41802" lon="6.44088">
        <ele>91.1</ele>
        <time>2023-02-01T13:46:08Z</time>
      </trkpt>
      <trkpt lat="43.41801" lon="6.44093">
        <ele>90.8</ele>
        <time>2023-02-01T13:46:11Z</time>
      </trkpt>
      <trkpt lat="43.41799" lon="6.44098">
        <ele>90.8</ele>
        <time>2023-02-01T13:46:13Z</time>
      </trkpt>
      <trkpt lat="43.41797" lon="6.44102">
        <ele>90.4</ele>
        <time>2023-02-01T13:46:16Z</time>
      </trkpt>
      <trkpt lat="43.41797" lon="6.44106">
        <ele>90.2</ele>
        <time>2023-02-01T13:46:18Z</time>
      </trkpt>
      <trkpt lat="43.41797" lon="6.44112">
        <ele>90.5</ele>
        <time>2023-02-01T13:46:21Z</time>
      </trkpt>
      <trkpt lat="43.41794" lon="6.44116">
        <ele>89.9</ele>
        <time>2023-02-01T13:46:27Z</time>
      </trkpt>
      <trkpt lat="43.41792" lon="6.44121">
        <ele>89.8</ele>
        <time>2023-02-01T13:46:32Z</time>
      </trkpt>
      <trkpt lat="43.4179" lon="6.44126">
        <ele>89.2</ele>
        <time>2023-02-01T13:46:37Z</time>
      </trkpt>
      <trkpt lat="43.41789" lon="6.44132">
        <ele>89.1</ele>
        <time>2023-02-01T13:46:43Z</time>
      </trkpt>
      <trkpt lat="43.41793" lon="6.44133">
        <ele>86.4</ele>
        <time>2023-02-01T13:47:02Z</time>
      </trkpt>
      <trkpt lat="43.41793" lon="6.44139">
        <ele>88</ele>
        <time>2023-02-01T13:47:07Z</time>
      </trkpt>
      <trkpt lat="43.41791" lon="6.44143">
        <ele>88.7</ele>
        <time>2023-02-01T13:47:11Z</time>
      </trkpt>
      <trkpt lat="43.41787" lon="6.44146">
        <ele>88.9</ele>
        <time>2023-02-01T13:47:14Z</time>
      </trkpt>
      <trkpt lat="43.41783" lon="6.44149">
        <ele>88.9</ele>
        <time>2023-02-01T13:47:18Z</time>
      </trkpt>
      <trkpt lat="43.41781" lon="6.44154">
        <ele>89.1</ele>
        <time>2023-02-01T13:47:22Z</time>
      </trkpt>
      <trkpt lat="43.41778" lon="6.44158">
        <ele>88.6</ele>
        <time>2023-02-01T13:47:28Z</time>
      </trkpt>
      <trkpt lat="43.41776" lon="6.44163">
        <ele>88.2</ele>
        <time>2023-02-01T13:47:33Z</time>
      </trkpt>
      <trkpt lat="43.41774" lon="6.44169">
        <ele>88.4</ele>
        <time>2023-02-01T13:47:36Z</time>
      </trkpt>
      <trkpt lat="43.41773" lon="6.44173">
        <ele>87.7</ele>
        <time>2023-02-01T13:47:40Z</time>
      </trkpt>
      <trkpt lat="43.41771" lon="6.44176">
        <ele>87.9</ele>
        <time>2023-02-01T13:47:42Z</time>
      </trkpt>
      <trkpt lat="43.41769" lon="6.44181">
        <ele>87.8</ele>
        <time>2023-02-01T13:47:46Z</time>
      </trkpt>
      <trkpt lat="43.41766" lon="6.44185">
        <ele>88.1</ele>
        <time>2023-02-01T13:47:49Z</time>
      </trkpt>
      <trkpt lat="43.41762" lon="6.44188">
        <ele>87.9</ele>
        <time>2023-02-01T13:47:54Z</time>
      </trkpt>
      <trkpt lat="43.41758" lon="6.44191">
        <ele>88</ele>
        <time>2023-02-01T13:47:58Z</time>
      </trkpt>
      <trkpt lat="43.41754" lon="6.44191">
        <ele>87.4</ele>
        <time>2023-02-01T13:48:01Z</time>
      </trkpt>
      <trkpt lat="43.41751" lon="6.44191">
        <ele>87.8</ele>
        <time>2023-02-01T13:48:03Z</time>
      </trkpt>
      <trkpt lat="43.41747" lon="6.44191">
        <ele>87.9</ele>
        <time>2023-02-01T13:48:05Z</time>
      </trkpt>
      <trkpt lat="43.41743" lon="6.4419">
        <ele>87.5</ele>
        <time>2023-02-01T13:48:11Z</time>
      </trkpt>
      <trkpt lat="43.41739" lon="6.44189">
        <ele>87.5</ele>
        <time>2023-02-01T13:48:15Z</time>
      </trkpt>
      <trkpt lat="43.41736" lon="6.44189">
        <ele>87.4</ele>
        <time>2023-02-01T13:48:17Z</time>
      </trkpt>
      <trkpt lat="43.41733" lon="6.44188">
        <ele>87.3</ele>
        <time>2023-02-01T13:48:19Z</time>
      </trkpt>
      <trkpt lat="43.41729" lon="6.44187">
        <ele>87.4</ele>
        <time>2023-02-01T13:48:21Z</time>
      </trkpt>
      <trkpt lat="43.41725" lon="6.44186">
        <ele>87.1</ele>
        <time>2023-02-01T13:48:25Z</time>
      </trkpt>
      <trkpt lat="43.41722" lon="6.44186">
        <ele>86.9</ele>
        <time>2023-02-01T13:48:29Z</time>
      </trkpt>
      <trkpt lat="43.41718" lon="6.44186">
        <ele>85.9</ele>
        <time>2023-02-01T13:48:32Z</time>
      </trkpt>
      <trkpt lat="43.41715" lon="6.44189">
        <ele>86</ele>
        <time>2023-02-01T13:48:35Z</time>
      </trkpt>
      <trkpt lat="43.41712" lon="6.44191">
        <ele>86.2</ele>
        <time>2023-02-01T13:48:37Z</time>
      </trkpt>
      <trkpt lat="43.41707" lon="6.44191">
        <ele>86</ele>
        <time>2023-02-01T13:48:40Z</time>
      </trkpt>
      <trkpt lat="43.41703" lon="6.4419">
        <ele>85.1</ele>
        <time>2023-02-01T13:48:45Z</time>
      </trkpt>
      <trkpt lat="43.417" lon="6.44191">
        <ele>85</ele>
        <time>2023-02-01T13:48:48Z</time>
      </trkpt>
      <trkpt lat="43.41696" lon="6.44193">
        <ele>84.7</ele>
        <time>2023-02-01T13:48:51Z</time>
      </trkpt>
      <trkpt lat="43.41693" lon="6.44194">
        <ele>84.7</ele>
        <time>2023-02-01T13:48:53Z</time>
      </trkpt>
      <trkpt lat="43.41689" lon="6.44195">
        <ele>84.7</ele>
        <time>2023-02-01T13:48:55Z</time>
      </trkpt>
      <trkpt lat="43.41685" lon="6.44197">
        <ele>84.4</ele>
        <time>2023-02-01T13:49:01Z</time>
      </trkpt>
      <trkpt lat="43.41683" lon="6.44197">
        <ele>84.3</ele>
        <time>2023-02-01T13:49:03Z</time>
      </trkpt>
      <trkpt lat="43.41679" lon="6.44199">
        <ele>84.3</ele>
        <time>2023-02-01T13:49:05Z</time>
      </trkpt>
      <trkpt lat="43.41676" lon="6.442">
        <ele>84.2</ele>
        <time>2023-02-01T13:49:07Z</time>
      </trkpt>
      <trkpt lat="43.41671" lon="6.44201">
        <ele>84.2</ele>
        <time>2023-02-01T13:49:09Z</time>
      </trkpt>
      <trkpt lat="43.41668" lon="6.44203">
        <ele>84.2</ele>
        <time>2023-02-01T13:49:11Z</time>
      </trkpt>
      <trkpt lat="43.41665" lon="6.44204">
        <ele>84.2</ele>
        <time>2023-02-01T13:49:13Z</time>
      </trkpt>
      <trkpt lat="43.41661" lon="6.44205">
        <ele>84.2</ele>
        <time>2023-02-01T13:49:16Z</time>
      </trkpt>
      <trkpt lat="43.41657" lon="6.44207">
        <ele>83.5</ele>
        <time>2023-02-01T13:49:20Z</time>
      </trkpt>
      <trkpt lat="43.41653" lon="6.44207">
        <ele>83</ele>
        <time>2023-02-01T13:49:26Z</time>
      </trkpt>
      <trkpt lat="43.41649" lon="6.44208">
        <ele>82.3</ele>
        <time>2023-02-01T13:49:31Z</time>
      </trkpt>
      <trkpt lat="43.41645" lon="6.4421">
        <ele>82</ele>
        <time>2023-02-01T13:49:34Z</time>
      </trkpt>
      <trkpt lat="43.41641" lon="6.4421">
        <ele>82</ele>
        <time>2023-02-01T13:49:37Z</time>
      </trkpt>
      <trkpt lat="43.41637" lon="6.44211">
        <ele>82</ele>
        <time>2023-02-01T13:49:40Z</time>
      </trkpt>
      <trkpt lat="43.41634" lon="6.44212">
        <ele>82</ele>
        <time>2023-02-01T13:49:42Z</time>
      </trkpt>
      <trkpt lat="43.4163" lon="6.44214">
        <ele>82</ele>
        <time>2023-02-01T13:49:44Z</time>
      </trkpt>
      <trkpt lat="43.41627" lon="6.44215">
        <ele>82</ele>
        <time>2023-02-01T13:49:46Z</time>
      </trkpt>
      <trkpt lat="43.41622" lon="6.44216">
        <ele>81.3</ele>
        <time>2023-02-01T13:49:50Z</time>
      </trkpt>
      <trkpt lat="43.41618" lon="6.44217">
        <ele>80.6</ele>
        <time>2023-02-01T13:49:54Z</time>
      </trkpt>
      <trkpt lat="43.41615" lon="6.44218">
        <ele>80.2</ele>
        <time>2023-02-01T13:49:58Z</time>
      </trkpt>
      <trkpt lat="43.41611" lon="6.44219">
        <ele>80</ele>
        <time>2023-02-01T13:50:01Z</time>
      </trkpt>
      <trkpt lat="43.41607" lon="6.4422">
        <ele>79.7</ele>
        <time>2023-02-01T13:50:03Z</time>
      </trkpt>
      <trkpt lat="43.41604" lon="6.44221">
        <ele>79.7</ele>
        <time>2023-02-01T13:50:05Z</time>
      </trkpt>
      <trkpt lat="43.41601" lon="6.44223">
        <ele>79.7</ele>
        <time>2023-02-01T13:50:07Z</time>
      </trkpt>
      <trkpt lat="43.41597" lon="6.44224">
        <ele>79.7</ele>
        <time>2023-02-01T13:50:09Z</time>
      </trkpt>
      <trkpt lat="43.41594" lon="6.44226">
        <ele>79.6</ele>
        <time>2023-02-01T13:50:11Z</time>
      </trkpt>
      <trkpt lat="43.4159" lon="6.44227">
        <ele>79.6</ele>
        <time>2023-02-01T13:50:13Z</time>
      </trkpt>
      <trkpt lat="43.41586" lon="6.44229">
        <ele>79.5</ele>
        <time>2023-02-01T13:50:15Z</time>
      </trkpt>
      <trkpt lat="43.41582" lon="6.44232">
        <ele>79.1</ele>
        <time>2023-02-01T13:50:18Z</time>
      </trkpt>
      <trkpt lat="43.4158" lon="6.44235">
        <ele>78.4</ele>
        <time>2023-02-01T13:50:23Z</time>
      </trkpt>
      <trkpt lat="43.41577" lon="6.4424">
        <ele>78.1</ele>
        <time>2023-02-01T13:50:27Z</time>
      </trkpt>
      <trkpt lat="43.41574" lon="6.44243">
        <ele>78.2</ele>
        <time>2023-02-01T13:50:29Z</time>
      </trkpt>
      <trkpt lat="43.41571" lon="6.44245">
        <ele>78.2</ele>
        <time>2023-02-01T13:50:31Z</time>
      </trkpt>
      <trkpt lat="43.41568" lon="6.44249">
        <ele>77.8</ele>
        <time>2023-02-01T13:50:36Z</time>
      </trkpt>
      <trkpt lat="43.41566" lon="6.44253">
        <ele>77.6</ele>
        <time>2023-02-01T13:50:46Z</time>
      </trkpt>
      <trkpt lat="43.41564" lon="6.44258">
        <ele>77.5</ele>
        <time>2023-02-01T13:50:50Z</time>
      </trkpt>
      <trkpt lat="43.41565" lon="6.44264">
        <ele>76.7</ele>
        <time>2023-02-01T13:50:57Z</time>
      </trkpt>
      <trkpt lat="43.41568" lon="6.44266">
        <ele>76.9</ele>
        <time>2023-02-01T13:50:59Z</time>
      </trkpt>
      <trkpt lat="43.41572" lon="6.44269">
        <ele>75.7</ele>
        <time>2023-02-01T13:51:02Z</time>
      </trkpt>
      <trkpt lat="43.41574" lon="6.44273">
        <ele>76.4</ele>
        <time>2023-02-01T13:51:06Z</time>
      </trkpt>
      <trkpt lat="43.41575" lon="6.44277">
        <ele>77.8</ele>
        <time>2023-02-01T13:51:13Z</time>
      </trkpt>
      <trkpt lat="43.41578" lon="6.44281">
        <ele>77.6</ele>
        <time>2023-02-01T13:51:16Z</time>
      </trkpt>
      <trkpt lat="43.41581" lon="6.44284">
        <ele>78</ele>
        <time>2023-02-01T13:51:18Z</time>
      </trkpt>
      <trkpt lat="43.41583" lon="6.44288">
        <ele>78.2</ele>
        <time>2023-02-01T13:51:20Z</time>
      </trkpt>
      <trkpt lat="43.41587" lon="6.44292">
        <ele>77.4</ele>
        <time>2023-02-01T13:51:24Z</time>
      </trkpt>
      <trkpt lat="43.41589" lon="6.44294">
        <ele>77.6</ele>
        <time>2023-02-01T13:51:27Z</time>
      </trkpt>
      <trkpt lat="43.41592" lon="6.44297">
        <ele>77.1</ele>
        <time>2023-02-01T13:51:29Z</time>
      </trkpt>
      <trkpt lat="43.41595" lon="6.443">
        <ele>78</ele>
        <time>2023-02-01T13:51:31Z</time>
      </trkpt>
      <trkpt lat="43.41597" lon="6.44305">
        <ele>78.9</ele>
        <time>2023-02-01T13:51:36Z</time>
      </trkpt>
      <trkpt lat="43.41599" lon="6.44309">
        <ele>78.5</ele>
        <time>2023-02-01T13:51:39Z</time>
      </trkpt>
      <trkpt lat="43.416" lon="6.44313">
        <ele>78.8</ele>
        <time>2023-02-01T13:51:41Z</time>
      </trkpt>
      <trkpt lat="43.41601" lon="6.44318">
        <ele>79.6</ele>
        <time>2023-02-01T13:51:43Z</time>
      </trkpt>
      <trkpt lat="43.41602" lon="6.44324">
        <ele>79.9</ele>
        <time>2023-02-01T13:51:47Z</time>
      </trkpt>
      <trkpt lat="43.41603" lon="6.4433">
        <ele>80.3</ele>
        <time>2023-02-01T13:51:51Z</time>
      </trkpt>
      <trkpt lat="43.41604" lon="6.44334">
        <ele>80.6</ele>
        <time>2023-02-01T13:51:53Z</time>
      </trkpt>
      <trkpt lat="43.41605" lon="6.44339">
        <ele>80.9</ele>
        <time>2023-02-01T13:51:55Z</time>
      </trkpt>
      <trkpt lat="43.41607" lon="6.44344">
        <ele>80.8</ele>
        <time>2023-02-01T13:51:58Z</time>
      </trkpt>
      <trkpt lat="43.41607" lon="6.4435">
        <ele>80.9</ele>
        <time>2023-02-01T13:52:03Z</time>
      </trkpt>
      <trkpt lat="43.41608" lon="6.44354">
        <ele>80.7</ele>
        <time>2023-02-01T13:52:05Z</time>
      </trkpt>
      <trkpt lat="43.41609" lon="6.44359">
        <ele>81.1</ele>
        <time>2023-02-01T13:52:07Z</time>
      </trkpt>
      <trkpt lat="43.41609" lon="6.44364">
        <ele>81.5</ele>
        <time>2023-02-01T13:52:09Z</time>
      </trkpt>
      <trkpt lat="43.4161" lon="6.44369">
        <ele>81.2</ele>
        <time>2023-02-01T13:52:14Z</time>
      </trkpt>
      <trkpt lat="43.4161" lon="6.44374">
        <ele>81</ele>
        <time>2023-02-01T13:52:17Z</time>
      </trkpt>
      <trkpt lat="43.41609" lon="6.44379">
        <ele>81.2</ele>
        <time>2023-02-01T13:52:19Z</time>
      </trkpt>
      <trkpt lat="43.41609" lon="6.44383">
        <ele>81.8</ele>
        <time>2023-02-01T13:52:21Z</time>
      </trkpt>
      <trkpt lat="43.41609" lon="6.44388">
        <ele>82.2</ele>
        <time>2023-02-01T13:52:23Z</time>
      </trkpt>
      <trkpt lat="43.41609" lon="6.44394">
        <ele>81.6</ele>
        <time>2023-02-01T13:52:28Z</time>
      </trkpt>
      <trkpt lat="43.41611" lon="6.44398">
        <ele>82</ele>
        <time>2023-02-01T13:52:31Z</time>
      </trkpt>
      <trkpt lat="43.41612" lon="6.44402">
        <ele>82.5</ele>
        <time>2023-02-01T13:52:33Z</time>
      </trkpt>
      <trkpt lat="43.41614" lon="6.44406">
        <ele>82.2</ele>
        <time>2023-02-01T13:52:36Z</time>
      </trkpt>
      <trkpt lat="43.41616" lon="6.4441">
        <ele>82.3</ele>
        <time>2023-02-01T13:52:40Z</time>
      </trkpt>
      <trkpt lat="43.41619" lon="6.44413">
        <ele>82.2</ele>
        <time>2023-02-01T13:52:42Z</time>
      </trkpt>
      <trkpt lat="43.41623" lon="6.44416">
        <ele>82.9</ele>
        <time>2023-02-01T13:52:44Z</time>
      </trkpt>
      <trkpt lat="43.41626" lon="6.44417">
        <ele>83.1</ele>
        <time>2023-02-01T13:52:48Z</time>
      </trkpt>
      <trkpt lat="43.4163" lon="6.44419">
        <ele>83.6</ele>
        <time>2023-02-01T13:52:51Z</time>
      </trkpt>
      <trkpt lat="43.41633" lon="6.4442">
        <ele>84.3</ele>
        <time>2023-02-01T13:52:53Z</time>
      </trkpt>
      <trkpt lat="43.41637" lon="6.44422">
        <ele>83.3</ele>
        <time>2023-02-01T13:52:57Z</time>
      </trkpt>
      <trkpt lat="43.41641" lon="6.44424">
        <ele>84.6</ele>
        <time>2023-02-01T13:53:01Z</time>
      </trkpt>
      <trkpt lat="43.41645" lon="6.44426">
        <ele>85.3</ele>
        <time>2023-02-01T13:53:04Z</time>
      </trkpt>
      <trkpt lat="43.41649" lon="6.44427">
        <ele>85.3</ele>
        <time>2023-02-01T13:53:09Z</time>
      </trkpt>
      <trkpt lat="43.41653" lon="6.44428">
        <ele>86.6</ele>
        <time>2023-02-01T13:53:13Z</time>
      </trkpt>
      <trkpt lat="43.41657" lon="6.44429">
        <ele>87.3</ele>
        <time>2023-02-01T13:53:18Z</time>
      </trkpt>
      <trkpt lat="43.4166" lon="6.44431">
        <ele>87.7</ele>
        <time>2023-02-01T13:53:23Z</time>
      </trkpt>
      <trkpt lat="43.41664" lon="6.44435">
        <ele>88.4</ele>
        <time>2023-02-01T13:53:26Z</time>
      </trkpt>
      <trkpt lat="43.41667" lon="6.44438">
        <ele>88.6</ele>
        <time>2023-02-01T13:53:31Z</time>
      </trkpt>
      <trkpt lat="43.41671" lon="6.44442">
        <ele>88.2</ele>
        <time>2023-02-01T13:53:37Z</time>
      </trkpt>
      <trkpt lat="43.41673" lon="6.44444">
        <ele>89.4</ele>
        <time>2023-02-01T13:53:41Z</time>
      </trkpt>
      <trkpt lat="43.41677" lon="6.44447">
        <ele>89.8</ele>
        <time>2023-02-01T13:53:45Z</time>
      </trkpt>
      <trkpt lat="43.41679" lon="6.44451">
        <ele>90.6</ele>
        <time>2023-02-01T13:53:48Z</time>
      </trkpt>
      <trkpt lat="43.41681" lon="6.44456">
        <ele>91.4</ele>
        <time>2023-02-01T13:53:53Z</time>
      </trkpt>
      <trkpt lat="43.41682" lon="6.44462">
        <ele>92.1</ele>
        <time>2023-02-01T13:53:58Z</time>
      </trkpt>
      <trkpt lat="43.41684" lon="6.44468">
        <ele>92.6</ele>
        <time>2023-02-01T13:54:01Z</time>
      </trkpt>
      <trkpt lat="43.41685" lon="6.44473">
        <ele>92.8</ele>
        <time>2023-02-01T13:54:06Z</time>
      </trkpt>
      <trkpt lat="43.41686" lon="6.44478">
        <ele>93.1</ele>
        <time>2023-02-01T13:54:09Z</time>
      </trkpt>
      <trkpt lat="43.41687" lon="6.44483">
        <ele>93.2</ele>
        <time>2023-02-01T13:54:14Z</time>
      </trkpt>
      <trkpt lat="43.41689" lon="6.44488">
        <ele>93.4</ele>
        <time>2023-02-01T13:54:17Z</time>
      </trkpt>
      <trkpt lat="43.4169" lon="6.44494">
        <ele>93.9</ele>
        <time>2023-02-01T13:54:20Z</time>
      </trkpt>
      <trkpt lat="43.41691" lon="6.44499">
        <ele>93.6</ele>
        <time>2023-02-01T13:54:25Z</time>
      </trkpt>
      <trkpt lat="43.41691" lon="6.44503">
        <ele>93.5</ele>
        <time>2023-02-01T13:54:27Z</time>
      </trkpt>
      <trkpt lat="43.41692" lon="6.44508">
        <ele>93.9</ele>
        <time>2023-02-01T13:54:29Z</time>
      </trkpt>
      <trkpt lat="43.41692" lon="6.44514">
        <ele>93.9</ele>
        <time>2023-02-01T13:54:34Z</time>
      </trkpt>
      <trkpt lat="43.41694" lon="6.44519">
        <ele>94.2</ele>
        <time>2023-02-01T13:54:37Z</time>
      </trkpt>
      <trkpt lat="43.41694" lon="6.44524">
        <ele>94.5</ele>
        <time>2023-02-01T13:54:39Z</time>
      </trkpt>
      <trkpt lat="43.41695" lon="6.44529">
        <ele>94.1</ele>
        <time>2023-02-01T13:54:43Z</time>
      </trkpt>
      <trkpt lat="43.41695" lon="6.44534">
        <ele>94.5</ele>
        <time>2023-02-01T13:54:46Z</time>
      </trkpt>
      <trkpt lat="43.41696" lon="6.44538">
        <ele>94.8</ele>
        <time>2023-02-01T13:54:48Z</time>
      </trkpt>
      <trkpt lat="43.41697" lon="6.44544">
        <ele>94.3</ele>
        <time>2023-02-01T13:54:53Z</time>
      </trkpt>
      <trkpt lat="43.41698" lon="6.4455">
        <ele>94.9</ele>
        <time>2023-02-01T13:54:56Z</time>
      </trkpt>
      <trkpt lat="43.41699" lon="6.44555">
        <ele>95.2</ele>
        <time>2023-02-01T13:55:01Z</time>
      </trkpt>
      <trkpt lat="43.417" lon="6.4456">
        <ele>95.5</ele>
        <time>2023-02-01T13:55:03Z</time>
      </trkpt>
      <trkpt lat="43.41701" lon="6.44565">
        <ele>95.5</ele>
        <time>2023-02-01T13:55:07Z</time>
      </trkpt>
      <trkpt lat="43.41703" lon="6.44569">
        <ele>95.2</ele>
        <time>2023-02-01T13:55:10Z</time>
      </trkpt>
      <trkpt lat="43.41704" lon="6.44573">
        <ele>95.6</ele>
        <time>2023-02-01T13:55:12Z</time>
      </trkpt>
      <trkpt lat="43.41705" lon="6.44579">
        <ele>95.2</ele>
        <time>2023-02-01T13:55:16Z</time>
      </trkpt>
      <trkpt lat="43.41706" lon="6.44583">
        <ele>95.6</ele>
        <time>2023-02-01T13:55:19Z</time>
      </trkpt>
      <trkpt lat="43.41708" lon="6.44588">
        <ele>96</ele>
        <time>2023-02-01T13:55:21Z</time>
      </trkpt>
      <trkpt lat="43.41708" lon="6.44592">
        <ele>96.4</ele>
        <time>2023-02-01T13:55:23Z</time>
      </trkpt>
      <trkpt lat="43.4171" lon="6.44598">
        <ele>96.6</ele>
        <time>2023-02-01T13:55:28Z</time>
      </trkpt>
      <trkpt lat="43.41711" lon="6.44603">
        <ele>96.7</ele>
        <time>2023-02-01T13:55:31Z</time>
      </trkpt>
      <trkpt lat="43.41711" lon="6.44609">
        <ele>97.1</ele>
        <time>2023-02-01T13:55:48Z</time>
      </trkpt>
      <trkpt lat="43.41713" lon="6.44614">
        <ele>95.1</ele>
        <time>2023-02-01T13:56:41Z</time>
      </trkpt>
      <trkpt lat="43.41716" lon="6.44618">
        <ele>96.6</ele>
        <time>2023-02-01T13:56:45Z</time>
      </trkpt>
      <trkpt lat="43.41718" lon="6.44623">
        <ele>97</ele>
        <time>2023-02-01T13:56:48Z</time>
      </trkpt>
      <trkpt lat="43.41719" lon="6.44628">
        <ele>97.1</ele>
        <time>2023-02-01T13:56:50Z</time>
      </trkpt>
      <trkpt lat="43.4172" lon="6.44634">
        <ele>97</ele>
        <time>2023-02-01T13:56:53Z</time>
      </trkpt>
      <trkpt lat="43.41722" lon="6.44639">
        <ele>96.6</ele>
        <time>2023-02-01T13:56:56Z</time>
      </trkpt>
      <trkpt lat="43.41723" lon="6.44643">
        <ele>96.8</ele>
        <time>2023-02-01T13:56:58Z</time>
      </trkpt>
      <trkpt lat="43.41724" lon="6.44648">
        <ele>96.9</ele>
        <time>2023-02-01T13:57:00Z</time>
      </trkpt>
      <trkpt lat="43.41724" lon="6.44652">
        <ele>97</ele>
        <time>2023-02-01T13:57:02Z</time>
      </trkpt>
      <trkpt lat="43.41725" lon="6.44657">
        <ele>97.1</ele>
        <time>2023-02-01T13:57:04Z</time>
      </trkpt>
      <trkpt lat="43.41726" lon="6.44662">
        <ele>97.2</ele>
        <time>2023-02-01T13:57:06Z</time>
      </trkpt>
      <trkpt lat="43.41727" lon="6.44667">
        <ele>97.3</ele>
        <time>2023-02-01T13:57:08Z</time>
      </trkpt>
      <trkpt lat="43.41729" lon="6.44672">
        <ele>97.3</ele>
        <time>2023-02-01T13:57:10Z</time>
      </trkpt>
      <trkpt lat="43.4173" lon="6.44676">
        <ele>97.2</ele>
        <time>2023-02-01T13:57:12Z</time>
      </trkpt>
      <trkpt lat="43.41731" lon="6.44681">
        <ele>97.2</ele>
        <time>2023-02-01T13:57:14Z</time>
      </trkpt>
      <trkpt lat="43.41732" lon="6.44687">
        <ele>97.3</ele>
        <time>2023-02-01T13:57:16Z</time>
      </trkpt>
      <trkpt lat="43.41733" lon="6.44691">
        <ele>97.3</ele>
        <time>2023-02-01T13:57:18Z</time>
      </trkpt>
      <trkpt lat="43.41734" lon="6.44697">
        <ele>97.4</ele>
        <time>2023-02-01T13:57:20Z</time>
      </trkpt>
      <trkpt lat="43.41735" lon="6.44701">
        <ele>97.4</ele>
        <time>2023-02-01T13:57:22Z</time>
      </trkpt>
      <trkpt lat="43.41736" lon="6.44706">
        <ele>97.5</ele>
        <time>2023-02-01T13:57:24Z</time>
      </trkpt>
      <trkpt lat="43.41736" lon="6.44711">
        <ele>97.5</ele>
        <time>2023-02-01T13:57:26Z</time>
      </trkpt>
      <trkpt lat="43.41736" lon="6.44717">
        <ele>97.4</ele>
        <time>2023-02-01T13:57:29Z</time>
      </trkpt>
      <trkpt lat="43.41734" lon="6.44722">
        <ele>97.4</ele>
        <time>2023-02-01T13:57:32Z</time>
      </trkpt>
      <trkpt lat="43.4173" lon="6.44726">
        <ele>96.8</ele>
        <time>2023-02-01T13:57:35Z</time>
      </trkpt>
      <trkpt lat="43.41727" lon="6.44728">
        <ele>95.9</ele>
        <time>2023-02-01T13:57:38Z</time>
      </trkpt>
      <trkpt lat="43.41723" lon="6.44729">
        <ele>95.6</ele>
        <time>2023-02-01T13:57:41Z</time>
      </trkpt>
      <trkpt lat="43.41719" lon="6.44729">
        <ele>94.7</ele>
        <time>2023-02-01T13:57:45Z</time>
      </trkpt>
      <trkpt lat="43.41715" lon="6.44729">
        <ele>94.4</ele>
        <time>2023-02-01T13:57:48Z</time>
      </trkpt>
      <trkpt lat="43.41711" lon="6.44731">
        <ele>94.4</ele>
        <time>2023-02-01T13:57:51Z</time>
      </trkpt>
      <trkpt lat="43.41707" lon="6.44732">
        <ele>94.3</ele>
        <time>2023-02-01T13:57:53Z</time>
      </trkpt>
      <trkpt lat="43.41705" lon="6.44733">
        <ele>94.3</ele>
        <time>2023-02-01T13:57:54Z</time>
      </trkpt>
      <trkpt lat="43.41701" lon="6.44735">
        <ele>94.1</ele>
        <time>2023-02-01T13:57:56Z</time>
      </trkpt>
      <trkpt lat="43.41698" lon="6.44738">
        <ele>93.5</ele>
        <time>2023-02-01T13:57:58Z</time>
      </trkpt>
      <trkpt lat="43.41694" lon="6.44739">
        <ele>92.8</ele>
        <time>2023-02-01T13:58:02Z</time>
      </trkpt>
      <trkpt lat="43.41691" lon="6.44741">
        <ele>91.8</ele>
        <time>2023-02-01T13:58:06Z</time>
      </trkpt>
      <trkpt lat="43.41687" lon="6.44743">
        <ele>91.3</ele>
        <time>2023-02-01T13:58:09Z</time>
      </trkpt>
      <trkpt lat="43.41683" lon="6.44746">
        <ele>90.8</ele>
        <time>2023-02-01T13:58:11Z</time>
      </trkpt>
      <trkpt lat="43.41678" lon="6.44748">
        <ele>89.9</ele>
        <time>2023-02-01T13:58:13Z</time>
      </trkpt>
      <trkpt lat="43.41675" lon="6.4475">
        <ele>88.9</ele>
        <time>2023-02-01T13:58:15Z</time>
      </trkpt>
      <trkpt lat="43.41671" lon="6.44752">
        <ele>88.3</ele>
        <time>2023-02-01T13:58:17Z</time>
      </trkpt>
      <trkpt lat="43.41668" lon="6.44754">
        <ele>87.9</ele>
        <time>2023-02-01T13:58:19Z</time>
      </trkpt>
      <trkpt lat="43.41665" lon="6.44756">
        <ele>87.9</ele>
        <time>2023-02-01T13:58:21Z</time>
      </trkpt>
      <trkpt lat="43.41661" lon="6.44758">
        <ele>87.8</ele>
        <time>2023-02-01T13:58:23Z</time>
      </trkpt>
      <trkpt lat="43.41658" lon="6.4476">
        <ele>87.6</ele>
        <time>2023-02-01T13:58:25Z</time>
      </trkpt>
      <trkpt lat="43.41654" lon="6.44762">
        <ele>85.4</ele>
        <time>2023-02-01T13:58:28Z</time>
      </trkpt>
      <trkpt lat="43.4165" lon="6.44762">
        <ele>84.7</ele>
        <time>2023-02-01T13:58:30Z</time>
      </trkpt>
      <trkpt lat="43.41647" lon="6.44762">
        <ele>84.7</ele>
        <time>2023-02-01T13:58:32Z</time>
      </trkpt>
      <trkpt lat="43.41644" lon="6.44761">
        <ele>85.9</ele>
        <time>2023-02-01T13:58:34Z</time>
      </trkpt>
      <trkpt lat="43.41641" lon="6.44759">
        <ele>87.1</ele>
        <time>2023-02-01T13:58:36Z</time>
      </trkpt>
      <trkpt lat="43.41639" lon="6.44756">
        <ele>88.2</ele>
        <time>2023-02-01T13:58:38Z</time>
      </trkpt>
      <trkpt lat="43.41635" lon="6.44753">
        <ele>89.3</ele>
        <time>2023-02-01T13:58:41Z</time>
      </trkpt>
      <trkpt lat="43.41635" lon="6.44759">
        <ele>91.2</ele>
        <time>2023-02-01T13:58:55Z</time>
      </trkpt>
      <trkpt lat="43.41638" lon="6.44763">
        <ele>91.4</ele>
        <time>2023-02-01T13:58:57Z</time>
      </trkpt>
      <trkpt lat="43.4164" lon="6.44768">
        <ele>91.4</ele>
        <time>2023-02-01T13:59:02Z</time>
      </trkpt>
      <trkpt lat="43.41642" lon="6.44772">
        <ele>91.5</ele>
        <time>2023-02-01T13:59:05Z</time>
      </trkpt>
      <trkpt lat="43.41644" lon="6.44776">
        <ele>91.9</ele>
        <time>2023-02-01T13:59:07Z</time>
      </trkpt>
      <trkpt lat="43.41646" lon="6.4478">
        <ele>92.4</ele>
        <time>2023-02-01T13:59:09Z</time>
      </trkpt>
      <trkpt lat="43.41649" lon="6.44785">
        <ele>92.4</ele>
        <time>2023-02-01T13:59:14Z</time>
      </trkpt>
      <trkpt lat="43.41652" lon="6.44788">
        <ele>92.8</ele>
        <time>2023-02-01T13:59:17Z</time>
      </trkpt>
      <trkpt lat="43.41655" lon="6.44792">
        <ele>93.8</ele>
        <time>2023-02-01T13:59:22Z</time>
      </trkpt>
      <trkpt lat="43.41658" lon="6.44789">
        <ele>94.1</ele>
        <time>2023-02-01T13:59:39Z</time>
      </trkpt>
      <trkpt lat="43.41654" lon="6.44791">
        <ele>93.7</ele>
        <time>2023-02-01T14:00:14Z</time>
      </trkpt>
      <trkpt lat="43.41655" lon="6.44796">
        <ele>93.4</ele>
        <time>2023-02-01T14:00:20Z</time>
      </trkpt>
      <trkpt lat="43.41653" lon="6.448">
        <ele>90.8</ele>
        <time>2023-02-01T14:00:28Z</time>
      </trkpt>
      <trkpt lat="43.41649" lon="6.44803">
        <ele>94</ele>
        <time>2023-02-01T14:00:34Z</time>
      </trkpt>
      <trkpt lat="43.41645" lon="6.44805">
        <ele>96.6</ele>
        <time>2023-02-01T14:00:41Z</time>
      </trkpt>
      <trkpt lat="43.41644" lon="6.44811">
        <ele>96.3</ele>
        <time>2023-02-01T14:01:49Z</time>
      </trkpt>
      <trkpt lat="43.41641" lon="6.44814">
        <ele>95.3</ele>
        <time>2023-02-01T14:01:53Z</time>
      </trkpt>
      <trkpt lat="43.41639" lon="6.44818">
        <ele>90.8</ele>
        <time>2023-02-01T14:01:59Z</time>
      </trkpt>
      <trkpt lat="43.41637" lon="6.44823">
        <ele>97.9</ele>
        <time>2023-02-01T14:02:05Z</time>
      </trkpt>
      <trkpt lat="43.4164" lon="6.44828">
        <ele>99.5</ele>
        <time>2023-02-01T14:02:09Z</time>
      </trkpt>
      <trkpt lat="43.41641" lon="6.44832">
        <ele>101</ele>
        <time>2023-02-01T14:02:13Z</time>
      </trkpt>
      <trkpt lat="43.41643" lon="6.44837">
        <ele>100.3</ele>
        <time>2023-02-01T14:02:18Z</time>
      </trkpt>
      <trkpt lat="43.41644" lon="6.44843">
        <ele>101.6</ele>
        <time>2023-02-01T14:02:22Z</time>
      </trkpt>
      <trkpt lat="43.41647" lon="6.44847">
        <ele>102.5</ele>
        <time>2023-02-01T14:02:26Z</time>
      </trkpt>
      <trkpt lat="43.41649" lon="6.44852">
        <ele>103.3</ele>
        <time>2023-02-01T14:02:29Z</time>
      </trkpt>
      <trkpt lat="43.41652" lon="6.44857">
        <ele>102.9</ele>
        <time>2023-02-01T14:02:36Z</time>
      </trkpt>
      <trkpt lat="43.41654" lon="6.44861">
        <ele>103.3</ele>
        <time>2023-02-01T14:02:40Z</time>
      </trkpt>
      <trkpt lat="43.41655" lon="6.44866">
        <ele>103.6</ele>
        <time>2023-02-01T14:02:43Z</time>
      </trkpt>
      <trkpt lat="43.41657" lon="6.44872">
        <ele>104</ele>
        <time>2023-02-01T14:02:48Z</time>
      </trkpt>
      <trkpt lat="43.41658" lon="6.44877">
        <ele>104.1</ele>
        <time>2023-02-01T14:02:51Z</time>
      </trkpt>
      <trkpt lat="43.41659" lon="6.44882">
        <ele>104.1</ele>
        <time>2023-02-01T14:02:55Z</time>
      </trkpt>
      <trkpt lat="43.4166" lon="6.44887">
        <ele>105.6</ele>
        <time>2023-02-01T14:03:00Z</time>
      </trkpt>
      <trkpt lat="43.41662" lon="6.44893">
        <ele>105.3</ele>
        <time>2023-02-01T14:03:03Z</time>
      </trkpt>
      <trkpt lat="43.4166" lon="6.44898">
        <ele>106.6</ele>
        <time>2023-02-01T14:03:08Z</time>
      </trkpt>
      <trkpt lat="43.4166" lon="6.44904">
        <ele>107.7</ele>
        <time>2023-02-01T14:03:12Z</time>
      </trkpt>
      <trkpt lat="43.41658" lon="6.44909">
        <ele>109.6</ele>
        <time>2023-02-01T14:03:18Z</time>
      </trkpt>
      <trkpt lat="43.41656" lon="6.44914">
        <ele>110.4</ele>
        <time>2023-02-01T14:03:33Z</time>
      </trkpt>
      <trkpt lat="43.41654" lon="6.44919">
        <ele>110.2</ele>
        <time>2023-02-01T14:03:42Z</time>
      </trkpt>
      <trkpt lat="43.41654" lon="6.44925">
        <ele>110.1</ele>
        <time>2023-02-01T14:03:49Z</time>
      </trkpt>
      <trkpt lat="43.41656" lon="6.44929">
        <ele>109.6</ele>
        <time>2023-02-01T14:03:54Z</time>
      </trkpt>
      <trkpt lat="43.41659" lon="6.44933">
        <ele>109.9</ele>
        <time>2023-02-01T14:03:57Z</time>
      </trkpt>
      <trkpt lat="43.41662" lon="6.44936">
        <ele>110</ele>
        <time>2023-02-01T14:04:01Z</time>
      </trkpt>
      <trkpt lat="43.41667" lon="6.44937">
        <ele>109.9</ele>
        <time>2023-02-01T14:04:05Z</time>
      </trkpt>
      <trkpt lat="43.4167" lon="6.44938">
        <ele>109.7</ele>
        <time>2023-02-01T14:04:09Z</time>
      </trkpt>
      <trkpt lat="43.41673" lon="6.44941">
        <ele>109.9</ele>
        <time>2023-02-01T14:04:12Z</time>
      </trkpt>
      <trkpt lat="43.41676" lon="6.44945">
        <ele>109.6</ele>
        <time>2023-02-01T14:04:17Z</time>
      </trkpt>
      <trkpt lat="43.41679" lon="6.44947">
        <ele>109.2</ele>
        <time>2023-02-01T14:04:20Z</time>
      </trkpt>
      <trkpt lat="43.41682" lon="6.44948">
        <ele>109.3</ele>
        <time>2023-02-01T14:04:22Z</time>
      </trkpt>
      <trkpt lat="43.41685" lon="6.44952">
        <ele>109.4</ele>
        <time>2023-02-01T14:04:26Z</time>
      </trkpt>
      <trkpt lat="43.41688" lon="6.44956">
        <ele>109.5</ele>
        <time>2023-02-01T14:04:31Z</time>
      </trkpt>
      <trkpt lat="43.41692" lon="6.44959">
        <ele>109.5</ele>
        <time>2023-02-01T14:04:36Z</time>
      </trkpt>
      <trkpt lat="43.41695" lon="6.44962">
        <ele>109.4</ele>
        <time>2023-02-01T14:04:40Z</time>
      </trkpt>
      <trkpt lat="43.41698" lon="6.44965">
        <ele>109.5</ele>
        <time>2023-02-01T14:04:44Z</time>
      </trkpt>
      <trkpt lat="43.41702" lon="6.44969">
        <ele>109.5</ele>
        <time>2023-02-01T14:04:48Z</time>
      </trkpt>
      <trkpt lat="43.41705" lon="6.44972">
        <ele>109.5</ele>
        <time>2023-02-01T14:04:52Z</time>
      </trkpt>
      <trkpt lat="43.41707" lon="6.44975">
        <ele>109.5</ele>
        <time>2023-02-01T14:04:55Z</time>
      </trkpt>
      <trkpt lat="43.41711" lon="6.44977">
        <ele>109.6</ele>
        <time>2023-02-01T14:05:00Z</time>
      </trkpt>
      <trkpt lat="43.41715" lon="6.44981">
        <ele>109.6</ele>
        <time>2023-02-01T14:05:05Z</time>
      </trkpt>
      <trkpt lat="43.41718" lon="6.44983">
        <ele>109.5</ele>
        <time>2023-02-01T14:05:08Z</time>
      </trkpt>
      <trkpt lat="43.41721" lon="6.44987">
        <ele>109.8</ele>
        <time>2023-02-01T14:05:12Z</time>
      </trkpt>
      <trkpt lat="43.41724" lon="6.4499">
        <ele>109.9</ele>
        <time>2023-02-01T14:05:15Z</time>
      </trkpt>
      <trkpt lat="43.41728" lon="6.44992">
        <ele>109.9</ele>
        <time>2023-02-01T14:05:19Z</time>
      </trkpt>
      <trkpt lat="43.41731" lon="6.44994">
        <ele>110.4</ele>
        <time>2023-02-01T14:05:22Z</time>
      </trkpt>
      <trkpt lat="43.41734" lon="6.44997">
        <ele>110.2</ele>
        <time>2023-02-01T14:05:26Z</time>
      </trkpt>
      <trkpt lat="43.41738" lon="6.44998">
        <ele>110.3</ele>
        <time>2023-02-01T14:05:29Z</time>
      </trkpt>
      <trkpt lat="43.41742" lon="6.44999">
        <ele>110.6</ele>
        <time>2023-02-01T14:05:32Z</time>
      </trkpt>
      <trkpt lat="43.41745" lon="6.45002">
        <ele>110.6</ele>
        <time>2023-02-01T14:05:36Z</time>
      </trkpt>
      <trkpt lat="43.41748" lon="6.45005">
        <ele>110.6</ele>
        <time>2023-02-01T14:05:39Z</time>
      </trkpt>
      <trkpt lat="43.41751" lon="6.45007">
        <ele>110.6</ele>
        <time>2023-02-01T14:05:42Z</time>
      </trkpt>
      <trkpt lat="43.41755" lon="6.45009">
        <ele>110.5</ele>
        <time>2023-02-01T14:05:47Z</time>
      </trkpt>
      <trkpt lat="43.41758" lon="6.45009">
        <ele>110.5</ele>
        <time>2023-02-01T14:05:49Z</time>
      </trkpt>
      <trkpt lat="43.41761" lon="6.45012">
        <ele>110.7</ele>
        <time>2023-02-01T14:05:51Z</time>
      </trkpt>
      <trkpt lat="43.41765" lon="6.45015">
        <ele>110.7</ele>
        <time>2023-02-01T14:05:56Z</time>
      </trkpt>
      <trkpt lat="43.41768" lon="6.45016">
        <ele>110.2</ele>
        <time>2023-02-01T14:05:58Z</time>
      </trkpt>
      <trkpt lat="43.41771" lon="6.45018">
        <ele>110.4</ele>
        <time>2023-02-01T14:06:00Z</time>
      </trkpt>
      <trkpt lat="43.41775" lon="6.4502">
        <ele>110.5</ele>
        <time>2023-02-01T14:06:02Z</time>
      </trkpt>
      <trkpt lat="43.41777" lon="6.45023">
        <ele>110.1</ele>
        <time>2023-02-01T14:06:05Z</time>
      </trkpt>
      <trkpt lat="43.41781" lon="6.45026">
        <ele>110.8</ele>
        <time>2023-02-01T14:06:09Z</time>
      </trkpt>
      <trkpt lat="43.41783" lon="6.45029">
        <ele>111</ele>
        <time>2023-02-01T14:06:12Z</time>
      </trkpt>
      <trkpt lat="43.41786" lon="6.45034">
        <ele>111.5</ele>
        <time>2023-02-01T14:06:15Z</time>
      </trkpt>
      <trkpt lat="43.41789" lon="6.45036">
        <ele>111.7</ele>
        <time>2023-02-01T14:06:19Z</time>
      </trkpt>
      <trkpt lat="43.41792" lon="6.4504">
        <ele>111.8</ele>
        <time>2023-02-01T14:06:23Z</time>
      </trkpt>
      <trkpt lat="43.41795" lon="6.45044">
        <ele>112.1</ele>
        <time>2023-02-01T14:06:28Z</time>
      </trkpt>
      <trkpt lat="43.41798" lon="6.45049">
        <ele>112.8</ele>
        <time>2023-02-01T14:06:31Z</time>
      </trkpt>
      <trkpt lat="43.418" lon="6.45052">
        <ele>112.9</ele>
        <time>2023-02-01T14:06:35Z</time>
      </trkpt>
      <trkpt lat="43.41802" lon="6.45057">
        <ele>113.6</ele>
        <time>2023-02-01T14:06:37Z</time>
      </trkpt>
      <trkpt lat="43.41803" lon="6.45061">
        <ele>114</ele>
        <time>2023-02-01T14:06:41Z</time>
      </trkpt>
      <trkpt lat="43.41805" lon="6.45066">
        <ele>114.4</ele>
        <time>2023-02-01T14:06:45Z</time>
      </trkpt>
      <trkpt lat="43.41806" lon="6.45071">
        <ele>114.8</ele>
        <time>2023-02-01T14:06:49Z</time>
      </trkpt>
      <trkpt lat="43.41807" lon="6.45076">
        <ele>114.9</ele>
        <time>2023-02-01T14:06:54Z</time>
      </trkpt>
      <trkpt lat="43.41808" lon="6.45082">
        <ele>115.4</ele>
        <time>2023-02-01T14:06:59Z</time>
      </trkpt>
      <trkpt lat="43.4181" lon="6.45087">
        <ele>115.8</ele>
        <time>2023-02-01T14:07:04Z</time>
      </trkpt>
      <trkpt lat="43.4181" lon="6.45093">
        <ele>116.2</ele>
        <time>2023-02-01T14:07:22Z</time>
      </trkpt>
      <trkpt lat="43.4181" lon="6.45099">
        <ele>116.3</ele>
        <time>2023-02-01T14:07:30Z</time>
      </trkpt>
      <trkpt lat="43.41808" lon="6.45104">
        <ele>115.6</ele>
        <time>2023-02-01T14:07:38Z</time>
      </trkpt>
      <trkpt lat="43.4181" lon="6.45109">
        <ele>114.6</ele>
        <time>2023-02-01T14:07:43Z</time>
      </trkpt>
      <trkpt lat="43.41807" lon="6.45113">
        <ele>115.7</ele>
        <time>2023-02-01T14:07:50Z</time>
      </trkpt>
      <trkpt lat="43.41804" lon="6.45117">
        <ele>115.6</ele>
        <time>2023-02-01T14:07:54Z</time>
      </trkpt>
      <trkpt lat="43.41801" lon="6.45121">
        <ele>115.4</ele>
        <time>2023-02-01T14:07:58Z</time>
      </trkpt>
      <trkpt lat="43.41797" lon="6.45124">
        <ele>114.9</ele>
        <time>2023-02-01T14:08:03Z</time>
      </trkpt>
      <trkpt lat="43.41794" lon="6.45127">
        <ele>114.5</ele>
        <time>2023-02-01T14:08:07Z</time>
      </trkpt>
      <trkpt lat="43.41791" lon="6.4513">
        <ele>114</ele>
        <time>2023-02-01T14:08:12Z</time>
      </trkpt>
      <trkpt lat="43.41787" lon="6.45132">
        <ele>113.6</ele>
        <time>2023-02-01T14:08:17Z</time>
      </trkpt>
      <trkpt lat="43.41783" lon="6.45135">
        <ele>112.8</ele>
        <time>2023-02-01T14:08:22Z</time>
      </trkpt>
      <trkpt lat="43.4178" lon="6.45138">
        <ele>112.3</ele>
        <time>2023-02-01T14:08:26Z</time>
      </trkpt>
      <trkpt lat="43.41777" lon="6.4514">
        <ele>111.8</ele>
        <time>2023-02-01T14:08:31Z</time>
      </trkpt>
      <trkpt lat="43.41773" lon="6.45144">
        <ele>111.2</ele>
        <time>2023-02-01T14:08:36Z</time>
      </trkpt>
      <trkpt lat="43.41771" lon="6.45149">
        <ele>110.3</ele>
        <time>2023-02-01T14:08:41Z</time>
      </trkpt>
      <trkpt lat="43.41767" lon="6.45152">
        <ele>110</ele>
        <time>2023-02-01T14:08:46Z</time>
      </trkpt>
      <trkpt lat="43.41765" lon="6.45154">
        <ele>109.8</ele>
        <time>2023-02-01T14:08:50Z</time>
      </trkpt>
      <trkpt lat="43.41762" lon="6.45157">
        <ele>109.4</ele>
        <time>2023-02-01T14:08:54Z</time>
      </trkpt>
      <trkpt lat="43.41758" lon="6.4516">
        <ele>108.9</ele>
        <time>2023-02-01T14:08:58Z</time>
      </trkpt>
      <trkpt lat="43.41754" lon="6.45163">
        <ele>108.4</ele>
        <time>2023-02-01T14:09:03Z</time>
      </trkpt>
      <trkpt lat="43.4175" lon="6.45167">
        <ele>107.8</ele>
        <time>2023-02-01T14:09:07Z</time>
      </trkpt>
      <trkpt lat="43.41747" lon="6.45171">
        <ele>107.2</ele>
        <time>2023-02-01T14:09:12Z</time>
      </trkpt>
      <trkpt lat="43.41744" lon="6.45174">
        <ele>106.7</ele>
        <time>2023-02-01T14:09:17Z</time>
      </trkpt>
      <trkpt lat="43.4174" lon="6.45178">
        <ele>106.3</ele>
        <time>2023-02-01T14:09:23Z</time>
      </trkpt>
      <trkpt lat="43.41738" lon="6.45182">
        <ele>105.7</ele>
        <time>2023-02-01T14:09:29Z</time>
      </trkpt>
      <trkpt lat="43.41734" lon="6.45185">
        <ele>105.3</ele>
        <time>2023-02-01T14:09:34Z</time>
      </trkpt>
      <trkpt lat="43.41731" lon="6.45189">
        <ele>104.9</ele>
        <time>2023-02-01T14:09:40Z</time>
      </trkpt>
      <trkpt lat="43.41727" lon="6.45193">
        <ele>104.7</ele>
        <time>2023-02-01T14:09:44Z</time>
      </trkpt>
      <trkpt lat="43.41724" lon="6.45196">
        <ele>104.6</ele>
        <time>2023-02-01T14:09:48Z</time>
      </trkpt>
      <trkpt lat="43.41721" lon="6.45201">
        <ele>104.3</ele>
        <time>2023-02-01T14:09:53Z</time>
      </trkpt>
      <trkpt lat="43.41718" lon="6.45204">
        <ele>103.9</ele>
        <time>2023-02-01T14:09:58Z</time>
      </trkpt>
      <trkpt lat="43.41715" lon="6.45209">
        <ele>103.3</ele>
        <time>2023-02-01T14:10:04Z</time>
      </trkpt>
      <trkpt lat="43.41713" lon="6.45212">
        <ele>102.7</ele>
        <time>2023-02-01T14:10:09Z</time>
      </trkpt>
      <trkpt lat="43.41713" lon="6.45217">
        <ele>102.7</ele>
        <time>2023-02-01T14:10:12Z</time>
      </trkpt>
      <trkpt lat="43.41713" lon="6.45223">
        <ele>102.4</ele>
        <time>2023-02-01T14:10:16Z</time>
      </trkpt>
      <trkpt lat="43.41714" lon="6.45226">
        <ele>102.4</ele>
        <time>2023-02-01T14:10:18Z</time>
      </trkpt>
      <trkpt lat="43.41717" lon="6.4523">
        <ele>102.1</ele>
        <time>2023-02-01T14:10:22Z</time>
      </trkpt>
      <trkpt lat="43.41719" lon="6.45236">
        <ele>102.1</ele>
        <time>2023-02-01T14:10:25Z</time>
      </trkpt>
      <trkpt lat="43.4172" lon="6.45241">
        <ele>102</ele>
        <time>2023-02-01T14:10:30Z</time>
      </trkpt>
      <trkpt lat="43.41722" lon="6.45246">
        <ele>101.5</ele>
        <time>2023-02-01T14:10:35Z</time>
      </trkpt>
      <trkpt lat="43.41724" lon="6.4525">
        <ele>101.6</ele>
        <time>2023-02-01T14:10:38Z</time>
      </trkpt>
      <trkpt lat="43.41726" lon="6.45255">
        <ele>101.5</ele>
        <time>2023-02-01T14:10:42Z</time>
      </trkpt>
      <trkpt lat="43.41727" lon="6.4526">
        <ele>101.2</ele>
        <time>2023-02-01T14:10:46Z</time>
      </trkpt>
      <trkpt lat="43.41728" lon="6.45265">
        <ele>100.9</ele>
        <time>2023-02-01T14:10:49Z</time>
      </trkpt>
      <trkpt lat="43.4173" lon="6.45269">
        <ele>100.7</ele>
        <time>2023-02-01T14:10:53Z</time>
      </trkpt>
      <trkpt lat="43.41732" lon="6.45273">
        <ele>100.6</ele>
        <time>2023-02-01T14:10:58Z</time>
      </trkpt>
      <trkpt lat="43.41734" lon="6.45278">
        <ele>100.3</ele>
        <time>2023-02-01T14:11:04Z</time>
      </trkpt>
      <trkpt lat="43.41736" lon="6.45282">
        <ele>99.8</ele>
        <time>2023-02-01T14:11:07Z</time>
      </trkpt>
      <trkpt lat="43.41737" lon="6.45288">
        <ele>100.2</ele>
        <time>2023-02-01T14:11:12Z</time>
      </trkpt>
      <trkpt lat="43.41734" lon="6.45292">
        <ele>100.1</ele>
        <time>2023-02-01T14:11:16Z</time>
      </trkpt>
      <trkpt lat="43.41732" lon="6.45295">
        <ele>100.1</ele>
        <time>2023-02-01T14:11:18Z</time>
      </trkpt>
      <trkpt lat="43.4173" lon="6.45301">
        <ele>99.9</ele>
        <time>2023-02-01T14:11:23Z</time>
      </trkpt>
      <trkpt lat="43.41727" lon="6.45304">
        <ele>99.8</ele>
        <time>2023-02-01T14:11:32Z</time>
      </trkpt>
      <trkpt lat="43.4173" lon="6.453">
        <ele>99.3</ele>
        <time>2023-02-01T14:11:41Z</time>
      </trkpt>
      <trkpt lat="43.41731" lon="6.45297">
        <ele>99.5</ele>
        <time>2023-02-01T14:11:43Z</time>
      </trkpt>
      <trkpt lat="43.41735" lon="6.45294">
        <ele>99.2</ele>
        <time>2023-02-01T14:11:46Z</time>
      </trkpt>
      <trkpt lat="43.4174" lon="6.45294">
        <ele>99.1</ele>
        <time>2023-02-01T14:11:53Z</time>
      </trkpt>
      <trkpt lat="43.41742" lon="6.45298">
        <ele>99.9</ele>
        <time>2023-02-01T14:11:58Z</time>
      </trkpt>
      <trkpt lat="43.41745" lon="6.45302">
        <ele>99.3</ele>
        <time>2023-02-01T14:12:03Z</time>
      </trkpt>
      <trkpt lat="43.41749" lon="6.45303">
        <ele>101.2</ele>
        <time>2023-02-01T14:12:08Z</time>
      </trkpt>
      <trkpt lat="43.41753" lon="6.45306">
        <ele>103.1</ele>
        <time>2023-02-01T14:12:16Z</time>
      </trkpt>
      <trkpt lat="43.41754" lon="6.45311">
        <ele>103.7</ele>
        <time>2023-02-01T14:12:21Z</time>
      </trkpt>
      <trkpt lat="43.41756" lon="6.45315">
        <ele>104.4</ele>
        <time>2023-02-01T14:12:24Z</time>
      </trkpt>
      <trkpt lat="43.41758" lon="6.45321">
        <ele>104.4</ele>
        <time>2023-02-01T14:12:29Z</time>
      </trkpt>
      <trkpt lat="43.4176" lon="6.45325">
        <ele>104.4</ele>
        <time>2023-02-01T14:12:32Z</time>
      </trkpt>
      <trkpt lat="43.41762" lon="6.45331">
        <ele>104.5</ele>
        <time>2023-02-01T14:12:36Z</time>
      </trkpt>
      <trkpt lat="43.41762" lon="6.45336">
        <ele>104.4</ele>
        <time>2023-02-01T14:12:39Z</time>
      </trkpt>
      <trkpt lat="43.41762" lon="6.45341">
        <ele>104.4</ele>
        <time>2023-02-01T14:12:44Z</time>
      </trkpt>
      <trkpt lat="43.41759" lon="6.45345">
        <ele>105.2</ele>
        <time>2023-02-01T14:12:51Z</time>
      </trkpt>
      <trkpt lat="43.41756" lon="6.45345">
        <ele>105.1</ele>
        <time>2023-02-01T14:12:54Z</time>
      </trkpt>
      <trkpt lat="43.41752" lon="6.45345">
        <ele>104.4</ele>
        <time>2023-02-01T14:12:57Z</time>
      </trkpt>
      <trkpt lat="43.41747" lon="6.45345">
        <ele>103</ele>
        <time>2023-02-01T14:13:04Z</time>
      </trkpt>
      <trkpt lat="43.41743" lon="6.45345">
        <ele>102.8</ele>
        <time>2023-02-01T14:13:08Z</time>
      </trkpt>
      <trkpt lat="43.41739" lon="6.45344">
        <ele>102.3</ele>
        <time>2023-02-01T14:13:12Z</time>
      </trkpt>
      <trkpt lat="43.41735" lon="6.45346">
        <ele>102</ele>
        <time>2023-02-01T14:13:18Z</time>
      </trkpt>
      <trkpt lat="43.41734" lon="6.45352">
        <ele>101.7</ele>
        <time>2023-02-01T14:13:37Z</time>
      </trkpt>
      <trkpt lat="43.41735" lon="6.45357">
        <ele>101.6</ele>
        <time>2023-02-01T14:13:39Z</time>
      </trkpt>
      <trkpt lat="43.41735" lon="6.45363">
        <ele>101</ele>
        <time>2023-02-01T14:13:43Z</time>
      </trkpt>
      <trkpt lat="43.41737" lon="6.45368">
        <ele>100.7</ele>
        <time>2023-02-01T14:13:47Z</time>
      </trkpt>
      <trkpt lat="43.4174" lon="6.45372">
        <ele>100.7</ele>
        <time>2023-02-01T14:13:52Z</time>
      </trkpt>
      <trkpt lat="43.41744" lon="6.45375">
        <ele>100.6</ele>
        <time>2023-02-01T14:13:57Z</time>
      </trkpt>
      <trkpt lat="43.41747" lon="6.45378">
        <ele>101.8</ele>
        <time>2023-02-01T14:14:01Z</time>
      </trkpt>
      <trkpt lat="43.41749" lon="6.45382">
        <ele>102.1</ele>
        <time>2023-02-01T14:14:04Z</time>
      </trkpt>
      <trkpt lat="43.41751" lon="6.45388">
        <ele>103.2</ele>
        <time>2023-02-01T14:14:08Z</time>
      </trkpt>
      <trkpt lat="43.41752" lon="6.45394">
        <ele>103.5</ele>
        <time>2023-02-01T14:14:12Z</time>
      </trkpt>
      <trkpt lat="43.41753" lon="6.45399">
        <ele>104</ele>
        <time>2023-02-01T14:14:15Z</time>
      </trkpt>
      <trkpt lat="43.41752" lon="6.45405">
        <ele>104.1</ele>
        <time>2023-02-01T14:14:19Z</time>
      </trkpt>
      <trkpt lat="43.41752" lon="6.45411">
        <ele>104.3</ele>
        <time>2023-02-01T14:14:23Z</time>
      </trkpt>
      <trkpt lat="43.41752" lon="6.45415">
        <ele>104.2</ele>
        <time>2023-02-01T14:14:25Z</time>
      </trkpt>
      <trkpt lat="43.41753" lon="6.45421">
        <ele>104.4</ele>
        <time>2023-02-01T14:14:28Z</time>
      </trkpt>
      <trkpt lat="43.41752" lon="6.45426">
        <ele>104</ele>
        <time>2023-02-01T14:14:32Z</time>
      </trkpt>
      <trkpt lat="43.41752" lon="6.45432">
        <ele>103.2</ele>
        <time>2023-02-01T14:14:36Z</time>
      </trkpt>
      <trkpt lat="43.41753" lon="6.45436">
        <ele>103.5</ele>
        <time>2023-02-01T14:14:38Z</time>
      </trkpt>
      <trkpt lat="43.41752" lon="6.45441">
        <ele>103.6</ele>
        <time>2023-02-01T14:14:42Z</time>
      </trkpt>
      <trkpt lat="43.41751" lon="6.45446">
        <ele>103.4</ele>
        <time>2023-02-01T14:14:46Z</time>
      </trkpt>
      <trkpt lat="43.41751" lon="6.45452">
        <ele>103.4</ele>
        <time>2023-02-01T14:14:49Z</time>
      </trkpt>
      <trkpt lat="43.41752" lon="6.45457">
        <ele>102.7</ele>
        <time>2023-02-01T14:14:54Z</time>
      </trkpt>
      <trkpt lat="43.41753" lon="6.45462">
        <ele>103.1</ele>
        <time>2023-02-01T14:14:57Z</time>
      </trkpt>
      <trkpt lat="43.41753" lon="6.45467">
        <ele>102.6</ele>
        <time>2023-02-01T14:15:01Z</time>
      </trkpt>
      <trkpt lat="43.41754" lon="6.45472">
        <ele>102.9</ele>
        <time>2023-02-01T14:15:04Z</time>
      </trkpt>
      <trkpt lat="43.41754" lon="6.45476">
        <ele>102.7</ele>
        <time>2023-02-01T14:15:07Z</time>
      </trkpt>
      <trkpt lat="43.41755" lon="6.45481">
        <ele>102.8</ele>
        <time>2023-02-01T14:15:09Z</time>
      </trkpt>
      <trkpt lat="43.41756" lon="6.45486">
        <ele>102.3</ele>
        <time>2023-02-01T14:15:13Z</time>
      </trkpt>
      <trkpt lat="43.41758" lon="6.45491">
        <ele>102.3</ele>
        <time>2023-02-01T14:15:16Z</time>
      </trkpt>
      <trkpt lat="43.4176" lon="6.45495">
        <ele>102.4</ele>
        <time>2023-02-01T14:15:18Z</time>
      </trkpt>
      <trkpt lat="43.41761" lon="6.45499">
        <ele>102.2</ele>
        <time>2023-02-01T14:15:22Z</time>
      </trkpt>
      <trkpt lat="43.41762" lon="6.45505">
        <ele>102.2</ele>
        <time>2023-02-01T14:15:25Z</time>
      </trkpt>
      <trkpt lat="43.41764" lon="6.4551">
        <ele>102.4</ele>
        <time>2023-02-01T14:15:29Z</time>
      </trkpt>
      <trkpt lat="43.41767" lon="6.45514">
        <ele>102.5</ele>
        <time>2023-02-01T14:15:33Z</time>
      </trkpt>
      <trkpt lat="43.4177" lon="6.45518">
        <ele>102.6</ele>
        <time>2023-02-01T14:15:36Z</time>
      </trkpt>
      <trkpt lat="43.41773" lon="6.45522">
        <ele>102.6</ele>
        <time>2023-02-01T14:15:41Z</time>
      </trkpt>
      <trkpt lat="43.41775" lon="6.45526">
        <ele>102.6</ele>
        <time>2023-02-01T14:15:43Z</time>
      </trkpt>
      <trkpt lat="43.41778" lon="6.4553">
        <ele>102.6</ele>
        <time>2023-02-01T14:15:48Z</time>
      </trkpt>
      <trkpt lat="43.41782" lon="6.45533">
        <ele>102</ele>
        <time>2023-02-01T14:15:52Z</time>
      </trkpt>
      <trkpt lat="43.41784" lon="6.45537">
        <ele>102.5</ele>
        <time>2023-02-01T14:15:55Z</time>
      </trkpt>
      <trkpt lat="43.41786" lon="6.45541">
        <ele>102.9</ele>
        <time>2023-02-01T14:16:00Z</time>
      </trkpt>
      <trkpt lat="43.4179" lon="6.45545">
        <ele>103.5</ele>
        <time>2023-02-01T14:16:03Z</time>
      </trkpt>
      <trkpt lat="43.41792" lon="6.45548">
        <ele>103.7</ele>
        <time>2023-02-01T14:16:06Z</time>
      </trkpt>
      <trkpt lat="43.41795" lon="6.45553">
        <ele>103.2</ele>
        <time>2023-02-01T14:16:11Z</time>
      </trkpt>
      <trkpt lat="43.41797" lon="6.45557">
        <ele>102.8</ele>
        <time>2023-02-01T14:16:14Z</time>
      </trkpt>
      <trkpt lat="43.41799" lon="6.4556">
        <ele>102.8</ele>
        <time>2023-02-01T14:16:16Z</time>
      </trkpt>
      <trkpt lat="43.41801" lon="6.45565">
        <ele>101.2</ele>
        <time>2023-02-01T14:16:20Z</time>
      </trkpt>
      <trkpt lat="43.41803" lon="6.45568">
        <ele>101.6</ele>
        <time>2023-02-01T14:16:23Z</time>
      </trkpt>
      <trkpt lat="43.41806" lon="6.45572">
        <ele>102.1</ele>
        <time>2023-02-01T14:16:26Z</time>
      </trkpt>
      <trkpt lat="43.4181" lon="6.45575">
        <ele>102.6</ele>
        <time>2023-02-01T14:16:31Z</time>
      </trkpt>
      <trkpt lat="43.41812" lon="6.45578">
        <ele>102.7</ele>
        <time>2023-02-01T14:16:33Z</time>
      </trkpt>
      <trkpt lat="43.41815" lon="6.4558">
        <ele>103</ele>
        <time>2023-02-01T14:16:35Z</time>
      </trkpt>
      <trkpt lat="43.41818" lon="6.45584">
        <ele>102.5</ele>
        <time>2023-02-01T14:16:40Z</time>
      </trkpt>
      <trkpt lat="43.41821" lon="6.45588">
        <ele>103.3</ele>
        <time>2023-02-01T14:16:45Z</time>
      </trkpt>
      <trkpt lat="43.41824" lon="6.45592">
        <ele>105.1</ele>
        <time>2023-02-01T14:16:55Z</time>
      </trkpt>
      <trkpt lat="43.41826" lon="6.45595">
        <ele>104.4</ele>
        <time>2023-02-01T14:16:59Z</time>
      </trkpt>
      <trkpt lat="43.41828" lon="6.456">
        <ele>104.8</ele>
        <time>2023-02-01T14:17:02Z</time>
      </trkpt>
      <trkpt lat="43.41832" lon="6.45604">
        <ele>104.6</ele>
        <time>2023-02-01T14:17:07Z</time>
      </trkpt>
      <trkpt lat="43.41836" lon="6.45606">
        <ele>104.3</ele>
        <time>2023-02-01T14:17:10Z</time>
      </trkpt>
      <trkpt lat="43.41839" lon="6.45609">
        <ele>105.4</ele>
        <time>2023-02-01T14:17:14Z</time>
      </trkpt>
      <trkpt lat="43.41841" lon="6.45613">
        <ele>105.3</ele>
        <time>2023-02-01T14:17:18Z</time>
      </trkpt>
      <trkpt lat="43.41845" lon="6.45616">
        <ele>105.6</ele>
        <time>2023-02-01T14:17:21Z</time>
      </trkpt>
      <trkpt lat="43.41848" lon="6.45619">
        <ele>106.2</ele>
        <time>2023-02-01T14:17:26Z</time>
      </trkpt>
      <trkpt lat="43.41851" lon="6.45624">
        <ele>106.4</ele>
        <time>2023-02-01T14:17:30Z</time>
      </trkpt>
      <trkpt lat="43.41853" lon="6.45628">
        <ele>106.3</ele>
        <time>2023-02-01T14:17:34Z</time>
      </trkpt>
      <trkpt lat="43.41855" lon="6.45631">
        <ele>107.2</ele>
        <time>2023-02-01T14:17:37Z</time>
      </trkpt>
      <trkpt lat="43.41857" lon="6.45637">
        <ele>108</ele>
        <time>2023-02-01T14:17:42Z</time>
      </trkpt>
      <trkpt lat="43.41859" lon="6.45642">
        <ele>109</ele>
        <time>2023-02-01T14:17:45Z</time>
      </trkpt>
      <trkpt lat="43.4186" lon="6.45648">
        <ele>109</ele>
        <time>2023-02-01T14:17:50Z</time>
      </trkpt>
      <trkpt lat="43.41861" lon="6.45653">
        <ele>109.8</ele>
        <time>2023-02-01T14:17:53Z</time>
      </trkpt>
      <trkpt lat="43.41863" lon="6.45658">
        <ele>109.9</ele>
        <time>2023-02-01T14:17:57Z</time>
      </trkpt>
      <trkpt lat="43.41864" lon="6.45662">
        <ele>109.6</ele>
        <time>2023-02-01T14:18:01Z</time>
      </trkpt>
      <trkpt lat="43.41867" lon="6.45667">
        <ele>111</ele>
        <time>2023-02-01T14:18:06Z</time>
      </trkpt>
      <trkpt lat="43.4187" lon="6.45671">
        <ele>111.7</ele>
        <time>2023-02-01T14:18:09Z</time>
      </trkpt>
      <trkpt lat="43.41872" lon="6.45674">
        <ele>111.6</ele>
        <time>2023-02-01T14:18:12Z</time>
      </trkpt>
      <trkpt lat="43.41875" lon="6.45677">
        <ele>112.1</ele>
        <time>2023-02-01T14:18:15Z</time>
      </trkpt>
      <trkpt lat="43.41879" lon="6.45679">
        <ele>112.5</ele>
        <time>2023-02-01T14:18:19Z</time>
      </trkpt>
      <trkpt lat="43.41882" lon="6.45681">
        <ele>111.7</ele>
        <time>2023-02-01T14:18:23Z</time>
      </trkpt>
      <trkpt lat="43.41884" lon="6.45686">
        <ele>112.9</ele>
        <time>2023-02-01T14:18:28Z</time>
      </trkpt>
      <trkpt lat="43.41888" lon="6.45689">
        <ele>113.8</ele>
        <time>2023-02-01T14:18:32Z</time>
      </trkpt>
      <trkpt lat="43.41891" lon="6.45693">
        <ele>111.3</ele>
        <time>2023-02-01T14:18:38Z</time>
      </trkpt>
      <trkpt lat="43.41895" lon="6.45696">
        <ele>114.9</ele>
        <time>2023-02-01T14:18:44Z</time>
      </trkpt>
      <trkpt lat="43.41898" lon="6.45699">
        <ele>113.7</ele>
        <time>2023-02-01T14:18:49Z</time>
      </trkpt>
      <trkpt lat="43.41902" lon="6.45703">
        <ele>118.4</ele>
        <time>2023-02-01T14:18:56Z</time>
      </trkpt>
      <trkpt lat="43.41905" lon="6.45706">
        <ele>117.9</ele>
        <time>2023-02-01T14:19:03Z</time>
      </trkpt>
      <trkpt lat="43.41909" lon="6.45709">
        <ele>125.6</ele>
        <time>2023-02-01T14:19:23Z</time>
      </trkpt>
      <trkpt lat="43.41913" lon="6.45708">
        <ele>126</ele>
        <time>2023-02-01T14:20:21Z</time>
      </trkpt>
      <trkpt lat="43.41917" lon="6.45708">
        <ele>126.9</ele>
        <time>2023-02-01T14:21:00Z</time>
      </trkpt>
      <trkpt lat="43.41921" lon="6.45705">
        <ele>126.8</ele>
        <time>2023-02-01T14:21:17Z</time>
      </trkpt>
      <trkpt lat="43.4192" lon="6.45711">
        <ele>125</ele>
        <time>2023-02-01T14:24:31Z</time>
      </trkpt>
      <trkpt lat="43.41919" lon="6.45716">
        <ele>124.9</ele>
        <time>2023-02-01T14:24:34Z</time>
      </trkpt>
      <trkpt lat="43.41918" lon="6.45721">
        <ele>124.8</ele>
        <time>2023-02-01T14:24:38Z</time>
      </trkpt>
      <trkpt lat="43.41916" lon="6.45726">
        <ele>124.6</ele>
        <time>2023-02-01T14:24:43Z</time>
      </trkpt>
      <trkpt lat="43.41913" lon="6.4573">
        <ele>124.4</ele>
        <time>2023-02-01T14:24:48Z</time>
      </trkpt>
      <trkpt lat="43.41911" lon="6.45734">
        <ele>124.4</ele>
        <time>2023-02-01T14:24:51Z</time>
      </trkpt>
      <trkpt lat="43.41909" lon="6.45739">
        <ele>124</ele>
        <time>2023-02-01T14:24:55Z</time>
      </trkpt>
      <trkpt lat="43.41908" lon="6.45743">
        <ele>124</ele>
        <time>2023-02-01T14:24:59Z</time>
      </trkpt>
      <trkpt lat="43.41907" lon="6.45748">
        <ele>123.9</ele>
        <time>2023-02-01T14:25:01Z</time>
      </trkpt>
      <trkpt lat="43.41905" lon="6.45752">
        <ele>124</ele>
        <time>2023-02-01T14:25:03Z</time>
      </trkpt>
      <trkpt lat="43.41904" lon="6.45757">
        <ele>123.8</ele>
        <time>2023-02-01T14:25:09Z</time>
      </trkpt>
      <trkpt lat="43.41902" lon="6.45763">
        <ele>124.1</ele>
        <time>2023-02-01T14:25:13Z</time>
      </trkpt>
      <trkpt lat="43.41901" lon="6.45768">
        <ele>123.7</ele>
        <time>2023-02-01T14:25:18Z</time>
      </trkpt>
      <trkpt lat="43.41899" lon="6.45773">
        <ele>123.8</ele>
        <time>2023-02-01T14:25:21Z</time>
      </trkpt>
      <trkpt lat="43.41898" lon="6.45778">
        <ele>124.1</ele>
        <time>2023-02-01T14:25:25Z</time>
      </trkpt>
      <trkpt lat="43.41896" lon="6.45783">
        <ele>124.3</ele>
        <time>2023-02-01T14:25:29Z</time>
      </trkpt>
      <trkpt lat="43.41893" lon="6.45788">
        <ele>124.2</ele>
        <time>2023-02-01T14:25:34Z</time>
      </trkpt>
      <trkpt lat="43.41891" lon="6.45793">
        <ele>124</ele>
        <time>2023-02-01T14:25:38Z</time>
      </trkpt>
      <trkpt lat="43.41888" lon="6.45798">
        <ele>124</ele>
        <time>2023-02-01T14:25:42Z</time>
      </trkpt>
      <trkpt lat="43.41886" lon="6.45803">
        <ele>124.3</ele>
        <time>2023-02-01T14:25:45Z</time>
      </trkpt>
      <trkpt lat="43.41884" lon="6.45807">
        <ele>124.4</ele>
        <time>2023-02-01T14:25:49Z</time>
      </trkpt>
      <trkpt lat="43.41882" lon="6.45811">
        <ele>124.2</ele>
        <time>2023-02-01T14:25:53Z</time>
      </trkpt>
      <trkpt lat="43.4188" lon="6.45816">
        <ele>124.5</ele>
        <time>2023-02-01T14:25:56Z</time>
      </trkpt>
      <trkpt lat="43.41878" lon="6.4582">
        <ele>124.5</ele>
        <time>2023-02-01T14:26:00Z</time>
      </trkpt>
      <trkpt lat="43.41877" lon="6.45825">
        <ele>124.6</ele>
        <time>2023-02-01T14:26:03Z</time>
      </trkpt>
      <trkpt lat="43.41875" lon="6.45831">
        <ele>124.9</ele>
        <time>2023-02-01T14:26:14Z</time>
      </trkpt>
      <trkpt lat="43.41873" lon="6.45836">
        <ele>124</ele>
        <time>2023-02-01T14:26:39Z</time>
      </trkpt>
      <trkpt lat="43.4187" lon="6.4584">
        <ele>123.7</ele>
        <time>2023-02-01T14:26:43Z</time>
      </trkpt>
      <trkpt lat="43.41868" lon="6.45844">
        <ele>123.9</ele>
        <time>2023-02-01T14:26:45Z</time>
      </trkpt>
      <trkpt lat="43.41866" lon="6.45849">
        <ele>124.2</ele>
        <time>2023-02-01T14:26:47Z</time>
      </trkpt>
      <trkpt lat="43.41863" lon="6.45854">
        <ele>123.7</ele>
        <time>2023-02-01T14:26:52Z</time>
      </trkpt>
      <trkpt lat="43.4186" lon="6.45855">
        <ele>124.2</ele>
        <time>2023-02-01T14:26:55Z</time>
      </trkpt>
      <trkpt lat="43.41857" lon="6.45857">
        <ele>124.3</ele>
        <time>2023-02-01T14:26:57Z</time>
      </trkpt>
      <trkpt lat="43.41854" lon="6.45861">
        <ele>125</ele>
        <time>2023-02-01T14:26:59Z</time>
      </trkpt>
      <trkpt lat="43.41851" lon="6.45865">
        <ele>125</ele>
        <time>2023-02-01T14:27:05Z</time>
      </trkpt>
      <trkpt lat="43.41848" lon="6.45866">
        <ele>125.2</ele>
        <time>2023-02-01T14:27:07Z</time>
      </trkpt>
      <trkpt lat="43.41845" lon="6.45867">
        <ele>125.9</ele>
        <time>2023-02-01T14:27:09Z</time>
      </trkpt>
      <trkpt lat="43.41841" lon="6.4587">
        <ele>126.2</ele>
        <time>2023-02-01T14:27:13Z</time>
      </trkpt>
      <trkpt lat="43.41838" lon="6.45871">
        <ele>126.3</ele>
        <time>2023-02-01T14:27:17Z</time>
      </trkpt>
      <trkpt lat="43.41836" lon="6.45874">
        <ele>126.4</ele>
        <time>2023-02-01T14:27:19Z</time>
      </trkpt>
      <trkpt lat="43.41832" lon="6.45877">
        <ele>126.6</ele>
        <time>2023-02-01T14:27:21Z</time>
      </trkpt>
      <trkpt lat="43.41829" lon="6.45881">
        <ele>126.6</ele>
        <time>2023-02-01T14:27:24Z</time>
      </trkpt>
      <trkpt lat="43.41826" lon="6.45884">
        <ele>126.4</ele>
        <time>2023-02-01T14:27:28Z</time>
      </trkpt>
      <trkpt lat="43.41823" lon="6.45887">
        <ele>126.3</ele>
        <time>2023-02-01T14:27:31Z</time>
      </trkpt>
      <trkpt lat="43.41819" lon="6.45891">
        <ele>126.5</ele>
        <time>2023-02-01T14:27:40Z</time>
      </trkpt>
      <trkpt lat="43.41817" lon="6.45894">
        <ele>126.5</ele>
        <time>2023-02-01T14:27:45Z</time>
      </trkpt>
      <trkpt lat="43.41814" lon="6.45898">
        <ele>126.5</ele>
        <time>2023-02-01T14:27:47Z</time>
      </trkpt>
      <trkpt lat="43.41812" lon="6.45901">
        <ele>126.4</ele>
        <time>2023-02-01T14:27:49Z</time>
      </trkpt>
      <trkpt lat="43.4181" lon="6.45904">
        <ele>126.3</ele>
        <time>2023-02-01T14:27:51Z</time>
      </trkpt>
      <trkpt lat="43.41808" lon="6.4591">
        <ele>125.7</ele>
        <time>2023-02-01T14:27:56Z</time>
      </trkpt>
      <trkpt lat="43.41807" lon="6.45915">
        <ele>125.3</ele>
        <time>2023-02-01T14:28:00Z</time>
      </trkpt>
      <trkpt lat="43.41805" lon="6.4592">
        <ele>124.9</ele>
        <time>2023-02-01T14:28:03Z</time>
      </trkpt>
      <trkpt lat="43.41804" lon="6.45925">
        <ele>124.8</ele>
        <time>2023-02-01T14:28:05Z</time>
      </trkpt>
      <trkpt lat="43.41803" lon="6.45928">
        <ele>124.8</ele>
        <time>2023-02-01T14:28:06Z</time>
      </trkpt>
      <trkpt lat="43.418" lon="6.45932">
        <ele>124.7</ele>
        <time>2023-02-01T14:28:08Z</time>
      </trkpt>
      <trkpt lat="43.41798" lon="6.45936">
        <ele>124.4</ele>
        <time>2023-02-01T14:28:12Z</time>
      </trkpt>
      <trkpt lat="43.41796" lon="6.45941">
        <ele>123.9</ele>
        <time>2023-02-01T14:28:16Z</time>
      </trkpt>
      <trkpt lat="43.41794" lon="6.45946">
        <ele>124</ele>
        <time>2023-02-01T14:28:19Z</time>
      </trkpt>
      <trkpt lat="43.41792" lon="6.45952">
        <ele>123.7</ele>
        <time>2023-02-01T14:28:23Z</time>
      </trkpt>
      <trkpt lat="43.4179" lon="6.45956">
        <ele>123.1</ele>
        <time>2023-02-01T14:28:28Z</time>
      </trkpt>
      <trkpt lat="43.41787" lon="6.4596">
        <ele>123</ele>
        <time>2023-02-01T14:28:30Z</time>
      </trkpt>
      <trkpt lat="43.41786" lon="6.45965">
        <ele>122.9</ele>
        <time>2023-02-01T14:28:32Z</time>
      </trkpt>
      <trkpt lat="43.41783" lon="6.4597">
        <ele>122.4</ele>
        <time>2023-02-01T14:28:37Z</time>
      </trkpt>
      <trkpt lat="43.41783" lon="6.45976">
        <ele>121.7</ele>
        <time>2023-02-01T14:28:42Z</time>
      </trkpt>
      <trkpt lat="43.41781" lon="6.45979">
        <ele>121.4</ele>
        <time>2023-02-01T14:28:45Z</time>
      </trkpt>
      <trkpt lat="43.41779" lon="6.45983">
        <ele>121.3</ele>
        <time>2023-02-01T14:28:47Z</time>
      </trkpt>
      <trkpt lat="43.41776" lon="6.45987">
        <ele>121</ele>
        <time>2023-02-01T14:28:50Z</time>
      </trkpt>
      <trkpt lat="43.41774" lon="6.45992">
        <ele>120.5</ele>
        <time>2023-02-01T14:28:54Z</time>
      </trkpt>
      <trkpt lat="43.41771" lon="6.45996">
        <ele>119.2</ele>
        <time>2023-02-01T14:28:57Z</time>
      </trkpt>
      <trkpt lat="43.41768" lon="6.46">
        <ele>119.6</ele>
        <time>2023-02-01T14:29:02Z</time>
      </trkpt>
      <trkpt lat="43.41765" lon="6.46004">
        <ele>119.8</ele>
        <time>2023-02-01T14:29:06Z</time>
      </trkpt>
      <trkpt lat="43.41762" lon="6.46007">
        <ele>119.7</ele>
        <time>2023-02-01T14:29:08Z</time>
      </trkpt>
      <trkpt lat="43.4176" lon="6.46012">
        <ele>119.8</ele>
        <time>2023-02-01T14:29:11Z</time>
      </trkpt>
      <trkpt lat="43.41757" lon="6.46016">
        <ele>119.2</ele>
        <time>2023-02-01T14:29:16Z</time>
      </trkpt>
      <trkpt lat="43.41755" lon="6.4602">
        <ele>119</ele>
        <time>2023-02-01T14:29:19Z</time>
      </trkpt>
      <trkpt lat="43.41752" lon="6.46024">
        <ele>118.7</ele>
        <time>2023-02-01T14:29:23Z</time>
      </trkpt>
      <trkpt lat="43.4175" lon="6.46027">
        <ele>117.9</ele>
        <time>2023-02-01T14:29:28Z</time>
      </trkpt>
      <trkpt lat="43.41745" lon="6.46029">
        <ele>117.4</ele>
        <time>2023-02-01T14:29:31Z</time>
      </trkpt>
      <trkpt lat="43.41742" lon="6.46032">
        <ele>116</ele>
        <time>2023-02-01T14:29:38Z</time>
      </trkpt>
      <trkpt lat="43.41739" lon="6.46037">
        <ele>114.6</ele>
        <time>2023-02-01T14:29:44Z</time>
      </trkpt>
      <trkpt lat="43.41736" lon="6.46041">
        <ele>111.3</ele>
        <time>2023-02-01T14:29:49Z</time>
      </trkpt>
      <trkpt lat="43.41732" lon="6.46044">
        <ele>112.2</ele>
        <time>2023-02-01T14:29:53Z</time>
      </trkpt>
      <trkpt lat="43.41728" lon="6.46045">
        <ele>111.5</ele>
        <time>2023-02-01T14:29:57Z</time>
      </trkpt>
      <trkpt lat="43.41725" lon="6.46046">
        <ele>110.5</ele>
        <time>2023-02-01T14:29:59Z</time>
      </trkpt>
      <trkpt lat="43.41721" lon="6.46049">
        <ele>110.6</ele>
        <time>2023-02-01T14:30:01Z</time>
      </trkpt>
      <trkpt lat="43.41718" lon="6.46052">
        <ele>110.3</ele>
        <time>2023-02-01T14:30:05Z</time>
      </trkpt>
      <trkpt lat="43.41714" lon="6.46053">
        <ele>109.6</ele>
        <time>2023-02-01T14:30:10Z</time>
      </trkpt>
      <trkpt lat="43.4171" lon="6.46055">
        <ele>109.2</ele>
        <time>2023-02-01T14:30:13Z</time>
      </trkpt>
      <trkpt lat="43.41706" lon="6.46056">
        <ele>108.4</ele>
        <time>2023-02-01T14:30:19Z</time>
      </trkpt>
      <trkpt lat="43.41702" lon="6.46054">
        <ele>107.5</ele>
        <time>2023-02-01T14:30:40Z</time>
      </trkpt>
      <trkpt lat="43.41698" lon="6.46055">
        <ele>107.2</ele>
        <time>2023-02-01T14:31:19Z</time>
      </trkpt>
      <trkpt lat="43.41695" lon="6.4606">
        <ele>108</ele>
        <time>2023-02-01T14:35:24Z</time>
      </trkpt>
      <trkpt lat="43.41697" lon="6.46065">
        <ele>107.8</ele>
        <time>2023-02-01T14:35:56Z</time>
      </trkpt>
      <trkpt lat="43.41699" lon="6.46071">
        <ele>108</ele>
        <time>2023-02-01T14:36:08Z</time>
      </trkpt>
      <trkpt lat="43.417" lon="6.46077">
        <ele>109.2</ele>
        <time>2023-02-01T14:36:15Z</time>
      </trkpt>
      <trkpt lat="43.41702" lon="6.46082">
        <ele>109.8</ele>
        <time>2023-02-01T14:36:21Z</time>
      </trkpt>
      <trkpt lat="43.41703" lon="6.46087">
        <ele>110.9</ele>
        <time>2023-02-01T14:36:29Z</time>
      </trkpt>
      <trkpt lat="43.41706" lon="6.46091">
        <ele>111.3</ele>
        <time>2023-02-01T14:36:42Z</time>
      </trkpt>
      <trkpt lat="43.41709" lon="6.46095">
        <ele>112</ele>
        <time>2023-02-01T14:36:49Z</time>
      </trkpt>
      <trkpt lat="43.41711" lon="6.46101">
        <ele>113.6</ele>
        <time>2023-02-01T14:36:54Z</time>
      </trkpt>
      <trkpt lat="43.41714" lon="6.46105">
        <ele>114.6</ele>
        <time>2023-02-01T14:36:59Z</time>
      </trkpt>
      <trkpt lat="43.41716" lon="6.4611">
        <ele>115.4</ele>
        <time>2023-02-01T14:37:04Z</time>
      </trkpt>
      <trkpt lat="43.41718" lon="6.46115">
        <ele>116.4</ele>
        <time>2023-02-01T14:37:09Z</time>
      </trkpt>
      <trkpt lat="43.41719" lon="6.46121">
        <ele>117.1</ele>
        <time>2023-02-01T14:37:14Z</time>
      </trkpt>
      <trkpt lat="43.4172" lon="6.46126">
        <ele>117.3</ele>
        <time>2023-02-01T14:37:21Z</time>
      </trkpt>
      <trkpt lat="43.41722" lon="6.46132">
        <ele>116.5</ele>
        <time>2023-02-01T14:37:31Z</time>
      </trkpt>
      <trkpt lat="43.41725" lon="6.46136">
        <ele>115.5</ele>
        <time>2023-02-01T14:38:16Z</time>
      </trkpt>
      <trkpt lat="43.41725" lon="6.46142">
        <ele>114</ele>
        <time>2023-02-01T14:38:23Z</time>
      </trkpt>
      <trkpt lat="43.41727" lon="6.46147">
        <ele>112</ele>
        <time>2023-02-01T14:38:33Z</time>
      </trkpt>
      <trkpt lat="43.4173" lon="6.46151">
        <ele>109.3</ele>
        <time>2023-02-01T14:38:51Z</time>
      </trkpt>
      <trkpt lat="43.41734" lon="6.46155">
        <ele>108.1</ele>
        <time>2023-02-01T14:39:15Z</time>
      </trkpt>
      <trkpt lat="43.41734" lon="6.4616">
        <ele>106.5</ele>
        <time>2023-02-01T14:39:23Z</time>
      </trkpt>
      <trkpt lat="43.41736" lon="6.46165">
        <ele>105.5</ele>
        <time>2023-02-01T14:39:32Z</time>
      </trkpt>
      <trkpt lat="43.41739" lon="6.46169">
        <ele>103.9</ele>
        <time>2023-02-01T14:39:39Z</time>
      </trkpt>
      <trkpt lat="43.41739" lon="6.46175">
        <ele>101.9</ele>
        <time>2023-02-01T14:39:48Z</time>
      </trkpt>
      <trkpt lat="43.41739" lon="6.4618">
        <ele>100.8</ele>
        <time>2023-02-01T14:39:53Z</time>
      </trkpt>
      <trkpt lat="43.41738" lon="6.46185">
        <ele>100</ele>
        <time>2023-02-01T14:39:56Z</time>
      </trkpt>
      <trkpt lat="43.41741" lon="6.46189">
        <ele>98.9</ele>
        <time>2023-02-01T14:39:59Z</time>
      </trkpt>
      <trkpt lat="43.41743" lon="6.46192">
        <ele>98.6</ele>
        <time>2023-02-01T14:40:01Z</time>
      </trkpt>
      <trkpt lat="43.41746" lon="6.46197">
        <ele>97.9</ele>
        <time>2023-02-01T14:40:06Z</time>
      </trkpt>
      <trkpt lat="43.41749" lon="6.46202">
        <ele>96.7</ele>
        <time>2023-02-01T14:40:11Z</time>
      </trkpt>
      <trkpt lat="43.41752" lon="6.46205">
        <ele>95.3</ele>
        <time>2023-02-01T14:40:19Z</time>
      </trkpt>
      <trkpt lat="43.41755" lon="6.46208">
        <ele>94.7</ele>
        <time>2023-02-01T14:40:22Z</time>
      </trkpt>
      <trkpt lat="43.41759" lon="6.46209">
        <ele>93.2</ele>
        <time>2023-02-01T14:40:27Z</time>
      </trkpt>
      <trkpt lat="43.41763" lon="6.46211">
        <ele>92.4</ele>
        <time>2023-02-01T14:40:32Z</time>
      </trkpt>
      <trkpt lat="43.41765" lon="6.46217">
        <ele>90.6</ele>
        <time>2023-02-01T14:40:42Z</time>
      </trkpt>
      <trkpt lat="43.41769" lon="6.46219">
        <ele>88.6</ele>
        <time>2023-02-01T14:40:48Z</time>
      </trkpt>
      <trkpt lat="43.41773" lon="6.46216">
        <ele>87.1</ele>
        <time>2023-02-01T14:40:56Z</time>
      </trkpt>
      <trkpt lat="43.41776" lon="6.46218">
        <ele>87.4</ele>
        <time>2023-02-01T14:41:03Z</time>
      </trkpt>
      <trkpt lat="43.4178" lon="6.46219">
        <ele>88.1</ele>
        <time>2023-02-01T14:41:06Z</time>
      </trkpt>
      <trkpt lat="43.41783" lon="6.4622">
        <ele>88.3</ele>
        <time>2023-02-01T14:41:08Z</time>
      </trkpt>
      <trkpt lat="43.41787" lon="6.4622">
        <ele>88.2</ele>
        <time>2023-02-01T14:41:10Z</time>
      </trkpt>
      <trkpt lat="43.4179" lon="6.46224">
        <ele>85.9</ele>
        <time>2023-02-01T14:41:22Z</time>
      </trkpt>
      <trkpt lat="43.41793" lon="6.46228">
        <ele>85</ele>
        <time>2023-02-01T14:41:36Z</time>
      </trkpt>
      <trkpt lat="43.41797" lon="6.46231">
        <ele>84.1</ele>
        <time>2023-02-01T14:41:43Z</time>
      </trkpt>
      <trkpt lat="43.41796" lon="6.46236">
        <ele>82.7</ele>
        <time>2023-02-01T14:41:56Z</time>
      </trkpt>
      <trkpt lat="43.41793" lon="6.46241">
        <ele>82.1</ele>
        <time>2023-02-01T14:42:00Z</time>
      </trkpt>
      <trkpt lat="43.41791" lon="6.46246">
        <ele>80.4</ele>
        <time>2023-02-01T14:42:13Z</time>
      </trkpt>
      <trkpt lat="43.4179" lon="6.46252">
        <ele>79.8</ele>
        <time>2023-02-01T14:42:21Z</time>
      </trkpt>
      <trkpt lat="43.41789" lon="6.46257">
        <ele>79.3</ele>
        <time>2023-02-01T14:42:39Z</time>
      </trkpt>
      <trkpt lat="43.41787" lon="6.46263">
        <ele>78.1</ele>
        <time>2023-02-01T14:43:10Z</time>
      </trkpt>
      <trkpt lat="43.41791" lon="6.46266">
        <ele>75.3</ele>
        <time>2023-02-01T14:43:31Z</time>
      </trkpt>
      <trkpt lat="43.41795" lon="6.46265">
        <ele>77.3</ele>
        <time>2023-02-01T14:43:37Z</time>
      </trkpt>
      <trkpt lat="43.41797" lon="6.4626">
        <ele>79.1</ele>
        <time>2023-02-01T14:43:47Z</time>
      </trkpt>
      <trkpt lat="43.41802" lon="6.46261">
        <ele>78</ele>
        <time>2023-02-01T14:44:14Z</time>
      </trkpt>
      <trkpt lat="43.41805" lon="6.4626">
        <ele>78.5</ele>
        <time>2023-02-01T14:44:18Z</time>
      </trkpt>
      <trkpt lat="43.4181" lon="6.4626">
        <ele>78.6</ele>
        <time>2023-02-01T14:44:23Z</time>
      </trkpt>
      <trkpt lat="43.41813" lon="6.46259">
        <ele>79.8</ele>
        <time>2023-02-01T14:44:28Z</time>
      </trkpt>
      <trkpt lat="43.41818" lon="6.46259">
        <ele>80.8</ele>
        <time>2023-02-01T14:44:31Z</time>
      </trkpt>
      <trkpt lat="43.41822" lon="6.46259">
        <ele>82.4</ele>
        <time>2023-02-01T14:44:35Z</time>
      </trkpt>
      <trkpt lat="43.41826" lon="6.46262">
        <ele>82.9</ele>
        <time>2023-02-01T14:44:40Z</time>
      </trkpt>
      <trkpt lat="43.41828" lon="6.46265">
        <ele>82.8</ele>
        <time>2023-02-01T14:44:42Z</time>
      </trkpt>
      <trkpt lat="43.41832" lon="6.46268">
        <ele>83.2</ele>
        <time>2023-02-01T14:44:47Z</time>
      </trkpt>
      <trkpt lat="43.41832" lon="6.46274">
        <ele>83.4</ele>
        <time>2023-02-01T14:44:59Z</time>
      </trkpt>
      <trkpt lat="43.4183" lon="6.46279">
        <ele>83.1</ele>
        <time>2023-02-01T14:45:02Z</time>
      </trkpt>
      <trkpt lat="43.41828" lon="6.46282">
        <ele>82.2</ele>
        <time>2023-02-01T14:45:05Z</time>
      </trkpt>
      <trkpt lat="43.41825" lon="6.46286">
        <ele>82</ele>
        <time>2023-02-01T14:45:07Z</time>
      </trkpt>
      <trkpt lat="43.41822" lon="6.46289">
        <ele>81.9</ele>
        <time>2023-02-01T14:45:11Z</time>
      </trkpt>
      <trkpt lat="43.41819" lon="6.46293">
        <ele>81.3</ele>
        <time>2023-02-01T14:45:17Z</time>
      </trkpt>
      <trkpt lat="43.41816" lon="6.46296">
        <ele>80.8</ele>
        <time>2023-02-01T14:45:21Z</time>
      </trkpt>
      <trkpt lat="43.41813" lon="6.463">
        <ele>80.6</ele>
        <time>2023-02-01T14:45:24Z</time>
      </trkpt>
      <trkpt lat="43.41811" lon="6.46304">
        <ele>80</ele>
        <time>2023-02-01T14:45:29Z</time>
      </trkpt>
      <trkpt lat="43.41809" lon="6.46309">
        <ele>79.7</ele>
        <time>2023-02-01T14:45:32Z</time>
      </trkpt>
      <trkpt lat="43.41806" lon="6.46313">
        <ele>79</ele>
        <time>2023-02-01T14:45:35Z</time>
      </trkpt>
      <trkpt lat="43.41802" lon="6.46317">
        <ele>78.7</ele>
        <time>2023-02-01T14:45:38Z</time>
      </trkpt>
      <trkpt lat="43.41799" lon="6.4632">
        <ele>78.7</ele>
        <time>2023-02-01T14:45:40Z</time>
      </trkpt>
      <trkpt lat="43.41796" lon="6.46323">
        <ele>78.7</ele>
        <time>2023-02-01T14:45:42Z</time>
      </trkpt>
      <trkpt lat="43.41793" lon="6.46328">
        <ele>78.5</ele>
        <time>2023-02-01T14:45:46Z</time>
      </trkpt>
      <trkpt lat="43.41791" lon="6.46331">
        <ele>77.7</ele>
        <time>2023-02-01T14:45:50Z</time>
      </trkpt>
      <trkpt lat="43.41788" lon="6.46334">
        <ele>77.8</ele>
        <time>2023-02-01T14:45:53Z</time>
      </trkpt>
      <trkpt lat="43.41784" lon="6.46337">
        <ele>77.3</ele>
        <time>2023-02-01T14:45:58Z</time>
      </trkpt>
      <trkpt lat="43.41783" lon="6.46342">
        <ele>76.9</ele>
        <time>2023-02-01T14:46:16Z</time>
      </trkpt>
      <trkpt lat="43.41779" lon="6.46344">
        <ele>76.9</ele>
        <time>2023-02-01T14:46:21Z</time>
      </trkpt>
      <trkpt lat="43.41775" lon="6.46344">
        <ele>76.5</ele>
        <time>2023-02-01T14:46:28Z</time>
      </trkpt>
      <trkpt lat="43.41772" lon="6.46342">
        <ele>76.7</ele>
        <time>2023-02-01T14:46:34Z</time>
      </trkpt>
      <trkpt lat="43.41768" lon="6.46342">
        <ele>76.4</ele>
        <time>2023-02-01T14:46:42Z</time>
      </trkpt>
      <trkpt lat="43.41766" lon="6.46345">
        <ele>76.4</ele>
        <time>2023-02-01T14:46:46Z</time>
      </trkpt>
      <trkpt lat="43.41767" lon="6.4635">
        <ele>76.1</ele>
        <time>2023-02-01T14:46:48Z</time>
      </trkpt>
      <trkpt lat="43.41768" lon="6.46355">
        <ele>76.1</ele>
        <time>2023-02-01T14:46:49Z</time>
      </trkpt>
      <trkpt lat="43.4177" lon="6.46358">
        <ele>76.1</ele>
        <time>2023-02-01T14:46:50Z</time>
      </trkpt>
      <trkpt lat="43.41767" lon="6.46361">
        <ele>76.3</ele>
        <time>2023-02-01T14:46:51Z</time>
      </trkpt>
      <trkpt lat="43.41765" lon="6.46364">
        <ele>76.4</ele>
        <time>2023-02-01T14:46:52Z</time>
      </trkpt>
      <trkpt lat="43.41763" lon="6.46367">
        <ele>76.4</ele>
        <time>2023-02-01T14:46:53Z</time>
      </trkpt>
      <trkpt lat="43.41759" lon="6.46368">
        <ele>75.9</ele>
        <time>2023-02-01T14:46:55Z</time>
      </trkpt>
      <trkpt lat="43.41757" lon="6.46373">
        <ele>76</ele>
        <time>2023-02-01T14:46:58Z</time>
      </trkpt>
      <trkpt lat="43.41755" lon="6.46378">
        <ele>75.8</ele>
        <time>2023-02-01T14:47:01Z</time>
      </trkpt>
      <trkpt lat="43.41752" lon="6.46381">
        <ele>75.7</ele>
        <time>2023-02-01T14:47:03Z</time>
      </trkpt>
      <trkpt lat="43.4175" lon="6.46385">
        <ele>75.9</ele>
        <time>2023-02-01T14:47:05Z</time>
      </trkpt>
      <trkpt lat="43.41748" lon="6.46389">
        <ele>76</ele>
        <time>2023-02-01T14:47:07Z</time>
      </trkpt>
      <trkpt lat="43.41745" lon="6.46393">
        <ele>75.9</ele>
        <time>2023-02-01T14:47:09Z</time>
      </trkpt>
      <trkpt lat="43.41743" lon="6.46398">
        <ele>75.4</ele>
        <time>2023-02-01T14:47:12Z</time>
      </trkpt>
      <trkpt lat="43.41743" lon="6.46402">
        <ele>75</ele>
        <time>2023-02-01T14:47:14Z</time>
      </trkpt>
      <trkpt lat="43.41742" lon="6.46407">
        <ele>74.7</ele>
        <time>2023-02-01T14:47:16Z</time>
      </trkpt>
      <trkpt lat="43.41742" lon="6.46412">
        <ele>74.6</ele>
        <time>2023-02-01T14:47:18Z</time>
      </trkpt>
      <trkpt lat="43.41741" lon="6.46416">
        <ele>74.7</ele>
        <time>2023-02-01T14:47:20Z</time>
      </trkpt>
      <trkpt lat="43.41739" lon="6.46421">
        <ele>74.7</ele>
        <time>2023-02-01T14:47:22Z</time>
      </trkpt>
      <trkpt lat="43.41738" lon="6.46426">
        <ele>74.9</ele>
        <time>2023-02-01T14:47:24Z</time>
      </trkpt>
      <trkpt lat="43.41738" lon="6.46431">
        <ele>74.9</ele>
        <time>2023-02-01T14:47:26Z</time>
      </trkpt>
      <trkpt lat="43.41739" lon="6.46436">
        <ele>74.8</ele>
        <time>2023-02-01T14:47:28Z</time>
      </trkpt>
      <trkpt lat="43.41739" lon="6.46441">
        <ele>74.5</ele>
        <time>2023-02-01T14:47:30Z</time>
      </trkpt>
      <trkpt lat="43.41739" lon="6.46445">
        <ele>74.3</ele>
        <time>2023-02-01T14:47:32Z</time>
      </trkpt>
      <trkpt lat="43.41739" lon="6.4645">
        <ele>74.2</ele>
        <time>2023-02-01T14:47:34Z</time>
      </trkpt>
      <trkpt lat="43.41739" lon="6.46456">
        <ele>74.3</ele>
        <time>2023-02-01T14:47:37Z</time>
      </trkpt>
      <trkpt lat="43.41739" lon="6.46462">
        <ele>74.5</ele>
        <time>2023-02-01T14:47:40Z</time>
      </trkpt>
      <trkpt lat="43.41739" lon="6.46466">
        <ele>74.3</ele>
        <time>2023-02-01T14:47:43Z</time>
      </trkpt>
      <trkpt lat="43.41739" lon="6.46472">
        <ele>74.2</ele>
        <time>2023-02-01T14:47:46Z</time>
      </trkpt>
      <trkpt lat="43.41739" lon="6.46477">
        <ele>74.3</ele>
        <time>2023-02-01T14:47:49Z</time>
      </trkpt>
      <trkpt lat="43.41738" lon="6.46483">
        <ele>74.3</ele>
        <time>2023-02-01T14:47:52Z</time>
      </trkpt>
      <trkpt lat="43.41739" lon="6.46488">
        <ele>73.9</ele>
        <time>2023-02-01T14:47:55Z</time>
      </trkpt>
      <trkpt lat="43.41739" lon="6.46494">
        <ele>73.7</ele>
        <time>2023-02-01T14:47:58Z</time>
      </trkpt>
      <trkpt lat="43.41739" lon="6.46499">
        <ele>73.8</ele>
        <time>2023-02-01T14:48:01Z</time>
      </trkpt>
      <trkpt lat="43.41739" lon="6.46505">
        <ele>73.9</ele>
        <time>2023-02-01T14:48:04Z</time>
      </trkpt>
      <trkpt lat="43.41739" lon="6.46509">
        <ele>73.9</ele>
        <time>2023-02-01T14:48:06Z</time>
      </trkpt>
      <trkpt lat="43.41739" lon="6.46514">
        <ele>74</ele>
        <time>2023-02-01T14:48:08Z</time>
      </trkpt>
      <trkpt lat="43.41739" lon="6.46518">
        <ele>73.9</ele>
        <time>2023-02-01T14:48:10Z</time>
      </trkpt>
      <trkpt lat="43.41739" lon="6.46523">
        <ele>73.9</ele>
        <time>2023-02-01T14:48:12Z</time>
      </trkpt>
      <trkpt lat="43.41738" lon="6.46529">
        <ele>72.4</ele>
        <time>2023-02-01T14:48:15Z</time>
      </trkpt>
      <trkpt lat="43.41738" lon="6.46534">
        <ele>72.9</ele>
        <time>2023-02-01T14:48:20Z</time>
      </trkpt>
      <trkpt lat="43.41737" lon="6.4654">
        <ele>72.6</ele>
        <time>2023-02-01T14:48:23Z</time>
      </trkpt>
      <trkpt lat="43.41737" lon="6.46544">
        <ele>72.2</ele>
        <time>2023-02-01T14:48:26Z</time>
      </trkpt>
      <trkpt lat="43.41736" lon="6.46549">
        <ele>71.9</ele>
        <time>2023-02-01T14:48:29Z</time>
      </trkpt>
      <trkpt lat="43.41735" lon="6.46554">
        <ele>71.6</ele>
        <time>2023-02-01T14:48:32Z</time>
      </trkpt>
      <trkpt lat="43.41734" lon="6.46559">
        <ele>71.1</ele>
        <time>2023-02-01T14:48:35Z</time>
      </trkpt>
      <trkpt lat="43.41732" lon="6.46563">
        <ele>70.5</ele>
        <time>2023-02-01T14:48:38Z</time>
      </trkpt>
      <trkpt lat="43.41731" lon="6.46569">
        <ele>69.5</ele>
        <time>2023-02-01T14:48:42Z</time>
      </trkpt>
      <trkpt lat="43.41729" lon="6.46573">
        <ele>69</ele>
        <time>2023-02-01T14:48:45Z</time>
      </trkpt>
      <trkpt lat="43.41727" lon="6.46578">
        <ele>68.4</ele>
        <time>2023-02-01T14:48:49Z</time>
      </trkpt>
      <trkpt lat="43.41727" lon="6.46584">
        <ele>68.4</ele>
        <time>2023-02-01T14:48:53Z</time>
      </trkpt>
      <trkpt lat="43.41727" lon="6.46589">
        <ele>68.3</ele>
        <time>2023-02-01T14:48:56Z</time>
      </trkpt>
      <trkpt lat="43.41727" lon="6.46594">
        <ele>68.2</ele>
        <time>2023-02-01T14:48:58Z</time>
      </trkpt>
      <trkpt lat="43.41726" lon="6.46598">
        <ele>68</ele>
        <time>2023-02-01T14:49:00Z</time>
      </trkpt>
      <trkpt lat="43.41725" lon="6.46603">
        <ele>67.5</ele>
        <time>2023-02-01T14:49:03Z</time>
      </trkpt>
      <trkpt lat="43.41724" lon="6.46607">
        <ele>67.1</ele>
        <time>2023-02-01T14:49:06Z</time>
      </trkpt>
      <trkpt lat="43.41722" lon="6.46613">
        <ele>66.7</ele>
        <time>2023-02-01T14:49:09Z</time>
      </trkpt>
      <trkpt lat="43.41721" lon="6.46618">
        <ele>66.3</ele>
        <time>2023-02-01T14:49:12Z</time>
      </trkpt>
      <trkpt lat="43.41719" lon="6.46623">
        <ele>65.8</ele>
        <time>2023-02-01T14:49:15Z</time>
      </trkpt>
      <trkpt lat="43.41718" lon="6.46627">
        <ele>65.5</ele>
        <time>2023-02-01T14:49:17Z</time>
      </trkpt>
      <trkpt lat="43.41717" lon="6.46633">
        <ele>65.2</ele>
        <time>2023-02-01T14:49:20Z</time>
      </trkpt>
      <trkpt lat="43.41715" lon="6.46638">
        <ele>64.8</ele>
        <time>2023-02-01T14:49:23Z</time>
      </trkpt>
      <trkpt lat="43.41714" lon="6.46644">
        <ele>64.4</ele>
        <time>2023-02-01T14:49:26Z</time>
      </trkpt>
      <trkpt lat="43.41714" lon="6.4665">
        <ele>63.9</ele>
        <time>2023-02-01T14:49:29Z</time>
      </trkpt>
      <trkpt lat="43.41713" lon="6.46655">
        <ele>63.4</ele>
        <time>2023-02-01T14:49:32Z</time>
      </trkpt>
      <trkpt lat="43.41711" lon="6.46661">
        <ele>62.9</ele>
        <time>2023-02-01T14:49:35Z</time>
      </trkpt>
      <trkpt lat="43.41711" lon="6.46665">
        <ele>62.6</ele>
        <time>2023-02-01T14:49:37Z</time>
      </trkpt>
      <trkpt lat="43.4171" lon="6.46671">
        <ele>62.3</ele>
        <time>2023-02-01T14:49:40Z</time>
      </trkpt>
      <trkpt lat="43.41708" lon="6.46676">
        <ele>61.4</ele>
        <time>2023-02-01T14:49:43Z</time>
      </trkpt>
      <trkpt lat="43.41707" lon="6.4668">
        <ele>61.4</ele>
        <time>2023-02-01T14:49:46Z</time>
      </trkpt>
      <trkpt lat="43.41705" lon="6.46685">
        <ele>61</ele>
        <time>2023-02-01T14:49:49Z</time>
      </trkpt>
      <trkpt lat="43.41702" lon="6.46689">
        <ele>60.6</ele>
        <time>2023-02-01T14:49:52Z</time>
      </trkpt>
      <trkpt lat="43.417" lon="6.46693">
        <ele>60.3</ele>
        <time>2023-02-01T14:49:55Z</time>
      </trkpt>
      <trkpt lat="43.41697" lon="6.46697">
        <ele>60.3</ele>
        <time>2023-02-01T14:49:58Z</time>
      </trkpt>
      <trkpt lat="43.41695" lon="6.467">
        <ele>60.4</ele>
        <time>2023-02-01T14:50:01Z</time>
      </trkpt>
      <trkpt lat="43.41692" lon="6.46704">
        <ele>60.4</ele>
        <time>2023-02-01T14:50:04Z</time>
      </trkpt>
      <trkpt lat="43.41688" lon="6.46706">
        <ele>60.4</ele>
        <time>2023-02-01T14:50:07Z</time>
      </trkpt>
      <trkpt lat="43.41685" lon="6.46708">
        <ele>60.3</ele>
        <time>2023-02-01T14:50:10Z</time>
      </trkpt>
      <trkpt lat="43.41681" lon="6.46711">
        <ele>60.3</ele>
        <time>2023-02-01T14:50:13Z</time>
      </trkpt>
      <trkpt lat="43.4168" lon="6.46716">
        <ele>60.3</ele>
        <time>2023-02-01T14:50:17Z</time>
      </trkpt>
      <trkpt lat="43.41677" lon="6.46721">
        <ele>60.3</ele>
        <time>2023-02-01T14:50:22Z</time>
      </trkpt>
      <trkpt lat="43.41676" lon="6.46726">
        <ele>60.4</ele>
        <time>2023-02-01T14:50:27Z</time>
      </trkpt>
      <trkpt lat="43.41675" lon="6.46731">
        <ele>60.5</ele>
        <time>2023-02-01T14:50:30Z</time>
      </trkpt>
      <trkpt lat="43.41674" lon="6.46736">
        <ele>60.7</ele>
        <time>2023-02-01T14:50:35Z</time>
      </trkpt>
      <trkpt lat="43.41676" lon="6.46742">
        <ele>61.2</ele>
        <time>2023-02-01T14:50:42Z</time>
      </trkpt>
      <trkpt lat="43.41677" lon="6.46747">
        <ele>61.6</ele>
        <time>2023-02-01T14:50:46Z</time>
      </trkpt>
      <trkpt lat="43.41677" lon="6.46752">
        <ele>62.1</ele>
        <time>2023-02-01T14:50:51Z</time>
      </trkpt>
      <trkpt lat="43.41678" lon="6.46758">
        <ele>62.7</ele>
        <time>2023-02-01T14:51:02Z</time>
      </trkpt>
      <trkpt lat="43.41678" lon="6.46764">
        <ele>62.2</ele>
        <time>2023-02-01T14:51:17Z</time>
      </trkpt>
      <trkpt lat="43.41679" lon="6.4677">
        <ele>62.1</ele>
        <time>2023-02-01T14:51:25Z</time>
      </trkpt>
      <trkpt lat="43.41681" lon="6.46775">
        <ele>61.3</ele>
        <time>2023-02-01T14:51:39Z</time>
      </trkpt>
      <trkpt lat="43.41684" lon="6.4678">
        <ele>60</ele>
        <time>2023-02-01T14:51:56Z</time>
      </trkpt>
      <trkpt lat="43.41687" lon="6.46783">
        <ele>58.9</ele>
        <time>2023-02-01T14:52:02Z</time>
      </trkpt>
      <trkpt lat="43.41691" lon="6.46785">
        <ele>57</ele>
        <time>2023-02-01T14:52:16Z</time>
      </trkpt>
      <trkpt lat="43.41695" lon="6.46786">
        <ele>56.1</ele>
        <time>2023-02-01T14:52:23Z</time>
      </trkpt>
      <trkpt lat="43.41699" lon="6.46783">
        <ele>55.7</ele>
        <time>2023-02-01T14:52:27Z</time>
      </trkpt>
      <trkpt lat="43.41703" lon="6.4678">
        <ele>55.5</ele>
        <time>2023-02-01T14:52:30Z</time>
      </trkpt>
      <trkpt lat="43.41698" lon="6.46782">
        <ele>55.4</ele>
        <time>2023-02-01T14:53:29Z</time>
      </trkpt>
      <trkpt lat="43.41697" lon="6.46787">
        <ele>55.3</ele>
        <time>2023-02-01T14:53:34Z</time>
      </trkpt>
      <trkpt lat="43.41695" lon="6.46791">
        <ele>55</ele>
        <time>2023-02-01T14:53:39Z</time>
      </trkpt>
      <trkpt lat="43.41693" lon="6.46795">
        <ele>55.4</ele>
        <time>2023-02-01T14:53:43Z</time>
      </trkpt>
      <trkpt lat="43.41692" lon="6.46801">
        <ele>55.3</ele>
        <time>2023-02-01T14:53:48Z</time>
      </trkpt>
      <trkpt lat="43.41688" lon="6.46804">
        <ele>56</ele>
        <time>2023-02-01T14:53:51Z</time>
      </trkpt>
      <trkpt lat="43.41685" lon="6.46807">
        <ele>55.6</ele>
        <time>2023-02-01T14:53:56Z</time>
      </trkpt>
      <trkpt lat="43.41684" lon="6.46811">
        <ele>55.7</ele>
        <time>2023-02-01T14:54:00Z</time>
      </trkpt>
      <trkpt lat="43.41681" lon="6.46815">
        <ele>56.6</ele>
        <time>2023-02-01T14:54:03Z</time>
      </trkpt>
      <trkpt lat="43.41677" lon="6.46817">
        <ele>56.6</ele>
        <time>2023-02-01T14:54:08Z</time>
      </trkpt>
      <trkpt lat="43.41674" lon="6.46822">
        <ele>56.4</ele>
        <time>2023-02-01T14:54:11Z</time>
      </trkpt>
      <trkpt lat="43.4167" lon="6.46825">
        <ele>57.1</ele>
        <time>2023-02-01T14:54:17Z</time>
      </trkpt>
      <trkpt lat="43.41666" lon="6.46825">
        <ele>58.9</ele>
        <time>2023-02-01T14:54:20Z</time>
      </trkpt>
      <trkpt lat="43.41663" lon="6.46825">
        <ele>60.2</ele>
        <time>2023-02-01T14:54:25Z</time>
      </trkpt>
      <trkpt lat="43.41659" lon="6.46826">
        <ele>60.6</ele>
        <time>2023-02-01T14:54:30Z</time>
      </trkpt>
      <trkpt lat="43.41655" lon="6.46827">
        <ele>61.4</ele>
        <time>2023-02-01T14:54:33Z</time>
      </trkpt>
      <trkpt lat="43.41651" lon="6.46827">
        <ele>61.5</ele>
        <time>2023-02-01T14:54:38Z</time>
      </trkpt>
      <trkpt lat="43.41646" lon="6.46828">
        <ele>61.7</ele>
        <time>2023-02-01T14:54:41Z</time>
      </trkpt>
      <trkpt lat="43.41643" lon="6.46828">
        <ele>61.3</ele>
        <time>2023-02-01T14:54:45Z</time>
      </trkpt>
      <trkpt lat="43.4164" lon="6.46831">
        <ele>60.7</ele>
        <time>2023-02-01T14:54:48Z</time>
      </trkpt>
      <trkpt lat="43.41638" lon="6.46836">
        <ele>61.4</ele>
        <time>2023-02-01T14:54:50Z</time>
      </trkpt>
      <trkpt lat="43.41637" lon="6.46841">
        <ele>61.1</ele>
        <time>2023-02-01T14:54:55Z</time>
      </trkpt>
      <trkpt lat="43.41634" lon="6.46845">
        <ele>60.9</ele>
        <time>2023-02-01T14:54:59Z</time>
      </trkpt>
      <trkpt lat="43.41632" lon="6.4685">
        <ele>62.3</ele>
        <time>2023-02-01T14:55:04Z</time>
      </trkpt>
      <trkpt lat="43.4163" lon="6.46854">
        <ele>62.2</ele>
        <time>2023-02-01T14:55:08Z</time>
      </trkpt>
      <trkpt lat="43.41628" lon="6.46858">
        <ele>61.5</ele>
        <time>2023-02-01T14:55:12Z</time>
      </trkpt>
      <trkpt lat="43.41626" lon="6.46863">
        <ele>60.7</ele>
        <time>2023-02-01T14:55:15Z</time>
      </trkpt>
      <trkpt lat="43.41625" lon="6.46869">
        <ele>59.9</ele>
        <time>2023-02-01T14:55:18Z</time>
      </trkpt>
      <trkpt lat="43.41623" lon="6.46873">
        <ele>59.5</ele>
        <time>2023-02-01T14:55:20Z</time>
      </trkpt>
      <trkpt lat="43.41622" lon="6.46877">
        <ele>57.9</ele>
        <time>2023-02-01T14:55:25Z</time>
      </trkpt>
      <trkpt lat="43.4162" lon="6.46882">
        <ele>58.5</ele>
        <time>2023-02-01T14:55:28Z</time>
      </trkpt>
      <trkpt lat="43.41618" lon="6.46887">
        <ele>58</ele>
        <time>2023-02-01T14:55:34Z</time>
      </trkpt>
      <trkpt lat="43.41616" lon="6.46893">
        <ele>58.4</ele>
        <time>2023-02-01T14:55:39Z</time>
      </trkpt>
      <trkpt lat="43.41615" lon="6.46897">
        <ele>59.8</ele>
        <time>2023-02-01T14:55:42Z</time>
      </trkpt>
      <trkpt lat="43.41614" lon="6.46902">
        <ele>60.3</ele>
        <time>2023-02-01T14:55:46Z</time>
      </trkpt>
      <trkpt lat="43.41614" lon="6.46907">
        <ele>60</ele>
        <time>2023-02-01T14:55:50Z</time>
      </trkpt>
      <trkpt lat="43.41613" lon="6.46912">
        <ele>60</ele>
        <time>2023-02-01T14:55:52Z</time>
      </trkpt>
      <trkpt lat="43.41611" lon="6.46917">
        <ele>58.7</ele>
        <time>2023-02-01T14:55:56Z</time>
      </trkpt>
      <trkpt lat="43.41608" lon="6.4692">
        <ele>58.5</ele>
        <time>2023-02-01T14:56:00Z</time>
      </trkpt>
      <trkpt lat="43.41603" lon="6.46922">
        <ele>59.1</ele>
        <time>2023-02-01T14:56:03Z</time>
      </trkpt>
      <trkpt lat="43.416" lon="6.46924">
        <ele>59.7</ele>
        <time>2023-02-01T14:56:05Z</time>
      </trkpt>
      <trkpt lat="43.41596" lon="6.46926">
        <ele>60.1</ele>
        <time>2023-02-01T14:56:10Z</time>
      </trkpt>
      <trkpt lat="43.41594" lon="6.4693">
        <ele>60</ele>
        <time>2023-02-01T14:56:14Z</time>
      </trkpt>
      <trkpt lat="43.41592" lon="6.46935">
        <ele>59.4</ele>
        <time>2023-02-01T14:56:18Z</time>
      </trkpt>
      <trkpt lat="43.41591" lon="6.46939">
        <ele>58.5</ele>
        <time>2023-02-01T14:56:22Z</time>
      </trkpt>
      <trkpt lat="43.41589" lon="6.46942">
        <ele>58.1</ele>
        <time>2023-02-01T14:56:24Z</time>
      </trkpt>
      <trkpt lat="43.41587" lon="6.46947">
        <ele>57.6</ele>
        <time>2023-02-01T14:56:27Z</time>
      </trkpt>
      <trkpt lat="43.41585" lon="6.46951">
        <ele>57.2</ele>
        <time>2023-02-01T14:56:31Z</time>
      </trkpt>
      <trkpt lat="43.41581" lon="6.46953">
        <ele>57.8</ele>
        <time>2023-02-01T14:56:42Z</time>
      </trkpt>
      <trkpt lat="43.41578" lon="6.46949">
        <ele>58.3</ele>
        <time>2023-02-01T14:56:52Z</time>
      </trkpt>
      <trkpt lat="43.41576" lon="6.46954">
        <ele>57.9</ele>
        <time>2023-02-01T14:57:35Z</time>
      </trkpt>
      <trkpt lat="43.41579" lon="6.46959">
        <ele>57.9</ele>
        <time>2023-02-01T14:58:33Z</time>
      </trkpt>
      <trkpt lat="43.41576" lon="6.46963">
        <ele>57.8</ele>
        <time>2023-02-01T14:58:51Z</time>
      </trkpt>
      <trkpt lat="43.41573" lon="6.46967">
        <ele>57.7</ele>
        <time>2023-02-01T14:58:58Z</time>
      </trkpt>
      <trkpt lat="43.41571" lon="6.46971">
        <ele>57.5</ele>
        <time>2023-02-01T14:59:03Z</time>
      </trkpt>
      <trkpt lat="43.41569" lon="6.46976">
        <ele>57.2</ele>
        <time>2023-02-01T14:59:08Z</time>
      </trkpt>
      <trkpt lat="43.41567" lon="6.4698">
        <ele>57.2</ele>
        <time>2023-02-01T14:59:11Z</time>
      </trkpt>
      <trkpt lat="43.41565" lon="6.46985">
        <ele>57.1</ele>
        <time>2023-02-01T14:59:16Z</time>
      </trkpt>
      <trkpt lat="43.41563" lon="6.4699">
        <ele>57.1</ele>
        <time>2023-02-01T14:59:20Z</time>
      </trkpt>
      <trkpt lat="43.41561" lon="6.46996">
        <ele>56.9</ele>
        <time>2023-02-01T14:59:25Z</time>
      </trkpt>
      <trkpt lat="43.4156" lon="6.47001">
        <ele>56.8</ele>
        <time>2023-02-01T14:59:29Z</time>
      </trkpt>
      <trkpt lat="43.41558" lon="6.47007">
        <ele>56.7</ele>
        <time>2023-02-01T14:59:34Z</time>
      </trkpt>
      <trkpt lat="43.41556" lon="6.47012">
        <ele>56.6</ele>
        <time>2023-02-01T14:59:39Z</time>
      </trkpt>
      <trkpt lat="43.41555" lon="6.47016">
        <ele>56.3</ele>
        <time>2023-02-01T14:59:42Z</time>
      </trkpt>
      <trkpt lat="43.41553" lon="6.47022">
        <ele>56</ele>
        <time>2023-02-01T14:59:46Z</time>
      </trkpt>
      <trkpt lat="43.41551" lon="6.47027">
        <ele>55.9</ele>
        <time>2023-02-01T14:59:50Z</time>
      </trkpt>
      <trkpt lat="43.41549" lon="6.47032">
        <ele>56</ele>
        <time>2023-02-01T14:59:53Z</time>
      </trkpt>
      <trkpt lat="43.41547" lon="6.47036">
        <ele>55.9</ele>
        <time>2023-02-01T14:59:57Z</time>
      </trkpt>
      <trkpt lat="43.41545" lon="6.47041">
        <ele>55.9</ele>
        <time>2023-02-01T15:00:00Z</time>
      </trkpt>
      <trkpt lat="43.41543" lon="6.47046">
        <ele>55.6</ele>
        <time>2023-02-01T15:00:05Z</time>
      </trkpt>
      <trkpt lat="43.41541" lon="6.47051">
        <ele>55.7</ele>
        <time>2023-02-01T15:00:08Z</time>
      </trkpt>
      <trkpt lat="43.41539" lon="6.47055">
        <ele>55.5</ele>
        <time>2023-02-01T15:00:12Z</time>
      </trkpt>
      <trkpt lat="43.41538" lon="6.47058">
        <ele>55.5</ele>
        <time>2023-02-01T15:00:14Z</time>
      </trkpt>
      <trkpt lat="43.41536" lon="6.47063">
        <ele>55.1</ele>
        <time>2023-02-01T15:00:18Z</time>
      </trkpt>
      <trkpt lat="43.41534" lon="6.47068">
        <ele>55.1</ele>
        <time>2023-02-01T15:00:22Z</time>
      </trkpt>
      <trkpt lat="43.41531" lon="6.47072">
        <ele>54.8</ele>
        <time>2023-02-01T15:00:27Z</time>
      </trkpt>
      <trkpt lat="43.41529" lon="6.47077">
        <ele>54.6</ele>
        <time>2023-02-01T15:00:30Z</time>
      </trkpt>
      <trkpt lat="43.41527" lon="6.47082">
        <ele>54.4</ele>
        <time>2023-02-01T15:00:34Z</time>
      </trkpt>
      <trkpt lat="43.41525" lon="6.47086">
        <ele>54.3</ele>
        <time>2023-02-01T15:00:37Z</time>
      </trkpt>
      <trkpt lat="43.41523" lon="6.47089">
        <ele>54.3</ele>
        <time>2023-02-01T15:00:39Z</time>
      </trkpt>
      <trkpt lat="43.41521" lon="6.47094">
        <ele>54</ele>
        <time>2023-02-01T15:00:43Z</time>
      </trkpt>
      <trkpt lat="43.41519" lon="6.47099">
        <ele>53.9</ele>
        <time>2023-02-01T15:00:47Z</time>
      </trkpt>
      <trkpt lat="43.41518" lon="6.47103">
        <ele>53.8</ele>
        <time>2023-02-01T15:00:49Z</time>
      </trkpt>
      <trkpt lat="43.41516" lon="6.47107">
        <ele>53.9</ele>
        <time>2023-02-01T15:00:51Z</time>
      </trkpt>
      <trkpt lat="43.41514" lon="6.47112">
        <ele>53.4</ele>
        <time>2023-02-01T15:00:56Z</time>
      </trkpt>
      <trkpt lat="43.41512" lon="6.47116">
        <ele>53.4</ele>
        <time>2023-02-01T15:01:00Z</time>
      </trkpt>
      <trkpt lat="43.4151" lon="6.47122">
        <ele>53.3</ele>
        <time>2023-02-01T15:01:03Z</time>
      </trkpt>
      <trkpt lat="43.41508" lon="6.47126">
        <ele>53.4</ele>
        <time>2023-02-01T15:01:05Z</time>
      </trkpt>
      <trkpt lat="43.41507" lon="6.47131">
        <ele>53.3</ele>
        <time>2023-02-01T15:01:08Z</time>
      </trkpt>
      <trkpt lat="43.41505" lon="6.47136">
        <ele>53</ele>
        <time>2023-02-01T15:01:12Z</time>
      </trkpt>
      <trkpt lat="43.41503" lon="6.47141">
        <ele>53</ele>
        <time>2023-02-01T15:01:15Z</time>
      </trkpt>
      <trkpt lat="43.41502" lon="6.47146">
        <ele>52.6</ele>
        <time>2023-02-01T15:01:19Z</time>
      </trkpt>
      <trkpt lat="43.41501" lon="6.4715">
        <ele>52.4</ele>
        <time>2023-02-01T15:01:22Z</time>
      </trkpt>
      <trkpt lat="43.41499" lon="6.47155">
        <ele>52.2</ele>
        <time>2023-02-01T15:01:25Z</time>
      </trkpt>
      <trkpt lat="43.41497" lon="6.4716">
        <ele>52.2</ele>
        <time>2023-02-01T15:01:27Z</time>
      </trkpt>
      <trkpt lat="43.41496" lon="6.47164">
        <ele>52.2</ele>
        <time>2023-02-01T15:01:29Z</time>
      </trkpt>
      <trkpt lat="43.41494" lon="6.47169">
        <ele>52</ele>
        <time>2023-02-01T15:01:33Z</time>
      </trkpt>
      <trkpt lat="43.41492" lon="6.47174">
        <ele>51.8</ele>
        <time>2023-02-01T15:01:37Z</time>
      </trkpt>
      <trkpt lat="43.41491" lon="6.4718">
        <ele>51.7</ele>
        <time>2023-02-01T15:01:40Z</time>
      </trkpt>
      <trkpt lat="43.41489" lon="6.47184">
        <ele>51.5</ele>
        <time>2023-02-01T15:01:42Z</time>
      </trkpt>
      <trkpt lat="43.41487" lon="6.47189">
        <ele>51.1</ele>
        <time>2023-02-01T15:01:47Z</time>
      </trkpt>
      <trkpt lat="43.41485" lon="6.47194">
        <ele>51</ele>
        <time>2023-02-01T15:01:50Z</time>
      </trkpt>
      <trkpt lat="43.41484" lon="6.47197">
        <ele>51</ele>
        <time>2023-02-01T15:01:52Z</time>
      </trkpt>
      <trkpt lat="43.41482" lon="6.47202">
        <ele>51.1</ele>
        <time>2023-02-01T15:01:54Z</time>
      </trkpt>
      <trkpt lat="43.41481" lon="6.47206">
        <ele>51.2</ele>
        <time>2023-02-01T15:01:56Z</time>
      </trkpt>
      <trkpt lat="43.41478" lon="6.47211">
        <ele>51.2</ele>
        <time>2023-02-01T15:01:59Z</time>
      </trkpt>
      <trkpt lat="43.41477" lon="6.47216">
        <ele>50.8</ele>
        <time>2023-02-01T15:02:03Z</time>
      </trkpt>
      <trkpt lat="43.41476" lon="6.47221">
        <ele>50.9</ele>
        <time>2023-02-01T15:02:06Z</time>
      </trkpt>
      <trkpt lat="43.41475" lon="6.47226">
        <ele>50.8</ele>
        <time>2023-02-01T15:02:09Z</time>
      </trkpt>
      <trkpt lat="43.41473" lon="6.47232">
        <ele>50.4</ele>
        <time>2023-02-01T15:02:14Z</time>
      </trkpt>
      <trkpt lat="43.41471" lon="6.47235">
        <ele>50.5</ele>
        <time>2023-02-01T15:02:16Z</time>
      </trkpt>
      <trkpt lat="43.41469" lon="6.4724">
        <ele>50.6</ele>
        <time>2023-02-01T15:02:19Z</time>
      </trkpt>
      <trkpt lat="43.41467" lon="6.47245">
        <ele>50.2</ele>
        <time>2023-02-01T15:02:24Z</time>
      </trkpt>
      <trkpt lat="43.41464" lon="6.47249">
        <ele>50.1</ele>
        <time>2023-02-01T15:02:27Z</time>
      </trkpt>
      <trkpt lat="43.41461" lon="6.47254">
        <ele>49.3</ele>
        <time>2023-02-01T15:02:32Z</time>
      </trkpt>
      <trkpt lat="43.41459" lon="6.47257">
        <ele>49.4</ele>
        <time>2023-02-01T15:02:35Z</time>
      </trkpt>
      <trkpt lat="43.41457" lon="6.4726">
        <ele>49.5</ele>
        <time>2023-02-01T15:02:37Z</time>
      </trkpt>
      <trkpt lat="43.41454" lon="6.47264">
        <ele>49.7</ele>
        <time>2023-02-01T15:02:39Z</time>
      </trkpt>
      <trkpt lat="43.41451" lon="6.47266">
        <ele>49.8</ele>
        <time>2023-02-01T15:02:41Z</time>
      </trkpt>
      <trkpt lat="43.41448" lon="6.47269">
        <ele>49.3</ele>
        <time>2023-02-01T15:02:46Z</time>
      </trkpt>
      <trkpt lat="43.41445" lon="6.47274">
        <ele>49.2</ele>
        <time>2023-02-01T15:02:49Z</time>
      </trkpt>
      <trkpt lat="43.41443" lon="6.47278">
        <ele>49.2</ele>
        <time>2023-02-01T15:02:51Z</time>
      </trkpt>
      <trkpt lat="43.4144" lon="6.47282">
        <ele>48.9</ele>
        <time>2023-02-01T15:02:55Z</time>
      </trkpt>
      <trkpt lat="43.41437" lon="6.47285">
        <ele>48.7</ele>
        <time>2023-02-01T15:02:59Z</time>
      </trkpt>
      <trkpt lat="43.41436" lon="6.47288">
        <ele>48.4</ele>
        <time>2023-02-01T15:03:01Z</time>
      </trkpt>
      <trkpt lat="43.41433" lon="6.47291">
        <ele>48.3</ele>
        <time>2023-02-01T15:03:03Z</time>
      </trkpt>
      <trkpt lat="43.4143" lon="6.47295">
        <ele>48</ele>
        <time>2023-02-01T15:03:06Z</time>
      </trkpt>
      <trkpt lat="43.41428" lon="6.47299">
        <ele>47.4</ele>
        <time>2023-02-01T15:03:11Z</time>
      </trkpt>
      <trkpt lat="43.41425" lon="6.47302">
        <ele>47.5</ele>
        <time>2023-02-01T15:03:14Z</time>
      </trkpt>
      <trkpt lat="43.41423" lon="6.47305">
        <ele>47.6</ele>
        <time>2023-02-01T15:03:16Z</time>
      </trkpt>
      <trkpt lat="43.4142" lon="6.47309">
        <ele>47.6</ele>
        <time>2023-02-01T15:03:18Z</time>
      </trkpt>
      <trkpt lat="43.41417" lon="6.47313">
        <ele>46.9</ele>
        <time>2023-02-01T15:03:24Z</time>
      </trkpt>
      <trkpt lat="43.41415" lon="6.47316">
        <ele>46.8</ele>
        <time>2023-02-01T15:03:27Z</time>
      </trkpt>
      <trkpt lat="43.41412" lon="6.47319">
        <ele>46.9</ele>
        <time>2023-02-01T15:03:29Z</time>
      </trkpt>
      <trkpt lat="43.41409" lon="6.47323">
        <ele>46.6</ele>
        <time>2023-02-01T15:03:33Z</time>
      </trkpt>
      <trkpt lat="43.41407" lon="6.47327">
        <ele>46.3</ele>
        <time>2023-02-01T15:03:37Z</time>
      </trkpt>
      <trkpt lat="43.41404" lon="6.4733">
        <ele>46.3</ele>
        <time>2023-02-01T15:03:39Z</time>
      </trkpt>
      <trkpt lat="43.41401" lon="6.47333">
        <ele>46.3</ele>
        <time>2023-02-01T15:03:41Z</time>
      </trkpt>
      <trkpt lat="43.41399" lon="6.47337">
        <ele>45.7</ele>
        <time>2023-02-01T15:03:45Z</time>
      </trkpt>
      <trkpt lat="43.41396" lon="6.47341">
        <ele>45.6</ele>
        <time>2023-02-01T15:03:48Z</time>
      </trkpt>
      <trkpt lat="43.41394" lon="6.47344">
        <ele>45.7</ele>
        <time>2023-02-01T15:03:50Z</time>
      </trkpt>
      <trkpt lat="43.41392" lon="6.47348">
        <ele>45.4</ele>
        <time>2023-02-01T15:03:53Z</time>
      </trkpt>
      <trkpt lat="43.41389" lon="6.47351">
        <ele>45.1</ele>
        <time>2023-02-01T15:03:56Z</time>
      </trkpt>
      <trkpt lat="43.41386" lon="6.47356">
        <ele>44.7</ele>
        <time>2023-02-01T15:03:59Z</time>
      </trkpt>
      <trkpt lat="43.41383" lon="6.4736">
        <ele>44.5</ele>
        <time>2023-02-01T15:04:03Z</time>
      </trkpt>
      <trkpt lat="43.41381" lon="6.47363">
        <ele>44.4</ele>
        <time>2023-02-01T15:04:06Z</time>
      </trkpt>
      <trkpt lat="43.41379" lon="6.47366">
        <ele>44.3</ele>
        <time>2023-02-01T15:04:08Z</time>
      </trkpt>
      <trkpt lat="43.41376" lon="6.4737">
        <ele>43.7</ele>
        <time>2023-02-01T15:04:12Z</time>
      </trkpt>
      <trkpt lat="43.41373" lon="6.47374">
        <ele>43.8</ele>
        <time>2023-02-01T15:04:16Z</time>
      </trkpt>
      <trkpt lat="43.4137" lon="6.47377">
        <ele>43.9</ele>
        <time>2023-02-01T15:04:19Z</time>
      </trkpt>
      <trkpt lat="43.41367" lon="6.4738">
        <ele>43.2</ele>
        <time>2023-02-01T15:04:23Z</time>
      </trkpt>
      <trkpt lat="43.41363" lon="6.47384">
        <ele>43.1</ele>
        <time>2023-02-01T15:04:26Z</time>
      </trkpt>
      <trkpt lat="43.4136" lon="6.47387">
        <ele>42.7</ele>
        <time>2023-02-01T15:04:31Z</time>
      </trkpt>
      <trkpt lat="43.41356" lon="6.47389">
        <ele>42.6</ele>
        <time>2023-02-01T15:04:34Z</time>
      </trkpt>
      <trkpt lat="43.41352" lon="6.47393">
        <ele>42.3</ele>
        <time>2023-02-01T15:04:37Z</time>
      </trkpt>
      <trkpt lat="43.41349" lon="6.47396">
        <ele>41.6</ele>
        <time>2023-02-01T15:04:42Z</time>
      </trkpt>
      <trkpt lat="43.41346" lon="6.474">
        <ele>41.7</ele>
        <time>2023-02-01T15:04:45Z</time>
      </trkpt>
      <trkpt lat="43.41343" lon="6.47405">
        <ele>41.2</ele>
        <time>2023-02-01T15:04:50Z</time>
      </trkpt>
      <trkpt lat="43.41341" lon="6.47408">
        <ele>41.3</ele>
        <time>2023-02-01T15:04:52Z</time>
      </trkpt>
      <trkpt lat="43.41339" lon="6.47413">
        <ele>41.3</ele>
        <time>2023-02-01T15:04:55Z</time>
      </trkpt>
      <trkpt lat="43.41337" lon="6.47417">
        <ele>40.7</ele>
        <time>2023-02-01T15:04:59Z</time>
      </trkpt>
      <trkpt lat="43.41334" lon="6.47422">
        <ele>40.8</ele>
        <time>2023-02-01T15:05:02Z</time>
      </trkpt>
      <trkpt lat="43.41332" lon="6.47427">
        <ele>40</ele>
        <time>2023-02-01T15:05:07Z</time>
      </trkpt>
      <trkpt lat="43.41329" lon="6.47431">
        <ele>39.8</ele>
        <time>2023-02-01T15:05:10Z</time>
      </trkpt>
      <trkpt lat="43.41327" lon="6.47435">
        <ele>39.3</ele>
        <time>2023-02-01T15:05:14Z</time>
      </trkpt>
      <trkpt lat="43.41325" lon="6.47439">
        <ele>39.1</ele>
        <time>2023-02-01T15:05:17Z</time>
      </trkpt>
      <trkpt lat="43.41323" lon="6.47443">
        <ele>39.1</ele>
        <time>2023-02-01T15:05:19Z</time>
      </trkpt>
      <trkpt lat="43.41321" lon="6.47447">
        <ele>38.9</ele>
        <time>2023-02-01T15:05:23Z</time>
      </trkpt>
      <trkpt lat="43.4132" lon="6.47453">
        <ele>38.2</ele>
        <time>2023-02-01T15:05:27Z</time>
      </trkpt>
      <trkpt lat="43.41319" lon="6.47457">
        <ele>38.2</ele>
        <time>2023-02-01T15:05:29Z</time>
      </trkpt>
      <trkpt lat="43.41316" lon="6.47462">
        <ele>38.2</ele>
        <time>2023-02-01T15:05:32Z</time>
      </trkpt>
      <trkpt lat="43.41315" lon="6.47467">
        <ele>37.6</ele>
        <time>2023-02-01T15:05:36Z</time>
      </trkpt>
      <trkpt lat="43.41315" lon="6.47473">
        <ele>37.4</ele>
        <time>2023-02-01T15:05:39Z</time>
      </trkpt>
      <trkpt lat="43.41316" lon="6.47479">
        <ele>36.9</ele>
        <time>2023-02-01T15:05:43Z</time>
      </trkpt>
      <trkpt lat="43.41318" lon="6.47483">
        <ele>36.4</ele>
        <time>2023-02-01T15:05:47Z</time>
      </trkpt>
      <trkpt lat="43.4132" lon="6.47488">
        <ele>36.2</ele>
        <time>2023-02-01T15:05:50Z</time>
      </trkpt>
      <trkpt lat="43.41321" lon="6.47492">
        <ele>35.9</ele>
        <time>2023-02-01T15:05:53Z</time>
      </trkpt>
      <trkpt lat="43.41322" lon="6.47498">
        <ele>35.8</ele>
        <time>2023-02-01T15:05:57Z</time>
      </trkpt>
      <trkpt lat="43.41323" lon="6.47503">
        <ele>35.7</ele>
        <time>2023-02-01T15:06:03Z</time>
      </trkpt>
      <trkpt lat="43.41323" lon="6.47509">
        <ele>35.7</ele>
        <time>2023-02-01T15:06:10Z</time>
      </trkpt>
      <trkpt lat="43.41323" lon="6.47514">
        <ele>35.7</ele>
        <time>2023-02-01T15:06:18Z</time>
      </trkpt>
      <trkpt lat="43.41322" lon="6.4752">
        <ele>35.6</ele>
        <time>2023-02-01T15:06:26Z</time>
      </trkpt>
      <trkpt lat="43.4132" lon="6.47526">
        <ele>35.5</ele>
        <time>2023-02-01T15:06:31Z</time>
      </trkpt>
      <trkpt lat="43.4132" lon="6.47532">
        <ele>35.4</ele>
        <time>2023-02-01T15:06:37Z</time>
      </trkpt>
      <trkpt lat="43.41318" lon="6.47537">
        <ele>36.3</ele>
        <time>2023-02-01T15:06:45Z</time>
      </trkpt>
      <trkpt lat="43.41317" lon="6.47543">
        <ele>36.6</ele>
        <time>2023-02-01T15:06:51Z</time>
      </trkpt>
      <trkpt lat="43.41315" lon="6.47548">
        <ele>36.8</ele>
        <time>2023-02-01T15:06:55Z</time>
      </trkpt>
      <trkpt lat="43.41314" lon="6.47554">
        <ele>36.6</ele>
        <time>2023-02-01T15:07:00Z</time>
      </trkpt>
      <trkpt lat="43.41313" lon="6.47559">
        <ele>36.4</ele>
        <time>2023-02-01T15:07:04Z</time>
      </trkpt>
      <trkpt lat="43.41312" lon="6.47565">
        <ele>35.9</ele>
        <time>2023-02-01T15:07:08Z</time>
      </trkpt>
      <trkpt lat="43.41311" lon="6.4757">
        <ele>35.9</ele>
        <time>2023-02-01T15:07:10Z</time>
      </trkpt>
      <trkpt lat="43.4131" lon="6.47575">
        <ele>36</ele>
        <time>2023-02-01T15:07:13Z</time>
      </trkpt>
      <trkpt lat="43.41308" lon="6.47579">
        <ele>35.3</ele>
        <time>2023-02-01T15:07:18Z</time>
      </trkpt>
      <trkpt lat="43.41307" lon="6.47584">
        <ele>35</ele>
        <time>2023-02-01T15:07:21Z</time>
      </trkpt>
      <trkpt lat="43.41305" lon="6.47588">
        <ele>34.9</ele>
        <time>2023-02-01T15:07:23Z</time>
      </trkpt>
      <trkpt lat="43.41304" lon="6.47594">
        <ele>34.8</ele>
        <time>2023-02-01T15:07:26Z</time>
      </trkpt>
      <trkpt lat="43.41303" lon="6.47599">
        <ele>34.4</ele>
        <time>2023-02-01T15:07:31Z</time>
      </trkpt>
      <trkpt lat="43.41303" lon="6.47603">
        <ele>34</ele>
        <time>2023-02-01T15:07:34Z</time>
      </trkpt>
      <trkpt lat="43.41302" lon="6.47609">
        <ele>33.9</ele>
        <time>2023-02-01T15:07:39Z</time>
      </trkpt>
      <trkpt lat="43.41302" lon="6.47614">
        <ele>33.7</ele>
        <time>2023-02-01T15:07:42Z</time>
      </trkpt>
      <trkpt lat="43.41301" lon="6.47619">
        <ele>33.2</ele>
        <time>2023-02-01T15:07:47Z</time>
      </trkpt>
      <trkpt lat="43.41301" lon="6.47624">
        <ele>33.2</ele>
        <time>2023-02-01T15:07:49Z</time>
      </trkpt>
      <trkpt lat="43.41299" lon="6.47629">
        <ele>33.3</ele>
        <time>2023-02-01T15:07:53Z</time>
      </trkpt>
      <trkpt lat="43.41298" lon="6.47635">
        <ele>33.4</ele>
        <time>2023-02-01T15:07:56Z</time>
      </trkpt>
      <trkpt lat="43.41296" lon="6.47639">
        <ele>33.3</ele>
        <time>2023-02-01T15:08:00Z</time>
      </trkpt>
      <trkpt lat="43.41295" lon="6.47644">
        <ele>33.2</ele>
        <time>2023-02-01T15:08:03Z</time>
      </trkpt>
      <trkpt lat="43.41294" lon="6.47649">
        <ele>32.7</ele>
        <time>2023-02-01T15:08:07Z</time>
      </trkpt>
      <trkpt lat="43.41292" lon="6.47652">
        <ele>32.8</ele>
        <time>2023-02-01T15:08:09Z</time>
      </trkpt>
      <trkpt lat="43.4129" lon="6.47656">
        <ele>32.8</ele>
        <time>2023-02-01T15:08:13Z</time>
      </trkpt>
      <trkpt lat="43.41288" lon="6.4766">
        <ele>32.8</ele>
        <time>2023-02-01T15:08:16Z</time>
      </trkpt>
      <trkpt lat="43.41287" lon="6.47665">
        <ele>32.8</ele>
        <time>2023-02-01T15:08:20Z</time>
      </trkpt>
      <trkpt lat="43.41287" lon="6.4767">
        <ele>32.7</ele>
        <time>2023-02-01T15:08:23Z</time>
      </trkpt>
      <trkpt lat="43.41285" lon="6.47675">
        <ele>33</ele>
        <time>2023-02-01T15:08:26Z</time>
      </trkpt>
      <trkpt lat="43.41284" lon="6.4768">
        <ele>33</ele>
        <time>2023-02-01T15:08:30Z</time>
      </trkpt>
      <trkpt lat="43.41284" lon="6.47684">
        <ele>32.9</ele>
        <time>2023-02-01T15:08:34Z</time>
      </trkpt>
      <trkpt lat="43.41283" lon="6.47689">
        <ele>32.7</ele>
        <time>2023-02-01T15:08:37Z</time>
      </trkpt>
      <trkpt lat="43.41282" lon="6.47695">
        <ele>32.6</ele>
        <time>2023-02-01T15:08:40Z</time>
      </trkpt>
      <trkpt lat="43.41281" lon="6.47701">
        <ele>32.6</ele>
        <time>2023-02-01T15:08:44Z</time>
      </trkpt>
      <trkpt lat="43.41281" lon="6.47706">
        <ele>32.2</ele>
        <time>2023-02-01T15:08:49Z</time>
      </trkpt>
      <trkpt lat="43.41281" lon="6.47711">
        <ele>31.9</ele>
        <time>2023-02-01T15:08:53Z</time>
      </trkpt>
      <trkpt lat="43.4128" lon="6.47716">
        <ele>32</ele>
        <time>2023-02-01T15:08:57Z</time>
      </trkpt>
      <trkpt lat="43.41279" lon="6.47721">
        <ele>32.1</ele>
        <time>2023-02-01T15:09:00Z</time>
      </trkpt>
      <trkpt lat="43.41278" lon="6.47726">
        <ele>32.1</ele>
        <time>2023-02-01T15:09:04Z</time>
      </trkpt>
      <trkpt lat="43.41277" lon="6.47731">
        <ele>32.1</ele>
        <time>2023-02-01T15:09:07Z</time>
      </trkpt>
      <trkpt lat="43.41275" lon="6.47736">
        <ele>32.2</ele>
        <time>2023-02-01T15:09:11Z</time>
      </trkpt>
      <trkpt lat="43.41274" lon="6.47741">
        <ele>32.2</ele>
        <time>2023-02-01T15:09:16Z</time>
      </trkpt>
      <trkpt lat="43.41272" lon="6.47746">
        <ele>32.2</ele>
        <time>2023-02-01T15:09:21Z</time>
      </trkpt>
      <trkpt lat="43.4127" lon="6.47751">
        <ele>31.9</ele>
        <time>2023-02-01T15:09:25Z</time>
      </trkpt>
      <trkpt lat="43.41268" lon="6.47756">
        <ele>32</ele>
        <time>2023-02-01T15:09:30Z</time>
      </trkpt>
      <trkpt lat="43.41266" lon="6.4776">
        <ele>31.8</ele>
        <time>2023-02-01T15:09:33Z</time>
      </trkpt>
      <trkpt lat="43.41265" lon="6.47765">
        <ele>31.9</ele>
        <time>2023-02-01T15:09:35Z</time>
      </trkpt>
      <trkpt lat="43.41263" lon="6.47769">
        <ele>31.8</ele>
        <time>2023-02-01T15:09:39Z</time>
      </trkpt>
      <trkpt lat="43.41262" lon="6.47774">
        <ele>32</ele>
        <time>2023-02-01T15:09:42Z</time>
      </trkpt>
      <trkpt lat="43.41259" lon="6.47778">
        <ele>31.5</ele>
        <time>2023-02-01T15:09:46Z</time>
      </trkpt>
      <trkpt lat="43.41257" lon="6.47781">
        <ele>31.8</ele>
        <time>2023-02-01T15:09:49Z</time>
      </trkpt>
      <trkpt lat="43.41255" lon="6.47786">
        <ele>31.5</ele>
        <time>2023-02-01T15:09:54Z</time>
      </trkpt>
      <trkpt lat="43.41251" lon="6.47789">
        <ele>31.5</ele>
        <time>2023-02-01T15:10:01Z</time>
      </trkpt>
      <trkpt lat="43.41247" lon="6.47792">
        <ele>31.4</ele>
        <time>2023-02-01T15:10:05Z</time>
      </trkpt>
      <trkpt lat="43.41244" lon="6.47794">
        <ele>31.4</ele>
        <time>2023-02-01T15:10:09Z</time>
      </trkpt>
      <trkpt lat="43.41241" lon="6.47795">
        <ele>31.1</ele>
        <time>2023-02-01T15:10:12Z</time>
      </trkpt>
      <trkpt lat="43.41237" lon="6.47795">
        <ele>31.3</ele>
        <time>2023-02-01T15:10:14Z</time>
      </trkpt>
      <trkpt lat="43.41233" lon="6.47798">
        <ele>31</ele>
        <time>2023-02-01T15:10:18Z</time>
      </trkpt>
      <trkpt lat="43.4123" lon="6.47802">
        <ele>31</ele>
        <time>2023-02-01T15:10:22Z</time>
      </trkpt>
      <trkpt lat="43.41227" lon="6.47806">
        <ele>31.5</ele>
        <time>2023-02-01T15:10:25Z</time>
      </trkpt>
      <trkpt lat="43.41224" lon="6.47809">
        <ele>31.8</ele>
        <time>2023-02-01T15:10:29Z</time>
      </trkpt>
      <trkpt lat="43.41221" lon="6.47811">
        <ele>31.8</ele>
        <time>2023-02-01T15:10:32Z</time>
      </trkpt>
      <trkpt lat="43.41218" lon="6.47815">
        <ele>31.6</ele>
        <time>2023-02-01T15:10:36Z</time>
      </trkpt>
      <trkpt lat="43.41214" lon="6.47818">
        <ele>31.5</ele>
        <time>2023-02-01T15:10:39Z</time>
      </trkpt>
      <trkpt lat="43.4121" lon="6.47819">
        <ele>31</ele>
        <time>2023-02-01T15:10:43Z</time>
      </trkpt>
      <trkpt lat="43.41207" lon="6.47818">
        <ele>30.2</ele>
        <time>2023-02-01T15:10:48Z</time>
      </trkpt>
      <trkpt lat="43.41203" lon="6.47817">
        <ele>29.8</ele>
        <time>2023-02-01T15:10:52Z</time>
      </trkpt>
      <trkpt lat="43.41199" lon="6.47814">
        <ele>29.4</ele>
        <time>2023-02-01T15:10:55Z</time>
      </trkpt>
      <trkpt lat="43.41195" lon="6.47811">
        <ele>28.6</ele>
        <time>2023-02-01T15:11:00Z</time>
      </trkpt>
      <trkpt lat="43.41193" lon="6.47806">
        <ele>28.4</ele>
        <time>2023-02-01T15:11:04Z</time>
      </trkpt>
      <trkpt lat="43.41191" lon="6.47801">
        <ele>28.4</ele>
        <time>2023-02-01T15:11:10Z</time>
      </trkpt>
      <trkpt lat="43.41192" lon="6.47796">
        <ele>27.9</ele>
        <time>2023-02-01T15:11:16Z</time>
      </trkpt>
      <trkpt lat="43.41193" lon="6.4779">
        <ele>27.5</ele>
        <time>2023-02-01T15:11:20Z</time>
      </trkpt>
      <trkpt lat="43.41192" lon="6.47785">
        <ele>27.9</ele>
        <time>2023-02-01T15:11:24Z</time>
      </trkpt>
      <trkpt lat="43.4119" lon="6.4778">
        <ele>28</ele>
        <time>2023-02-01T15:11:31Z</time>
      </trkpt>
      <trkpt lat="43.41188" lon="6.47775">
        <ele>28.2</ele>
        <time>2023-02-01T15:11:37Z</time>
      </trkpt>
      <trkpt lat="43.41184" lon="6.47773">
        <ele>28.2</ele>
        <time>2023-02-01T15:11:43Z</time>
      </trkpt>
      <trkpt lat="43.41181" lon="6.47772">
        <ele>28.1</ele>
        <time>2023-02-01T15:11:46Z</time>
      </trkpt>
      <trkpt lat="43.41178" lon="6.47776">
        <ele>28</ele>
        <time>2023-02-01T15:11:51Z</time>
      </trkpt>
      <trkpt lat="43.41174" lon="6.47774">
        <ele>28</ele>
        <time>2023-02-01T15:12:04Z</time>
      </trkpt>
      <trkpt lat="43.41171" lon="6.47772">
        <ele>28</ele>
        <time>2023-02-01T15:12:09Z</time>
      </trkpt>
      <trkpt lat="43.41168" lon="6.47776">
        <ele>28.1</ele>
        <time>2023-02-01T15:12:26Z</time>
      </trkpt>
      <trkpt lat="43.41172" lon="6.47778">
        <ele>27.3</ele>
        <time>2023-02-01T15:12:55Z</time>
      </trkpt>
      <trkpt lat="43.41176" lon="6.47781">
        <ele>27.1</ele>
        <time>2023-02-01T15:13:09Z</time>
      </trkpt>
      <trkpt lat="43.4118" lon="6.47781">
        <ele>27.4</ele>
        <time>2023-02-01T15:13:19Z</time>
      </trkpt>
      <trkpt lat="43.41184" lon="6.47783">
        <ele>27.6</ele>
        <time>2023-02-01T15:13:38Z</time>
      </trkpt>
      <trkpt lat="43.41186" lon="6.47788">
        <ele>27.4</ele>
        <time>2023-02-01T15:14:02Z</time>
      </trkpt>
      <trkpt lat="43.41188" lon="6.47792">
        <ele>27.1</ele>
        <time>2023-02-01T15:14:11Z</time>
      </trkpt>
      <trkpt lat="43.4119" lon="6.47797">
        <ele>27.1</ele>
        <time>2023-02-01T15:14:18Z</time>
      </trkpt>
      <trkpt lat="43.41191" lon="6.47803">
        <ele>27.1</ele>
        <time>2023-02-01T15:14:24Z</time>
      </trkpt>
      <trkpt lat="43.41192" lon="6.47808">
        <ele>27.3</ele>
        <time>2023-02-01T15:14:29Z</time>
      </trkpt>
      <trkpt lat="43.41193" lon="6.47814">
        <ele>27.4</ele>
        <time>2023-02-01T15:14:35Z</time>
      </trkpt>
      <trkpt lat="43.41195" lon="6.47819">
        <ele>27.6</ele>
        <time>2023-02-01T15:14:40Z</time>
      </trkpt>
      <trkpt lat="43.41198" lon="6.47822">
        <ele>28.2</ele>
        <time>2023-02-01T15:14:46Z</time>
      </trkpt>
      <trkpt lat="43.41201" lon="6.47825">
        <ele>28.1</ele>
        <time>2023-02-01T15:14:50Z</time>
      </trkpt>
      <trkpt lat="43.41205" lon="6.47827">
        <ele>28.8</ele>
        <time>2023-02-01T15:14:54Z</time>
      </trkpt>
      <trkpt lat="43.41209" lon="6.47828">
        <ele>29.3</ele>
        <time>2023-02-01T15:14:58Z</time>
      </trkpt>
      <trkpt lat="43.41213" lon="6.47827">
        <ele>29.7</ele>
        <time>2023-02-01T15:15:03Z</time>
      </trkpt>
      <trkpt lat="43.41217" lon="6.47825">
        <ele>30.2</ele>
        <time>2023-02-01T15:15:06Z</time>
      </trkpt>
      <trkpt lat="43.41221" lon="6.47823">
        <ele>30.4</ele>
        <time>2023-02-01T15:15:10Z</time>
      </trkpt>
      <trkpt lat="43.41222" lon="6.47819">
        <ele>30.6</ele>
        <time>2023-02-01T15:15:13Z</time>
      </trkpt>
      <trkpt lat="43.41226" lon="6.47816">
        <ele>30.7</ele>
        <time>2023-02-01T15:15:17Z</time>
      </trkpt>
      <trkpt lat="43.41229" lon="6.47812">
        <ele>30.7</ele>
        <time>2023-02-01T15:15:20Z</time>
      </trkpt>
      <trkpt lat="43.41233" lon="6.47811">
        <ele>30.7</ele>
        <time>2023-02-01T15:15:24Z</time>
      </trkpt>
      <trkpt lat="43.41237" lon="6.47809">
        <ele>30.4</ele>
        <time>2023-02-01T15:15:28Z</time>
      </trkpt>
      <trkpt lat="43.41241" lon="6.47808">
        <ele>30</ele>
        <time>2023-02-01T15:15:33Z</time>
      </trkpt>
      <trkpt lat="43.41243" lon="6.47808">
        <ele>30.3</ele>
        <time>2023-02-01T15:15:36Z</time>
      </trkpt>
      <trkpt lat="43.41248" lon="6.47807">
        <ele>30.6</ele>
        <time>2023-02-01T15:15:39Z</time>
      </trkpt>
      <trkpt lat="43.41252" lon="6.47806">
        <ele>30.6</ele>
        <time>2023-02-01T15:15:43Z</time>
      </trkpt>
      <trkpt lat="43.41255" lon="6.47803">
        <ele>30.9</ele>
        <time>2023-02-01T15:15:47Z</time>
      </trkpt>
      <trkpt lat="43.41259" lon="6.47799">
        <ele>30.9</ele>
        <time>2023-02-01T15:15:51Z</time>
      </trkpt>
      <trkpt lat="43.41261" lon="6.47796">
        <ele>30.8</ele>
        <time>2023-02-01T15:15:54Z</time>
      </trkpt>
      <trkpt lat="43.41263" lon="6.47791">
        <ele>30.9</ele>
        <time>2023-02-01T15:15:57Z</time>
      </trkpt>
      <trkpt lat="43.41265" lon="6.47787">
        <ele>31</ele>
        <time>2023-02-01T15:16:01Z</time>
      </trkpt>
      <trkpt lat="43.41267" lon="6.47782">
        <ele>31.1</ele>
        <time>2023-02-01T15:16:04Z</time>
      </trkpt>
      <trkpt lat="43.41271" lon="6.47777">
        <ele>31.2</ele>
        <time>2023-02-01T15:16:07Z</time>
      </trkpt>
      <trkpt lat="43.41273" lon="6.47773">
        <ele>31.2</ele>
        <time>2023-02-01T15:16:10Z</time>
      </trkpt>
      <trkpt lat="43.41276" lon="6.47769">
        <ele>31.3</ele>
        <time>2023-02-01T15:16:14Z</time>
      </trkpt>
      <trkpt lat="43.41277" lon="6.47764">
        <ele>31.4</ele>
        <time>2023-02-01T15:16:17Z</time>
      </trkpt>
      <trkpt lat="43.41279" lon="6.47759">
        <ele>31.3</ele>
        <time>2023-02-01T15:16:22Z</time>
      </trkpt>
      <trkpt lat="43.41281" lon="6.47753">
        <ele>31</ele>
        <time>2023-02-01T15:16:26Z</time>
      </trkpt>
      <trkpt lat="43.41283" lon="6.47748">
        <ele>31.4</ele>
        <time>2023-02-01T15:16:30Z</time>
      </trkpt>
      <trkpt lat="43.41283" lon="6.47743">
        <ele>31.1</ele>
        <time>2023-02-01T15:16:34Z</time>
      </trkpt>
      <trkpt lat="43.41286" lon="6.47738">
        <ele>31.2</ele>
        <time>2023-02-01T15:16:37Z</time>
      </trkpt>
      <trkpt lat="43.41287" lon="6.47732">
        <ele>31.4</ele>
        <time>2023-02-01T15:16:40Z</time>
      </trkpt>
      <trkpt lat="43.41287" lon="6.47726">
        <ele>31.5</ele>
        <time>2023-02-01T15:16:45Z</time>
      </trkpt>
      <trkpt lat="43.41288" lon="6.4772">
        <ele>31.2</ele>
        <time>2023-02-01T15:16:49Z</time>
      </trkpt>
      <trkpt lat="43.4129" lon="6.47716">
        <ele>31.5</ele>
        <time>2023-02-01T15:16:52Z</time>
      </trkpt>
      <trkpt lat="43.41292" lon="6.4771">
        <ele>31.7</ele>
        <time>2023-02-01T15:16:55Z</time>
      </trkpt>
      <trkpt lat="43.41292" lon="6.47705">
        <ele>31.9</ele>
        <time>2023-02-01T15:16:59Z</time>
      </trkpt>
      <trkpt lat="43.41293" lon="6.477">
        <ele>32.2</ele>
        <time>2023-02-01T15:17:01Z</time>
      </trkpt>
      <trkpt lat="43.41294" lon="6.47696">
        <ele>32.1</ele>
        <time>2023-02-01T15:17:05Z</time>
      </trkpt>
      <trkpt lat="43.41294" lon="6.47691">
        <ele>32.3</ele>
        <time>2023-02-01T15:17:07Z</time>
      </trkpt>
      <trkpt lat="43.41293" lon="6.47685">
        <ele>32.3</ele>
        <time>2023-02-01T15:17:11Z</time>
      </trkpt>
      <trkpt lat="43.41293" lon="6.47679">
        <ele>32.3</ele>
        <time>2023-02-01T15:17:14Z</time>
      </trkpt>
      <trkpt lat="43.41294" lon="6.47674">
        <ele>32.4</ele>
        <time>2023-02-01T15:17:16Z</time>
      </trkpt>
      <trkpt lat="43.41295" lon="6.47668">
        <ele>32.2</ele>
        <time>2023-02-01T15:17:20Z</time>
      </trkpt>
      <trkpt lat="43.41297" lon="6.47664">
        <ele>32.2</ele>
        <time>2023-02-01T15:17:23Z</time>
      </trkpt>
      <trkpt lat="43.41299" lon="6.4766">
        <ele>32.5</ele>
        <time>2023-02-01T15:17:25Z</time>
      </trkpt>
      <trkpt lat="43.413" lon="6.47655">
        <ele>32.5</ele>
        <time>2023-02-01T15:17:30Z</time>
      </trkpt>
      <trkpt lat="43.41301" lon="6.4765">
        <ele>32.5</ele>
        <time>2023-02-01T15:17:33Z</time>
      </trkpt>
      <trkpt lat="43.41302" lon="6.47645">
        <ele>32.5</ele>
        <time>2023-02-01T15:17:35Z</time>
      </trkpt>
      <trkpt lat="43.41304" lon="6.47641">
        <ele>32.6</ele>
        <time>2023-02-01T15:17:39Z</time>
      </trkpt>
      <trkpt lat="43.41305" lon="6.47637">
        <ele>32.6</ele>
        <time>2023-02-01T15:17:42Z</time>
      </trkpt>
      <trkpt lat="43.41307" lon="6.47631">
        <ele>32.9</ele>
        <time>2023-02-01T15:17:45Z</time>
      </trkpt>
      <trkpt lat="43.41307" lon="6.47627">
        <ele>32.6</ele>
        <time>2023-02-01T15:17:49Z</time>
      </trkpt>
      <trkpt lat="43.41308" lon="6.47622">
        <ele>32.9</ele>
        <time>2023-02-01T15:17:52Z</time>
      </trkpt>
      <trkpt lat="43.41308" lon="6.47617">
        <ele>32.7</ele>
        <time>2023-02-01T15:17:56Z</time>
      </trkpt>
      <trkpt lat="43.41309" lon="6.47613">
        <ele>32.8</ele>
        <time>2023-02-01T15:17:58Z</time>
      </trkpt>
      <trkpt lat="43.4131" lon="6.47608">
        <ele>33.1</ele>
        <time>2023-02-01T15:18:02Z</time>
      </trkpt>
      <trkpt lat="43.41312" lon="6.47604">
        <ele>33.5</ele>
        <time>2023-02-01T15:18:05Z</time>
      </trkpt>
      <trkpt lat="43.41312" lon="6.47598">
        <ele>33.5</ele>
        <time>2023-02-01T15:18:08Z</time>
      </trkpt>
      <trkpt lat="43.41312" lon="6.47593">
        <ele>33.7</ele>
        <time>2023-02-01T15:18:12Z</time>
      </trkpt>
      <trkpt lat="43.41314" lon="6.47587">
        <ele>34.2</ele>
        <time>2023-02-01T15:18:15Z</time>
      </trkpt>
      <trkpt lat="43.41315" lon="6.47583">
        <ele>33.9</ele>
        <time>2023-02-01T15:18:19Z</time>
      </trkpt>
      <trkpt lat="43.41317" lon="6.47578">
        <ele>34.4</ele>
        <time>2023-02-01T15:18:23Z</time>
      </trkpt>
      <trkpt lat="43.41318" lon="6.47572">
        <ele>34.6</ele>
        <time>2023-02-01T15:18:27Z</time>
      </trkpt>
      <trkpt lat="43.41319" lon="6.47567">
        <ele>35</ele>
        <time>2023-02-01T15:18:31Z</time>
      </trkpt>
      <trkpt lat="43.41321" lon="6.47562">
        <ele>35.6</ele>
        <time>2023-02-01T15:18:34Z</time>
      </trkpt>
      <trkpt lat="43.41322" lon="6.47556">
        <ele>35.6</ele>
        <time>2023-02-01T15:18:39Z</time>
      </trkpt>
      <trkpt lat="43.41324" lon="6.47553">
        <ele>35.9</ele>
        <time>2023-02-01T15:18:41Z</time>
      </trkpt>
      <trkpt lat="43.41325" lon="6.47548">
        <ele>36.2</ele>
        <time>2023-02-01T15:18:43Z</time>
      </trkpt>
      <trkpt lat="43.41325" lon="6.47543">
        <ele>36.2</ele>
        <time>2023-02-01T15:18:47Z</time>
      </trkpt>
      <trkpt lat="43.41326" lon="6.47538">
        <ele>36</ele>
        <time>2023-02-01T15:18:50Z</time>
      </trkpt>
      <trkpt lat="43.41327" lon="6.47533">
        <ele>35.9</ele>
        <time>2023-02-01T15:18:52Z</time>
      </trkpt>
      <trkpt lat="43.41329" lon="6.47529">
        <ele>35.8</ele>
        <time>2023-02-01T15:18:54Z</time>
      </trkpt>
      <trkpt lat="43.4133" lon="6.47524">
        <ele>35.7</ele>
        <time>2023-02-01T15:18:57Z</time>
      </trkpt>
      <trkpt lat="43.41331" lon="6.47519">
        <ele>35.4</ele>
        <time>2023-02-01T15:19:01Z</time>
      </trkpt>
      <trkpt lat="43.41332" lon="6.47513">
        <ele>35.4</ele>
        <time>2023-02-01T15:19:04Z</time>
      </trkpt>
      <trkpt lat="43.41333" lon="6.47508">
        <ele>35</ele>
        <time>2023-02-01T15:19:09Z</time>
      </trkpt>
      <trkpt lat="43.41331" lon="6.47503">
        <ele>35.2</ele>
        <time>2023-02-01T15:19:17Z</time>
      </trkpt>
      <trkpt lat="43.41327" lon="6.47501">
        <ele>35.4</ele>
        <time>2023-02-01T15:19:35Z</time>
      </trkpt>
      <trkpt lat="43.41328" lon="6.47495">
        <ele>35.6</ele>
        <time>2023-02-01T15:20:01Z</time>
      </trkpt>
      <trkpt lat="43.41331" lon="6.47492">
        <ele>35.6</ele>
        <time>2023-02-01T15:20:05Z</time>
      </trkpt>
      <trkpt lat="43.41335" lon="6.47491">
        <ele>35.6</ele>
        <time>2023-02-01T15:20:09Z</time>
      </trkpt>
      <trkpt lat="43.41339" lon="6.4749">
        <ele>35.5</ele>
        <time>2023-02-01T15:20:13Z</time>
      </trkpt>
      <trkpt lat="43.41342" lon="6.47488">
        <ele>35.5</ele>
        <time>2023-02-01T15:20:16Z</time>
      </trkpt>
      <trkpt lat="43.41346" lon="6.47486">
        <ele>35.4</ele>
        <time>2023-02-01T15:20:21Z</time>
      </trkpt>
      <trkpt lat="43.41349" lon="6.47483">
        <ele>35.4</ele>
        <time>2023-02-01T15:20:26Z</time>
      </trkpt>
      <trkpt lat="43.41353" lon="6.47481">
        <ele>35.4</ele>
        <time>2023-02-01T15:20:30Z</time>
      </trkpt>
      <trkpt lat="43.41357" lon="6.47479">
        <ele>35.5</ele>
        <time>2023-02-01T15:20:34Z</time>
      </trkpt>
      <trkpt lat="43.4136" lon="6.47477">
        <ele>35.3</ele>
        <time>2023-02-01T15:20:38Z</time>
      </trkpt>
      <trkpt lat="43.41363" lon="6.47476">
        <ele>35.4</ele>
        <time>2023-02-01T15:20:40Z</time>
      </trkpt>
      <trkpt lat="43.41367" lon="6.47476">
        <ele>35.4</ele>
        <time>2023-02-01T15:20:43Z</time>
      </trkpt>
      <trkpt lat="43.41371" lon="6.47475">
        <ele>35.5</ele>
        <time>2023-02-01T15:20:47Z</time>
      </trkpt>
      <trkpt lat="43.41375" lon="6.47475">
        <ele>35.4</ele>
        <time>2023-02-01T15:20:50Z</time>
      </trkpt>
      <trkpt lat="43.41379" lon="6.47474">
        <ele>35.7</ele>
        <time>2023-02-01T15:20:54Z</time>
      </trkpt>
      <trkpt lat="43.41383" lon="6.47475">
        <ele>35.9</ele>
        <time>2023-02-01T15:20:56Z</time>
      </trkpt>
      <trkpt lat="43.41386" lon="6.47475">
        <ele>35.9</ele>
        <time>2023-02-01T15:21:00Z</time>
      </trkpt>
      <trkpt lat="43.4139" lon="6.47474">
        <ele>35.9</ele>
        <time>2023-02-01T15:21:03Z</time>
      </trkpt>
      <trkpt lat="43.41393" lon="6.47473">
        <ele>35.8</ele>
        <time>2023-02-01T15:21:06Z</time>
      </trkpt>
      <trkpt lat="43.41398" lon="6.47471">
        <ele>35.6</ele>
        <time>2023-02-01T15:21:10Z</time>
      </trkpt>
      <trkpt lat="43.41401" lon="6.47469">
        <ele>35.2</ele>
        <time>2023-02-01T15:21:13Z</time>
      </trkpt>
      <trkpt lat="43.41405" lon="6.47469">
        <ele>35.1</ele>
        <time>2023-02-01T15:21:17Z</time>
      </trkpt>
      <trkpt lat="43.41408" lon="6.47469">
        <ele>34.9</ele>
        <time>2023-02-01T15:21:20Z</time>
      </trkpt>
      <trkpt lat="43.41412" lon="6.47468">
        <ele>35</ele>
        <time>2023-02-01T15:21:22Z</time>
      </trkpt>
      <trkpt lat="43.41416" lon="6.47467">
        <ele>34.8</ele>
        <time>2023-02-01T15:21:27Z</time>
      </trkpt>
      <trkpt lat="43.4142" lon="6.47465">
        <ele>34.7</ele>
        <time>2023-02-01T15:21:31Z</time>
      </trkpt>
      <trkpt lat="43.41424" lon="6.47463">
        <ele>34.6</ele>
        <time>2023-02-01T15:21:34Z</time>
      </trkpt>
      <trkpt lat="43.41427" lon="6.47462">
        <ele>34.5</ele>
        <time>2023-02-01T15:21:39Z</time>
      </trkpt>
      <trkpt lat="43.41431" lon="6.4746">
        <ele>34.7</ele>
        <time>2023-02-01T15:21:42Z</time>
      </trkpt>
      <trkpt lat="43.41435" lon="6.47458">
        <ele>34.5</ele>
        <time>2023-02-01T15:21:46Z</time>
      </trkpt>
      <trkpt lat="43.41439" lon="6.47455">
        <ele>34.6</ele>
        <time>2023-02-01T15:21:49Z</time>
      </trkpt>
      <trkpt lat="43.41443" lon="6.47453">
        <ele>34.8</ele>
        <time>2023-02-01T15:21:51Z</time>
      </trkpt>
      <trkpt lat="43.41447" lon="6.47451">
        <ele>34.8</ele>
        <time>2023-02-01T15:21:56Z</time>
      </trkpt>
      <trkpt lat="43.4145" lon="6.47448">
        <ele>34.9</ele>
        <time>2023-02-01T15:21:59Z</time>
      </trkpt>
      <trkpt lat="43.41452" lon="6.47446">
        <ele>34.7</ele>
        <time>2023-02-01T15:22:01Z</time>
      </trkpt>
      <trkpt lat="43.41455" lon="6.47443">
        <ele>34.5</ele>
        <time>2023-02-01T15:22:03Z</time>
      </trkpt>
      <trkpt lat="43.41459" lon="6.4744">
        <ele>34.5</ele>
        <time>2023-02-01T15:22:07Z</time>
      </trkpt>
      <trkpt lat="43.41462" lon="6.47439">
        <ele>34.2</ele>
        <time>2023-02-01T15:22:10Z</time>
      </trkpt>
      <trkpt lat="43.41464" lon="6.47436">
        <ele>34.4</ele>
        <time>2023-02-01T15:22:13Z</time>
      </trkpt>
      <trkpt lat="43.41467" lon="6.47432">
        <ele>33.8</ele>
        <time>2023-02-01T15:22:17Z</time>
      </trkpt>
      <trkpt lat="43.4147" lon="6.47429">
        <ele>34</ele>
        <time>2023-02-01T15:22:20Z</time>
      </trkpt>
      <trkpt lat="43.41473" lon="6.47425">
        <ele>34.3</ele>
        <time>2023-02-01T15:22:23Z</time>
      </trkpt>
      <trkpt lat="43.41477" lon="6.47422">
        <ele>34.7</ele>
        <time>2023-02-01T15:22:29Z</time>
      </trkpt>
      <trkpt lat="43.4148" lon="6.47421">
        <ele>34.8</ele>
        <time>2023-02-01T15:22:35Z</time>
      </trkpt>
      <trkpt lat="43.41484" lon="6.47419">
        <ele>34.7</ele>
        <time>2023-02-01T15:22:38Z</time>
      </trkpt>
      <trkpt lat="43.41487" lon="6.47417">
        <ele>34.5</ele>
        <time>2023-02-01T15:22:42Z</time>
      </trkpt>
      <trkpt lat="43.41491" lon="6.47414">
        <ele>34.7</ele>
        <time>2023-02-01T15:22:45Z</time>
      </trkpt>
      <trkpt lat="43.41494" lon="6.47412">
        <ele>34.6</ele>
        <time>2023-02-01T15:22:49Z</time>
      </trkpt>
      <trkpt lat="43.41498" lon="6.47411">
        <ele>34.5</ele>
        <time>2023-02-01T15:22:52Z</time>
      </trkpt>
      <trkpt lat="43.41502" lon="6.47409">
        <ele>34.7</ele>
        <time>2023-02-01T15:22:55Z</time>
      </trkpt>
      <trkpt lat="43.41506" lon="6.47409">
        <ele>34.8</ele>
        <time>2023-02-01T15:22:59Z</time>
      </trkpt>
      <trkpt lat="43.4151" lon="6.47408">
        <ele>34.8</ele>
        <time>2023-02-01T15:23:02Z</time>
      </trkpt>
      <trkpt lat="43.41514" lon="6.47407">
        <ele>35</ele>
        <time>2023-02-01T15:23:06Z</time>
      </trkpt>
      <trkpt lat="43.41518" lon="6.47405">
        <ele>35</ele>
        <time>2023-02-01T15:23:10Z</time>
      </trkpt>
      <trkpt lat="43.41522" lon="6.47404">
        <ele>35.2</ele>
        <time>2023-02-01T15:23:13Z</time>
      </trkpt>
      <trkpt lat="43.41526" lon="6.47402">
        <ele>35.2</ele>
        <time>2023-02-01T15:23:17Z</time>
      </trkpt>
      <trkpt lat="43.41529" lon="6.474">
        <ele>35.2</ele>
        <time>2023-02-01T15:23:20Z</time>
      </trkpt>
      <trkpt lat="43.41532" lon="6.47399">
        <ele>35.6</ele>
        <time>2023-02-01T15:23:22Z</time>
      </trkpt>
      <trkpt lat="43.41536" lon="6.47397">
        <ele>35.5</ele>
        <time>2023-02-01T15:23:27Z</time>
      </trkpt>
      <trkpt lat="43.41539" lon="6.47395">
        <ele>35.6</ele>
        <time>2023-02-01T15:23:29Z</time>
      </trkpt>
      <trkpt lat="43.41543" lon="6.47394">
        <ele>35.8</ele>
        <time>2023-02-01T15:23:33Z</time>
      </trkpt>
      <trkpt lat="43.41547" lon="6.47393">
        <ele>35.8</ele>
        <time>2023-02-01T15:23:36Z</time>
      </trkpt>
      <trkpt lat="43.41551" lon="6.47391">
        <ele>35.5</ele>
        <time>2023-02-01T15:23:40Z</time>
      </trkpt>
      <trkpt lat="43.41554" lon="6.47389">
        <ele>35.8</ele>
        <time>2023-02-01T15:23:43Z</time>
      </trkpt>
      <trkpt lat="43.41558" lon="6.47387">
        <ele>36</ele>
        <time>2023-02-01T15:23:46Z</time>
      </trkpt>
      <trkpt lat="43.41561" lon="6.47385">
        <ele>36.1</ele>
        <time>2023-02-01T15:23:49Z</time>
      </trkpt>
      <trkpt lat="43.41563" lon="6.47381">
        <ele>36.3</ele>
        <time>2023-02-01T15:23:51Z</time>
      </trkpt>
      <trkpt lat="43.41565" lon="6.47377">
        <ele>35.9</ele>
        <time>2023-02-01T15:23:55Z</time>
      </trkpt>
      <trkpt lat="43.41566" lon="6.47373">
        <ele>35.9</ele>
        <time>2023-02-01T15:23:57Z</time>
      </trkpt>
      <trkpt lat="43.41566" lon="6.47367">
        <ele>35.9</ele>
        <time>2023-02-01T15:24:02Z</time>
      </trkpt>
      <trkpt lat="43.41568" lon="6.47361">
        <ele>35.8</ele>
        <time>2023-02-01T15:24:05Z</time>
      </trkpt>
      <trkpt lat="43.4157" lon="6.47356">
        <ele>35.6</ele>
        <time>2023-02-01T15:24:11Z</time>
      </trkpt>
      <trkpt lat="43.41572" lon="6.47351">
        <ele>35.4</ele>
        <time>2023-02-01T15:24:17Z</time>
      </trkpt>
      <trkpt lat="43.41574" lon="6.47345">
        <ele>35.3</ele>
        <time>2023-02-01T15:24:23Z</time>
      </trkpt>
      <trkpt lat="43.41576" lon="6.47343">
        <ele>35.2</ele>
        <time>2023-02-01T15:24:28Z</time>
      </trkpt>
      <trkpt lat="43.41578" lon="6.47339">
        <ele>35.2</ele>
        <time>2023-02-01T15:24:31Z</time>
      </trkpt>
      <trkpt lat="43.41582" lon="6.47336">
        <ele>35</ele>
        <time>2023-02-01T15:24:39Z</time>
      </trkpt>
      <trkpt lat="43.41583" lon="6.47331">
        <ele>37</ele>
        <time>2023-02-01T15:24:48Z</time>
      </trkpt>
      <trkpt lat="43.41586" lon="6.47326">
        <ele>39.7</ele>
        <time>2023-02-01T15:24:54Z</time>
      </trkpt>
      <trkpt lat="43.41588" lon="6.47322">
        <ele>39</ele>
        <time>2023-02-01T15:25:00Z</time>
      </trkpt>
      <trkpt lat="43.41592" lon="6.4732">
        <ele>37.9</ele>
        <time>2023-02-01T15:25:05Z</time>
      </trkpt>
      <trkpt lat="43.41596" lon="6.47321">
        <ele>37.7</ele>
        <time>2023-02-01T15:25:10Z</time>
      </trkpt>
      <trkpt lat="43.416" lon="6.47319">
        <ele>38.8</ele>
        <time>2023-02-01T15:25:17Z</time>
      </trkpt>
      <trkpt lat="43.41602" lon="6.47313">
        <ele>39.6</ele>
        <time>2023-02-01T15:25:26Z</time>
      </trkpt>
      <trkpt lat="43.41603" lon="6.47307">
        <ele>40.5</ele>
        <time>2023-02-01T15:25:32Z</time>
      </trkpt>
      <trkpt lat="43.41605" lon="6.47302">
        <ele>41.4</ele>
        <time>2023-02-01T15:25:40Z</time>
      </trkpt>
      <trkpt lat="43.41608" lon="6.47298">
        <ele>42.8</ele>
        <time>2023-02-01T15:25:45Z</time>
      </trkpt>
      <trkpt lat="43.4161" lon="6.47294">
        <ele>43.1</ele>
        <time>2023-02-01T15:25:49Z</time>
      </trkpt>
      <trkpt lat="43.41613" lon="6.47289">
        <ele>43.4</ele>
        <time>2023-02-01T15:25:54Z</time>
      </trkpt>
      <trkpt lat="43.41614" lon="6.47283">
        <ele>43.7</ele>
        <time>2023-02-01T15:26:00Z</time>
      </trkpt>
      <trkpt lat="43.41613" lon="6.47277">
        <ele>43.5</ele>
        <time>2023-02-01T15:26:05Z</time>
      </trkpt>
      <trkpt lat="43.41612" lon="6.47272">
        <ele>43.9</ele>
        <time>2023-02-01T15:26:11Z</time>
      </trkpt>
      <trkpt lat="43.41612" lon="6.47266">
        <ele>45.4</ele>
        <time>2023-02-01T15:26:16Z</time>
      </trkpt>
      <trkpt lat="43.4161" lon="6.47261">
        <ele>45.5</ele>
        <time>2023-02-01T15:26:20Z</time>
      </trkpt>
      <trkpt lat="43.41609" lon="6.47255">
        <ele>45.9</ele>
        <time>2023-02-01T15:26:24Z</time>
      </trkpt>
      <trkpt lat="43.41607" lon="6.47251">
        <ele>46.2</ele>
        <time>2023-02-01T15:26:27Z</time>
      </trkpt>
      <trkpt lat="43.41604" lon="6.47249">
        <ele>46.4</ele>
        <time>2023-02-01T15:26:30Z</time>
      </trkpt>
      <trkpt lat="43.416" lon="6.47245">
        <ele>46.3</ele>
        <time>2023-02-01T15:26:33Z</time>
      </trkpt>
      <trkpt lat="43.41597" lon="6.47242">
        <ele>46.3</ele>
        <time>2023-02-01T15:26:37Z</time>
      </trkpt>
      <trkpt lat="43.41594" lon="6.47238">
        <ele>46.1</ele>
        <time>2023-02-01T15:26:41Z</time>
      </trkpt>
      <trkpt lat="43.41592" lon="6.47233">
        <ele>46.2</ele>
        <time>2023-02-01T15:26:44Z</time>
      </trkpt>
      <trkpt lat="43.4159" lon="6.47229">
        <ele>46.7</ele>
        <time>2023-02-01T15:26:47Z</time>
      </trkpt>
      <trkpt lat="43.41586" lon="6.47226">
        <ele>47.2</ele>
        <time>2023-02-01T15:26:50Z</time>
      </trkpt>
      <trkpt lat="43.41583" lon="6.47222">
        <ele>47.7</ele>
        <time>2023-02-01T15:26:55Z</time>
      </trkpt>
      <trkpt lat="43.41579" lon="6.47219">
        <ele>47.6</ele>
        <time>2023-02-01T15:27:01Z</time>
      </trkpt>
      <trkpt lat="43.41576" lon="6.47216">
        <ele>48</ele>
        <time>2023-02-01T15:27:05Z</time>
      </trkpt>
      <trkpt lat="43.41573" lon="6.47214">
        <ele>48.4</ele>
        <time>2023-02-01T15:27:09Z</time>
      </trkpt>
      <trkpt lat="43.41569" lon="6.47211">
        <ele>48.2</ele>
        <time>2023-02-01T15:27:13Z</time>
      </trkpt>
      <trkpt lat="43.41566" lon="6.47209">
        <ele>48.6</ele>
        <time>2023-02-01T15:27:16Z</time>
      </trkpt>
      <trkpt lat="43.41562" lon="6.47208">
        <ele>49.5</ele>
        <time>2023-02-01T15:27:20Z</time>
      </trkpt>
      <trkpt lat="43.41558" lon="6.47206">
        <ele>49.8</ele>
        <time>2023-02-01T15:27:24Z</time>
      </trkpt>
      <trkpt lat="43.41555" lon="6.47205">
        <ele>49.9</ele>
        <time>2023-02-01T15:27:27Z</time>
      </trkpt>
      <trkpt lat="43.41551" lon="6.47205">
        <ele>50.1</ele>
        <time>2023-02-01T15:27:30Z</time>
      </trkpt>
      <trkpt lat="43.41547" lon="6.47205">
        <ele>50.4</ele>
        <time>2023-02-01T15:27:33Z</time>
      </trkpt>
      <trkpt lat="43.41544" lon="6.47203">
        <ele>50.4</ele>
        <time>2023-02-01T15:27:36Z</time>
      </trkpt>
      <trkpt lat="43.4154" lon="6.47202">
        <ele>50.7</ele>
        <time>2023-02-01T15:27:39Z</time>
      </trkpt>
      <trkpt lat="43.41537" lon="6.47199">
        <ele>50.5</ele>
        <time>2023-02-01T15:27:43Z</time>
      </trkpt>
      <trkpt lat="43.41534" lon="6.47195">
        <ele>51.1</ele>
        <time>2023-02-01T15:27:47Z</time>
      </trkpt>
      <trkpt lat="43.41532" lon="6.47191">
        <ele>50.9</ele>
        <time>2023-02-01T15:27:51Z</time>
      </trkpt>
      <trkpt lat="43.4153" lon="6.47185">
        <ele>50.5</ele>
        <time>2023-02-01T15:27:55Z</time>
      </trkpt>
      <trkpt lat="43.41527" lon="6.47182">
        <ele>50.1</ele>
        <time>2023-02-01T15:27:59Z</time>
      </trkpt>
      <trkpt lat="43.41525" lon="6.47177">
        <ele>49.6</ele>
        <time>2023-02-01T15:28:05Z</time>
      </trkpt>
      <trkpt lat="43.41523" lon="6.47171">
        <ele>51.2</ele>
        <time>2023-02-01T15:28:10Z</time>
      </trkpt>
      <trkpt lat="43.41526" lon="6.47166">
        <ele>51.5</ele>
        <time>2023-02-01T15:28:15Z</time>
      </trkpt>
      <trkpt lat="43.41528" lon="6.47162">
        <ele>52.2</ele>
        <time>2023-02-01T15:28:20Z</time>
      </trkpt>
      <trkpt lat="43.41529" lon="6.47157">
        <ele>52.4</ele>
        <time>2023-02-01T15:28:23Z</time>
      </trkpt>
      <trkpt lat="43.41531" lon="6.47153">
        <ele>52.3</ele>
        <time>2023-02-01T15:28:28Z</time>
      </trkpt>
      <trkpt lat="43.41533" lon="6.47149">
        <ele>52.5</ele>
        <time>2023-02-01T15:28:31Z</time>
      </trkpt>
      <trkpt lat="43.41536" lon="6.47147">
        <ele>52.4</ele>
        <time>2023-02-01T15:28:35Z</time>
      </trkpt>
      <trkpt lat="43.41539" lon="6.47143">
        <ele>52.1</ele>
        <time>2023-02-01T15:28:38Z</time>
      </trkpt>
      <trkpt lat="43.41542" lon="6.47139">
        <ele>51.1</ele>
        <time>2023-02-01T15:28:42Z</time>
      </trkpt>
      <trkpt lat="43.41544" lon="6.47134">
        <ele>52.4</ele>
        <time>2023-02-01T15:28:46Z</time>
      </trkpt>
      <trkpt lat="43.41543" lon="6.47129">
        <ele>52.8</ele>
        <time>2023-02-01T15:28:49Z</time>
      </trkpt>
      <trkpt lat="43.41542" lon="6.47124">
        <ele>53.1</ele>
        <time>2023-02-01T15:28:52Z</time>
      </trkpt>
      <trkpt lat="43.41543" lon="6.4712">
        <ele>52.9</ele>
        <time>2023-02-01T15:28:57Z</time>
      </trkpt>
      <trkpt lat="43.41545" lon="6.47114">
        <ele>53.3</ele>
        <time>2023-02-01T15:29:00Z</time>
      </trkpt>
      <trkpt lat="43.41547" lon="6.4711">
        <ele>53.2</ele>
        <time>2023-02-01T15:29:05Z</time>
      </trkpt>
      <trkpt lat="43.4155" lon="6.47106">
        <ele>53.5</ele>
        <time>2023-02-01T15:29:07Z</time>
      </trkpt>
      <trkpt lat="43.41552" lon="6.47101">
        <ele>53.9</ele>
        <time>2023-02-01T15:29:12Z</time>
      </trkpt>
      <trkpt lat="43.41554" lon="6.47097">
        <ele>53.8</ele>
        <time>2023-02-01T15:29:14Z</time>
      </trkpt>
      <trkpt lat="43.41555" lon="6.47092">
        <ele>53.8</ele>
        <time>2023-02-01T15:29:17Z</time>
      </trkpt>
      <trkpt lat="43.41556" lon="6.47087">
        <ele>53.8</ele>
        <time>2023-02-01T15:29:21Z</time>
      </trkpt>
      <trkpt lat="43.41556" lon="6.47081">
        <ele>53.6</ele>
        <time>2023-02-01T15:29:25Z</time>
      </trkpt>
      <trkpt lat="43.41559" lon="6.47077">
        <ele>54.1</ele>
        <time>2023-02-01T15:29:29Z</time>
      </trkpt>
      <trkpt lat="43.41561" lon="6.47072">
        <ele>54.4</ele>
        <time>2023-02-01T15:29:34Z</time>
      </trkpt>
      <trkpt lat="43.41563" lon="6.47069">
        <ele>54.4</ele>
        <time>2023-02-01T15:29:36Z</time>
      </trkpt>
      <trkpt lat="43.41565" lon="6.47064">
        <ele>53.9</ele>
        <time>2023-02-01T15:29:41Z</time>
      </trkpt>
      <trkpt lat="43.41565" lon="6.47058">
        <ele>54.2</ele>
        <time>2023-02-01T15:29:44Z</time>
      </trkpt>
      <trkpt lat="43.41567" lon="6.47053">
        <ele>54.9</ele>
        <time>2023-02-01T15:29:49Z</time>
      </trkpt>
      <trkpt lat="43.4157" lon="6.4705">
        <ele>55.2</ele>
        <time>2023-02-01T15:29:52Z</time>
      </trkpt>
      <trkpt lat="43.41572" lon="6.47045">
        <ele>54.7</ele>
        <time>2023-02-01T15:29:56Z</time>
      </trkpt>
      <trkpt lat="43.41574" lon="6.47041">
        <ele>55.2</ele>
        <time>2023-02-01T15:29:59Z</time>
      </trkpt>
      <trkpt lat="43.41576" lon="6.47038">
        <ele>55.1</ele>
        <time>2023-02-01T15:30:01Z</time>
      </trkpt>
      <trkpt lat="43.41579" lon="6.47034">
        <ele>55.6</ele>
        <time>2023-02-01T15:30:05Z</time>
      </trkpt>
      <trkpt lat="43.41581" lon="6.47028">
        <ele>55.5</ele>
        <time>2023-02-01T15:30:09Z</time>
      </trkpt>
      <trkpt lat="43.41583" lon="6.47024">
        <ele>55.4</ele>
        <time>2023-02-01T15:30:13Z</time>
      </trkpt>
      <trkpt lat="43.41584" lon="6.47019">
        <ele>55.7</ele>
        <time>2023-02-01T15:30:16Z</time>
      </trkpt>
      <trkpt lat="43.41586" lon="6.47013">
        <ele>56</ele>
        <time>2023-02-01T15:30:20Z</time>
      </trkpt>
      <trkpt lat="43.41587" lon="6.47009">
        <ele>56.1</ele>
        <time>2023-02-01T15:30:23Z</time>
      </trkpt>
      <trkpt lat="43.41587" lon="6.47004">
        <ele>56.2</ele>
        <time>2023-02-01T15:30:25Z</time>
      </trkpt>
      <trkpt lat="43.41589" lon="6.46999">
        <ele>56.3</ele>
        <time>2023-02-01T15:30:29Z</time>
      </trkpt>
      <trkpt lat="43.41589" lon="6.46993">
        <ele>56.5</ele>
        <time>2023-02-01T15:30:32Z</time>
      </trkpt>
      <trkpt lat="43.41589" lon="6.46988">
        <ele>56.8</ele>
        <time>2023-02-01T15:30:35Z</time>
      </trkpt>
      <trkpt lat="43.4159" lon="6.46984">
        <ele>56.9</ele>
        <time>2023-02-01T15:30:38Z</time>
      </trkpt>
      <trkpt lat="43.4159" lon="6.46978">
        <ele>57.1</ele>
        <time>2023-02-01T15:30:40Z</time>
      </trkpt>
      <trkpt lat="43.4159" lon="6.46973">
        <ele>57</ele>
        <time>2023-02-01T15:30:44Z</time>
      </trkpt>
      <trkpt lat="43.41589" lon="6.46968">
        <ele>57.3</ele>
        <time>2023-02-01T15:30:46Z</time>
      </trkpt>
      <trkpt lat="43.4159" lon="6.46963">
        <ele>57.4</ele>
        <time>2023-02-01T15:30:50Z</time>
      </trkpt>
      <trkpt lat="43.41587" lon="6.46959">
        <ele>57.5</ele>
        <time>2023-02-01T15:30:53Z</time>
      </trkpt>
      <trkpt lat="43.41586" lon="6.46955">
        <ele>57.5</ele>
        <time>2023-02-01T15:30:57Z</time>
      </trkpt>
      <trkpt lat="43.41585" lon="6.46949">
        <ele>57.4</ele>
        <time>2023-02-01T15:31:06Z</time>
      </trkpt>
      <trkpt lat="43.41582" lon="6.46944">
        <ele>57.6</ele>
        <time>2023-02-01T15:31:16Z</time>
      </trkpt>
      <trkpt lat="43.41583" lon="6.46939">
        <ele>57.6</ele>
        <time>2023-02-01T15:31:41Z</time>
      </trkpt>
      <trkpt lat="43.41585" lon="6.46934">
        <ele>57.8</ele>
        <time>2023-02-01T15:32:01Z</time>
      </trkpt>
      <trkpt lat="43.41587" lon="6.46929">
        <ele>58</ele>
        <time>2023-02-01T15:32:05Z</time>
      </trkpt>
      <trkpt lat="43.41588" lon="6.46924">
        <ele>58.1</ele>
        <time>2023-02-01T15:32:08Z</time>
      </trkpt>
      <trkpt lat="43.41591" lon="6.4692">
        <ele>58.1</ele>
        <time>2023-02-01T15:32:12Z</time>
      </trkpt>
      <trkpt lat="43.41592" lon="6.46916">
        <ele>58</ele>
        <time>2023-02-01T15:32:15Z</time>
      </trkpt>
      <trkpt lat="43.41594" lon="6.46911">
        <ele>58</ele>
        <time>2023-02-01T15:32:19Z</time>
      </trkpt>
      <trkpt lat="43.41596" lon="6.46908">
        <ele>58.4</ele>
        <time>2023-02-01T15:32:22Z</time>
      </trkpt>
      <trkpt lat="43.41597" lon="6.46902">
        <ele>59.4</ele>
        <time>2023-02-01T15:32:25Z</time>
      </trkpt>
      <trkpt lat="43.41599" lon="6.46898">
        <ele>59.2</ele>
        <time>2023-02-01T15:32:29Z</time>
      </trkpt>
      <trkpt lat="43.41601" lon="6.46893">
        <ele>59.8</ele>
        <time>2023-02-01T15:32:32Z</time>
      </trkpt>
      <trkpt lat="43.41604" lon="6.46888">
        <ele>60.2</ele>
        <time>2023-02-01T15:32:37Z</time>
      </trkpt>
      <trkpt lat="43.41605" lon="6.46885">
        <ele>60.4</ele>
        <time>2023-02-01T15:32:39Z</time>
      </trkpt>
      <trkpt lat="43.41608" lon="6.46881">
        <ele>60.1</ele>
        <time>2023-02-01T15:32:43Z</time>
      </trkpt>
      <trkpt lat="43.4161" lon="6.46877">
        <ele>60.5</ele>
        <time>2023-02-01T15:32:46Z</time>
      </trkpt>
      <trkpt lat="43.41613" lon="6.46874">
        <ele>60.5</ele>
        <time>2023-02-01T15:32:48Z</time>
      </trkpt>
      <trkpt lat="43.41615" lon="6.46869">
        <ele>60.1</ele>
        <time>2023-02-01T15:32:52Z</time>
      </trkpt>
      <trkpt lat="43.41615" lon="6.46864">
        <ele>60.6</ele>
        <time>2023-02-01T15:32:56Z</time>
      </trkpt>
      <trkpt lat="43.41618" lon="6.46859">
        <ele>60.8</ele>
        <time>2023-02-01T15:32:59Z</time>
      </trkpt>
      <trkpt lat="43.41618" lon="6.46855">
        <ele>60.9</ele>
        <time>2023-02-01T15:33:01Z</time>
      </trkpt>
      <trkpt lat="43.41621" lon="6.4685">
        <ele>60.6</ele>
        <time>2023-02-01T15:33:05Z</time>
      </trkpt>
      <trkpt lat="43.41623" lon="6.46847">
        <ele>60.8</ele>
        <time>2023-02-01T15:33:08Z</time>
      </trkpt>
      <trkpt lat="43.41626" lon="6.46843">
        <ele>60.9</ele>
        <time>2023-02-01T15:33:10Z</time>
      </trkpt>
      <trkpt lat="43.41628" lon="6.46839">
        <ele>61.1</ele>
        <time>2023-02-01T15:33:12Z</time>
      </trkpt>
      <trkpt lat="43.41631" lon="6.46834">
        <ele>60.9</ele>
        <time>2023-02-01T15:33:16Z</time>
      </trkpt>
      <trkpt lat="43.41633" lon="6.46829">
        <ele>60.6</ele>
        <time>2023-02-01T15:33:20Z</time>
      </trkpt>
      <trkpt lat="43.41635" lon="6.46825">
        <ele>60.6</ele>
        <time>2023-02-01T15:33:23Z</time>
      </trkpt>
      <trkpt lat="43.41637" lon="6.46821">
        <ele>60.8</ele>
        <time>2023-02-01T15:33:25Z</time>
      </trkpt>
      <trkpt lat="43.4164" lon="6.46816">
        <ele>60.8</ele>
        <time>2023-02-01T15:33:28Z</time>
      </trkpt>
      <trkpt lat="43.41642" lon="6.46812">
        <ele>60.7</ele>
        <time>2023-02-01T15:33:32Z</time>
      </trkpt>
      <trkpt lat="43.41644" lon="6.46807">
        <ele>60.3</ele>
        <time>2023-02-01T15:33:35Z</time>
      </trkpt>
      <trkpt lat="43.41646" lon="6.46802">
        <ele>60.2</ele>
        <time>2023-02-01T15:33:37Z</time>
      </trkpt>
      <trkpt lat="43.41648" lon="6.46797">
        <ele>60</ele>
        <time>2023-02-01T15:33:40Z</time>
      </trkpt>
      <trkpt lat="43.4165" lon="6.46793">
        <ele>60</ele>
        <time>2023-02-01T15:33:45Z</time>
      </trkpt>
      <trkpt lat="43.41653" lon="6.46788">
        <ele>60.1</ele>
        <time>2023-02-01T15:33:48Z</time>
      </trkpt>
      <trkpt lat="43.41654" lon="6.46784">
        <ele>59.9</ele>
        <time>2023-02-01T15:33:50Z</time>
      </trkpt>
      <trkpt lat="43.41655" lon="6.4678">
        <ele>60</ele>
        <time>2023-02-01T15:33:52Z</time>
      </trkpt>
      <trkpt lat="43.41656" lon="6.46775">
        <ele>59.9</ele>
        <time>2023-02-01T15:33:56Z</time>
      </trkpt>
      <trkpt lat="43.41658" lon="6.46771">
        <ele>59.6</ele>
        <time>2023-02-01T15:33:59Z</time>
      </trkpt>
      <trkpt lat="43.41659" lon="6.46767">
        <ele>59.5</ele>
        <time>2023-02-01T15:34:01Z</time>
      </trkpt>
      <trkpt lat="43.41662" lon="6.46764">
        <ele>59.6</ele>
        <time>2023-02-01T15:34:03Z</time>
      </trkpt>
      <trkpt lat="43.41664" lon="6.46758">
        <ele>59.4</ele>
        <time>2023-02-01T15:34:07Z</time>
      </trkpt>
      <trkpt lat="43.41667" lon="6.46755">
        <ele>59.2</ele>
        <time>2023-02-01T15:34:10Z</time>
      </trkpt>
      <trkpt lat="43.41668" lon="6.46751">
        <ele>59.1</ele>
        <time>2023-02-01T15:34:12Z</time>
      </trkpt>
      <trkpt lat="43.41668" lon="6.46747">
        <ele>59.1</ele>
        <time>2023-02-01T15:34:14Z</time>
      </trkpt>
      <trkpt lat="43.41671" lon="6.46741">
        <ele>58.7</ele>
        <time>2023-02-01T15:34:18Z</time>
      </trkpt>
      <trkpt lat="43.41671" lon="6.46736">
        <ele>58.6</ele>
        <time>2023-02-01T15:34:23Z</time>
      </trkpt>
      <trkpt lat="43.41673" lon="6.46732">
        <ele>58.5</ele>
        <time>2023-02-01T15:34:25Z</time>
      </trkpt>
      <trkpt lat="43.41673" lon="6.46727">
        <ele>58.5</ele>
        <time>2023-02-01T15:34:27Z</time>
      </trkpt>
      <trkpt lat="43.41675" lon="6.46722">
        <ele>58.3</ele>
        <time>2023-02-01T15:34:31Z</time>
      </trkpt>
      <trkpt lat="43.41676" lon="6.46718">
        <ele>58.2</ele>
        <time>2023-02-01T15:34:33Z</time>
      </trkpt>
      <trkpt lat="43.41678" lon="6.46715">
        <ele>57.8</ele>
        <time>2023-02-01T15:34:35Z</time>
      </trkpt>
      <trkpt lat="43.4168" lon="6.46711">
        <ele>57.9</ele>
        <time>2023-02-01T15:34:37Z</time>
      </trkpt>
      <trkpt lat="43.41682" lon="6.46707">
        <ele>57.7</ele>
        <time>2023-02-01T15:34:41Z</time>
      </trkpt>
      <trkpt lat="43.41686" lon="6.46705">
        <ele>58</ele>
        <time>2023-02-01T15:34:48Z</time>
      </trkpt>
      <trkpt lat="43.41689" lon="6.467">
        <ele>57.7</ele>
        <time>2023-02-01T15:35:05Z</time>
      </trkpt>
      <trkpt lat="43.41692" lon="6.46697">
        <ele>58</ele>
        <time>2023-02-01T15:35:09Z</time>
      </trkpt>
      <trkpt lat="43.41695" lon="6.46693">
        <ele>57.9</ele>
        <time>2023-02-01T15:35:13Z</time>
      </trkpt>
      <trkpt lat="43.41698" lon="6.4669">
        <ele>57.5</ele>
        <time>2023-02-01T15:35:17Z</time>
      </trkpt>
      <trkpt lat="43.41701" lon="6.46686">
        <ele>57.7</ele>
        <time>2023-02-01T15:35:20Z</time>
      </trkpt>
      <trkpt lat="43.41703" lon="6.46682">
        <ele>57.8</ele>
        <time>2023-02-01T15:35:24Z</time>
      </trkpt>
      <trkpt lat="43.41705" lon="6.46676">
        <ele>58.2</ele>
        <time>2023-02-01T15:35:27Z</time>
      </trkpt>
      <trkpt lat="43.41706" lon="6.46671">
        <ele>58.2</ele>
        <time>2023-02-01T15:35:30Z</time>
      </trkpt>
      <trkpt lat="43.41709" lon="6.46666">
        <ele>58.7</ele>
        <time>2023-02-01T15:35:35Z</time>
      </trkpt>
      <trkpt lat="43.41711" lon="6.46662">
        <ele>58.8</ele>
        <time>2023-02-01T15:35:37Z</time>
      </trkpt>
      <trkpt lat="43.41713" lon="6.46657">
        <ele>59.4</ele>
        <time>2023-02-01T15:35:39Z</time>
      </trkpt>
      <trkpt lat="43.41715" lon="6.46652">
        <ele>60</ele>
        <time>2023-02-01T15:35:44Z</time>
      </trkpt>
      <trkpt lat="43.41716" lon="6.46647">
        <ele>60.4</ele>
        <time>2023-02-01T15:35:46Z</time>
      </trkpt>
      <trkpt lat="43.41719" lon="6.46642">
        <ele>60.5</ele>
        <time>2023-02-01T15:35:50Z</time>
      </trkpt>
      <trkpt lat="43.41721" lon="6.46639">
        <ele>60.8</ele>
        <time>2023-02-01T15:35:54Z</time>
      </trkpt>
      <trkpt lat="43.41721" lon="6.46634">
        <ele>61</ele>
        <time>2023-02-01T15:35:56Z</time>
      </trkpt>
      <trkpt lat="43.41723" lon="6.46629">
        <ele>60.9</ele>
        <time>2023-02-01T15:35:59Z</time>
      </trkpt>
      <trkpt lat="43.41724" lon="6.46624">
        <ele>61.2</ele>
        <time>2023-02-01T15:36:03Z</time>
      </trkpt>
      <trkpt lat="43.41725" lon="6.4662">
        <ele>61.7</ele>
        <time>2023-02-01T15:36:05Z</time>
      </trkpt>
      <trkpt lat="43.41727" lon="6.46615">
        <ele>61.8</ele>
        <time>2023-02-01T15:36:10Z</time>
      </trkpt>
      <trkpt lat="43.41728" lon="6.46609">
        <ele>62.8</ele>
        <time>2023-02-01T15:36:14Z</time>
      </trkpt>
      <trkpt lat="43.41729" lon="6.46603">
        <ele>63.8</ele>
        <time>2023-02-01T15:36:19Z</time>
      </trkpt>
      <trkpt lat="43.41728" lon="6.46597">
        <ele>64.5</ele>
        <time>2023-02-01T15:36:22Z</time>
      </trkpt>
      <trkpt lat="43.4173" lon="6.46593">
        <ele>64.9</ele>
        <time>2023-02-01T15:36:26Z</time>
      </trkpt>
      <trkpt lat="43.41731" lon="6.46588">
        <ele>65.1</ele>
        <time>2023-02-01T15:36:29Z</time>
      </trkpt>
      <trkpt lat="43.41732" lon="6.46582">
        <ele>64.6</ele>
        <time>2023-02-01T15:36:33Z</time>
      </trkpt>
      <trkpt lat="43.41732" lon="6.46579">
        <ele>64.8</ele>
        <time>2023-02-01T15:36:35Z</time>
      </trkpt>
      <trkpt lat="43.41734" lon="6.46574">
        <ele>65.4</ele>
        <time>2023-02-01T15:36:37Z</time>
      </trkpt>
      <trkpt lat="43.41735" lon="6.46568">
        <ele>66.3</ele>
        <time>2023-02-01T15:36:42Z</time>
      </trkpt>
      <trkpt lat="43.41737" lon="6.46563">
        <ele>66.6</ele>
        <time>2023-02-01T15:36:45Z</time>
      </trkpt>
      <trkpt lat="43.41737" lon="6.46557">
        <ele>65.5</ele>
        <time>2023-02-01T15:36:49Z</time>
      </trkpt>
      <trkpt lat="43.41738" lon="6.46552">
        <ele>67</ele>
        <time>2023-02-01T15:36:53Z</time>
      </trkpt>
      <trkpt lat="43.41738" lon="6.46547">
        <ele>67.8</ele>
        <time>2023-02-01T15:36:55Z</time>
      </trkpt>
      <trkpt lat="43.4174" lon="6.46542">
        <ele>68.7</ele>
        <time>2023-02-01T15:36:59Z</time>
      </trkpt>
      <trkpt lat="43.4174" lon="6.46536">
        <ele>68.3</ele>
        <time>2023-02-01T15:37:02Z</time>
      </trkpt>
      <trkpt lat="43.4174" lon="6.4653">
        <ele>69</ele>
        <time>2023-02-01T15:37:05Z</time>
      </trkpt>
      <trkpt lat="43.4174" lon="6.46525">
        <ele>69.1</ele>
        <time>2023-02-01T15:37:09Z</time>
      </trkpt>
      <trkpt lat="43.4174" lon="6.46521">
        <ele>69.6</ele>
        <time>2023-02-01T15:37:11Z</time>
      </trkpt>
      <trkpt lat="43.41741" lon="6.46515">
        <ele>68.9</ele>
        <time>2023-02-01T15:37:15Z</time>
      </trkpt>
      <trkpt lat="43.41739" lon="6.4651">
        <ele>70.9</ele>
        <time>2023-02-01T15:37:22Z</time>
      </trkpt>
      <trkpt lat="43.41738" lon="6.46506">
        <ele>71.4</ele>
        <time>2023-02-01T15:37:24Z</time>
      </trkpt>
      <trkpt lat="43.41738" lon="6.46501">
        <ele>71.8</ele>
        <time>2023-02-01T15:37:26Z</time>
      </trkpt>
      <trkpt lat="43.41738" lon="6.46495">
        <ele>71.5</ele>
        <time>2023-02-01T15:37:31Z</time>
      </trkpt>
      <trkpt lat="43.41738" lon="6.46492">
        <ele>71.6</ele>
        <time>2023-02-01T15:37:33Z</time>
      </trkpt>
      <trkpt lat="43.41738" lon="6.46486">
        <ele>71.7</ele>
        <time>2023-02-01T15:37:35Z</time>
      </trkpt>
      <trkpt lat="43.4174" lon="6.46481">
        <ele>70.9</ele>
        <time>2023-02-01T15:37:38Z</time>
      </trkpt>
      <trkpt lat="43.41741" lon="6.46477">
        <ele>71.4</ele>
        <time>2023-02-01T15:37:42Z</time>
      </trkpt>
      <trkpt lat="43.41742" lon="6.46473">
        <ele>71.4</ele>
        <time>2023-02-01T15:37:44Z</time>
      </trkpt>
      <trkpt lat="43.41742" lon="6.46467">
        <ele>71.7</ele>
        <time>2023-02-01T15:37:46Z</time>
      </trkpt>
      <trkpt lat="43.41742" lon="6.46462">
        <ele>71.6</ele>
        <time>2023-02-01T15:37:50Z</time>
      </trkpt>
      <trkpt lat="43.41743" lon="6.46457">
        <ele>71.8</ele>
        <time>2023-02-01T15:37:53Z</time>
      </trkpt>
      <trkpt lat="43.41742" lon="6.46451">
        <ele>71.9</ele>
        <time>2023-02-01T15:37:55Z</time>
      </trkpt>
      <trkpt lat="43.41743" lon="6.46446">
        <ele>71.9</ele>
        <time>2023-02-01T15:37:59Z</time>
      </trkpt>
      <trkpt lat="43.41743" lon="6.46441">
        <ele>72.1</ele>
        <time>2023-02-01T15:38:02Z</time>
      </trkpt>
      <trkpt lat="43.41743" lon="6.46436">
        <ele>72.4</ele>
        <time>2023-02-01T15:38:04Z</time>
      </trkpt>
      <trkpt lat="43.41743" lon="6.46429">
        <ele>72.6</ele>
        <time>2023-02-01T15:38:07Z</time>
      </trkpt>
      <trkpt lat="43.41744" lon="6.46425">
        <ele>72.7</ele>
        <time>2023-02-01T15:38:11Z</time>
      </trkpt>
      <trkpt lat="43.41744" lon="6.46421">
        <ele>72.7</ele>
        <time>2023-02-01T15:38:13Z</time>
      </trkpt>
      <trkpt lat="43.41744" lon="6.46417">
        <ele>72.8</ele>
        <time>2023-02-01T15:38:15Z</time>
      </trkpt>
      <trkpt lat="43.41745" lon="6.46411">
        <ele>72.8</ele>
        <time>2023-02-01T15:38:18Z</time>
      </trkpt>
      <trkpt lat="43.41745" lon="6.46405">
        <ele>72.2</ele>
        <time>2023-02-01T15:38:23Z</time>
      </trkpt>
      <trkpt lat="43.41746" lon="6.46401">
        <ele>72</ele>
        <time>2023-02-01T15:38:25Z</time>
      </trkpt>
      <trkpt lat="43.41749" lon="6.46396">
        <ele>72.5</ele>
        <time>2023-02-01T15:38:27Z</time>
      </trkpt>
      <trkpt lat="43.4175" lon="6.46391">
        <ele>72.9</ele>
        <time>2023-02-01T15:38:32Z</time>
      </trkpt>
      <trkpt lat="43.41751" lon="6.46388">
        <ele>73.5</ele>
        <time>2023-02-01T15:38:34Z</time>
      </trkpt>
      <trkpt lat="43.41753" lon="6.46382">
        <ele>73.4</ele>
        <time>2023-02-01T15:38:41Z</time>
      </trkpt>
      <trkpt lat="43.41753" lon="6.46377">
        <ele>73.4</ele>
        <time>2023-02-01T15:38:53Z</time>
      </trkpt>
      <trkpt lat="43.41754" lon="6.46371">
        <ele>73.8</ele>
        <time>2023-02-01T15:38:58Z</time>
      </trkpt>
      <trkpt lat="43.41758" lon="6.46369">
        <ele>74</ele>
        <time>2023-02-01T15:39:00Z</time>
      </trkpt>
      <trkpt lat="43.41761" lon="6.46366">
        <ele>74.1</ele>
        <time>2023-02-01T15:39:02Z</time>
      </trkpt>
      <trkpt lat="43.41763" lon="6.46363">
        <ele>73.9</ele>
        <time>2023-02-01T15:39:03Z</time>
      </trkpt>
      <trkpt lat="43.41766" lon="6.46361">
        <ele>73.8</ele>
        <time>2023-02-01T15:39:04Z</time>
      </trkpt>
      <trkpt lat="43.41766" lon="6.46356">
        <ele>74</ele>
        <time>2023-02-01T15:39:05Z</time>
      </trkpt>
      <trkpt lat="43.41767" lon="6.46353">
        <ele>74</ele>
        <time>2023-02-01T15:39:06Z</time>
      </trkpt>
      <trkpt lat="43.41769" lon="6.4635">
        <ele>74</ele>
        <time>2023-02-01T15:39:07Z</time>
      </trkpt>
      <trkpt lat="43.4177" lon="6.46344">
        <ele>74</ele>
        <time>2023-02-01T15:39:09Z</time>
      </trkpt>
      <trkpt lat="43.41773" lon="6.46341">
        <ele>74.1</ele>
        <time>2023-02-01T15:39:13Z</time>
      </trkpt>
      <trkpt lat="43.41776" lon="6.46339">
        <ele>74.7</ele>
        <time>2023-02-01T15:39:15Z</time>
      </trkpt>
      <trkpt lat="43.4178" lon="6.46336">
        <ele>75</ele>
        <time>2023-02-01T15:39:19Z</time>
      </trkpt>
      <trkpt lat="43.41783" lon="6.46332">
        <ele>75.4</ele>
        <time>2023-02-01T15:39:22Z</time>
      </trkpt>
      <trkpt lat="43.41786" lon="6.4633">
        <ele>75.2</ele>
        <time>2023-02-01T15:39:25Z</time>
      </trkpt>
      <trkpt lat="43.41789" lon="6.46327">
        <ele>75.6</ele>
        <time>2023-02-01T15:39:28Z</time>
      </trkpt>
      <trkpt lat="43.41792" lon="6.46324">
        <ele>75.6</ele>
        <time>2023-02-01T15:39:32Z</time>
      </trkpt>
      <trkpt lat="43.41795" lon="6.4632">
        <ele>75.9</ele>
        <time>2023-02-01T15:39:35Z</time>
      </trkpt>
      <trkpt lat="43.41799" lon="6.46319">
        <ele>76.2</ele>
        <time>2023-02-01T15:39:38Z</time>
      </trkpt>
      <trkpt lat="43.41801" lon="6.46317">
        <ele>76.5</ele>
        <time>2023-02-01T15:39:40Z</time>
      </trkpt>
      <trkpt lat="43.41805" lon="6.46315">
        <ele>76.6</ele>
        <time>2023-02-01T15:39:42Z</time>
      </trkpt>
      <trkpt lat="43.41808" lon="6.46313">
        <ele>76.7</ele>
        <time>2023-02-01T15:39:46Z</time>
      </trkpt>
      <trkpt lat="43.4181" lon="6.46308">
        <ele>77</ele>
        <time>2023-02-01T15:39:49Z</time>
      </trkpt>
      <trkpt lat="43.41813" lon="6.46304">
        <ele>76.9</ele>
        <time>2023-02-01T15:39:53Z</time>
      </trkpt>
      <trkpt lat="43.41816" lon="6.463">
        <ele>77.7</ele>
        <time>2023-02-01T15:39:55Z</time>
      </trkpt>
      <trkpt lat="43.41819" lon="6.46297">
        <ele>78.2</ele>
        <time>2023-02-01T15:39:59Z</time>
      </trkpt>
      <trkpt lat="43.41821" lon="6.46294">
        <ele>78.6</ele>
        <time>2023-02-01T15:40:01Z</time>
      </trkpt>
      <trkpt lat="43.41824" lon="6.4629">
        <ele>79</ele>
        <time>2023-02-01T15:40:05Z</time>
      </trkpt>
      <trkpt lat="43.41828" lon="6.46287">
        <ele>79.7</ele>
        <time>2023-02-01T15:40:08Z</time>
      </trkpt>
      <trkpt lat="43.4183" lon="6.46284">
        <ele>79.9</ele>
        <time>2023-02-01T15:40:12Z</time>
      </trkpt>
      <trkpt lat="43.41833" lon="6.4628">
        <ele>80.1</ele>
        <time>2023-02-01T15:40:15Z</time>
      </trkpt>
      <trkpt lat="43.41836" lon="6.46275">
        <ele>80.5</ele>
        <time>2023-02-01T15:40:19Z</time>
      </trkpt>
      <trkpt lat="43.41838" lon="6.46271">
        <ele>81</ele>
        <time>2023-02-01T15:40:23Z</time>
      </trkpt>
      <trkpt lat="43.41841" lon="6.46268">
        <ele>81.8</ele>
        <time>2023-02-01T15:40:30Z</time>
      </trkpt>
      <trkpt lat="43.41843" lon="6.46263">
        <ele>81.9</ele>
        <time>2023-02-01T15:40:33Z</time>
      </trkpt>
      <trkpt lat="43.41846" lon="6.46259">
        <ele>81.8</ele>
        <time>2023-02-01T15:40:38Z</time>
      </trkpt>
      <trkpt lat="43.41849" lon="6.46255">
        <ele>82</ele>
        <time>2023-02-01T15:40:41Z</time>
      </trkpt>
      <trkpt lat="43.41851" lon="6.4625">
        <ele>82.1</ele>
        <time>2023-02-01T15:40:45Z</time>
      </trkpt>
      <trkpt lat="43.41853" lon="6.46245">
        <ele>82.4</ele>
        <time>2023-02-01T15:40:49Z</time>
      </trkpt>
      <trkpt lat="43.41855" lon="6.4624">
        <ele>82.6</ele>
        <time>2023-02-01T15:40:51Z</time>
      </trkpt>
      <trkpt lat="43.41857" lon="6.46235">
        <ele>82.4</ele>
        <time>2023-02-01T15:40:56Z</time>
      </trkpt>
      <trkpt lat="43.41859" lon="6.46231">
        <ele>82.8</ele>
        <time>2023-02-01T15:40:59Z</time>
      </trkpt>
      <trkpt lat="43.41861" lon="6.46227">
        <ele>83.5</ele>
        <time>2023-02-01T15:41:01Z</time>
      </trkpt>
      <trkpt lat="43.41863" lon="6.46222">
        <ele>83.9</ele>
        <time>2023-02-01T15:41:05Z</time>
      </trkpt>
      <trkpt lat="43.41866" lon="6.46219">
        <ele>83.6</ele>
        <time>2023-02-01T15:41:08Z</time>
      </trkpt>
      <trkpt lat="43.41868" lon="6.46216">
        <ele>83.5</ele>
        <time>2023-02-01T15:41:10Z</time>
      </trkpt>
      <trkpt lat="43.4187" lon="6.46211">
        <ele>83.8</ele>
        <time>2023-02-01T15:41:12Z</time>
      </trkpt>
      <trkpt lat="43.41871" lon="6.46207">
        <ele>84.2</ele>
        <time>2023-02-01T15:41:14Z</time>
      </trkpt>
      <trkpt lat="43.41873" lon="6.46202">
        <ele>83.9</ele>
        <time>2023-02-01T15:41:19Z</time>
      </trkpt>
      <trkpt lat="43.41874" lon="6.46199">
        <ele>83.8</ele>
        <time>2023-02-01T15:41:21Z</time>
      </trkpt>
      <trkpt lat="43.41877" lon="6.46194">
        <ele>84.7</ele>
        <time>2023-02-01T15:41:24Z</time>
      </trkpt>
      <trkpt lat="43.41879" lon="6.46191">
        <ele>85.2</ele>
        <time>2023-02-01T15:41:28Z</time>
      </trkpt>
      <trkpt lat="43.41883" lon="6.46187">
        <ele>85.1</ele>
        <time>2023-02-01T15:41:31Z</time>
      </trkpt>
      <trkpt lat="43.41886" lon="6.46183">
        <ele>85.6</ele>
        <time>2023-02-01T15:41:34Z</time>
      </trkpt>
      <trkpt lat="43.41888" lon="6.46179">
        <ele>86.2</ele>
        <time>2023-02-01T15:41:39Z</time>
      </trkpt>
      <trkpt lat="43.41889" lon="6.46176">
        <ele>86.1</ele>
        <time>2023-02-01T15:41:41Z</time>
      </trkpt>
      <trkpt lat="43.41892" lon="6.46172">
        <ele>86.5</ele>
        <time>2023-02-01T15:41:43Z</time>
      </trkpt>
      <trkpt lat="43.41894" lon="6.46167">
        <ele>86.8</ele>
        <time>2023-02-01T15:41:48Z</time>
      </trkpt>
      <trkpt lat="43.41896" lon="6.46162">
        <ele>87.2</ele>
        <time>2023-02-01T15:41:51Z</time>
      </trkpt>
      <trkpt lat="43.41899" lon="6.46159">
        <ele>87.4</ele>
        <time>2023-02-01T15:41:53Z</time>
      </trkpt>
      <trkpt lat="43.41901" lon="6.46155">
        <ele>87</ele>
        <time>2023-02-01T15:41:57Z</time>
      </trkpt>
      <trkpt lat="43.41903" lon="6.4615">
        <ele>87.3</ele>
        <time>2023-02-01T15:42:00Z</time>
      </trkpt>
      <trkpt lat="43.41906" lon="6.46146">
        <ele>87.2</ele>
        <time>2023-02-01T15:42:02Z</time>
      </trkpt>
      <trkpt lat="43.41907" lon="6.46141">
        <ele>87.6</ele>
        <time>2023-02-01T15:42:05Z</time>
      </trkpt>
      <trkpt lat="43.4191" lon="6.46138">
        <ele>88.2</ele>
        <time>2023-02-01T15:42:08Z</time>
      </trkpt>
      <trkpt lat="43.41912" lon="6.46135">
        <ele>88.1</ele>
        <time>2023-02-01T15:42:10Z</time>
      </trkpt>
      <trkpt lat="43.41914" lon="6.46131">
        <ele>88.2</ele>
        <time>2023-02-01T15:42:12Z</time>
      </trkpt>
      <trkpt lat="43.41916" lon="6.46126">
        <ele>88.4</ele>
        <time>2023-02-01T15:42:16Z</time>
      </trkpt>
      <trkpt lat="43.41917" lon="6.46122">
        <ele>89</ele>
        <time>2023-02-01T15:42:19Z</time>
      </trkpt>
      <trkpt lat="43.41919" lon="6.46118">
        <ele>89.3</ele>
        <time>2023-02-01T15:42:21Z</time>
      </trkpt>
      <trkpt lat="43.41921" lon="6.46113">
        <ele>89.3</ele>
        <time>2023-02-01T15:42:25Z</time>
      </trkpt>
      <trkpt lat="43.41924" lon="6.46109">
        <ele>89.2</ele>
        <time>2023-02-01T15:42:28Z</time>
      </trkpt>
      <trkpt lat="43.41925" lon="6.46106">
        <ele>89.6</ele>
        <time>2023-02-01T15:42:30Z</time>
      </trkpt>
      <trkpt lat="43.41927" lon="6.46101">
        <ele>89.7</ele>
        <time>2023-02-01T15:42:33Z</time>
      </trkpt>
      <trkpt lat="43.41928" lon="6.46097">
        <ele>89.8</ele>
        <time>2023-02-01T15:42:37Z</time>
      </trkpt>
      <trkpt lat="43.4193" lon="6.46093">
        <ele>90.4</ele>
        <time>2023-02-01T15:42:39Z</time>
      </trkpt>
      <trkpt lat="43.41931" lon="6.46088">
        <ele>90.9</ele>
        <time>2023-02-01T15:42:41Z</time>
      </trkpt>
      <trkpt lat="43.41933" lon="6.46083">
        <ele>91.2</ele>
        <time>2023-02-01T15:42:46Z</time>
      </trkpt>
      <trkpt lat="43.41935" lon="6.46079">
        <ele>91.5</ele>
        <time>2023-02-01T15:42:48Z</time>
      </trkpt>
      <trkpt lat="43.41936" lon="6.46074">
        <ele>91.5</ele>
        <time>2023-02-01T15:42:52Z</time>
      </trkpt>
      <trkpt lat="43.41939" lon="6.46071">
        <ele>92.1</ele>
        <time>2023-02-01T15:42:56Z</time>
      </trkpt>
      <trkpt lat="43.41941" lon="6.46068">
        <ele>92.4</ele>
        <time>2023-02-01T15:42:58Z</time>
      </trkpt>
      <trkpt lat="43.41944" lon="6.46065">
        <ele>92.7</ele>
        <time>2023-02-01T15:43:01Z</time>
      </trkpt>
      <trkpt lat="43.41947" lon="6.46062">
        <ele>92.3</ele>
        <time>2023-02-01T15:43:06Z</time>
      </trkpt>
      <trkpt lat="43.4195" lon="6.46058">
        <ele>92.4</ele>
        <time>2023-02-01T15:43:09Z</time>
      </trkpt>
      <trkpt lat="43.41953" lon="6.46053">
        <ele>92.3</ele>
        <time>2023-02-01T15:43:13Z</time>
      </trkpt>
      <trkpt lat="43.41956" lon="6.4605">
        <ele>92.7</ele>
        <time>2023-02-01T15:43:17Z</time>
      </trkpt>
      <trkpt lat="43.41959" lon="6.46048">
        <ele>93.2</ele>
        <time>2023-02-01T15:43:19Z</time>
      </trkpt>
      <trkpt lat="43.41962" lon="6.46044">
        <ele>93.5</ele>
        <time>2023-02-01T15:43:21Z</time>
      </trkpt>
      <trkpt lat="43.41964" lon="6.46039">
        <ele>93.7</ele>
        <time>2023-02-01T15:43:26Z</time>
      </trkpt>
      <trkpt lat="43.41967" lon="6.46036">
        <ele>93.1</ele>
        <time>2023-02-01T15:43:29Z</time>
      </trkpt>
      <trkpt lat="43.41969" lon="6.46033">
        <ele>97.2</ele>
        <time>2023-02-01T15:43:31Z</time>
      </trkpt>
      <trkpt lat="43.41972" lon="6.4603">
        <ele>99.5</ele>
        <time>2023-02-01T15:43:33Z</time>
      </trkpt>
      <trkpt lat="43.41974" lon="6.46026">
        <ele>99.3</ele>
        <time>2023-02-01T15:43:36Z</time>
      </trkpt>
      <trkpt lat="43.41975" lon="6.4602">
        <ele>98.3</ele>
        <time>2023-02-01T15:43:39Z</time>
      </trkpt>
      <trkpt lat="43.41976" lon="6.46015">
        <ele>97.4</ele>
        <time>2023-02-01T15:43:42Z</time>
      </trkpt>
      <trkpt lat="43.41977" lon="6.4601">
        <ele>96.8</ele>
        <time>2023-02-01T15:43:45Z</time>
      </trkpt>
      <trkpt lat="43.41978" lon="6.46004">
        <ele>96.3</ele>
        <time>2023-02-01T15:43:48Z</time>
      </trkpt>
      <trkpt lat="43.41978" lon="6.45999">
        <ele>96.1</ele>
        <time>2023-02-01T15:43:51Z</time>
      </trkpt>
      <trkpt lat="43.41978" lon="6.45993">
        <ele>95.7</ele>
        <time>2023-02-01T15:43:54Z</time>
      </trkpt>
      <trkpt lat="43.41977" lon="6.45988">
        <ele>95.1</ele>
        <time>2023-02-01T15:43:58Z</time>
      </trkpt>
      <trkpt lat="43.41978" lon="6.45984">
        <ele>95</ele>
        <time>2023-02-01T15:44:01Z</time>
      </trkpt>
      <trkpt lat="43.41978" lon="6.45979">
        <ele>95.2</ele>
        <time>2023-02-01T15:44:03Z</time>
      </trkpt>
      <trkpt lat="43.41977" lon="6.45974">
        <ele>95.3</ele>
        <time>2023-02-01T15:44:06Z</time>
      </trkpt>
      <trkpt lat="43.41974" lon="6.45969">
        <ele>94.7</ele>
        <time>2023-02-01T15:44:10Z</time>
      </trkpt>
      <trkpt lat="43.41972" lon="6.45964">
        <ele>95</ele>
        <time>2023-02-01T15:44:13Z</time>
      </trkpt>
      <trkpt lat="43.41972" lon="6.4596">
        <ele>95.1</ele>
        <time>2023-02-01T15:44:15Z</time>
      </trkpt>
      <trkpt lat="43.41971" lon="6.45955">
        <ele>95.1</ele>
        <time>2023-02-01T15:44:17Z</time>
      </trkpt>
      <trkpt lat="43.41971" lon="6.4595">
        <ele>95.2</ele>
        <time>2023-02-01T15:44:19Z</time>
      </trkpt>
      <trkpt lat="43.4197" lon="6.45945">
        <ele>93.5</ele>
        <time>2023-02-01T15:44:23Z</time>
      </trkpt>
      <trkpt lat="43.4197" lon="6.45941">
        <ele>94.6</ele>
        <time>2023-02-01T15:44:26Z</time>
      </trkpt>
      <trkpt lat="43.41971" lon="6.45935">
        <ele>95.4</ele>
        <time>2023-02-01T15:44:29Z</time>
      </trkpt>
      <trkpt lat="43.41972" lon="6.4593">
        <ele>94.8</ele>
        <time>2023-02-01T15:44:34Z</time>
      </trkpt>
      <trkpt lat="43.41974" lon="6.45926">
        <ele>95.8</ele>
        <time>2023-02-01T15:44:37Z</time>
      </trkpt>
      <trkpt lat="43.41977" lon="6.45922">
        <ele>96.5</ele>
        <time>2023-02-01T15:44:39Z</time>
      </trkpt>
      <trkpt lat="43.41979" lon="6.45917">
        <ele>96.7</ele>
        <time>2023-02-01T15:44:42Z</time>
      </trkpt>
      <trkpt lat="43.41982" lon="6.45914">
        <ele>96.9</ele>
        <time>2023-02-01T15:44:46Z</time>
      </trkpt>
      <trkpt lat="43.41984" lon="6.4591">
        <ele>97.9</ele>
        <time>2023-02-01T15:44:49Z</time>
      </trkpt>
      <trkpt lat="43.41987" lon="6.45908">
        <ele>98.6</ele>
        <time>2023-02-01T15:44:51Z</time>
      </trkpt>
      <trkpt lat="43.4199" lon="6.45904">
        <ele>99</ele>
        <time>2023-02-01T15:44:56Z</time>
      </trkpt>
      <trkpt lat="43.41993" lon="6.45899">
        <ele>99.6</ele>
        <time>2023-02-01T15:44:59Z</time>
      </trkpt>
      <trkpt lat="43.41995" lon="6.45896">
        <ele>99.8</ele>
        <time>2023-02-01T15:45:01Z</time>
      </trkpt>
      <trkpt lat="43.41997" lon="6.45892">
        <ele>100.1</ele>
        <time>2023-02-01T15:45:03Z</time>
      </trkpt>
      <trkpt lat="43.41999" lon="6.45886">
        <ele>99.9</ele>
        <time>2023-02-01T15:45:07Z</time>
      </trkpt>
      <trkpt lat="43.42001" lon="6.45881">
        <ele>100.3</ele>
        <time>2023-02-01T15:45:12Z</time>
      </trkpt>
      <trkpt lat="43.42004" lon="6.45878">
        <ele>100.5</ele>
        <time>2023-02-01T15:45:14Z</time>
      </trkpt>
      <trkpt lat="43.42006" lon="6.45874">
        <ele>100.7</ele>
        <time>2023-02-01T15:45:16Z</time>
      </trkpt>
      <trkpt lat="43.42009" lon="6.4587">
        <ele>100.9</ele>
        <time>2023-02-01T15:45:18Z</time>
      </trkpt>
      <trkpt lat="43.42011" lon="6.45867">
        <ele>99.9</ele>
        <time>2023-02-01T15:45:22Z</time>
      </trkpt>
      <trkpt lat="43.42012" lon="6.45862">
        <ele>100.4</ele>
        <time>2023-02-01T15:45:26Z</time>
      </trkpt>
      <trkpt lat="43.42015" lon="6.45857">
        <ele>101</ele>
        <time>2023-02-01T15:45:29Z</time>
      </trkpt>
      <trkpt lat="43.42016" lon="6.45854">
        <ele>101.1</ele>
        <time>2023-02-01T15:45:30Z</time>
      </trkpt>
      <trkpt lat="43.42017" lon="6.45851">
        <ele>101.2</ele>
        <time>2023-02-01T15:45:31Z</time>
      </trkpt>
      <trkpt lat="43.42019" lon="6.45847">
        <ele>101.2</ele>
        <time>2023-02-01T15:45:33Z</time>
      </trkpt>
      <trkpt lat="43.4202" lon="6.45841">
        <ele>100.3</ele>
        <time>2023-02-01T15:45:37Z</time>
      </trkpt>
      <trkpt lat="43.4202" lon="6.45837">
        <ele>101</ele>
        <time>2023-02-01T15:45:40Z</time>
      </trkpt>
      <trkpt lat="43.42022" lon="6.45833">
        <ele>101.4</ele>
        <time>2023-02-01T15:45:42Z</time>
      </trkpt>
      <trkpt lat="43.42022" lon="6.45828">
        <ele>101.7</ele>
        <time>2023-02-01T15:45:44Z</time>
      </trkpt>
      <trkpt lat="43.42023" lon="6.45823">
        <ele>102.1</ele>
        <time>2023-02-01T15:45:46Z</time>
      </trkpt>
      <trkpt lat="43.42022" lon="6.45818">
        <ele>101.6</ele>
        <time>2023-02-01T15:45:50Z</time>
      </trkpt>
      <trkpt lat="43.42024" lon="6.45814">
        <ele>102.3</ele>
        <time>2023-02-01T15:45:53Z</time>
      </trkpt>
      <trkpt lat="43.42026" lon="6.45811">
        <ele>102.7</ele>
        <time>2023-02-01T15:45:55Z</time>
      </trkpt>
      <trkpt lat="43.42028" lon="6.45805">
        <ele>103</ele>
        <time>2023-02-01T15:46:00Z</time>
      </trkpt>
      <trkpt lat="43.42029" lon="6.45802">
        <ele>103.5</ele>
        <time>2023-02-01T15:46:02Z</time>
      </trkpt>
      <trkpt lat="43.42032" lon="6.45798">
        <ele>104.1</ele>
        <time>2023-02-01T15:46:04Z</time>
      </trkpt>
      <trkpt lat="43.42035" lon="6.45794">
        <ele>103.9</ele>
        <time>2023-02-01T15:46:08Z</time>
      </trkpt>
      <trkpt lat="43.42039" lon="6.45791">
        <ele>105.2</ele>
        <time>2023-02-01T15:46:12Z</time>
      </trkpt>
      <trkpt lat="43.42041" lon="6.45788">
        <ele>105.6</ele>
        <time>2023-02-01T15:46:14Z</time>
      </trkpt>
      <trkpt lat="43.42044" lon="6.45784">
        <ele>105.7</ele>
        <time>2023-02-01T15:46:17Z</time>
      </trkpt>
      <trkpt lat="43.42045" lon="6.45779">
        <ele>105.2</ele>
        <time>2023-02-01T15:46:22Z</time>
      </trkpt>
      <trkpt lat="43.42048" lon="6.45776">
        <ele>105.7</ele>
        <time>2023-02-01T15:46:24Z</time>
      </trkpt>
      <trkpt lat="43.4205" lon="6.45773">
        <ele>106.2</ele>
        <time>2023-02-01T15:46:26Z</time>
      </trkpt>
      <trkpt lat="43.42054" lon="6.45769">
        <ele>106.7</ele>
        <time>2023-02-01T15:46:29Z</time>
      </trkpt>
      <trkpt lat="43.42056" lon="6.45764">
        <ele>106.7</ele>
        <time>2023-02-01T15:46:34Z</time>
      </trkpt>
      <trkpt lat="43.42059" lon="6.45761">
        <ele>107.4</ele>
        <time>2023-02-01T15:46:36Z</time>
      </trkpt>
      <trkpt lat="43.42062" lon="6.45758">
        <ele>108</ele>
        <time>2023-02-01T15:46:38Z</time>
      </trkpt>
      <trkpt lat="43.42062" lon="6.45753">
        <ele>107.9</ele>
        <time>2023-02-01T15:46:43Z</time>
      </trkpt>
      <trkpt lat="43.42065" lon="6.45748">
        <ele>109</ele>
        <time>2023-02-01T15:46:46Z</time>
      </trkpt>
      <trkpt lat="43.42067" lon="6.45744">
        <ele>109.4</ele>
        <time>2023-02-01T15:46:48Z</time>
      </trkpt>
      <trkpt lat="43.42069" lon="6.45739">
        <ele>109</ele>
        <time>2023-02-01T15:46:52Z</time>
      </trkpt>
      <trkpt lat="43.4207" lon="6.45735">
        <ele>109.6</ele>
        <time>2023-02-01T15:46:55Z</time>
      </trkpt>
      <trkpt lat="43.42071" lon="6.45732">
        <ele>109.9</ele>
        <time>2023-02-01T15:46:57Z</time>
      </trkpt>
      <trkpt lat="43.42073" lon="6.45727">
        <ele>110.1</ele>
        <time>2023-02-01T15:46:59Z</time>
      </trkpt>
      <trkpt lat="43.42074" lon="6.45722">
        <ele>110.3</ele>
        <time>2023-02-01T15:47:01Z</time>
      </trkpt>
      <trkpt lat="43.42076" lon="6.45718">
        <ele>110.4</ele>
        <time>2023-02-01T15:47:03Z</time>
      </trkpt>
      <trkpt lat="43.42078" lon="6.45714">
        <ele>110</ele>
        <time>2023-02-01T15:47:07Z</time>
      </trkpt>
      <trkpt lat="43.42079" lon="6.45709">
        <ele>110.2</ele>
        <time>2023-02-01T15:47:11Z</time>
      </trkpt>
      <trkpt lat="43.4208" lon="6.45704">
        <ele>110.6</ele>
        <time>2023-02-01T15:47:13Z</time>
      </trkpt>
      <trkpt lat="43.4208" lon="6.457">
        <ele>110.9</ele>
        <time>2023-02-01T15:47:15Z</time>
      </trkpt>
      <trkpt lat="43.42081" lon="6.45694">
        <ele>110.9</ele>
        <time>2023-02-01T15:47:18Z</time>
      </trkpt>
      <trkpt lat="43.42082" lon="6.45689">
        <ele>110.5</ele>
        <time>2023-02-01T15:47:22Z</time>
      </trkpt>
      <trkpt lat="43.42083" lon="6.45685">
        <ele>111.2</ele>
        <time>2023-02-01T15:47:25Z</time>
      </trkpt>
      <trkpt lat="43.42084" lon="6.45681">
        <ele>111.6</ele>
        <time>2023-02-01T15:47:27Z</time>
      </trkpt>
      <trkpt lat="43.42086" lon="6.45675">
        <ele>111.2</ele>
        <time>2023-02-01T15:47:31Z</time>
      </trkpt>
      <trkpt lat="43.42086" lon="6.45671">
        <ele>111.1</ele>
        <time>2023-02-01T15:47:35Z</time>
      </trkpt>
      <trkpt lat="43.42087" lon="6.45666">
        <ele>111.4</ele>
        <time>2023-02-01T15:47:37Z</time>
      </trkpt>
      <trkpt lat="43.42087" lon="6.45661">
        <ele>111.9</ele>
        <time>2023-02-01T15:47:39Z</time>
      </trkpt>
      <trkpt lat="43.42089" lon="6.45656">
        <ele>112.2</ele>
        <time>2023-02-01T15:47:44Z</time>
      </trkpt>
      <trkpt lat="43.42091" lon="6.45652">
        <ele>112.9</ele>
        <time>2023-02-01T15:47:46Z</time>
      </trkpt>
      <trkpt lat="43.42093" lon="6.45647">
        <ele>113.7</ele>
        <time>2023-02-01T15:47:49Z</time>
      </trkpt>
      <trkpt lat="43.42096" lon="6.45644">
        <ele>114.2</ele>
        <time>2023-02-01T15:47:53Z</time>
      </trkpt>
      <trkpt lat="43.42098" lon="6.4564">
        <ele>114.5</ele>
        <time>2023-02-01T15:47:55Z</time>
      </trkpt>
      <trkpt lat="43.42099" lon="6.45636">
        <ele>114.7</ele>
        <time>2023-02-01T15:47:57Z</time>
      </trkpt>
      <trkpt lat="43.42102" lon="6.45631">
        <ele>113.8</ele>
        <time>2023-02-01T15:48:01Z</time>
      </trkpt>
      <trkpt lat="43.42104" lon="6.45626">
        <ele>114</ele>
        <time>2023-02-01T15:48:05Z</time>
      </trkpt>
      <trkpt lat="43.42106" lon="6.45623">
        <ele>114.5</ele>
        <time>2023-02-01T15:48:07Z</time>
      </trkpt>
      <trkpt lat="43.42108" lon="6.4562">
        <ele>114.8</ele>
        <time>2023-02-01T15:48:09Z</time>
      </trkpt>
      <trkpt lat="43.42112" lon="6.45617">
        <ele>114</ele>
        <time>2023-02-01T15:48:14Z</time>
      </trkpt>
      <trkpt lat="43.42116" lon="6.45614">
        <ele>115</ele>
        <time>2023-02-01T15:48:17Z</time>
      </trkpt>
      <trkpt lat="43.42119" lon="6.45611">
        <ele>115.4</ele>
        <time>2023-02-01T15:48:19Z</time>
      </trkpt>
      <trkpt lat="43.42121" lon="6.45606">
        <ele>115.8</ele>
        <time>2023-02-01T15:48:24Z</time>
      </trkpt>
      <trkpt lat="43.42123" lon="6.45604">
        <ele>116.3</ele>
        <time>2023-02-01T15:48:26Z</time>
      </trkpt>
      <trkpt lat="43.42125" lon="6.456">
        <ele>116.5</ele>
        <time>2023-02-01T15:48:28Z</time>
      </trkpt>
      <trkpt lat="43.42127" lon="6.45595">
        <ele>116.4</ele>
        <time>2023-02-01T15:48:32Z</time>
      </trkpt>
      <trkpt lat="43.4213" lon="6.45591">
        <ele>116.4</ele>
        <time>2023-02-01T15:48:36Z</time>
      </trkpt>
      <trkpt lat="43.42131" lon="6.45587">
        <ele>116.7</ele>
        <time>2023-02-01T15:48:38Z</time>
      </trkpt>
      <trkpt lat="43.42132" lon="6.45583">
        <ele>117</ele>
        <time>2023-02-01T15:48:40Z</time>
      </trkpt>
      <trkpt lat="43.42134" lon="6.45578">
        <ele>116.1</ele>
        <time>2023-02-01T15:48:44Z</time>
      </trkpt>
      <trkpt lat="43.42134" lon="6.45573">
        <ele>116.9</ele>
        <time>2023-02-01T15:48:47Z</time>
      </trkpt>
      <trkpt lat="43.42134" lon="6.45569">
        <ele>117.2</ele>
        <time>2023-02-01T15:48:48Z</time>
      </trkpt>
      <trkpt lat="43.42135" lon="6.45566">
        <ele>117.4</ele>
        <time>2023-02-01T15:48:49Z</time>
      </trkpt>
      <trkpt lat="43.42136" lon="6.45561">
        <ele>117.7</ele>
        <time>2023-02-01T15:48:51Z</time>
      </trkpt>
      <trkpt lat="43.42137" lon="6.45556">
        <ele>117.8</ele>
        <time>2023-02-01T15:48:56Z</time>
      </trkpt>
      <trkpt lat="43.42137" lon="6.4555">
        <ele>118.2</ele>
        <time>2023-02-01T15:48:58Z</time>
      </trkpt>
      <trkpt lat="43.42137" lon="6.45545">
        <ele>118.6</ele>
        <time>2023-02-01T15:49:00Z</time>
      </trkpt>
      <trkpt lat="43.42137" lon="6.4554">
        <ele>119.2</ele>
        <time>2023-02-01T15:49:05Z</time>
      </trkpt>
      <trkpt lat="43.42136" lon="6.45536">
        <ele>119.5</ele>
        <time>2023-02-01T15:49:07Z</time>
      </trkpt>
      <trkpt lat="43.42135" lon="6.45531">
        <ele>119.7</ele>
        <time>2023-02-01T15:49:09Z</time>
      </trkpt>
      <trkpt lat="43.42134" lon="6.45527">
        <ele>119.8</ele>
        <time>2023-02-01T15:49:11Z</time>
      </trkpt>
      <trkpt lat="43.42133" lon="6.45521">
        <ele>120</ele>
        <time>2023-02-01T15:49:13Z</time>
      </trkpt>
      <trkpt lat="43.42132" lon="6.45516">
        <ele>120.1</ele>
        <time>2023-02-01T15:49:15Z</time>
      </trkpt>
      <trkpt lat="43.42131" lon="6.45511">
        <ele>119</ele>
        <time>2023-02-01T15:49:20Z</time>
      </trkpt>
      <trkpt lat="43.42131" lon="6.45505">
        <ele>119.8</ele>
        <time>2023-02-01T15:49:23Z</time>
      </trkpt>
      <trkpt lat="43.4213" lon="6.455">
        <ele>120.3</ele>
        <time>2023-02-01T15:49:25Z</time>
      </trkpt>
      <trkpt lat="43.4213" lon="6.45495">
        <ele>120</ele>
        <time>2023-02-01T15:49:28Z</time>
      </trkpt>
      <trkpt lat="43.42129" lon="6.4549">
        <ele>120.3</ele>
        <time>2023-02-01T15:49:33Z</time>
      </trkpt>
      <trkpt lat="43.42128" lon="6.45486">
        <ele>120.6</ele>
        <time>2023-02-01T15:49:35Z</time>
      </trkpt>
      <trkpt lat="43.42126" lon="6.45481">
        <ele>120.9</ele>
        <time>2023-02-01T15:49:37Z</time>
      </trkpt>
      <trkpt lat="43.42126" lon="6.45476">
        <ele>121.1</ele>
        <time>2023-02-01T15:49:39Z</time>
      </trkpt>
      <trkpt lat="43.42125" lon="6.4547">
        <ele>121.4</ele>
        <time>2023-02-01T15:49:45Z</time>
      </trkpt>
      <trkpt lat="43.42125" lon="6.45464">
        <ele>121.8</ele>
        <time>2023-02-01T15:49:48Z</time>
      </trkpt>
      <trkpt lat="43.42124" lon="6.4546">
        <ele>122.1</ele>
        <time>2023-02-01T15:49:50Z</time>
      </trkpt>
      <trkpt lat="43.42125" lon="6.45454">
        <ele>121.8</ele>
        <time>2023-02-01T15:49:55Z</time>
      </trkpt>
      <trkpt lat="43.42124" lon="6.4545">
        <ele>122.4</ele>
        <time>2023-02-01T15:49:57Z</time>
      </trkpt>
      <trkpt lat="43.42123" lon="6.45444">
        <ele>122.7</ele>
        <time>2023-02-01T15:49:59Z</time>
      </trkpt>
      <trkpt lat="43.42122" lon="6.45441">
        <ele>122.8</ele>
        <time>2023-02-01T15:50:00Z</time>
      </trkpt>
      <trkpt lat="43.42121" lon="6.45435">
        <ele>121.7</ele>
        <time>2023-02-01T15:50:05Z</time>
      </trkpt>
      <trkpt lat="43.42121" lon="6.4543">
        <ele>122.6</ele>
        <time>2023-02-01T15:50:08Z</time>
      </trkpt>
      <trkpt lat="43.4212" lon="6.45425">
        <ele>122.9</ele>
        <time>2023-02-01T15:50:12Z</time>
      </trkpt>
      <trkpt lat="43.42119" lon="6.4542">
        <ele>123.7</ele>
        <time>2023-02-01T15:50:15Z</time>
      </trkpt>
      <trkpt lat="43.42119" lon="6.45415">
        <ele>124.1</ele>
        <time>2023-02-01T15:50:19Z</time>
      </trkpt>
      <trkpt lat="43.42118" lon="6.45409">
        <ele>124.5</ele>
        <time>2023-02-01T15:50:25Z</time>
      </trkpt>
      <trkpt lat="43.42114" lon="6.45409">
        <ele>124.7</ele>
        <time>2023-02-01T15:50:32Z</time>
      </trkpt>
      <trkpt lat="43.4211" lon="6.4541">
        <ele>124.9</ele>
        <time>2023-02-01T15:50:45Z</time>
      </trkpt>
      <trkpt lat="43.42112" lon="6.45404">
        <ele>124.6</ele>
        <time>2023-02-01T15:52:35Z</time>
      </trkpt>
      <trkpt lat="43.42108" lon="6.45405">
        <ele>124.2</ele>
        <time>2023-02-01T15:53:59Z</time>
      </trkpt>
      <trkpt lat="43.42109" lon="6.45411">
        <ele>124.5</ele>
        <time>2023-02-01T15:55:01Z</time>
      </trkpt>
      <trkpt lat="43.42109" lon="6.45405">
        <ele>124.2</ele>
        <time>2023-02-01T15:55:21Z</time>
      </trkpt>
      <trkpt lat="43.42108" lon="6.45399">
        <ele>124.1</ele>
        <time>2023-02-01T15:55:26Z</time>
      </trkpt>
      <trkpt lat="43.42108" lon="6.45394">
        <ele>124</ele>
        <time>2023-02-01T15:55:31Z</time>
      </trkpt>
      <trkpt lat="43.42107" lon="6.45389">
        <ele>124</ele>
        <time>2023-02-01T15:55:34Z</time>
      </trkpt>
      <trkpt lat="43.42106" lon="6.45384">
        <ele>123.7</ele>
        <time>2023-02-01T15:55:39Z</time>
      </trkpt>
      <trkpt lat="43.42104" lon="6.45379">
        <ele>123.7</ele>
        <time>2023-02-01T15:55:42Z</time>
      </trkpt>
      <trkpt lat="43.42102" lon="6.45373">
        <ele>123.4</ele>
        <time>2023-02-01T15:55:47Z</time>
      </trkpt>
      <trkpt lat="43.42101" lon="6.45368">
        <ele>123.6</ele>
        <time>2023-02-01T15:55:50Z</time>
      </trkpt>
      <trkpt lat="43.42099" lon="6.45363">
        <ele>123.6</ele>
        <time>2023-02-01T15:55:53Z</time>
      </trkpt>
      <trkpt lat="43.42098" lon="6.45359">
        <ele>123.7</ele>
        <time>2023-02-01T15:55:55Z</time>
      </trkpt>
      <trkpt lat="43.42097" lon="6.45353">
        <ele>123.7</ele>
        <time>2023-02-01T15:55:59Z</time>
      </trkpt>
      <trkpt lat="43.42096" lon="6.45348">
        <ele>123.4</ele>
        <time>2023-02-01T15:56:04Z</time>
      </trkpt>
      <trkpt lat="43.42096" lon="6.45344">
        <ele>123.4</ele>
        <time>2023-02-01T15:56:06Z</time>
      </trkpt>
      <trkpt lat="43.42095" lon="6.4534">
        <ele>123.4</ele>
        <time>2023-02-01T15:56:08Z</time>
      </trkpt>
      <trkpt lat="43.42095" lon="6.45335">
        <ele>123.4</ele>
        <time>2023-02-01T15:56:10Z</time>
      </trkpt>
      <trkpt lat="43.42094" lon="6.4533">
        <ele>123.5</ele>
        <time>2023-02-01T15:56:12Z</time>
      </trkpt>
      <trkpt lat="43.42094" lon="6.45324">
        <ele>123.5</ele>
        <time>2023-02-01T15:56:15Z</time>
      </trkpt>
      <trkpt lat="43.42094" lon="6.45319">
        <ele>123.2</ele>
        <time>2023-02-01T15:56:19Z</time>
      </trkpt>
      <trkpt lat="43.42094" lon="6.45315">
        <ele>123.5</ele>
        <time>2023-02-01T15:56:22Z</time>
      </trkpt>
      <trkpt lat="43.42093" lon="6.45309">
        <ele>123.7</ele>
        <time>2023-02-01T15:56:25Z</time>
      </trkpt>
      <trkpt lat="43.42093" lon="6.45304">
        <ele>123.8</ele>
        <time>2023-02-01T15:56:27Z</time>
      </trkpt>
      <trkpt lat="43.42093" lon="6.453">
        <ele>124</ele>
        <time>2023-02-01T15:56:29Z</time>
      </trkpt>
      <trkpt lat="43.42093" lon="6.45294">
        <ele>124.1</ele>
        <time>2023-02-01T15:56:33Z</time>
      </trkpt>
      <trkpt lat="43.42094" lon="6.45289">
        <ele>123.6</ele>
        <time>2023-02-01T15:56:38Z</time>
      </trkpt>
      <trkpt lat="43.42092" lon="6.45283">
        <ele>123.6</ele>
        <time>2023-02-01T15:56:41Z</time>
      </trkpt>
      <trkpt lat="43.42092" lon="6.45278">
        <ele>123.6</ele>
        <time>2023-02-01T15:56:43Z</time>
      </trkpt>
      <trkpt lat="43.42093" lon="6.45273">
        <ele>123.6</ele>
        <time>2023-02-01T15:56:45Z</time>
      </trkpt>
      <trkpt lat="43.42094" lon="6.45268">
        <ele>123.5</ele>
        <time>2023-02-01T15:56:47Z</time>
      </trkpt>
      <trkpt lat="43.42093" lon="6.45263">
        <ele>123.3</ele>
        <time>2023-02-01T15:56:50Z</time>
      </trkpt>
      <trkpt lat="43.42092" lon="6.45257">
        <ele>122.9</ele>
        <time>2023-02-01T15:56:54Z</time>
      </trkpt>
      <trkpt lat="43.42091" lon="6.45252">
        <ele>123</ele>
        <time>2023-02-01T15:56:57Z</time>
      </trkpt>
      <trkpt lat="43.42091" lon="6.45247">
        <ele>122.9</ele>
        <time>2023-02-01T15:56:59Z</time>
      </trkpt>
      <trkpt lat="43.42091" lon="6.45243">
        <ele>122.9</ele>
        <time>2023-02-01T15:57:01Z</time>
      </trkpt>
      <trkpt lat="43.4209" lon="6.45237">
        <ele>122.8</ele>
        <time>2023-02-01T15:57:04Z</time>
      </trkpt>
      <trkpt lat="43.42088" lon="6.45232">
        <ele>122.3</ele>
        <time>2023-02-01T15:57:10Z</time>
      </trkpt>
      <trkpt lat="43.42086" lon="6.45226">
        <ele>122</ele>
        <time>2023-02-01T15:57:17Z</time>
      </trkpt>
      <trkpt lat="43.42083" lon="6.45222">
        <ele>121.9</ele>
        <time>2023-02-01T15:57:20Z</time>
      </trkpt>
      <trkpt lat="43.4208" lon="6.45218">
        <ele>121.6</ele>
        <time>2023-02-01T15:57:24Z</time>
      </trkpt>
      <trkpt lat="43.42078" lon="6.45216">
        <ele>121.7</ele>
        <time>2023-02-01T15:57:27Z</time>
      </trkpt>
      <trkpt lat="43.42075" lon="6.45212">
        <ele>121.7</ele>
        <time>2023-02-01T15:57:30Z</time>
      </trkpt>
      <trkpt lat="43.42072" lon="6.45208">
        <ele>121.6</ele>
        <time>2023-02-01T15:57:33Z</time>
      </trkpt>
      <trkpt lat="43.42068" lon="6.45204">
        <ele>121.5</ele>
        <time>2023-02-01T15:57:36Z</time>
      </trkpt>
      <trkpt lat="43.42067" lon="6.452">
        <ele>121.4</ele>
        <time>2023-02-01T15:57:38Z</time>
      </trkpt>
      <trkpt lat="43.42066" lon="6.45197">
        <ele>121.3</ele>
        <time>2023-02-01T15:57:40Z</time>
      </trkpt>
      <trkpt lat="43.42064" lon="6.45192">
        <ele>121.1</ele>
        <time>2023-02-01T15:57:43Z</time>
      </trkpt>
      <trkpt lat="43.42063" lon="6.45189">
        <ele>120.9</ele>
        <time>2023-02-01T15:57:45Z</time>
      </trkpt>
      <trkpt lat="43.4206" lon="6.45185">
        <ele>120.8</ele>
        <time>2023-02-01T15:57:47Z</time>
      </trkpt>
      <trkpt lat="43.42058" lon="6.4518">
        <ele>120.7</ele>
        <time>2023-02-01T15:57:50Z</time>
      </trkpt>
      <trkpt lat="43.42056" lon="6.45176">
        <ele>120.6</ele>
        <time>2023-02-01T15:57:52Z</time>
      </trkpt>
      <trkpt lat="43.42053" lon="6.45173">
        <ele>120.6</ele>
        <time>2023-02-01T15:57:55Z</time>
      </trkpt>
      <trkpt lat="43.42051" lon="6.45168">
        <ele>120.3</ele>
        <time>2023-02-01T15:57:59Z</time>
      </trkpt>
      <trkpt lat="43.42049" lon="6.45164">
        <ele>120.2</ele>
        <time>2023-02-01T15:58:03Z</time>
      </trkpt>
      <trkpt lat="43.42047" lon="6.4516">
        <ele>120.2</ele>
        <time>2023-02-01T15:58:06Z</time>
      </trkpt>
      <trkpt lat="43.42044" lon="6.45156">
        <ele>120.1</ele>
        <time>2023-02-01T15:58:09Z</time>
      </trkpt>
      <trkpt lat="43.42041" lon="6.45153">
        <ele>120.1</ele>
        <time>2023-02-01T15:58:11Z</time>
      </trkpt>
      <trkpt lat="43.4204" lon="6.45148">
        <ele>120.1</ele>
        <time>2023-02-01T15:58:15Z</time>
      </trkpt>
      <trkpt lat="43.42038" lon="6.45142">
        <ele>119.8</ele>
        <time>2023-02-01T15:58:20Z</time>
      </trkpt>
      <trkpt lat="43.42035" lon="6.45139">
        <ele>120</ele>
        <time>2023-02-01T15:58:23Z</time>
      </trkpt>
      <trkpt lat="43.42033" lon="6.45135">
        <ele>120.1</ele>
        <time>2023-02-01T15:58:26Z</time>
      </trkpt>
      <trkpt lat="43.42031" lon="6.45131">
        <ele>120.2</ele>
        <time>2023-02-01T15:58:28Z</time>
      </trkpt>
      <trkpt lat="43.42028" lon="6.45127">
        <ele>120.3</ele>
        <time>2023-02-01T15:58:30Z</time>
      </trkpt>
      <trkpt lat="43.42025" lon="6.45122">
        <ele>120.2</ele>
        <time>2023-02-01T15:58:34Z</time>
      </trkpt>
      <trkpt lat="43.42022" lon="6.45119">
        <ele>119.7</ele>
        <time>2023-02-01T15:58:39Z</time>
      </trkpt>
      <trkpt lat="43.4202" lon="6.45115">
        <ele>119.9</ele>
        <time>2023-02-01T15:58:41Z</time>
      </trkpt>
      <trkpt lat="43.42018" lon="6.45112">
        <ele>120.1</ele>
        <time>2023-02-01T15:58:43Z</time>
      </trkpt>
      <trkpt lat="43.42016" lon="6.45108">
        <ele>120.3</ele>
        <time>2023-02-01T15:58:45Z</time>
      </trkpt>
      <trkpt lat="43.42014" lon="6.45105">
        <ele>120.6</ele>
        <time>2023-02-01T15:58:47Z</time>
      </trkpt>
      <trkpt lat="43.42011" lon="6.45101">
        <ele>120.4</ele>
        <time>2023-02-01T15:58:52Z</time>
      </trkpt>
      <trkpt lat="43.42008" lon="6.45097">
        <ele>120.8</ele>
        <time>2023-02-01T15:58:55Z</time>
      </trkpt>
      <trkpt lat="43.42005" lon="6.45093">
        <ele>121.1</ele>
        <time>2023-02-01T15:58:57Z</time>
      </trkpt>
      <trkpt lat="43.42003" lon="6.45088">
        <ele>121.3</ele>
        <time>2023-02-01T15:59:00Z</time>
      </trkpt>
      <trkpt lat="43.42" lon="6.45084">
        <ele>121.3</ele>
        <time>2023-02-01T15:59:06Z</time>
      </trkpt>
      <trkpt lat="43.41999" lon="6.45081">
        <ele>121.5</ele>
        <time>2023-02-01T15:59:08Z</time>
      </trkpt>
      <trkpt lat="43.41997" lon="6.45076">
        <ele>121.6</ele>
        <time>2023-02-01T15:59:10Z</time>
      </trkpt>
      <trkpt lat="43.41996" lon="6.45071">
        <ele>121.8</ele>
        <time>2023-02-01T15:59:13Z</time>
      </trkpt>
      <trkpt lat="43.41994" lon="6.45066">
        <ele>121.6</ele>
        <time>2023-02-01T15:59:18Z</time>
      </trkpt>
      <trkpt lat="43.41994" lon="6.45061">
        <ele>121.8</ele>
        <time>2023-02-01T15:59:21Z</time>
      </trkpt>
      <trkpt lat="43.41994" lon="6.45055">
        <ele>121.5</ele>
        <time>2023-02-01T15:59:26Z</time>
      </trkpt>
      <trkpt lat="43.41995" lon="6.45049">
        <ele>122.3</ele>
        <time>2023-02-01T15:59:30Z</time>
      </trkpt>
      <trkpt lat="43.41997" lon="6.45044">
        <ele>122.6</ele>
        <time>2023-02-01T15:59:33Z</time>
      </trkpt>
      <trkpt lat="43.41999" lon="6.45039">
        <ele>122.3</ele>
        <time>2023-02-01T15:59:37Z</time>
      </trkpt>
      <trkpt lat="43.42002" lon="6.45036">
        <ele>122.5</ele>
        <time>2023-02-01T15:59:41Z</time>
      </trkpt>
      <trkpt lat="43.42004" lon="6.45031">
        <ele>122.7</ele>
        <time>2023-02-01T15:59:44Z</time>
      </trkpt>
      <trkpt lat="43.42006" lon="6.45026">
        <ele>122.8</ele>
        <time>2023-02-01T15:59:47Z</time>
      </trkpt>
      <trkpt lat="43.42007" lon="6.4502">
        <ele>122.9</ele>
        <time>2023-02-01T15:59:50Z</time>
      </trkpt>
      <trkpt lat="43.42009" lon="6.45015">
        <ele>122.9</ele>
        <time>2023-02-01T15:59:53Z</time>
      </trkpt>
      <trkpt lat="43.4201" lon="6.4501">
        <ele>122.5</ele>
        <time>2023-02-01T15:59:57Z</time>
      </trkpt>
      <trkpt lat="43.42014" lon="6.45007">
        <ele>122.5</ele>
        <time>2023-02-01T16:00:00Z</time>
      </trkpt>
      <trkpt lat="43.42016" lon="6.45003">
        <ele>122.3</ele>
        <time>2023-02-01T16:00:03Z</time>
      </trkpt>
      <trkpt lat="43.42018" lon="6.44998">
        <ele>122.1</ele>
        <time>2023-02-01T16:00:06Z</time>
      </trkpt>
      <trkpt lat="43.42019" lon="6.44993">
        <ele>121.7</ele>
        <time>2023-02-01T16:00:09Z</time>
      </trkpt>
      <trkpt lat="43.42022" lon="6.4499">
        <ele>121.4</ele>
        <time>2023-02-01T16:00:11Z</time>
      </trkpt>
      <trkpt lat="43.42025" lon="6.44987">
        <ele>121.1</ele>
        <time>2023-02-01T16:00:13Z</time>
      </trkpt>
      <trkpt lat="43.42028" lon="6.44983">
        <ele>120.9</ele>
        <time>2023-02-01T16:00:15Z</time>
      </trkpt>
      <trkpt lat="43.42031" lon="6.4498">
        <ele>120.1</ele>
        <time>2023-02-01T16:00:19Z</time>
      </trkpt>
      <trkpt lat="43.42034" lon="6.44977">
        <ele>119.9</ele>
        <time>2023-02-01T16:00:23Z</time>
      </trkpt>
      <trkpt lat="43.42037" lon="6.44973">
        <ele>119.7</ele>
        <time>2023-02-01T16:00:26Z</time>
      </trkpt>
      <trkpt lat="43.42039" lon="6.44971">
        <ele>119.6</ele>
        <time>2023-02-01T16:00:28Z</time>
      </trkpt>
      <trkpt lat="43.42042" lon="6.44968">
        <ele>119.5</ele>
        <time>2023-02-01T16:00:30Z</time>
      </trkpt>
      <trkpt lat="43.42045" lon="6.44964">
        <ele>119.1</ele>
        <time>2023-02-01T16:00:34Z</time>
      </trkpt>
      <trkpt lat="43.42047" lon="6.44962">
        <ele>118.9</ele>
        <time>2023-02-01T16:00:37Z</time>
      </trkpt>
      <trkpt lat="43.42051" lon="6.44959">
        <ele>118.9</ele>
        <time>2023-02-01T16:00:40Z</time>
      </trkpt>
      <trkpt lat="43.42054" lon="6.44954">
        <ele>118.8</ele>
        <time>2023-02-01T16:00:43Z</time>
      </trkpt>
      <trkpt lat="43.42056" lon="6.4495">
        <ele>118.7</ele>
        <time>2023-02-01T16:00:46Z</time>
      </trkpt>
      <trkpt lat="43.42059" lon="6.44945">
        <ele>118.5</ele>
        <time>2023-02-01T16:00:49Z</time>
      </trkpt>
      <trkpt lat="43.42061" lon="6.44941">
        <ele>118.1</ele>
        <time>2023-02-01T16:00:53Z</time>
      </trkpt>
      <trkpt lat="43.42064" lon="6.44937">
        <ele>117.9</ele>
        <time>2023-02-01T16:00:56Z</time>
      </trkpt>
      <trkpt lat="43.42066" lon="6.44934">
        <ele>117.7</ele>
        <time>2023-02-01T16:00:59Z</time>
      </trkpt>
      <trkpt lat="43.42067" lon="6.44928">
        <ele>117.5</ele>
        <time>2023-02-01T16:01:02Z</time>
      </trkpt>
      <trkpt lat="43.42068" lon="6.44923">
        <ele>117.3</ele>
        <time>2023-02-01T16:01:05Z</time>
      </trkpt>
      <trkpt lat="43.42071" lon="6.44918">
        <ele>116.4</ele>
        <time>2023-02-01T16:01:10Z</time>
      </trkpt>
      <trkpt lat="43.42073" lon="6.44914">
        <ele>116.3</ele>
        <time>2023-02-01T16:01:13Z</time>
      </trkpt>
      <trkpt lat="43.42074" lon="6.44911">
        <ele>116.2</ele>
        <time>2023-02-01T16:01:15Z</time>
      </trkpt>
      <trkpt lat="43.42077" lon="6.44906">
        <ele>116</ele>
        <time>2023-02-01T16:01:18Z</time>
      </trkpt>
      <trkpt lat="43.42079" lon="6.44901">
        <ele>115.2</ele>
        <time>2023-02-01T16:01:23Z</time>
      </trkpt>
      <trkpt lat="43.42079" lon="6.44895">
        <ele>115.2</ele>
        <time>2023-02-01T16:01:26Z</time>
      </trkpt>
      <trkpt lat="43.42081" lon="6.44891">
        <ele>115.2</ele>
        <time>2023-02-01T16:01:29Z</time>
      </trkpt>
      <trkpt lat="43.42082" lon="6.44885">
        <ele>115.1</ele>
        <time>2023-02-01T16:01:32Z</time>
      </trkpt>
      <trkpt lat="43.42085" lon="6.44881">
        <ele>114.6</ele>
        <time>2023-02-01T16:01:37Z</time>
      </trkpt>
      <trkpt lat="43.42088" lon="6.44877">
        <ele>114.8</ele>
        <time>2023-02-01T16:01:39Z</time>
      </trkpt>
      <trkpt lat="43.4209" lon="6.44874">
        <ele>114.9</ele>
        <time>2023-02-01T16:01:41Z</time>
      </trkpt>
      <trkpt lat="43.42092" lon="6.44869">
        <ele>115.1</ele>
        <time>2023-02-01T16:01:43Z</time>
      </trkpt>
      <trkpt lat="43.42095" lon="6.44866">
        <ele>114.7</ele>
        <time>2023-02-01T16:01:47Z</time>
      </trkpt>
      <trkpt lat="43.42098" lon="6.44863">
        <ele>114.9</ele>
        <time>2023-02-01T16:01:51Z</time>
      </trkpt>
      <trkpt lat="43.421" lon="6.44859">
        <ele>115.1</ele>
        <time>2023-02-01T16:01:53Z</time>
      </trkpt>
      <trkpt lat="43.42103" lon="6.44855">
        <ele>115.1</ele>
        <time>2023-02-01T16:01:56Z</time>
      </trkpt>
      <trkpt lat="43.42105" lon="6.44851">
        <ele>115</ele>
        <time>2023-02-01T16:01:59Z</time>
      </trkpt>
      <trkpt lat="43.42107" lon="6.44846">
        <ele>115.4</ele>
        <time>2023-02-01T16:02:02Z</time>
      </trkpt>
      <trkpt lat="43.42109" lon="6.44843">
        <ele>115.6</ele>
        <time>2023-02-01T16:02:04Z</time>
      </trkpt>
      <trkpt lat="43.42112" lon="6.44839">
        <ele>115.6</ele>
        <time>2023-02-01T16:02:07Z</time>
      </trkpt>
      <trkpt lat="43.42115" lon="6.44834">
        <ele>115.8</ele>
        <time>2023-02-01T16:02:11Z</time>
      </trkpt>
      <trkpt lat="43.42117" lon="6.44831">
        <ele>115.9</ele>
        <time>2023-02-01T16:02:13Z</time>
      </trkpt>
      <trkpt lat="43.42118" lon="6.44826">
        <ele>115.9</ele>
        <time>2023-02-01T16:02:15Z</time>
      </trkpt>
      <trkpt lat="43.4212" lon="6.44821">
        <ele>115.5</ele>
        <time>2023-02-01T16:02:19Z</time>
      </trkpt>
      <trkpt lat="43.42121" lon="6.44816">
        <ele>116</ele>
        <time>2023-02-01T16:02:22Z</time>
      </trkpt>
      <trkpt lat="43.42124" lon="6.44812">
        <ele>116.2</ele>
        <time>2023-02-01T16:02:25Z</time>
      </trkpt>
      <trkpt lat="43.42126" lon="6.44807">
        <ele>116</ele>
        <time>2023-02-01T16:02:29Z</time>
      </trkpt>
      <trkpt lat="43.42127" lon="6.44802">
        <ele>116.3</ele>
        <time>2023-02-01T16:02:32Z</time>
      </trkpt>
      <trkpt lat="43.42128" lon="6.44798">
        <ele>116.4</ele>
        <time>2023-02-01T16:02:34Z</time>
      </trkpt>
      <trkpt lat="43.4213" lon="6.44793">
        <ele>116</ele>
        <time>2023-02-01T16:02:38Z</time>
      </trkpt>
      <trkpt lat="43.4213" lon="6.44788">
        <ele>116.4</ele>
        <time>2023-02-01T16:02:41Z</time>
      </trkpt>
      <trkpt lat="43.42133" lon="6.44785">
        <ele>116.6</ele>
        <time>2023-02-01T16:02:43Z</time>
      </trkpt>
      <trkpt lat="43.42134" lon="6.44779">
        <ele>116.8</ele>
        <time>2023-02-01T16:02:46Z</time>
      </trkpt>
      <trkpt lat="43.42134" lon="6.44774">
        <ele>117</ele>
        <time>2023-02-01T16:02:50Z</time>
      </trkpt>
      <trkpt lat="43.42134" lon="6.44767">
        <ele>117.3</ele>
        <time>2023-02-01T16:02:59Z</time>
      </trkpt>
      <trkpt lat="43.42133" lon="6.44762">
        <ele>117.3</ele>
        <time>2023-02-01T16:03:04Z</time>
      </trkpt>
      <trkpt lat="43.42133" lon="6.44756">
        <ele>117.4</ele>
        <time>2023-02-01T16:03:09Z</time>
      </trkpt>
      <trkpt lat="43.42134" lon="6.44751">
        <ele>117.6</ele>
        <time>2023-02-01T16:03:12Z</time>
      </trkpt>
      <trkpt lat="43.42134" lon="6.44745">
        <ele>117.2</ele>
        <time>2023-02-01T16:03:16Z</time>
      </trkpt>
      <trkpt lat="43.42135" lon="6.4474">
        <ele>117.7</ele>
        <time>2023-02-01T16:03:19Z</time>
      </trkpt>
      <trkpt lat="43.42136" lon="6.44736">
        <ele>117.9</ele>
        <time>2023-02-01T16:03:21Z</time>
      </trkpt>
      <trkpt lat="43.42137" lon="6.44731">
        <ele>118.2</ele>
        <time>2023-02-01T16:03:26Z</time>
      </trkpt>
      <trkpt lat="43.42139" lon="6.44725">
        <ele>118.7</ele>
        <time>2023-02-01T16:03:31Z</time>
      </trkpt>
      <trkpt lat="43.4214" lon="6.4472">
        <ele>118.7</ele>
        <time>2023-02-01T16:03:43Z</time>
      </trkpt>
      <trkpt lat="43.42137" lon="6.44718">
        <ele>119</ele>
        <time>2023-02-01T16:03:45Z</time>
      </trkpt>
      <trkpt lat="43.42135" lon="6.44714">
        <ele>119.2</ele>
        <time>2023-02-01T16:03:47Z</time>
      </trkpt>
      <trkpt lat="43.42132" lon="6.44711">
        <ele>119.3</ele>
        <time>2023-02-01T16:03:49Z</time>
      </trkpt>
      <trkpt lat="43.42129" lon="6.44708">
        <ele>119.3</ele>
        <time>2023-02-01T16:03:53Z</time>
      </trkpt>
      <trkpt lat="43.42126" lon="6.44703">
        <ele>119.3</ele>
        <time>2023-02-01T16:03:57Z</time>
      </trkpt>
      <trkpt lat="43.42124" lon="6.447">
        <ele>119.2</ele>
        <time>2023-02-01T16:03:59Z</time>
      </trkpt>
      <trkpt lat="43.42121" lon="6.44697">
        <ele>119.1</ele>
        <time>2023-02-01T16:04:02Z</time>
      </trkpt>
      <trkpt lat="43.42118" lon="6.44694">
        <ele>119.1</ele>
        <time>2023-02-01T16:04:04Z</time>
      </trkpt>
      <trkpt lat="43.42116" lon="6.4469">
        <ele>119.1</ele>
        <time>2023-02-01T16:04:06Z</time>
      </trkpt>
      <trkpt lat="43.42113" lon="6.44686">
        <ele>118.7</ele>
        <time>2023-02-01T16:04:10Z</time>
      </trkpt>
      <trkpt lat="43.4211" lon="6.44682">
        <ele>118.5</ele>
        <time>2023-02-01T16:04:14Z</time>
      </trkpt>
      <trkpt lat="43.42108" lon="6.44679">
        <ele>118.6</ele>
        <time>2023-02-01T16:04:17Z</time>
      </trkpt>
      <trkpt lat="43.42105" lon="6.44676">
        <ele>118.6</ele>
        <time>2023-02-01T16:04:19Z</time>
      </trkpt>
      <trkpt lat="43.42102" lon="6.44673">
        <ele>118.6</ele>
        <time>2023-02-01T16:04:21Z</time>
      </trkpt>
      <trkpt lat="43.421" lon="6.44669">
        <ele>118.1</ele>
        <time>2023-02-01T16:04:25Z</time>
      </trkpt>
      <trkpt lat="43.42097" lon="6.44666">
        <ele>118.2</ele>
        <time>2023-02-01T16:04:29Z</time>
      </trkpt>
      <trkpt lat="43.42095" lon="6.44662">
        <ele>118.3</ele>
        <time>2023-02-01T16:04:31Z</time>
      </trkpt>
      <trkpt lat="43.42093" lon="6.44658">
        <ele>118.3</ele>
        <time>2023-02-01T16:04:33Z</time>
      </trkpt>
      <trkpt lat="43.4209" lon="6.44654">
        <ele>117.9</ele>
        <time>2023-02-01T16:04:38Z</time>
      </trkpt>
      <trkpt lat="43.42088" lon="6.4465">
        <ele>117.9</ele>
        <time>2023-02-01T16:04:41Z</time>
      </trkpt>
      <trkpt lat="43.42088" lon="6.44645">
        <ele>117.6</ele>
        <time>2023-02-01T16:04:45Z</time>
      </trkpt>
      <trkpt lat="43.42087" lon="6.44641">
        <ele>117.5</ele>
        <time>2023-02-01T16:04:48Z</time>
      </trkpt>
      <trkpt lat="43.42084" lon="6.44637">
        <ele>117.3</ele>
        <time>2023-02-01T16:04:52Z</time>
      </trkpt>
      <trkpt lat="43.4208" lon="6.44635">
        <ele>116.9</ele>
        <time>2023-02-01T16:04:56Z</time>
      </trkpt>
      <trkpt lat="43.42078" lon="6.4463">
        <ele>116.7</ele>
        <time>2023-02-01T16:04:58Z</time>
      </trkpt>
      <trkpt lat="43.42077" lon="6.44626">
        <ele>116.6</ele>
        <time>2023-02-01T16:05:00Z</time>
      </trkpt>
      <trkpt lat="43.42076" lon="6.4462">
        <ele>116.3</ele>
        <time>2023-02-01T16:05:05Z</time>
      </trkpt>
      <trkpt lat="43.42074" lon="6.44616">
        <ele>116.1</ele>
        <time>2023-02-01T16:05:09Z</time>
      </trkpt>
      <trkpt lat="43.42072" lon="6.44612">
        <ele>116</ele>
        <time>2023-02-01T16:05:11Z</time>
      </trkpt>
      <trkpt lat="43.42071" lon="6.44607">
        <ele>115.9</ele>
        <time>2023-02-01T16:05:14Z</time>
      </trkpt>
      <trkpt lat="43.4207" lon="6.44602">
        <ele>115.8</ele>
        <time>2023-02-01T16:05:17Z</time>
      </trkpt>
      <trkpt lat="43.42069" lon="6.44597">
        <ele>115.4</ele>
        <time>2023-02-01T16:05:21Z</time>
      </trkpt>
      <trkpt lat="43.42066" lon="6.44594">
        <ele>115.2</ele>
        <time>2023-02-01T16:05:24Z</time>
      </trkpt>
      <trkpt lat="43.42063" lon="6.44589">
        <ele>114.9</ele>
        <time>2023-02-01T16:05:28Z</time>
      </trkpt>
      <trkpt lat="43.4206" lon="6.44585">
        <ele>114.7</ele>
        <time>2023-02-01T16:05:32Z</time>
      </trkpt>
      <trkpt lat="43.42058" lon="6.4458">
        <ele>114.6</ele>
        <time>2023-02-01T16:05:35Z</time>
      </trkpt>
      <trkpt lat="43.42055" lon="6.44576">
        <ele>114.4</ele>
        <time>2023-02-01T16:05:37Z</time>
      </trkpt>
      <trkpt lat="43.42052" lon="6.44572">
        <ele>114.1</ele>
        <time>2023-02-01T16:05:41Z</time>
      </trkpt>
      <trkpt lat="43.4205" lon="6.44569">
        <ele>113.9</ele>
        <time>2023-02-01T16:05:44Z</time>
      </trkpt>
      <trkpt lat="43.42047" lon="6.44566">
        <ele>113.5</ele>
        <time>2023-02-01T16:05:48Z</time>
      </trkpt>
      <trkpt lat="43.42043" lon="6.44563">
        <ele>113.3</ele>
        <time>2023-02-01T16:05:51Z</time>
      </trkpt>
      <trkpt lat="43.4204" lon="6.44561">
        <ele>113</ele>
        <time>2023-02-01T16:05:53Z</time>
      </trkpt>
      <trkpt lat="43.42038" lon="6.44557">
        <ele>112.8</ele>
        <time>2023-02-01T16:05:55Z</time>
      </trkpt>
      <trkpt lat="43.42037" lon="6.44552">
        <ele>111.9</ele>
        <time>2023-02-01T16:05:59Z</time>
      </trkpt>
      <trkpt lat="43.42034" lon="6.44548">
        <ele>111.1</ele>
        <time>2023-02-01T16:06:02Z</time>
      </trkpt>
      <trkpt lat="43.42033" lon="6.44543">
        <ele>110.6</ele>
        <time>2023-02-01T16:06:06Z</time>
      </trkpt>
      <trkpt lat="43.42033" lon="6.44538">
        <ele>110.1</ele>
        <time>2023-02-01T16:06:09Z</time>
      </trkpt>
      <trkpt lat="43.42032" lon="6.44533">
        <ele>109.8</ele>
        <time>2023-02-01T16:06:12Z</time>
      </trkpt>
      <trkpt lat="43.4203" lon="6.44529">
        <ele>109.6</ele>
        <time>2023-02-01T16:06:14Z</time>
      </trkpt>
      <trkpt lat="43.42028" lon="6.44524">
        <ele>109.2</ele>
        <time>2023-02-01T16:06:17Z</time>
      </trkpt>
      <trkpt lat="43.42025" lon="6.4452">
        <ele>108.9</ele>
        <time>2023-02-01T16:06:20Z</time>
      </trkpt>
      <trkpt lat="43.42023" lon="6.44516">
        <ele>108.7</ele>
        <time>2023-02-01T16:06:22Z</time>
      </trkpt>
      <trkpt lat="43.42022" lon="6.44512">
        <ele>108.4</ele>
        <time>2023-02-01T16:06:24Z</time>
      </trkpt>
      <trkpt lat="43.4202" lon="6.44508">
        <ele>108.2</ele>
        <time>2023-02-01T16:06:26Z</time>
      </trkpt>
      <trkpt lat="43.42018" lon="6.44503">
        <ele>108</ele>
        <time>2023-02-01T16:06:28Z</time>
      </trkpt>
      <trkpt lat="43.42018" lon="6.44498">
        <ele>107.5</ele>
        <time>2023-02-01T16:06:32Z</time>
      </trkpt>
      <trkpt lat="43.42018" lon="6.44492">
        <ele>107.2</ele>
        <time>2023-02-01T16:06:38Z</time>
      </trkpt>
      <trkpt lat="43.42019" lon="6.44487">
        <ele>107.4</ele>
        <time>2023-02-01T16:06:40Z</time>
      </trkpt>
      <trkpt lat="43.42019" lon="6.44483">
        <ele>107.6</ele>
        <time>2023-02-01T16:06:42Z</time>
      </trkpt>
      <trkpt lat="43.42021" lon="6.44478">
        <ele>107.2</ele>
        <time>2023-02-01T16:06:46Z</time>
      </trkpt>
      <trkpt lat="43.42021" lon="6.44473">
        <ele>107.6</ele>
        <time>2023-02-01T16:06:49Z</time>
      </trkpt>
      <trkpt lat="43.42023" lon="6.44469">
        <ele>107.8</ele>
        <time>2023-02-01T16:06:51Z</time>
      </trkpt>
      <trkpt lat="43.42024" lon="6.44463">
        <ele>108</ele>
        <time>2023-02-01T16:06:55Z</time>
      </trkpt>
      <trkpt lat="43.42025" lon="6.44458">
        <ele>107.9</ele>
        <time>2023-02-01T16:06:59Z</time>
      </trkpt>
      <trkpt lat="43.42025" lon="6.44454">
        <ele>108.2</ele>
        <time>2023-02-01T16:07:03Z</time>
      </trkpt>
      <trkpt lat="43.42026" lon="6.44449">
        <ele>108.5</ele>
        <time>2023-02-01T16:07:06Z</time>
      </trkpt>
      <trkpt lat="43.42027" lon="6.44444">
        <ele>108.7</ele>
        <time>2023-02-01T16:07:10Z</time>
      </trkpt>
      <trkpt lat="43.42027" lon="6.44438">
        <ele>108.7</ele>
        <time>2023-02-01T16:07:16Z</time>
      </trkpt>
      <trkpt lat="43.42023" lon="6.44436">
        <ele>108.6</ele>
        <time>2023-02-01T16:07:18Z</time>
      </trkpt>
      <trkpt lat="43.4202" lon="6.44432">
        <ele>108.4</ele>
        <time>2023-02-01T16:07:21Z</time>
      </trkpt>
      <trkpt lat="43.42017" lon="6.4443">
        <ele>108</ele>
        <time>2023-02-01T16:07:23Z</time>
      </trkpt>
      <trkpt lat="43.42015" lon="6.44427">
        <ele>107.5</ele>
        <time>2023-02-01T16:07:26Z</time>
      </trkpt>
      <trkpt lat="43.42013" lon="6.44422">
        <ele>106.5</ele>
        <time>2023-02-01T16:07:31Z</time>
      </trkpt>
      <trkpt lat="43.42013" lon="6.44416">
        <ele>105.9</ele>
        <time>2023-02-01T16:07:36Z</time>
      </trkpt>
      <trkpt lat="43.42011" lon="6.44413">
        <ele>105.8</ele>
        <time>2023-02-01T16:07:38Z</time>
      </trkpt>
      <trkpt lat="43.42009" lon="6.44409">
        <ele>105</ele>
        <time>2023-02-01T16:07:42Z</time>
      </trkpt>
      <trkpt lat="43.42006" lon="6.44405">
        <ele>104.6</ele>
        <time>2023-02-01T16:07:46Z</time>
      </trkpt>
      <trkpt lat="43.42003" lon="6.44402">
        <ele>104.4</ele>
        <time>2023-02-01T16:07:48Z</time>
      </trkpt>
      <trkpt lat="43.42" lon="6.444">
        <ele>104.2</ele>
        <time>2023-02-01T16:07:50Z</time>
      </trkpt>
      <trkpt lat="43.41996" lon="6.44398">
        <ele>104</ele>
        <time>2023-02-01T16:07:52Z</time>
      </trkpt>
      <trkpt lat="43.41993" lon="6.44397">
        <ele>103.8</ele>
        <time>2023-02-01T16:07:54Z</time>
      </trkpt>
      <trkpt lat="43.4199" lon="6.44396">
        <ele>103.6</ele>
        <time>2023-02-01T16:07:56Z</time>
      </trkpt>
      <trkpt lat="43.41987" lon="6.44396">
        <ele>103.5</ele>
        <time>2023-02-01T16:07:57Z</time>
      </trkpt>
      <trkpt lat="43.41983" lon="6.44395">
        <ele>103.3</ele>
        <time>2023-02-01T16:08:00Z</time>
      </trkpt>
      <trkpt lat="43.41979" lon="6.44394">
        <ele>103.1</ele>
        <time>2023-02-01T16:08:02Z</time>
      </trkpt>
      <trkpt lat="43.41975" lon="6.44391">
        <ele>102.9</ele>
        <time>2023-02-01T16:08:05Z</time>
      </trkpt>
      <trkpt lat="43.41971" lon="6.4439">
        <ele>102.7</ele>
        <time>2023-02-01T16:08:08Z</time>
      </trkpt>
      <trkpt lat="43.41968" lon="6.44389">
        <ele>102.4</ele>
        <time>2023-02-01T16:08:12Z</time>
      </trkpt>
      <trkpt lat="43.41964" lon="6.44388">
        <ele>102.1</ele>
        <time>2023-02-01T16:08:16Z</time>
      </trkpt>
      <trkpt lat="43.4196" lon="6.44387">
        <ele>101.8</ele>
        <time>2023-02-01T16:08:19Z</time>
      </trkpt>
      <trkpt lat="43.41957" lon="6.44383">
        <ele>101.2</ele>
        <time>2023-02-01T16:08:24Z</time>
      </trkpt>
      <trkpt lat="43.41955" lon="6.4438">
        <ele>100.8</ele>
        <time>2023-02-01T16:08:27Z</time>
      </trkpt>
      <trkpt lat="43.41953" lon="6.44376">
        <ele>100.6</ele>
        <time>2023-02-01T16:08:29Z</time>
      </trkpt>
      <trkpt lat="43.41952" lon="6.44374">
        <ele>100.5</ele>
        <time>2023-02-01T16:08:30Z</time>
      </trkpt>
      <trkpt lat="43.4195" lon="6.44371">
        <ele>100.5</ele>
        <time>2023-02-01T16:08:31Z</time>
      </trkpt>
      <trkpt lat="43.41948" lon="6.44367">
        <ele>100.2</ele>
        <time>2023-02-01T16:08:33Z</time>
      </trkpt>
      <trkpt lat="43.41947" lon="6.44362">
        <ele>99.5</ele>
        <time>2023-02-01T16:08:38Z</time>
      </trkpt>
      <trkpt lat="43.41947" lon="6.44356">
        <ele>99.1</ele>
        <time>2023-02-01T16:08:41Z</time>
      </trkpt>
      <trkpt lat="43.41948" lon="6.4435">
        <ele>98.6</ele>
        <time>2023-02-01T16:08:46Z</time>
      </trkpt>
      <trkpt lat="43.41951" lon="6.44347">
        <ele>98.1</ele>
        <time>2023-02-01T16:08:53Z</time>
      </trkpt>
      <trkpt lat="43.41956" lon="6.44347">
        <ele>97.3</ele>
        <time>2023-02-01T16:09:16Z</time>
      </trkpt>
      <trkpt lat="43.4196" lon="6.44348">
        <ele>96.9</ele>
        <time>2023-02-01T16:09:24Z</time>
      </trkpt>
      <trkpt lat="43.41964" lon="6.44348">
        <ele>97.1</ele>
        <time>2023-02-01T16:09:27Z</time>
      </trkpt>
      <trkpt lat="43.41968" lon="6.44348">
        <ele>97.5</ele>
        <time>2023-02-01T16:09:30Z</time>
      </trkpt>
      <trkpt lat="43.41972" lon="6.44349">
        <ele>97.6</ele>
        <time>2023-02-01T16:09:34Z</time>
      </trkpt>
      <trkpt lat="43.41974" lon="6.44349">
        <ele>97.7</ele>
        <time>2023-02-01T16:09:36Z</time>
      </trkpt>
      <trkpt lat="43.41978" lon="6.44348">
        <ele>98</ele>
        <time>2023-02-01T16:09:38Z</time>
      </trkpt>
      <trkpt lat="43.41981" lon="6.44344">
        <ele>98.4</ele>
        <time>2023-02-01T16:09:42Z</time>
      </trkpt>
      <trkpt lat="43.41983" lon="6.44339">
        <ele>98.5</ele>
        <time>2023-02-01T16:09:46Z</time>
      </trkpt>
      <trkpt lat="43.41983" lon="6.44333">
        <ele>98.5</ele>
        <time>2023-02-01T16:09:49Z</time>
      </trkpt>
      <trkpt lat="43.41985" lon="6.44327">
        <ele>98.1</ele>
        <time>2023-02-01T16:09:54Z</time>
      </trkpt>
      <trkpt lat="43.41984" lon="6.44321">
        <ele>97.9</ele>
        <time>2023-02-01T16:09:57Z</time>
      </trkpt>
      <trkpt lat="43.41985" lon="6.44317">
        <ele>97.9</ele>
        <time>2023-02-01T16:09:59Z</time>
      </trkpt>
      <trkpt lat="43.41986" lon="6.44313">
        <ele>97.9</ele>
        <time>2023-02-01T16:10:01Z</time>
      </trkpt>
      <trkpt lat="43.41986" lon="6.44307">
        <ele>97.7</ele>
        <time>2023-02-01T16:10:06Z</time>
      </trkpt>
      <trkpt lat="43.41986" lon="6.44302">
        <ele>97.5</ele>
        <time>2023-02-01T16:10:09Z</time>
      </trkpt>
      <trkpt lat="43.41986" lon="6.44297">
        <ele>97.2</ele>
        <time>2023-02-01T16:10:11Z</time>
      </trkpt>
      <trkpt lat="43.41986" lon="6.44291">
        <ele>97.1</ele>
        <time>2023-02-01T16:10:14Z</time>
      </trkpt>
      <trkpt lat="43.41987" lon="6.44287">
        <ele>96.9</ele>
        <time>2023-02-01T16:10:18Z</time>
      </trkpt>
      <trkpt lat="43.41987" lon="6.44282">
        <ele>96.7</ele>
        <time>2023-02-01T16:10:21Z</time>
      </trkpt>
      <trkpt lat="43.41988" lon="6.44277">
        <ele>96.7</ele>
        <time>2023-02-01T16:10:23Z</time>
      </trkpt>
      <trkpt lat="43.4199" lon="6.44272">
        <ele>96.2</ele>
        <time>2023-02-01T16:10:28Z</time>
      </trkpt>
      <trkpt lat="43.41991" lon="6.44267">
        <ele>95.4</ele>
        <time>2023-02-01T16:10:31Z</time>
      </trkpt>
      <trkpt lat="43.41992" lon="6.44263">
        <ele>96.2</ele>
        <time>2023-02-01T16:10:33Z</time>
      </trkpt>
      <trkpt lat="43.41994" lon="6.44259">
        <ele>96.2</ele>
        <time>2023-02-01T16:10:38Z</time>
      </trkpt>
      <trkpt lat="43.41996" lon="6.44255">
        <ele>96.2</ele>
        <time>2023-02-01T16:10:40Z</time>
      </trkpt>
      <trkpt lat="43.41998" lon="6.44251">
        <ele>98.9</ele>
        <time>2023-02-01T16:10:46Z</time>
      </trkpt>
      <trkpt lat="43.42002" lon="6.44251">
        <ele>99.7</ele>
        <time>2023-02-01T16:10:49Z</time>
      </trkpt>
      <trkpt lat="43.42005" lon="6.44251">
        <ele>100.3</ele>
        <time>2023-02-01T16:10:53Z</time>
      </trkpt>
      <trkpt lat="43.42009" lon="6.44252">
        <ele>100.3</ele>
        <time>2023-02-01T16:10:56Z</time>
      </trkpt>
      <trkpt lat="43.42014" lon="6.44252">
        <ele>100.4</ele>
        <time>2023-02-01T16:11:00Z</time>
      </trkpt>
      <trkpt lat="43.42015" lon="6.44246">
        <ele>100.5</ele>
        <time>2023-02-01T16:11:03Z</time>
      </trkpt>
      <trkpt lat="43.42017" lon="6.44241">
        <ele>100.4</ele>
        <time>2023-02-01T16:11:07Z</time>
      </trkpt>
      <trkpt lat="43.42016" lon="6.44235">
        <ele>100.3</ele>
        <time>2023-02-01T16:11:10Z</time>
      </trkpt>
      <trkpt lat="43.42017" lon="6.44231">
        <ele>100.6</ele>
        <time>2023-02-01T16:11:12Z</time>
      </trkpt>
      <trkpt lat="43.42018" lon="6.44226">
        <ele>101</ele>
        <time>2023-02-01T16:11:17Z</time>
      </trkpt>
      <trkpt lat="43.42019" lon="6.4422">
        <ele>100.9</ele>
        <time>2023-02-01T16:11:22Z</time>
      </trkpt>
      <trkpt lat="43.42019" lon="6.44216">
        <ele>101.1</ele>
        <time>2023-02-01T16:11:24Z</time>
      </trkpt>
      <trkpt lat="43.42018" lon="6.4421">
        <ele>101.2</ele>
        <time>2023-02-01T16:11:26Z</time>
      </trkpt>
      <trkpt lat="43.42019" lon="6.44205">
        <ele>101.2</ele>
        <time>2023-02-01T16:11:30Z</time>
      </trkpt>
      <trkpt lat="43.42019" lon="6.442">
        <ele>101.1</ele>
        <time>2023-02-01T16:11:33Z</time>
      </trkpt>
      <trkpt lat="43.42019" lon="6.44196">
        <ele>101.2</ele>
        <time>2023-02-01T16:11:35Z</time>
      </trkpt>
      <trkpt lat="43.42019" lon="6.44191">
        <ele>101.1</ele>
        <time>2023-02-01T16:11:39Z</time>
      </trkpt>
      <trkpt lat="43.42019" lon="6.44186">
        <ele>101.1</ele>
        <time>2023-02-01T16:11:42Z</time>
      </trkpt>
      <trkpt lat="43.42019" lon="6.44182">
        <ele>101</ele>
        <time>2023-02-01T16:11:44Z</time>
      </trkpt>
      <trkpt lat="43.4202" lon="6.44177">
        <ele>101</ele>
        <time>2023-02-01T16:11:46Z</time>
      </trkpt>
      <trkpt lat="43.4202" lon="6.44172">
        <ele>100.9</ele>
        <time>2023-02-01T16:11:49Z</time>
      </trkpt>
      <trkpt lat="43.42018" lon="6.44167">
        <ele>100.4</ele>
        <time>2023-02-01T16:11:53Z</time>
      </trkpt>
      <trkpt lat="43.42019" lon="6.44162">
        <ele>100.1</ele>
        <time>2023-02-01T16:11:56Z</time>
      </trkpt>
      <trkpt lat="43.42019" lon="6.44158">
        <ele>99.7</ele>
        <time>2023-02-01T16:11:58Z</time>
      </trkpt>
      <trkpt lat="43.42019" lon="6.44152">
        <ele>99.6</ele>
        <time>2023-02-01T16:12:00Z</time>
      </trkpt>
      <trkpt lat="43.4202" lon="6.44147">
        <ele>99.4</ele>
        <time>2023-02-01T16:12:03Z</time>
      </trkpt>
      <trkpt lat="43.42021" lon="6.44141">
        <ele>99.2</ele>
        <time>2023-02-01T16:12:08Z</time>
      </trkpt>
      <trkpt lat="43.42021" lon="6.44136">
        <ele>98.9</ele>
        <time>2023-02-01T16:12:11Z</time>
      </trkpt>
      <trkpt lat="43.42021" lon="6.44132">
        <ele>98.7</ele>
        <time>2023-02-01T16:12:13Z</time>
      </trkpt>
      <trkpt lat="43.42021" lon="6.44127">
        <ele>98.8</ele>
        <time>2023-02-01T16:12:15Z</time>
      </trkpt>
      <trkpt lat="43.42021" lon="6.44121">
        <ele>98.6</ele>
        <time>2023-02-01T16:12:19Z</time>
      </trkpt>
      <trkpt lat="43.4202" lon="6.44116">
        <ele>98.3</ele>
        <time>2023-02-01T16:12:23Z</time>
      </trkpt>
      <trkpt lat="43.42019" lon="6.44111">
        <ele>97.9</ele>
        <time>2023-02-01T16:12:26Z</time>
      </trkpt>
      <trkpt lat="43.42019" lon="6.44105">
        <ele>97.7</ele>
        <time>2023-02-01T16:12:29Z</time>
      </trkpt>
      <trkpt lat="43.42019" lon="6.44101">
        <ele>97.7</ele>
        <time>2023-02-01T16:12:31Z</time>
      </trkpt>
      <trkpt lat="43.42018" lon="6.44095">
        <ele>97.5</ele>
        <time>2023-02-01T16:12:34Z</time>
      </trkpt>
      <trkpt lat="43.42018" lon="6.44091">
        <ele>97</ele>
        <time>2023-02-01T16:12:38Z</time>
      </trkpt>
      <trkpt lat="43.42016" lon="6.44085">
        <ele>96.8</ele>
        <time>2023-02-01T16:12:41Z</time>
      </trkpt>
      <trkpt lat="43.42015" lon="6.44081">
        <ele>96.5</ele>
        <time>2023-02-01T16:12:43Z</time>
      </trkpt>
      <trkpt lat="43.42014" lon="6.44076">
        <ele>96.4</ele>
        <time>2023-02-01T16:12:45Z</time>
      </trkpt>
      <trkpt lat="43.42013" lon="6.44071">
        <ele>96.2</ele>
        <time>2023-02-01T16:12:48Z</time>
      </trkpt>
      <trkpt lat="43.42014" lon="6.44065">
        <ele>96</ele>
        <time>2023-02-01T16:12:53Z</time>
      </trkpt>
      <trkpt lat="43.42015" lon="6.44061">
        <ele>95.9</ele>
        <time>2023-02-01T16:12:55Z</time>
      </trkpt>
      <trkpt lat="43.42017" lon="6.44056">
        <ele>96</ele>
        <time>2023-02-01T16:12:58Z</time>
      </trkpt>
      <trkpt lat="43.42015" lon="6.44051">
        <ele>95.8</ele>
        <time>2023-02-01T16:13:02Z</time>
      </trkpt>
      <trkpt lat="43.42014" lon="6.44046">
        <ele>95.7</ele>
        <time>2023-02-01T16:13:05Z</time>
      </trkpt>
      <trkpt lat="43.42013" lon="6.44041">
        <ele>95.7</ele>
        <time>2023-02-01T16:13:07Z</time>
      </trkpt>
      <trkpt lat="43.42012" lon="6.44036">
        <ele>95.6</ele>
        <time>2023-02-01T16:13:10Z</time>
      </trkpt>
      <trkpt lat="43.42013" lon="6.44031">
        <ele>95.4</ele>
        <time>2023-02-01T16:13:14Z</time>
      </trkpt>
      <trkpt lat="43.42011" lon="6.44025">
        <ele>95.2</ele>
        <time>2023-02-01T16:13:17Z</time>
      </trkpt>
      <trkpt lat="43.4201" lon="6.4402">
        <ele>95.1</ele>
        <time>2023-02-01T16:13:19Z</time>
      </trkpt>
      <trkpt lat="43.42009" lon="6.44015">
        <ele>95.1</ele>
        <time>2023-02-01T16:13:21Z</time>
      </trkpt>
      <trkpt lat="43.42008" lon="6.4401">
        <ele>94.9</ele>
        <time>2023-02-01T16:13:26Z</time>
      </trkpt>
      <trkpt lat="43.42007" lon="6.44005">
        <ele>94.8</ele>
        <time>2023-02-01T16:13:29Z</time>
      </trkpt>
      <trkpt lat="43.42007" lon="6.43998">
        <ele>94.8</ele>
        <time>2023-02-01T16:13:32Z</time>
      </trkpt>
      <trkpt lat="43.42007" lon="6.43993">
        <ele>94.7</ele>
        <time>2023-02-01T16:13:36Z</time>
      </trkpt>
      <trkpt lat="43.42005" lon="6.43988">
        <ele>94.6</ele>
        <time>2023-02-01T16:13:39Z</time>
      </trkpt>
      <trkpt lat="43.42003" lon="6.43983">
        <ele>94.5</ele>
        <time>2023-02-01T16:13:42Z</time>
      </trkpt>
      <trkpt lat="43.42003" lon="6.43979">
        <ele>94.5</ele>
        <time>2023-02-01T16:13:44Z</time>
      </trkpt>
      <trkpt lat="43.42002" lon="6.43974">
        <ele>94.5</ele>
        <time>2023-02-01T16:13:46Z</time>
      </trkpt>
      <trkpt lat="43.42" lon="6.43969">
        <ele>94.3</ele>
        <time>2023-02-01T16:13:51Z</time>
      </trkpt>
      <trkpt lat="43.42" lon="6.43964">
        <ele>94.1</ele>
        <time>2023-02-01T16:13:54Z</time>
      </trkpt>
      <trkpt lat="43.41999" lon="6.43958">
        <ele>94</ele>
        <time>2023-02-01T16:13:58Z</time>
      </trkpt>
      <trkpt lat="43.41998" lon="6.43952">
        <ele>94</ele>
        <time>2023-02-01T16:14:02Z</time>
      </trkpt>
      <trkpt lat="43.41997" lon="6.43946">
        <ele>94</ele>
        <time>2023-02-01T16:14:05Z</time>
      </trkpt>
      <trkpt lat="43.41998" lon="6.43941">
        <ele>93.9</ele>
        <time>2023-02-01T16:14:10Z</time>
      </trkpt>
      <trkpt lat="43.41997" lon="6.43935">
        <ele>93.9</ele>
        <time>2023-02-01T16:14:14Z</time>
      </trkpt>
      <trkpt lat="43.41996" lon="6.43929">
        <ele>93.7</ele>
        <time>2023-02-01T16:14:19Z</time>
      </trkpt>
      <trkpt lat="43.41994" lon="6.43925">
        <ele>93.3</ele>
        <time>2023-02-01T16:14:24Z</time>
      </trkpt>
      <trkpt lat="43.4199" lon="6.43922">
        <ele>93.3</ele>
        <time>2023-02-01T16:14:27Z</time>
      </trkpt>
      <trkpt lat="43.41989" lon="6.43917">
        <ele>93.3</ele>
        <time>2023-02-01T16:14:31Z</time>
      </trkpt>
      <trkpt lat="43.41987" lon="6.43915">
        <ele>93.3</ele>
        <time>2023-02-01T16:14:33Z</time>
      </trkpt>
      <trkpt lat="43.41986" lon="6.4391">
        <ele>93.3</ele>
        <time>2023-02-01T16:14:35Z</time>
      </trkpt>
      <trkpt lat="43.41986" lon="6.43904">
        <ele>93.2</ele>
        <time>2023-02-01T16:14:40Z</time>
      </trkpt>
      <trkpt lat="43.41987" lon="6.43899">
        <ele>92.9</ele>
        <time>2023-02-01T16:14:47Z</time>
      </trkpt>
      <trkpt lat="43.41986" lon="6.43894">
        <ele>92.6</ele>
        <time>2023-02-01T16:14:50Z</time>
      </trkpt>
      <trkpt lat="43.41985" lon="6.43889">
        <ele>92.6</ele>
        <time>2023-02-01T16:14:52Z</time>
      </trkpt>
      <trkpt lat="43.41985" lon="6.43883">
        <ele>92.5</ele>
        <time>2023-02-01T16:14:55Z</time>
      </trkpt>
      <trkpt lat="43.41985" lon="6.43877">
        <ele>92.1</ele>
        <time>2023-02-01T16:15:00Z</time>
      </trkpt>
      <trkpt lat="43.41986" lon="6.43873">
        <ele>92.1</ele>
        <time>2023-02-01T16:15:02Z</time>
      </trkpt>
      <trkpt lat="43.41987" lon="6.43868">
        <ele>92.4</ele>
        <time>2023-02-01T16:15:04Z</time>
      </trkpt>
      <trkpt lat="43.41987" lon="6.43863">
        <ele>92.6</ele>
        <time>2023-02-01T16:15:07Z</time>
      </trkpt>
      <trkpt lat="43.41987" lon="6.43857">
        <ele>92.3</ele>
        <time>2023-02-01T16:15:12Z</time>
      </trkpt>
      <trkpt lat="43.41987" lon="6.43851">
        <ele>92.5</ele>
        <time>2023-02-01T16:15:15Z</time>
      </trkpt>
      <trkpt lat="43.41987" lon="6.43846">
        <ele>92.7</ele>
        <time>2023-02-01T16:15:17Z</time>
      </trkpt>
      <trkpt lat="43.41987" lon="6.4384">
        <ele>92.9</ele>
        <time>2023-02-01T16:15:19Z</time>
      </trkpt>
      <trkpt lat="43.41987" lon="6.43834">
        <ele>92.5</ele>
        <time>2023-02-01T16:15:24Z</time>
      </trkpt>
      <trkpt lat="43.41987" lon="6.43829">
        <ele>92.8</ele>
        <time>2023-02-01T16:15:27Z</time>
      </trkpt>
      <trkpt lat="43.41987" lon="6.43824">
        <ele>92.9</ele>
        <time>2023-02-01T16:15:29Z</time>
      </trkpt>
      <trkpt lat="43.41986" lon="6.43819">
        <ele>93.2</ele>
        <time>2023-02-01T16:15:31Z</time>
      </trkpt>
      <trkpt lat="43.41986" lon="6.43813">
        <ele>93.4</ele>
        <time>2023-02-01T16:15:35Z</time>
      </trkpt>
      <trkpt lat="43.41987" lon="6.43808">
        <ele>93.1</ele>
        <time>2023-02-01T16:15:39Z</time>
      </trkpt>
      <trkpt lat="43.41986" lon="6.43804">
        <ele>93.5</ele>
        <time>2023-02-01T16:15:41Z</time>
      </trkpt>
      <trkpt lat="43.41985" lon="6.43798">
        <ele>93.9</ele>
        <time>2023-02-01T16:15:46Z</time>
      </trkpt>
      <trkpt lat="43.41983" lon="6.43793">
        <ele>93.7</ele>
        <time>2023-02-01T16:15:54Z</time>
      </trkpt>
      <trkpt lat="43.41981" lon="6.43789">
        <ele>93.7</ele>
        <time>2023-02-01T16:15:57Z</time>
      </trkpt>
      <trkpt lat="43.41978" lon="6.43786">
        <ele>93.8</ele>
        <time>2023-02-01T16:15:59Z</time>
      </trkpt>
      <trkpt lat="43.41975" lon="6.43783">
        <ele>93.9</ele>
        <time>2023-02-01T16:16:01Z</time>
      </trkpt>
      <trkpt lat="43.41971" lon="6.4378">
        <ele>93.8</ele>
        <time>2023-02-01T16:16:06Z</time>
      </trkpt>
      <trkpt lat="43.41968" lon="6.43779">
        <ele>93.9</ele>
        <time>2023-02-01T16:16:09Z</time>
      </trkpt>
      <trkpt lat="43.41965" lon="6.43778">
        <ele>93.9</ele>
        <time>2023-02-01T16:16:11Z</time>
      </trkpt>
      <trkpt lat="43.41961" lon="6.43775">
        <ele>94.1</ele>
        <time>2023-02-01T16:16:14Z</time>
      </trkpt>
      <trkpt lat="43.41957" lon="6.43773">
        <ele>93.9</ele>
        <time>2023-02-01T16:16:18Z</time>
      </trkpt>
      <trkpt lat="43.41954" lon="6.43771">
        <ele>94</ele>
        <time>2023-02-01T16:16:21Z</time>
      </trkpt>
      <trkpt lat="43.4195" lon="6.43769">
        <ele>94.1</ele>
        <time>2023-02-01T16:16:23Z</time>
      </trkpt>
      <trkpt lat="43.41947" lon="6.43767">
        <ele>94.3</ele>
        <time>2023-02-01T16:16:25Z</time>
      </trkpt>
      <trkpt lat="43.41944" lon="6.43765">
        <ele>94.2</ele>
        <time>2023-02-01T16:16:30Z</time>
      </trkpt>
      <trkpt lat="43.41941" lon="6.43762">
        <ele>94.4</ele>
        <time>2023-02-01T16:16:33Z</time>
      </trkpt>
      <trkpt lat="43.41938" lon="6.43757">
        <ele>94.5</ele>
        <time>2023-02-01T16:16:38Z</time>
      </trkpt>
      <trkpt lat="43.41939" lon="6.43752">
        <ele>94.8</ele>
        <time>2023-02-01T16:16:43Z</time>
      </trkpt>
      <trkpt lat="43.41941" lon="6.43747">
        <ele>94.9</ele>
        <time>2023-02-01T16:16:48Z</time>
      </trkpt>
      <trkpt lat="43.41942" lon="6.43743">
        <ele>94.7</ele>
        <time>2023-02-01T16:16:52Z</time>
      </trkpt>
      <trkpt lat="43.41943" lon="6.43738">
        <ele>95</ele>
        <time>2023-02-01T16:16:54Z</time>
      </trkpt>
      <trkpt lat="43.41943" lon="6.43732">
        <ele>95.3</ele>
        <time>2023-02-01T16:16:58Z</time>
      </trkpt>
      <trkpt lat="43.41943" lon="6.43728">
        <ele>95.2</ele>
        <time>2023-02-01T16:17:01Z</time>
      </trkpt>
      <trkpt lat="43.41944" lon="6.43724">
        <ele>95.4</ele>
        <time>2023-02-01T16:17:03Z</time>
      </trkpt>
      <trkpt lat="43.41946" lon="6.43719">
        <ele>95.6</ele>
        <time>2023-02-01T16:17:05Z</time>
      </trkpt>
      <trkpt lat="43.41947" lon="6.43713">
        <ele>95.4</ele>
        <time>2023-02-01T16:17:09Z</time>
      </trkpt>
      <trkpt lat="43.41949" lon="6.43708">
        <ele>95.7</ele>
        <time>2023-02-01T16:17:13Z</time>
      </trkpt>
      <trkpt lat="43.41949" lon="6.43704">
        <ele>95.9</ele>
        <time>2023-02-01T16:17:15Z</time>
      </trkpt>
      <trkpt lat="43.41951" lon="6.43699">
        <ele>96.1</ele>
        <time>2023-02-01T16:17:19Z</time>
      </trkpt>
      <trkpt lat="43.41952" lon="6.43694">
        <ele>96.3</ele>
        <time>2023-02-01T16:17:22Z</time>
      </trkpt>
      <trkpt lat="43.41953" lon="6.43689">
        <ele>96.3</ele>
        <time>2023-02-01T16:17:24Z</time>
      </trkpt>
      <trkpt lat="43.41954" lon="6.43684">
        <ele>96.1</ele>
        <time>2023-02-01T16:17:29Z</time>
      </trkpt>
      <trkpt lat="43.41954" lon="6.43678">
        <ele>96.4</ele>
        <time>2023-02-01T16:17:32Z</time>
      </trkpt>
      <trkpt lat="43.41955" lon="6.43672">
        <ele>96.6</ele>
        <time>2023-02-01T16:17:35Z</time>
      </trkpt>
      <trkpt lat="43.41956" lon="6.43667">
        <ele>97.2</ele>
        <time>2023-02-01T16:17:40Z</time>
      </trkpt>
      <trkpt lat="43.41957" lon="6.43662">
        <ele>97.4</ele>
        <time>2023-02-01T16:17:42Z</time>
      </trkpt>
      <trkpt lat="43.41958" lon="6.43656">
        <ele>97.5</ele>
        <time>2023-02-01T16:17:45Z</time>
      </trkpt>
      <trkpt lat="43.41958" lon="6.43652">
        <ele>98.1</ele>
        <time>2023-02-01T16:17:51Z</time>
      </trkpt>
      <trkpt lat="43.41958" lon="6.43647">
        <ele>98.3</ele>
        <time>2023-02-01T16:17:53Z</time>
      </trkpt>
      <trkpt lat="43.41959" lon="6.43642">
        <ele>98.5</ele>
        <time>2023-02-01T16:17:55Z</time>
      </trkpt>
      <trkpt lat="43.41959" lon="6.43636">
        <ele>98.6</ele>
        <time>2023-02-01T16:18:00Z</time>
      </trkpt>
      <trkpt lat="43.41961" lon="6.43632">
        <ele>99.1</ele>
        <time>2023-02-01T16:18:03Z</time>
      </trkpt>
      <trkpt lat="43.41961" lon="6.43626">
        <ele>99.2</ele>
        <time>2023-02-01T16:18:07Z</time>
      </trkpt>
      <trkpt lat="43.41962" lon="6.43622">
        <ele>99.5</ele>
        <time>2023-02-01T16:18:10Z</time>
      </trkpt>
      <trkpt lat="43.41962" lon="6.43617">
        <ele>99.6</ele>
        <time>2023-02-01T16:18:13Z</time>
      </trkpt>
      <trkpt lat="43.41962" lon="6.43612">
        <ele>100</ele>
        <time>2023-02-01T16:18:18Z</time>
      </trkpt>
      <trkpt lat="43.41962" lon="6.43606">
        <ele>100.6</ele>
        <time>2023-02-01T16:18:20Z</time>
      </trkpt>
      <trkpt lat="43.41964" lon="6.43601">
        <ele>100.6</ele>
        <time>2023-02-01T16:18:24Z</time>
      </trkpt>
      <trkpt lat="43.41965" lon="6.43596">
        <ele>101.1</ele>
        <time>2023-02-01T16:18:26Z</time>
      </trkpt>
      <trkpt lat="43.41966" lon="6.4359">
        <ele>100.7</ele>
        <time>2023-02-01T16:18:31Z</time>
      </trkpt>
      <trkpt lat="43.41966" lon="6.43587">
        <ele>101.2</ele>
        <time>2023-02-01T16:18:33Z</time>
      </trkpt>
      <trkpt lat="43.41967" lon="6.43581">
        <ele>101.8</ele>
        <time>2023-02-01T16:18:36Z</time>
      </trkpt>
      <trkpt lat="43.41967" lon="6.43576">
        <ele>102.4</ele>
        <time>2023-02-01T16:18:40Z</time>
      </trkpt>
      <trkpt lat="43.41968" lon="6.4357">
        <ele>103.4</ele>
        <time>2023-02-01T16:18:45Z</time>
      </trkpt>
      <trkpt lat="43.41966" lon="6.43564">
        <ele>104</ele>
        <time>2023-02-01T16:18:52Z</time>
      </trkpt>
      <trkpt lat="43.41964" lon="6.43559">
        <ele>104.2</ele>
        <time>2023-02-01T16:18:56Z</time>
      </trkpt>
      <trkpt lat="43.41963" lon="6.43555">
        <ele>103</ele>
        <time>2023-02-01T16:18:59Z</time>
      </trkpt>
      <trkpt lat="43.41962" lon="6.4355">
        <ele>104.3</ele>
        <time>2023-02-01T16:19:03Z</time>
      </trkpt>
      <trkpt lat="43.41963" lon="6.43545">
        <ele>105</ele>
        <time>2023-02-01T16:19:08Z</time>
      </trkpt>
      <trkpt lat="43.41967" lon="6.43543">
        <ele>105.9</ele>
        <time>2023-02-01T16:19:14Z</time>
      </trkpt>
      <trkpt lat="43.41971" lon="6.43544">
        <ele>106.4</ele>
        <time>2023-02-01T16:19:21Z</time>
      </trkpt>
      <trkpt lat="43.41975" lon="6.43545">
        <ele>108.8</ele>
        <time>2023-02-01T16:19:27Z</time>
      </trkpt>
      <trkpt lat="43.41978" lon="6.4355">
        <ele>108.7</ele>
        <time>2023-02-01T16:19:32Z</time>
      </trkpt>
      <trkpt lat="43.41982" lon="6.43551">
        <ele>108.8</ele>
        <time>2023-02-01T16:19:38Z</time>
      </trkpt>
      <trkpt lat="43.41986" lon="6.43552">
        <ele>108.4</ele>
        <time>2023-02-01T16:19:43Z</time>
      </trkpt>
      <trkpt lat="43.4199" lon="6.43551">
        <ele>109.6</ele>
        <time>2023-02-01T16:19:48Z</time>
      </trkpt>
      <trkpt lat="43.41994" lon="6.43552">
        <ele>110.6</ele>
        <time>2023-02-01T16:19:54Z</time>
      </trkpt>
      <trkpt lat="43.41998" lon="6.43552">
        <ele>111.5</ele>
        <time>2023-02-01T16:19:58Z</time>
      </trkpt>
      <trkpt lat="43.42003" lon="6.43554">
        <ele>111.9</ele>
        <time>2023-02-01T16:20:02Z</time>
      </trkpt>
      <trkpt lat="43.42006" lon="6.43555">
        <ele>112.6</ele>
        <time>2023-02-01T16:20:05Z</time>
      </trkpt>
      <trkpt lat="43.42008" lon="6.43559">
        <ele>113.4</ele>
        <time>2023-02-01T16:20:09Z</time>
      </trkpt>
      <trkpt lat="43.42012" lon="6.43562">
        <ele>113.4</ele>
        <time>2023-02-01T16:20:14Z</time>
      </trkpt>
      <trkpt lat="43.42016" lon="6.43564">
        <ele>113.8</ele>
        <time>2023-02-01T16:20:19Z</time>
      </trkpt>
      <trkpt lat="43.42019" lon="6.43567">
        <ele>114.6</ele>
        <time>2023-02-01T16:20:22Z</time>
      </trkpt>
      <trkpt lat="43.42022" lon="6.43568">
        <ele>115.5</ele>
        <time>2023-02-01T16:20:27Z</time>
      </trkpt>
      <trkpt lat="43.42025" lon="6.4357">
        <ele>116.1</ele>
        <time>2023-02-01T16:20:29Z</time>
      </trkpt>
      <trkpt lat="43.42029" lon="6.43571">
        <ele>116.2</ele>
        <time>2023-02-01T16:20:33Z</time>
      </trkpt>
      <trkpt lat="43.42032" lon="6.43571">
        <ele>116.4</ele>
        <time>2023-02-01T16:20:36Z</time>
      </trkpt>
      <trkpt lat="43.42037" lon="6.43572">
        <ele>117.7</ele>
        <time>2023-02-01T16:20:40Z</time>
      </trkpt>
      <trkpt lat="43.4204" lon="6.43575">
        <ele>118.6</ele>
        <time>2023-02-01T16:20:45Z</time>
      </trkpt>
      <trkpt lat="43.42044" lon="6.43578">
        <ele>119.1</ele>
        <time>2023-02-01T16:20:50Z</time>
      </trkpt>
      <trkpt lat="43.42048" lon="6.43579">
        <ele>119.3</ele>
        <time>2023-02-01T16:20:55Z</time>
      </trkpt>
      <trkpt lat="43.42052" lon="6.4358">
        <ele>120</ele>
        <time>2023-02-01T16:20:58Z</time>
      </trkpt>
      <trkpt lat="43.42056" lon="6.4358">
        <ele>120.8</ele>
        <time>2023-02-01T16:21:04Z</time>
      </trkpt>
      <trkpt lat="43.4206" lon="6.43581">
        <ele>121.8</ele>
        <time>2023-02-01T16:21:07Z</time>
      </trkpt>
      <trkpt lat="43.42063" lon="6.4358">
        <ele>122.3</ele>
        <time>2023-02-01T16:21:10Z</time>
      </trkpt>
      <trkpt lat="43.42067" lon="6.4358">
        <ele>122.2</ele>
        <time>2023-02-01T16:21:14Z</time>
      </trkpt>
      <trkpt lat="43.42071" lon="6.43579">
        <ele>122.8</ele>
        <time>2023-02-01T16:21:17Z</time>
      </trkpt>
      <trkpt lat="43.42074" lon="6.43579">
        <ele>123.7</ele>
        <time>2023-02-01T16:21:21Z</time>
      </trkpt>
      <trkpt lat="43.42078" lon="6.43577">
        <ele>124.2</ele>
        <time>2023-02-01T16:21:26Z</time>
      </trkpt>
      <trkpt lat="43.42082" lon="6.43577">
        <ele>125.3</ele>
        <time>2023-02-01T16:21:30Z</time>
      </trkpt>
      <trkpt lat="43.42086" lon="6.4358">
        <ele>125.7</ele>
        <time>2023-02-01T16:21:36Z</time>
      </trkpt>
      <trkpt lat="43.42089" lon="6.43582">
        <ele>125.1</ele>
        <time>2023-02-01T16:21:42Z</time>
      </trkpt>
      <trkpt lat="43.42093" lon="6.43584">
        <ele>124.6</ele>
        <time>2023-02-01T16:21:45Z</time>
      </trkpt>
      <trkpt lat="43.42096" lon="6.43586">
        <ele>124</ele>
        <time>2023-02-01T16:21:49Z</time>
      </trkpt>
      <trkpt lat="43.421" lon="6.43588">
        <ele>123.1</ele>
        <time>2023-02-01T16:21:53Z</time>
      </trkpt>
      <trkpt lat="43.42104" lon="6.4359">
        <ele>122.3</ele>
        <time>2023-02-01T16:21:57Z</time>
      </trkpt>
      <trkpt lat="43.42107" lon="6.43592">
        <ele>121.4</ele>
        <time>2023-02-01T16:22:01Z</time>
      </trkpt>
      <trkpt lat="43.42111" lon="6.43594">
        <ele>120.7</ele>
        <time>2023-02-01T16:22:04Z</time>
      </trkpt>
      <trkpt lat="43.42115" lon="6.43597">
        <ele>119.8</ele>
        <time>2023-02-01T16:22:08Z</time>
      </trkpt>
      <trkpt lat="43.42119" lon="6.43598">
        <ele>118.4</ele>
        <time>2023-02-01T16:22:14Z</time>
      </trkpt>
      <trkpt lat="43.42122" lon="6.436">
        <ele>117.8</ele>
        <time>2023-02-01T16:22:17Z</time>
      </trkpt>
      <trkpt lat="43.42126" lon="6.43601">
        <ele>117.1</ele>
        <time>2023-02-01T16:22:20Z</time>
      </trkpt>
      <trkpt lat="43.4213" lon="6.43604">
        <ele>116.5</ele>
        <time>2023-02-01T16:22:23Z</time>
      </trkpt>
      <trkpt lat="43.42133" lon="6.43607">
        <ele>115.4</ele>
        <time>2023-02-01T16:22:28Z</time>
      </trkpt>
      <trkpt lat="43.42137" lon="6.43609">
        <ele>114.6</ele>
        <time>2023-02-01T16:22:32Z</time>
      </trkpt>
      <trkpt lat="43.42141" lon="6.43611">
        <ele>113.9</ele>
        <time>2023-02-01T16:22:35Z</time>
      </trkpt>
      <trkpt lat="43.42145" lon="6.43614">
        <ele>112.8</ele>
        <time>2023-02-01T16:22:41Z</time>
      </trkpt>
      <trkpt lat="43.42149" lon="6.43616">
        <ele>111.9</ele>
        <time>2023-02-01T16:22:47Z</time>
      </trkpt>
      <trkpt lat="43.42151" lon="6.43621">
        <ele>111.3</ele>
        <time>2023-02-01T16:22:52Z</time>
      </trkpt>
      <trkpt lat="43.42148" lon="6.43624">
        <ele>109.9</ele>
        <time>2023-02-01T16:23:00Z</time>
      </trkpt>
      <trkpt lat="43.42143" lon="6.43625">
        <ele>109</ele>
        <time>2023-02-01T16:23:09Z</time>
      </trkpt>
    </trkseg>
  </trk>
</gpx>